<?xml version="1.0" encoding="UTF-8" standalone="no" ?>
<gpx xmlns="http://www.topografix.com/GPX/1/1" xmlns:xsi="http://www.w3.org/2001/XMLSchema-instance" xsi:schemaLocation="http://www.topografix.com/GPX/1/1 http://www.topografix.com/GPX/1/1/gpx.xsd" version="1.1" creator="VisuGPX - https://www.visugpx.com">
  <metadata>
    <name>91CY02/22 Yerres - Savigny - Saintry 50 km par Jean Luc</name>
    <desc><![CDATA[[img]https://1.bp.blogspot.com/-sLyghmwJxsw/XX5Yo_hbmeI/AAAAAAABnyI/QZg-RxlCf6s3dFnT9w-YORgDcuU3Wb-UACNcBGAsYHQ/s1600/logo-dtour3-ConvertImage.ico[/img]   [b]Rando Club Yerrois[/b]


[img]https://1.bp.blogspot.com/-sLyghmwJxsw/XX5Yo_hbmeI/AAAAAAABnyI/QZg-RxlCf6s3dFnT9w-YORgDcuU3Wb-UACNcBGAsYHQ/s1600/logo-dtour3-ConvertImage.icoo[/img]   [b]Rando Club Yerrois[/b]

[b]Date[/b] :  Mardi 15 Novembre 2022
[b]Animateurs[/b] : Jean Luc
[b]Groupe[/b] : Groupe 55 km allure douce
[b]Effectif[/b] :np


[b]Remarque particulière[/b] : Parcours sans difficultés

[b]Avertissement[/b] Toutes les randonnées répertoriées dans la randothèque du [b]R[/b]ando [b]C[/b]lub [b]Y[/b]errois ont été tracées par l'un de nos animateurs, puis reconnues et enfin effectuées avec un groupe. Pour votre sécurité, regardez toujours la date à laquelle la sortie a été effectuée - Nous tachons de mentionner des conditions météos particulières ou les difficultés éventuelles. N'oubliez jamais les consignes supplémentaires de sécurité.

]]></desc>
  </metadata>
  <trk>
    <name><![CDATA[SityTrail - Savigny le T.15112022]]></name>
    <trkseg>
      <trkpt lat="48.71319" lon="2.48758">
        <ele>45</ele>
        <time>2022-11-15T08:03:47.445Z</time>
      </trkpt>
      <trkpt lat="48.71299" lon="2.48768">
        <ele>45</ele>
        <time>2022-11-15T08:05:00.476Z</time>
      </trkpt>
      <trkpt lat="48.71294" lon="2.48752">
        <ele>45</ele>
        <time>2022-11-15T08:05:05.475Z</time>
      </trkpt>
      <trkpt lat="48.71288" lon="2.48747">
        <ele>44</ele>
        <time>2022-11-15T08:05:09.469Z</time>
      </trkpt>
      <trkpt lat="48.7128" lon="2.48758">
        <ele>44</ele>
        <time>2022-11-15T08:05:14.467Z</time>
      </trkpt>
      <trkpt lat="48.71273" lon="2.48771">
        <ele>44</ele>
        <time>2022-11-15T08:05:19.471Z</time>
      </trkpt>
      <trkpt lat="48.71268" lon="2.48785">
        <ele>44</ele>
        <time>2022-11-15T08:05:24.466Z</time>
      </trkpt>
      <trkpt lat="48.71263" lon="2.48794">
        <ele>45</ele>
        <time>2022-11-15T08:05:28.472Z</time>
      </trkpt>
      <trkpt lat="48.71254" lon="2.48791">
        <ele>45</ele>
        <time>2022-11-15T08:05:33.477Z</time>
      </trkpt>
      <trkpt lat="48.71245" lon="2.48785">
        <ele>45</ele>
        <time>2022-11-15T08:05:38.466Z</time>
      </trkpt>
      <trkpt lat="48.71236" lon="2.48782">
        <ele>46</ele>
        <time>2022-11-15T08:05:42.478Z</time>
      </trkpt>
      <trkpt lat="48.71227" lon="2.48783">
        <ele>46</ele>
        <time>2022-11-15T08:05:47.460Z</time>
      </trkpt>
      <trkpt lat="48.71219" lon="2.48788">
        <ele>46</ele>
        <time>2022-11-15T08:05:51.479Z</time>
      </trkpt>
      <trkpt lat="48.71208" lon="2.48794">
        <ele>46</ele>
        <time>2022-11-15T08:05:56.475Z</time>
      </trkpt>
      <trkpt lat="48.71204" lon="2.48801">
        <ele>46</ele>
        <time>2022-11-15T08:06:01.465Z</time>
      </trkpt>
      <trkpt lat="48.71193" lon="2.48808">
        <ele>46</ele>
        <time>2022-11-15T08:06:06.480Z</time>
      </trkpt>
      <trkpt lat="48.71178" lon="2.48816">
        <ele>47</ele>
        <time>2022-11-15T08:06:11.475Z</time>
      </trkpt>
      <trkpt lat="48.71164" lon="2.48823">
        <ele>47</ele>
        <time>2022-11-15T08:06:16.467Z</time>
      </trkpt>
      <trkpt lat="48.71148" lon="2.48831">
        <ele>49</ele>
        <time>2022-11-15T08:06:21.483Z</time>
      </trkpt>
      <trkpt lat="48.71131" lon="2.48838">
        <ele>49</ele>
        <time>2022-11-15T08:06:26.469Z</time>
      </trkpt>
      <trkpt lat="48.71115" lon="2.48841">
        <ele>49</ele>
        <time>2022-11-15T08:06:31.484Z</time>
      </trkpt>
      <trkpt lat="48.71102" lon="2.48842">
        <ele>49</ele>
        <time>2022-11-15T08:06:35.481Z</time>
      </trkpt>
      <trkpt lat="48.71092" lon="2.48842">
        <ele>48</ele>
        <time>2022-11-15T08:06:40.468Z</time>
      </trkpt>
      <trkpt lat="48.71077" lon="2.48843">
        <ele>48</ele>
        <time>2022-11-15T08:06:45.469Z</time>
      </trkpt>
      <trkpt lat="48.71069" lon="2.48855">
        <ele>49</ele>
        <time>2022-11-15T08:06:49.491Z</time>
      </trkpt>
      <trkpt lat="48.71067" lon="2.48879">
        <ele>50</ele>
        <time>2022-11-15T08:06:54.475Z</time>
      </trkpt>
      <trkpt lat="48.71063" lon="2.48904">
        <ele>50</ele>
        <time>2022-11-15T08:06:59.481Z</time>
      </trkpt>
      <trkpt lat="48.71057" lon="2.48928">
        <ele>50</ele>
        <time>2022-11-15T08:07:04.451Z</time>
      </trkpt>
      <trkpt lat="48.7105" lon="2.48954">
        <ele>50</ele>
        <time>2022-11-15T08:07:09.469Z</time>
      </trkpt>
      <trkpt lat="48.71043" lon="2.48979">
        <ele>50</ele>
        <time>2022-11-15T08:07:14.470Z</time>
      </trkpt>
      <trkpt lat="48.71037" lon="2.49004">
        <ele>50</ele>
        <time>2022-11-15T08:07:19.473Z</time>
      </trkpt>
      <trkpt lat="48.7103" lon="2.49027">
        <ele>50</ele>
        <time>2022-11-15T08:07:24.468Z</time>
      </trkpt>
      <trkpt lat="48.71018" lon="2.49051">
        <ele>50</ele>
        <time>2022-11-15T08:07:29.451Z</time>
      </trkpt>
      <trkpt lat="48.71002" lon="2.49078">
        <ele>48</ele>
        <time>2022-11-15T08:07:34.460Z</time>
      </trkpt>
      <trkpt lat="48.70991" lon="2.49098">
        <ele>47</ele>
        <time>2022-11-15T08:07:38.466Z</time>
      </trkpt>
      <trkpt lat="48.70977" lon="2.4912">
        <ele>47</ele>
        <time>2022-11-15T08:07:43.484Z</time>
      </trkpt>
      <trkpt lat="48.7096" lon="2.49128">
        <ele>47</ele>
        <time>2022-11-15T08:07:48.479Z</time>
      </trkpt>
      <trkpt lat="48.70949" lon="2.49141">
        <ele>49</ele>
        <time>2022-11-15T08:07:53.473Z</time>
      </trkpt>
      <trkpt lat="48.7094" lon="2.4916">
        <ele>49</ele>
        <time>2022-11-15T08:07:58.453Z</time>
      </trkpt>
      <trkpt lat="48.70927" lon="2.49174">
        <ele>49</ele>
        <time>2022-11-15T08:08:03.472Z</time>
      </trkpt>
      <trkpt lat="48.70912" lon="2.49191">
        <ele>49</ele>
        <time>2022-11-15T08:08:08.455Z</time>
      </trkpt>
      <trkpt lat="48.70896" lon="2.49212">
        <ele>47</ele>
        <time>2022-11-15T08:08:13.479Z</time>
      </trkpt>
      <trkpt lat="48.70877" lon="2.4923">
        <ele>47</ele>
        <time>2022-11-15T08:08:18.472Z</time>
      </trkpt>
      <trkpt lat="48.70861" lon="2.4925">
        <ele>45</ele>
        <time>2022-11-15T08:08:23.484Z</time>
      </trkpt>
      <trkpt lat="48.70842" lon="2.4927">
        <ele>44</ele>
        <time>2022-11-15T08:08:28.472Z</time>
      </trkpt>
      <trkpt lat="48.70825" lon="2.49291">
        <ele>44</ele>
        <time>2022-11-15T08:08:33.488Z</time>
      </trkpt>
      <trkpt lat="48.70806" lon="2.49311">
        <ele>43</ele>
        <time>2022-11-15T08:08:38.451Z</time>
      </trkpt>
      <trkpt lat="48.70792" lon="2.49328">
        <ele>43</ele>
        <time>2022-11-15T08:08:42.477Z</time>
      </trkpt>
      <trkpt lat="48.70774" lon="2.49346">
        <ele>42</ele>
        <time>2022-11-15T08:08:47.475Z</time>
      </trkpt>
      <trkpt lat="48.70755" lon="2.49366">
        <ele>42</ele>
        <time>2022-11-15T08:08:52.462Z</time>
      </trkpt>
      <trkpt lat="48.70738" lon="2.49387">
        <ele>42</ele>
        <time>2022-11-15T08:08:57.473Z</time>
      </trkpt>
      <trkpt lat="48.70719" lon="2.49407">
        <ele>43</ele>
        <time>2022-11-15T08:09:02.479Z</time>
      </trkpt>
      <trkpt lat="48.70702" lon="2.49418">
        <ele>44</ele>
        <time>2022-11-15T08:09:07.468Z</time>
      </trkpt>
      <trkpt lat="48.70681" lon="2.49421">
        <ele>44</ele>
        <time>2022-11-15T08:09:12.473Z</time>
      </trkpt>
      <trkpt lat="48.70638" lon="2.49425">
        <ele>50</ele>
        <time>2022-11-15T08:09:31.483Z</time>
      </trkpt>
      <trkpt lat="48.70637" lon="2.49426">
        <ele>50</ele>
        <time>2022-11-15T08:09:36.466Z</time>
      </trkpt>
      <trkpt lat="48.70626" lon="2.49425">
        <ele>50</ele>
        <time>2022-11-15T08:09:41.468Z</time>
      </trkpt>
      <trkpt lat="48.7061" lon="2.49418">
        <ele>50</ele>
        <time>2022-11-15T08:09:46.452Z</time>
      </trkpt>
      <trkpt lat="48.70595" lon="2.4941">
        <ele>48</ele>
        <time>2022-11-15T08:09:50.474Z</time>
      </trkpt>
      <trkpt lat="48.70575" lon="2.49404">
        <ele>48</ele>
        <time>2022-11-15T08:09:55.465Z</time>
      </trkpt>
      <trkpt lat="48.70559" lon="2.49401">
        <ele>48</ele>
        <time>2022-11-15T08:09:59.493Z</time>
      </trkpt>
      <trkpt lat="48.70538" lon="2.49398">
        <ele>49</ele>
        <time>2022-11-15T08:10:04.480Z</time>
      </trkpt>
      <trkpt lat="48.7052" lon="2.49394">
        <ele>49</ele>
        <time>2022-11-15T08:10:08.489Z</time>
      </trkpt>
      <trkpt lat="48.70497" lon="2.49391">
        <ele>46</ele>
        <time>2022-11-15T08:10:13.486Z</time>
      </trkpt>
      <trkpt lat="48.70473" lon="2.49385">
        <ele>41</ele>
        <time>2022-11-15T08:10:18.489Z</time>
      </trkpt>
      <trkpt lat="48.70444" lon="2.4938">
        <ele>41</ele>
        <time>2022-11-15T08:10:23.503Z</time>
      </trkpt>
      <trkpt lat="48.70412" lon="2.49374">
        <ele>44</ele>
        <time>2022-11-15T08:10:28.468Z</time>
      </trkpt>
      <trkpt lat="48.70382" lon="2.49368">
        <ele>44</ele>
        <time>2022-11-15T08:10:33.482Z</time>
      </trkpt>
      <trkpt lat="48.70354" lon="2.49362">
        <ele>42</ele>
        <time>2022-11-15T08:10:38.595Z</time>
      </trkpt>
      <trkpt lat="48.70326" lon="2.49357">
        <ele>41</ele>
        <time>2022-11-15T08:10:43.479Z</time>
      </trkpt>
      <trkpt lat="48.70297" lon="2.49349">
        <ele>41</ele>
        <time>2022-11-15T08:10:48.481Z</time>
      </trkpt>
      <trkpt lat="48.7027" lon="2.49343">
        <ele>40</ele>
        <time>2022-11-15T08:10:53.458Z</time>
      </trkpt>
      <trkpt lat="48.70245" lon="2.49335">
        <ele>41</ele>
        <time>2022-11-15T08:10:58.479Z</time>
      </trkpt>
      <trkpt lat="48.70224" lon="2.49332">
        <ele>42</ele>
        <time>2022-11-15T08:11:03.495Z</time>
      </trkpt>
      <trkpt lat="48.70202" lon="2.49333">
        <ele>42</ele>
        <time>2022-11-15T08:11:08.479Z</time>
      </trkpt>
      <trkpt lat="48.7018" lon="2.49343">
        <ele>39</ele>
        <time>2022-11-15T08:11:13.486Z</time>
      </trkpt>
      <trkpt lat="48.70161" lon="2.49348">
        <ele>39</ele>
        <time>2022-11-15T08:11:18.489Z</time>
      </trkpt>
      <trkpt lat="48.70144" lon="2.4935">
        <ele>38</ele>
        <time>2022-11-15T08:11:23.489Z</time>
      </trkpt>
      <trkpt lat="48.70129" lon="2.49352">
        <ele>38</ele>
        <time>2022-11-15T08:11:28.492Z</time>
      </trkpt>
      <trkpt lat="48.70113" lon="2.49355">
        <ele>39</ele>
        <time>2022-11-15T08:11:33.485Z</time>
      </trkpt>
      <trkpt lat="48.70094" lon="2.49358">
        <ele>39</ele>
        <time>2022-11-15T08:11:38.486Z</time>
      </trkpt>
      <trkpt lat="48.70074" lon="2.4936">
        <ele>39</ele>
        <time>2022-11-15T08:11:43.480Z</time>
      </trkpt>
      <trkpt lat="48.70055" lon="2.49362">
        <ele>39</ele>
        <time>2022-11-15T08:11:48.480Z</time>
      </trkpt>
      <trkpt lat="48.70036" lon="2.49364">
        <ele>39</ele>
        <time>2022-11-15T08:11:53.462Z</time>
      </trkpt>
      <trkpt lat="48.70015" lon="2.49366">
        <ele>39</ele>
        <time>2022-11-15T08:11:58.486Z</time>
      </trkpt>
      <trkpt lat="48.69994" lon="2.49369">
        <ele>39</ele>
        <time>2022-11-15T08:12:03.492Z</time>
      </trkpt>
      <trkpt lat="48.69975" lon="2.4937">
        <ele>41</ele>
        <time>2022-11-15T08:12:08.461Z</time>
      </trkpt>
      <trkpt lat="48.69943" lon="2.49389">
        <ele>45</ele>
        <time>2022-11-15T08:12:41.482Z</time>
      </trkpt>
      <trkpt lat="48.69942" lon="2.49391">
        <ele>45</ele>
        <time>2022-11-15T08:12:45.490Z</time>
      </trkpt>
      <trkpt lat="48.69936" lon="2.49397">
        <ele>45</ele>
        <time>2022-11-15T08:12:50.486Z</time>
      </trkpt>
      <trkpt lat="48.69927" lon="2.49403">
        <ele>44</ele>
        <time>2022-11-15T08:12:54.533Z</time>
      </trkpt>
      <trkpt lat="48.69913" lon="2.49413">
        <ele>44</ele>
        <time>2022-11-15T08:12:59.497Z</time>
      </trkpt>
      <trkpt lat="48.69899" lon="2.49427">
        <ele>43</ele>
        <time>2022-11-15T08:13:04.499Z</time>
      </trkpt>
      <trkpt lat="48.69882" lon="2.49446">
        <ele>43</ele>
        <time>2022-11-15T08:13:09.486Z</time>
      </trkpt>
      <trkpt lat="48.69867" lon="2.49468">
        <ele>43</ele>
        <time>2022-11-15T08:13:14.487Z</time>
      </trkpt>
      <trkpt lat="48.69852" lon="2.49492">
        <ele>41</ele>
        <time>2022-11-15T08:13:19.482Z</time>
      </trkpt>
      <trkpt lat="48.69841" lon="2.4951">
        <ele>41</ele>
        <time>2022-11-15T08:13:23.494Z</time>
      </trkpt>
      <trkpt lat="48.69828" lon="2.49531">
        <ele>41</ele>
        <time>2022-11-15T08:13:28.484Z</time>
      </trkpt>
      <trkpt lat="48.69816" lon="2.49548">
        <ele>40</ele>
        <time>2022-11-15T08:13:32.502Z</time>
      </trkpt>
      <trkpt lat="48.69805" lon="2.49565">
        <ele>40</ele>
        <time>2022-11-15T08:13:36.491Z</time>
      </trkpt>
      <trkpt lat="48.69792" lon="2.49589">
        <ele>40</ele>
        <time>2022-11-15T08:13:41.494Z</time>
      </trkpt>
      <trkpt lat="48.69778" lon="2.49612">
        <ele>40</ele>
        <time>2022-11-15T08:13:46.463Z</time>
      </trkpt>
      <trkpt lat="48.69764" lon="2.49628">
        <ele>39</ele>
        <time>2022-11-15T08:13:50.479Z</time>
      </trkpt>
      <trkpt lat="48.69757" lon="2.49648">
        <ele>37</ele>
        <time>2022-11-15T08:13:54.494Z</time>
      </trkpt>
      <trkpt lat="48.69745" lon="2.49672">
        <ele>38</ele>
        <time>2022-11-15T08:13:59.485Z</time>
      </trkpt>
      <trkpt lat="48.69733" lon="2.49691">
        <ele>39</ele>
        <time>2022-11-15T08:14:03.490Z</time>
      </trkpt>
      <trkpt lat="48.6972" lon="2.49715">
        <ele>40</ele>
        <time>2022-11-15T08:14:08.481Z</time>
      </trkpt>
      <trkpt lat="48.69708" lon="2.49733">
        <ele>40</ele>
        <time>2022-11-15T08:14:12.491Z</time>
      </trkpt>
      <trkpt lat="48.69694" lon="2.49755">
        <ele>39</ele>
        <time>2022-11-15T08:14:17.486Z</time>
      </trkpt>
      <trkpt lat="48.69682" lon="2.49777">
        <ele>39</ele>
        <time>2022-11-15T08:14:22.488Z</time>
      </trkpt>
      <trkpt lat="48.69668" lon="2.49801">
        <ele>40</ele>
        <time>2022-11-15T08:14:27.489Z</time>
      </trkpt>
      <trkpt lat="48.69653" lon="2.49818">
        <ele>40</ele>
        <time>2022-11-15T08:14:32.476Z</time>
      </trkpt>
      <trkpt lat="48.69641" lon="2.49823">
        <ele>45</ele>
        <time>2022-11-15T08:14:37.477Z</time>
      </trkpt>
      <trkpt lat="48.69638" lon="2.49831">
        <ele>45</ele>
        <time>2022-11-15T08:14:42.477Z</time>
      </trkpt>
      <trkpt lat="48.69635" lon="2.49843">
        <ele>45</ele>
        <time>2022-11-15T08:14:46.492Z</time>
      </trkpt>
      <trkpt lat="48.69626" lon="2.49866">
        <ele>45</ele>
        <time>2022-11-15T08:14:51.490Z</time>
      </trkpt>
      <trkpt lat="48.69616" lon="2.49892">
        <ele>45</ele>
        <time>2022-11-15T08:14:56.490Z</time>
      </trkpt>
      <trkpt lat="48.69606" lon="2.49915">
        <ele>44</ele>
        <time>2022-11-15T08:15:01.480Z</time>
      </trkpt>
      <trkpt lat="48.69594" lon="2.4994">
        <ele>48</ele>
        <time>2022-11-15T08:15:06.473Z</time>
      </trkpt>
      <trkpt lat="48.69584" lon="2.49967">
        <ele>46</ele>
        <time>2022-11-15T08:15:11.482Z</time>
      </trkpt>
      <trkpt lat="48.69572" lon="2.49993">
        <ele>44</ele>
        <time>2022-11-15T08:15:16.488Z</time>
      </trkpt>
      <trkpt lat="48.6956" lon="2.50017">
        <ele>44</ele>
        <time>2022-11-15T08:15:21.478Z</time>
      </trkpt>
      <trkpt lat="48.6955" lon="2.50041">
        <ele>44</ele>
        <time>2022-11-15T08:15:26.488Z</time>
      </trkpt>
      <trkpt lat="48.69538" lon="2.50066">
        <ele>46</ele>
        <time>2022-11-15T08:15:31.479Z</time>
      </trkpt>
      <trkpt lat="48.69527" lon="2.50091">
        <ele>46</ele>
        <time>2022-11-15T08:15:36.470Z</time>
      </trkpt>
      <trkpt lat="48.69515" lon="2.5012">
        <ele>45</ele>
        <time>2022-11-15T08:15:41.479Z</time>
      </trkpt>
      <trkpt lat="48.69505" lon="2.50144">
        <ele>44</ele>
        <time>2022-11-15T08:15:46.483Z</time>
      </trkpt>
      <trkpt lat="48.69494" lon="2.50168">
        <ele>43</ele>
        <time>2022-11-15T08:15:51.490Z</time>
      </trkpt>
      <trkpt lat="48.69485" lon="2.50193">
        <ele>43</ele>
        <time>2022-11-15T08:15:56.486Z</time>
      </trkpt>
      <trkpt lat="48.69477" lon="2.50212">
        <ele>42</ele>
        <time>2022-11-15T08:16:00.493Z</time>
      </trkpt>
      <trkpt lat="48.69466" lon="2.50233">
        <ele>42</ele>
        <time>2022-11-15T08:16:05.487Z</time>
      </trkpt>
      <trkpt lat="48.6946" lon="2.50256">
        <ele>43</ele>
        <time>2022-11-15T08:16:09.493Z</time>
      </trkpt>
      <trkpt lat="48.69455" lon="2.50281">
        <ele>45</ele>
        <time>2022-11-15T08:16:14.478Z</time>
      </trkpt>
      <trkpt lat="48.6945" lon="2.503">
        <ele>46</ele>
        <time>2022-11-15T08:16:18.477Z</time>
      </trkpt>
      <trkpt lat="48.69445" lon="2.50324">
        <ele>45</ele>
        <time>2022-11-15T08:16:23.494Z</time>
      </trkpt>
      <trkpt lat="48.69437" lon="2.50353">
        <ele>43</ele>
        <time>2022-11-15T08:16:28.499Z</time>
      </trkpt>
      <trkpt lat="48.69433" lon="2.50379">
        <ele>42</ele>
        <time>2022-11-15T08:16:33.489Z</time>
      </trkpt>
      <trkpt lat="48.69429" lon="2.50409">
        <ele>45</ele>
        <time>2022-11-15T08:16:38.482Z</time>
      </trkpt>
      <trkpt lat="48.69426" lon="2.5044">
        <ele>45</ele>
        <time>2022-11-15T08:16:43.460Z</time>
      </trkpt>
      <trkpt lat="48.69425" lon="2.50463">
        <ele>45</ele>
        <time>2022-11-15T08:16:47.479Z</time>
      </trkpt>
      <trkpt lat="48.69427" lon="2.50489">
        <ele>45</ele>
        <time>2022-11-15T08:16:52.476Z</time>
      </trkpt>
      <trkpt lat="48.69425" lon="2.50514">
        <ele>45</ele>
        <time>2022-11-15T08:16:57.484Z</time>
      </trkpt>
      <trkpt lat="48.69424" lon="2.50536">
        <ele>45</ele>
        <time>2022-11-15T08:17:01.603Z</time>
      </trkpt>
      <trkpt lat="48.69424" lon="2.50559">
        <ele>44</ele>
        <time>2022-11-15T08:17:05.610Z</time>
      </trkpt>
      <trkpt lat="48.69422" lon="2.50591">
        <ele>43</ele>
        <time>2022-11-15T08:17:10.494Z</time>
      </trkpt>
      <trkpt lat="48.69422" lon="2.50625">
        <ele>45</ele>
        <time>2022-11-15T08:17:15.481Z</time>
      </trkpt>
      <trkpt lat="48.69422" lon="2.50656">
        <ele>46</ele>
        <time>2022-11-15T08:17:20.487Z</time>
      </trkpt>
      <trkpt lat="48.69421" lon="2.50679">
        <ele>46</ele>
        <time>2022-11-15T08:17:24.558Z</time>
      </trkpt>
      <trkpt lat="48.6942" lon="2.50706">
        <ele>47</ele>
        <time>2022-11-15T08:17:29.481Z</time>
      </trkpt>
      <trkpt lat="48.6942" lon="2.50733">
        <ele>46</ele>
        <time>2022-11-15T08:17:34.485Z</time>
      </trkpt>
      <trkpt lat="48.69419" lon="2.50761">
        <ele>46</ele>
        <time>2022-11-15T08:17:39.473Z</time>
      </trkpt>
      <trkpt lat="48.69417" lon="2.50789">
        <ele>46</ele>
        <time>2022-11-15T08:17:44.478Z</time>
      </trkpt>
      <trkpt lat="48.69413" lon="2.50815">
        <ele>45</ele>
        <time>2022-11-15T08:17:49.488Z</time>
      </trkpt>
      <trkpt lat="48.69409" lon="2.50835">
        <ele>44</ele>
        <time>2022-11-15T08:17:54.482Z</time>
      </trkpt>
      <trkpt lat="48.69409" lon="2.50855">
        <ele>44</ele>
        <time>2022-11-15T08:17:59.477Z</time>
      </trkpt>
      <trkpt lat="48.69405" lon="2.50874">
        <ele>44</ele>
        <time>2022-11-15T08:18:04.491Z</time>
      </trkpt>
      <trkpt lat="48.69398" lon="2.50893">
        <ele>49</ele>
        <time>2022-11-15T08:18:24.483Z</time>
      </trkpt>
      <trkpt lat="48.69396" lon="2.50909">
        <ele>49</ele>
        <time>2022-11-15T08:18:29.474Z</time>
      </trkpt>
      <trkpt lat="48.69392" lon="2.5094">
        <ele>49</ele>
        <time>2022-11-15T08:18:34.489Z</time>
      </trkpt>
      <trkpt lat="48.69389" lon="2.50968">
        <ele>49</ele>
        <time>2022-11-15T08:18:38.484Z</time>
      </trkpt>
      <trkpt lat="48.69388" lon="2.51003">
        <ele>48</ele>
        <time>2022-11-15T08:18:43.481Z</time>
      </trkpt>
      <trkpt lat="48.69388" lon="2.51037">
        <ele>48</ele>
        <time>2022-11-15T08:18:48.485Z</time>
      </trkpt>
      <trkpt lat="48.69387" lon="2.51061">
        <ele>48</ele>
        <time>2022-11-15T08:18:52.483Z</time>
      </trkpt>
      <trkpt lat="48.69389" lon="2.51088">
        <ele>50</ele>
        <time>2022-11-15T08:18:57.469Z</time>
      </trkpt>
      <trkpt lat="48.69393" lon="2.5111">
        <ele>53</ele>
        <time>2022-11-15T08:19:01.479Z</time>
      </trkpt>
      <trkpt lat="48.694" lon="2.51137">
        <ele>56</ele>
        <time>2022-11-15T08:19:06.475Z</time>
      </trkpt>
      <trkpt lat="48.69411" lon="2.51166">
        <ele>53</ele>
        <time>2022-11-15T08:19:11.604Z</time>
      </trkpt>
      <trkpt lat="48.69418" lon="2.51194">
        <ele>52</ele>
        <time>2022-11-15T08:19:16.484Z</time>
      </trkpt>
      <trkpt lat="48.69429" lon="2.51227">
        <ele>52</ele>
        <time>2022-11-15T08:19:21.596Z</time>
      </trkpt>
      <trkpt lat="48.69443" lon="2.51258">
        <ele>45</ele>
        <time>2022-11-15T08:19:26.482Z</time>
      </trkpt>
      <trkpt lat="48.69456" lon="2.51288">
        <ele>46</ele>
        <time>2022-11-15T08:19:31.607Z</time>
      </trkpt>
      <trkpt lat="48.6947" lon="2.51317">
        <ele>46</ele>
        <time>2022-11-15T08:19:36.473Z</time>
      </trkpt>
      <trkpt lat="48.69471" lon="2.51349">
        <ele>49</ele>
        <time>2022-11-15T08:19:41.482Z</time>
      </trkpt>
      <trkpt lat="48.69468" lon="2.51379">
        <ele>49</ele>
        <time>2022-11-15T08:19:46.599Z</time>
      </trkpt>
      <trkpt lat="48.69466" lon="2.51406">
        <ele>49</ele>
        <time>2022-11-15T08:19:51.476Z</time>
      </trkpt>
      <trkpt lat="48.69465" lon="2.51427">
        <ele>49</ele>
        <time>2022-11-15T08:19:55.598Z</time>
      </trkpt>
      <trkpt lat="48.69465" lon="2.51451">
        <ele>51</ele>
        <time>2022-11-15T08:20:00.486Z</time>
      </trkpt>
      <trkpt lat="48.69462" lon="2.51471">
        <ele>53</ele>
        <time>2022-11-15T08:20:05.460Z</time>
      </trkpt>
      <trkpt lat="48.6946" lon="2.51489">
        <ele>55</ele>
        <time>2022-11-15T08:20:10.481Z</time>
      </trkpt>
      <trkpt lat="48.69455" lon="2.51505">
        <ele>54</ele>
        <time>2022-11-15T08:20:15.605Z</time>
      </trkpt>
      <trkpt lat="48.69443" lon="2.51511">
        <ele>54</ele>
        <time>2022-11-15T08:20:20.588Z</time>
      </trkpt>
      <trkpt lat="48.6943" lon="2.51516">
        <ele>57</ele>
        <time>2022-11-15T08:20:25.477Z</time>
      </trkpt>
      <trkpt lat="48.69417" lon="2.51521">
        <ele>57</ele>
        <time>2022-11-15T08:20:30.487Z</time>
      </trkpt>
      <trkpt lat="48.69403" lon="2.51524">
        <ele>57</ele>
        <time>2022-11-15T08:20:35.615Z</time>
      </trkpt>
      <trkpt lat="48.6939" lon="2.5153">
        <ele>58</ele>
        <time>2022-11-15T08:20:40.482Z</time>
      </trkpt>
      <trkpt lat="48.69377" lon="2.51536">
        <ele>58</ele>
        <time>2022-11-15T08:20:45.496Z</time>
      </trkpt>
      <trkpt lat="48.69364" lon="2.51537">
        <ele>59</ele>
        <time>2022-11-15T08:20:50.483Z</time>
      </trkpt>
      <trkpt lat="48.69353" lon="2.51532">
        <ele>59</ele>
        <time>2022-11-15T08:20:54.593Z</time>
      </trkpt>
      <trkpt lat="48.69342" lon="2.51526">
        <ele>60</ele>
        <time>2022-11-15T08:20:59.490Z</time>
      </trkpt>
      <trkpt lat="48.69332" lon="2.51517">
        <ele>60</ele>
        <time>2022-11-15T08:21:04.481Z</time>
      </trkpt>
      <trkpt lat="48.6932" lon="2.51511">
        <ele>60</ele>
        <time>2022-11-15T08:21:09.487Z</time>
      </trkpt>
      <trkpt lat="48.6931" lon="2.51505">
        <ele>63</ele>
        <time>2022-11-15T08:21:13.486Z</time>
      </trkpt>
      <trkpt lat="48.69298" lon="2.515">
        <ele>63</ele>
        <time>2022-11-15T08:21:18.490Z</time>
      </trkpt>
      <trkpt lat="48.69288" lon="2.51496">
        <ele>66</ele>
        <time>2022-11-15T08:21:22.491Z</time>
      </trkpt>
      <trkpt lat="48.69278" lon="2.51494">
        <ele>66</ele>
        <time>2022-11-15T08:21:27.471Z</time>
      </trkpt>
      <trkpt lat="48.69269" lon="2.51493">
        <ele>66</ele>
        <time>2022-11-15T08:21:31.469Z</time>
      </trkpt>
      <trkpt lat="48.69259" lon="2.51491">
        <ele>68</ele>
        <time>2022-11-15T08:21:36.484Z</time>
      </trkpt>
      <trkpt lat="48.69249" lon="2.51488">
        <ele>68</ele>
        <time>2022-11-15T08:21:41.505Z</time>
      </trkpt>
      <trkpt lat="48.69238" lon="2.51481">
        <ele>68</ele>
        <time>2022-11-15T08:21:46.483Z</time>
      </trkpt>
      <trkpt lat="48.69227" lon="2.51472">
        <ele>69</ele>
        <time>2022-11-15T08:21:51.479Z</time>
      </trkpt>
      <trkpt lat="48.69216" lon="2.51464">
        <ele>69</ele>
        <time>2022-11-15T08:21:56.486Z</time>
      </trkpt>
      <trkpt lat="48.69206" lon="2.51456">
        <ele>68</ele>
        <time>2022-11-15T08:22:01.493Z</time>
      </trkpt>
      <trkpt lat="48.69194" lon="2.51445">
        <ele>68</ele>
        <time>2022-11-15T08:22:06.482Z</time>
      </trkpt>
      <trkpt lat="48.69184" lon="2.51439">
        <ele>68</ele>
        <time>2022-11-15T08:22:11.483Z</time>
      </trkpt>
      <trkpt lat="48.69175" lon="2.5143">
        <ele>67</ele>
        <time>2022-11-15T08:22:16.467Z</time>
      </trkpt>
      <trkpt lat="48.69164" lon="2.51419">
        <ele>67</ele>
        <time>2022-11-15T08:22:21.463Z</time>
      </trkpt>
      <trkpt lat="48.69152" lon="2.51409">
        <ele>69</ele>
        <time>2022-11-15T08:22:26.479Z</time>
      </trkpt>
      <trkpt lat="48.6914" lon="2.51399">
        <ele>72</ele>
        <time>2022-11-15T08:22:31.481Z</time>
      </trkpt>
      <trkpt lat="48.69128" lon="2.51391">
        <ele>72</ele>
        <time>2022-11-15T08:22:36.491Z</time>
      </trkpt>
      <trkpt lat="48.69116" lon="2.51392">
        <ele>74</ele>
        <time>2022-11-15T08:22:41.491Z</time>
      </trkpt>
      <trkpt lat="48.69103" lon="2.51398">
        <ele>74</ele>
        <time>2022-11-15T08:22:46.496Z</time>
      </trkpt>
      <trkpt lat="48.69091" lon="2.514">
        <ele>75</ele>
        <time>2022-11-15T08:22:51.487Z</time>
      </trkpt>
      <trkpt lat="48.69079" lon="2.51394">
        <ele>75</ele>
        <time>2022-11-15T08:22:56.470Z</time>
      </trkpt>
      <trkpt lat="48.69067" lon="2.5139">
        <ele>75</ele>
        <time>2022-11-15T08:23:01.477Z</time>
      </trkpt>
      <trkpt lat="48.69055" lon="2.51386">
        <ele>75</ele>
        <time>2022-11-15T08:23:06.491Z</time>
      </trkpt>
      <trkpt lat="48.69042" lon="2.5138">
        <ele>75</ele>
        <time>2022-11-15T08:23:11.481Z</time>
      </trkpt>
      <trkpt lat="48.6903" lon="2.51373">
        <ele>76</ele>
        <time>2022-11-15T08:23:16.476Z</time>
      </trkpt>
      <trkpt lat="48.6902" lon="2.51369">
        <ele>76</ele>
        <time>2022-11-15T08:23:20.487Z</time>
      </trkpt>
      <trkpt lat="48.69009" lon="2.51363">
        <ele>77</ele>
        <time>2022-11-15T08:23:25.486Z</time>
      </trkpt>
      <trkpt lat="48.68998" lon="2.51356">
        <ele>77</ele>
        <time>2022-11-15T08:23:30.489Z</time>
      </trkpt>
      <trkpt lat="48.68989" lon="2.51355">
        <ele>77</ele>
        <time>2022-11-15T08:23:35.472Z</time>
      </trkpt>
      <trkpt lat="48.68977" lon="2.5135">
        <ele>78</ele>
        <time>2022-11-15T08:23:40.461Z</time>
      </trkpt>
      <trkpt lat="48.68966" lon="2.51346">
        <ele>79</ele>
        <time>2022-11-15T08:23:44.485Z</time>
      </trkpt>
      <trkpt lat="48.68954" lon="2.51341">
        <ele>80</ele>
        <time>2022-11-15T08:23:49.483Z</time>
      </trkpt>
      <trkpt lat="48.68944" lon="2.51338">
        <ele>80</ele>
        <time>2022-11-15T08:23:54.485Z</time>
      </trkpt>
      <trkpt lat="48.68939" lon="2.51333">
        <ele>80</ele>
        <time>2022-11-15T08:23:58.486Z</time>
      </trkpt>
      <trkpt lat="48.68928" lon="2.51328">
        <ele>79</ele>
        <time>2022-11-15T08:24:03.493Z</time>
      </trkpt>
      <trkpt lat="48.68918" lon="2.51322">
        <ele>79</ele>
        <time>2022-11-15T08:24:08.490Z</time>
      </trkpt>
      <trkpt lat="48.6891" lon="2.51316">
        <ele>79</ele>
        <time>2022-11-15T08:24:13.466Z</time>
      </trkpt>
      <trkpt lat="48.68906" lon="2.51319">
        <ele>79</ele>
        <time>2022-11-15T08:24:38.498Z</time>
      </trkpt>
      <trkpt lat="48.68905" lon="2.51322">
        <ele>79</ele>
        <time>2022-11-15T08:25:01.466Z</time>
      </trkpt>
      <trkpt lat="48.68904" lon="2.51322">
        <ele>79</ele>
        <time>2022-11-15T08:25:06.485Z</time>
      </trkpt>
      <trkpt lat="48.68903" lon="2.51319">
        <ele>79</ele>
        <time>2022-11-15T08:25:11.481Z</time>
      </trkpt>
      <trkpt lat="48.68897" lon="2.51315">
        <ele>80</ele>
        <time>2022-11-15T08:25:15.488Z</time>
      </trkpt>
      <trkpt lat="48.68884" lon="2.51312">
        <ele>80</ele>
        <time>2022-11-15T08:25:20.482Z</time>
      </trkpt>
      <trkpt lat="48.68869" lon="2.51306">
        <ele>81</ele>
        <time>2022-11-15T08:25:25.487Z</time>
      </trkpt>
      <trkpt lat="48.68858" lon="2.51299">
        <ele>81</ele>
        <time>2022-11-15T08:25:29.489Z</time>
      </trkpt>
      <trkpt lat="48.68845" lon="2.51289">
        <ele>82</ele>
        <time>2022-11-15T08:25:34.477Z</time>
      </trkpt>
      <trkpt lat="48.68832" lon="2.5128">
        <ele>82</ele>
        <time>2022-11-15T08:25:39.470Z</time>
      </trkpt>
      <trkpt lat="48.6882" lon="2.5127">
        <ele>82</ele>
        <time>2022-11-15T08:25:43.483Z</time>
      </trkpt>
      <trkpt lat="48.68809" lon="2.51262">
        <ele>82</ele>
        <time>2022-11-15T08:25:47.494Z</time>
      </trkpt>
      <trkpt lat="48.68792" lon="2.51246">
        <ele>82</ele>
        <time>2022-11-15T08:25:52.489Z</time>
      </trkpt>
      <trkpt lat="48.68773" lon="2.51231">
        <ele>84</ele>
        <time>2022-11-15T08:25:57.487Z</time>
      </trkpt>
      <trkpt lat="48.6876" lon="2.51219">
        <ele>84</ele>
        <time>2022-11-15T08:26:01.482Z</time>
      </trkpt>
      <trkpt lat="48.6874" lon="2.51206">
        <ele>87</ele>
        <time>2022-11-15T08:26:06.487Z</time>
      </trkpt>
      <trkpt lat="48.68723" lon="2.51195">
        <ele>88</ele>
        <time>2022-11-15T08:26:11.479Z</time>
      </trkpt>
      <trkpt lat="48.68704" lon="2.51184">
        <ele>88</ele>
        <time>2022-11-15T08:26:16.479Z</time>
      </trkpt>
      <trkpt lat="48.68684" lon="2.51175">
        <ele>91</ele>
        <time>2022-11-15T08:26:21.469Z</time>
      </trkpt>
      <trkpt lat="48.68664" lon="2.51165">
        <ele>91</ele>
        <time>2022-11-15T08:26:26.483Z</time>
      </trkpt>
      <trkpt lat="48.6865" lon="2.51158">
        <ele>91</ele>
        <time>2022-11-15T08:26:30.494Z</time>
      </trkpt>
      <trkpt lat="48.68622" lon="2.51145">
        <ele>88</ele>
        <time>2022-11-15T08:26:49.494Z</time>
      </trkpt>
      <trkpt lat="48.6862" lon="2.51145">
        <ele>88</ele>
        <time>2022-11-15T08:26:59.470Z</time>
      </trkpt>
      <trkpt lat="48.68615" lon="2.51149">
        <ele>88</ele>
        <time>2022-11-15T08:27:04.479Z</time>
      </trkpt>
      <trkpt lat="48.68607" lon="2.51174">
        <ele>89</ele>
        <time>2022-11-15T08:27:09.486Z</time>
      </trkpt>
      <trkpt lat="48.68598" lon="2.51201">
        <ele>92</ele>
        <time>2022-11-15T08:27:14.464Z</time>
      </trkpt>
      <trkpt lat="48.68591" lon="2.51228">
        <ele>93</ele>
        <time>2022-11-15T08:27:19.486Z</time>
      </trkpt>
      <trkpt lat="48.68583" lon="2.51256">
        <ele>94</ele>
        <time>2022-11-15T08:27:24.480Z</time>
      </trkpt>
      <trkpt lat="48.68576" lon="2.5128">
        <ele>94</ele>
        <time>2022-11-15T08:27:29.471Z</time>
      </trkpt>
      <trkpt lat="48.68561" lon="2.51286">
        <ele>95</ele>
        <time>2022-11-15T08:27:34.491Z</time>
      </trkpt>
      <trkpt lat="48.6855" lon="2.51301">
        <ele>95</ele>
        <time>2022-11-15T08:27:39.491Z</time>
      </trkpt>
      <trkpt lat="48.68543" lon="2.51323">
        <ele>94</ele>
        <time>2022-11-15T08:27:44.469Z</time>
      </trkpt>
      <trkpt lat="48.68537" lon="2.51335">
        <ele>96</ele>
        <time>2022-11-15T08:27:48.472Z</time>
      </trkpt>
      <trkpt lat="48.6853" lon="2.51343">
        <ele>96</ele>
        <time>2022-11-15T08:27:53.474Z</time>
      </trkpt>
      <trkpt lat="48.68519" lon="2.51355">
        <ele>94</ele>
        <time>2022-11-15T08:27:58.487Z</time>
      </trkpt>
      <trkpt lat="48.68511" lon="2.51366">
        <ele>95</ele>
        <time>2022-11-15T08:28:03.489Z</time>
      </trkpt>
      <trkpt lat="48.68501" lon="2.51374">
        <ele>95</ele>
        <time>2022-11-15T08:28:07.493Z</time>
      </trkpt>
      <trkpt lat="48.68483" lon="2.51381">
        <ele>95</ele>
        <time>2022-11-15T08:28:12.487Z</time>
      </trkpt>
      <trkpt lat="48.68467" lon="2.51378">
        <ele>95</ele>
        <time>2022-11-15T08:28:17.484Z</time>
      </trkpt>
      <trkpt lat="48.68448" lon="2.51376">
        <ele>92</ele>
        <time>2022-11-15T08:28:22.493Z</time>
      </trkpt>
      <trkpt lat="48.68431" lon="2.51374">
        <ele>92</ele>
        <time>2022-11-15T08:28:27.474Z</time>
      </trkpt>
      <trkpt lat="48.68413" lon="2.51368">
        <ele>91</ele>
        <time>2022-11-15T08:28:32.480Z</time>
      </trkpt>
      <trkpt lat="48.68396" lon="2.51364">
        <ele>90</ele>
        <time>2022-11-15T08:28:37.472Z</time>
      </trkpt>
      <trkpt lat="48.68378" lon="2.5136">
        <ele>90</ele>
        <time>2022-11-15T08:28:42.485Z</time>
      </trkpt>
      <trkpt lat="48.68362" lon="2.51356">
        <ele>90</ele>
        <time>2022-11-15T08:28:47.475Z</time>
      </trkpt>
      <trkpt lat="48.68342" lon="2.51353">
        <ele>92</ele>
        <time>2022-11-15T08:28:52.479Z</time>
      </trkpt>
      <trkpt lat="48.68322" lon="2.51348">
        <ele>92</ele>
        <time>2022-11-15T08:28:57.488Z</time>
      </trkpt>
      <trkpt lat="48.68306" lon="2.51347">
        <ele>95</ele>
        <time>2022-11-15T08:29:02.472Z</time>
      </trkpt>
      <trkpt lat="48.68294" lon="2.51345">
        <ele>95</ele>
        <time>2022-11-15T08:29:06.478Z</time>
      </trkpt>
      <trkpt lat="48.68278" lon="2.51341">
        <ele>96</ele>
        <time>2022-11-15T08:29:11.482Z</time>
      </trkpt>
      <trkpt lat="48.6826" lon="2.51339">
        <ele>95</ele>
        <time>2022-11-15T08:29:16.470Z</time>
      </trkpt>
      <trkpt lat="48.68243" lon="2.51334">
        <ele>95</ele>
        <time>2022-11-15T08:29:21.488Z</time>
      </trkpt>
      <trkpt lat="48.68226" lon="2.5133">
        <ele>92</ele>
        <time>2022-11-15T08:29:26.485Z</time>
      </trkpt>
      <trkpt lat="48.6821" lon="2.51327">
        <ele>92</ele>
        <time>2022-11-15T08:29:31.485Z</time>
      </trkpt>
      <trkpt lat="48.68193" lon="2.51322">
        <ele>90</ele>
        <time>2022-11-15T08:29:36.491Z</time>
      </trkpt>
      <trkpt lat="48.68175" lon="2.51318">
        <ele>92</ele>
        <time>2022-11-15T08:29:41.488Z</time>
      </trkpt>
      <trkpt lat="48.68162" lon="2.51315">
        <ele>92</ele>
        <time>2022-11-15T08:29:46.482Z</time>
      </trkpt>
      <trkpt lat="48.68146" lon="2.51312">
        <ele>92</ele>
        <time>2022-11-15T08:29:51.496Z</time>
      </trkpt>
      <trkpt lat="48.68128" lon="2.51309">
        <ele>92</ele>
        <time>2022-11-15T08:29:56.470Z</time>
      </trkpt>
      <trkpt lat="48.68111" lon="2.51304">
        <ele>95</ele>
        <time>2022-11-15T08:30:01.465Z</time>
      </trkpt>
      <trkpt lat="48.68096" lon="2.51303">
        <ele>98</ele>
        <time>2022-11-15T08:30:06.473Z</time>
      </trkpt>
      <trkpt lat="48.68079" lon="2.51299">
        <ele>98</ele>
        <time>2022-11-15T08:30:11.471Z</time>
      </trkpt>
      <trkpt lat="48.68063" lon="2.51296">
        <ele>98</ele>
        <time>2022-11-15T08:30:16.491Z</time>
      </trkpt>
      <trkpt lat="48.68046" lon="2.51289">
        <ele>99</ele>
        <time>2022-11-15T08:30:21.484Z</time>
      </trkpt>
      <trkpt lat="48.68028" lon="2.51286">
        <ele>98</ele>
        <time>2022-11-15T08:30:26.490Z</time>
      </trkpt>
      <trkpt lat="48.68011" lon="2.51282">
        <ele>96</ele>
        <time>2022-11-15T08:30:31.489Z</time>
      </trkpt>
      <trkpt lat="48.67993" lon="2.51279">
        <ele>96</ele>
        <time>2022-11-15T08:30:36.482Z</time>
      </trkpt>
      <trkpt lat="48.67976" lon="2.51281">
        <ele>95</ele>
        <time>2022-11-15T08:30:41.465Z</time>
      </trkpt>
      <trkpt lat="48.67961" lon="2.51279">
        <ele>95</ele>
        <time>2022-11-15T08:30:45.478Z</time>
      </trkpt>
      <trkpt lat="48.67944" lon="2.51266">
        <ele>97</ele>
        <time>2022-11-15T08:30:50.473Z</time>
      </trkpt>
      <trkpt lat="48.67928" lon="2.5126">
        <ele>96</ele>
        <time>2022-11-15T08:30:55.487Z</time>
      </trkpt>
      <trkpt lat="48.67913" lon="2.51256">
        <ele>96</ele>
        <time>2022-11-15T08:31:00.482Z</time>
      </trkpt>
      <trkpt lat="48.67898" lon="2.51255">
        <ele>95</ele>
        <time>2022-11-15T08:31:05.489Z</time>
      </trkpt>
      <trkpt lat="48.67883" lon="2.5125">
        <ele>95</ele>
        <time>2022-11-15T08:31:10.487Z</time>
      </trkpt>
      <trkpt lat="48.67866" lon="2.51248">
        <ele>94</ele>
        <time>2022-11-15T08:31:15.484Z</time>
      </trkpt>
      <trkpt lat="48.67851" lon="2.51243">
        <ele>94</ele>
        <time>2022-11-15T08:31:20.491Z</time>
      </trkpt>
      <trkpt lat="48.67834" lon="2.51239">
        <ele>94</ele>
        <time>2022-11-15T08:31:25.482Z</time>
      </trkpt>
      <trkpt lat="48.67819" lon="2.51236">
        <ele>93</ele>
        <time>2022-11-15T08:31:29.490Z</time>
      </trkpt>
      <trkpt lat="48.678" lon="2.51232">
        <ele>93</ele>
        <time>2022-11-15T08:31:34.494Z</time>
      </trkpt>
      <trkpt lat="48.67783" lon="2.51227">
        <ele>92</ele>
        <time>2022-11-15T08:31:39.470Z</time>
      </trkpt>
      <trkpt lat="48.67764" lon="2.51223">
        <ele>92</ele>
        <time>2022-11-15T08:31:44.477Z</time>
      </trkpt>
      <trkpt lat="48.67746" lon="2.51218">
        <ele>92</ele>
        <time>2022-11-15T08:31:49.490Z</time>
      </trkpt>
      <trkpt lat="48.67726" lon="2.51217">
        <ele>93</ele>
        <time>2022-11-15T08:31:54.482Z</time>
      </trkpt>
      <trkpt lat="48.67711" lon="2.51217">
        <ele>93</ele>
        <time>2022-11-15T08:31:58.486Z</time>
      </trkpt>
      <trkpt lat="48.67693" lon="2.5121">
        <ele>93</ele>
        <time>2022-11-15T08:32:03.485Z</time>
      </trkpt>
      <trkpt lat="48.67675" lon="2.51206">
        <ele>93</ele>
        <time>2022-11-15T08:32:08.479Z</time>
      </trkpt>
      <trkpt lat="48.67656" lon="2.51202">
        <ele>93</ele>
        <time>2022-11-15T08:32:13.472Z</time>
      </trkpt>
      <trkpt lat="48.67636" lon="2.51193">
        <ele>95</ele>
        <time>2022-11-15T08:32:18.477Z</time>
      </trkpt>
      <trkpt lat="48.67619" lon="2.51183">
        <ele>96</ele>
        <time>2022-11-15T08:32:23.485Z</time>
      </trkpt>
      <trkpt lat="48.67602" lon="2.51188">
        <ele>96</ele>
        <time>2022-11-15T08:32:28.477Z</time>
      </trkpt>
      <trkpt lat="48.67585" lon="2.51186">
        <ele>93</ele>
        <time>2022-11-15T08:32:32.487Z</time>
      </trkpt>
      <trkpt lat="48.67567" lon="2.51182">
        <ele>92</ele>
        <time>2022-11-15T08:32:37.479Z</time>
      </trkpt>
      <trkpt lat="48.67549" lon="2.51177">
        <ele>92</ele>
        <time>2022-11-15T08:32:42.487Z</time>
      </trkpt>
      <trkpt lat="48.67532" lon="2.51174">
        <ele>92</ele>
        <time>2022-11-15T08:32:46.492Z</time>
      </trkpt>
      <trkpt lat="48.67511" lon="2.5117">
        <ele>93</ele>
        <time>2022-11-15T08:32:51.477Z</time>
      </trkpt>
      <trkpt lat="48.67494" lon="2.51165">
        <ele>93</ele>
        <time>2022-11-15T08:32:55.492Z</time>
      </trkpt>
      <trkpt lat="48.67474" lon="2.5116">
        <ele>93</ele>
        <time>2022-11-15T08:33:00.473Z</time>
      </trkpt>
      <trkpt lat="48.67454" lon="2.51157">
        <ele>92</ele>
        <time>2022-11-15T08:33:05.479Z</time>
      </trkpt>
      <trkpt lat="48.67434" lon="2.51152">
        <ele>92</ele>
        <time>2022-11-15T08:33:10.474Z</time>
      </trkpt>
      <trkpt lat="48.67415" lon="2.51147">
        <ele>91</ele>
        <time>2022-11-15T08:33:15.495Z</time>
      </trkpt>
      <trkpt lat="48.67394" lon="2.51142">
        <ele>89</ele>
        <time>2022-11-15T08:33:20.485Z</time>
      </trkpt>
      <trkpt lat="48.6738" lon="2.51141">
        <ele>89</ele>
        <time>2022-11-15T08:33:24.494Z</time>
      </trkpt>
      <trkpt lat="48.67363" lon="2.51145">
        <ele>86</ele>
        <time>2022-11-15T08:33:29.482Z</time>
      </trkpt>
      <trkpt lat="48.67349" lon="2.51164">
        <ele>88</ele>
        <time>2022-11-15T08:33:34.485Z</time>
      </trkpt>
      <trkpt lat="48.67332" lon="2.51185">
        <ele>88</ele>
        <time>2022-11-15T08:33:40.475Z</time>
      </trkpt>
      <trkpt lat="48.67322" lon="2.512">
        <ele>88</ele>
        <time>2022-11-15T08:33:45.473Z</time>
      </trkpt>
      <trkpt lat="48.67312" lon="2.51214">
        <ele>88</ele>
        <time>2022-11-15T08:33:49.463Z</time>
      </trkpt>
      <trkpt lat="48.67297" lon="2.51232">
        <ele>88</ele>
        <time>2022-11-15T08:33:54.480Z</time>
      </trkpt>
      <trkpt lat="48.67284" lon="2.51249">
        <ele>89</ele>
        <time>2022-11-15T08:33:59.471Z</time>
      </trkpt>
      <trkpt lat="48.67273" lon="2.51267">
        <ele>89</ele>
        <time>2022-11-15T08:34:03.486Z</time>
      </trkpt>
      <trkpt lat="48.67258" lon="2.51287">
        <ele>92</ele>
        <time>2022-11-15T08:34:08.482Z</time>
      </trkpt>
      <trkpt lat="48.67244" lon="2.51306">
        <ele>92</ele>
        <time>2022-11-15T08:34:13.485Z</time>
      </trkpt>
      <trkpt lat="48.67229" lon="2.51324">
        <ele>93</ele>
        <time>2022-11-15T08:34:18.486Z</time>
      </trkpt>
      <trkpt lat="48.67216" lon="2.51343">
        <ele>93</ele>
        <time>2022-11-15T08:34:23.476Z</time>
      </trkpt>
      <trkpt lat="48.67206" lon="2.51359">
        <ele>89</ele>
        <time>2022-11-15T08:34:27.488Z</time>
      </trkpt>
      <trkpt lat="48.6719" lon="2.51379">
        <ele>89</ele>
        <time>2022-11-15T08:34:32.464Z</time>
      </trkpt>
      <trkpt lat="48.67173" lon="2.514">
        <ele>87</ele>
        <time>2022-11-15T08:34:37.469Z</time>
      </trkpt>
      <trkpt lat="48.67161" lon="2.51417">
        <ele>88</ele>
        <time>2022-11-15T08:34:41.474Z</time>
      </trkpt>
      <trkpt lat="48.67145" lon="2.51439">
        <ele>89</ele>
        <time>2022-11-15T08:34:46.487Z</time>
      </trkpt>
      <trkpt lat="48.67132" lon="2.51459">
        <ele>90</ele>
        <time>2022-11-15T08:34:51.474Z</time>
      </trkpt>
      <trkpt lat="48.67115" lon="2.51481">
        <ele>90</ele>
        <time>2022-11-15T08:34:56.462Z</time>
      </trkpt>
      <trkpt lat="48.67104" lon="2.51497">
        <ele>91</ele>
        <time>2022-11-15T08:35:00.479Z</time>
      </trkpt>
      <trkpt lat="48.67093" lon="2.51512">
        <ele>90</ele>
        <time>2022-11-15T08:35:04.484Z</time>
      </trkpt>
      <trkpt lat="48.67077" lon="2.51533">
        <ele>90</ele>
        <time>2022-11-15T08:35:09.488Z</time>
      </trkpt>
      <trkpt lat="48.67061" lon="2.51555">
        <ele>89</ele>
        <time>2022-11-15T08:35:14.474Z</time>
      </trkpt>
      <trkpt lat="48.67045" lon="2.51574">
        <ele>90</ele>
        <time>2022-11-15T08:35:19.478Z</time>
      </trkpt>
      <trkpt lat="48.67031" lon="2.51592">
        <ele>91</ele>
        <time>2022-11-15T08:35:24.470Z</time>
      </trkpt>
      <trkpt lat="48.67015" lon="2.51615">
        <ele>90</ele>
        <time>2022-11-15T08:35:29.486Z</time>
      </trkpt>
      <trkpt lat="48.66999" lon="2.51638">
        <ele>91</ele>
        <time>2022-11-15T08:35:34.482Z</time>
      </trkpt>
      <trkpt lat="48.66987" lon="2.51653">
        <ele>91</ele>
        <time>2022-11-15T08:35:38.494Z</time>
      </trkpt>
      <trkpt lat="48.6697" lon="2.51675">
        <ele>90</ele>
        <time>2022-11-15T08:35:43.492Z</time>
      </trkpt>
      <trkpt lat="48.66956" lon="2.51696">
        <ele>92</ele>
        <time>2022-11-15T08:35:48.493Z</time>
      </trkpt>
      <trkpt lat="48.6694" lon="2.51715">
        <ele>91</ele>
        <time>2022-11-15T08:35:53.474Z</time>
      </trkpt>
      <trkpt lat="48.66925" lon="2.51736">
        <ele>92</ele>
        <time>2022-11-15T08:35:58.472Z</time>
      </trkpt>
      <trkpt lat="48.66911" lon="2.51755">
        <ele>92</ele>
        <time>2022-11-15T08:36:03.465Z</time>
      </trkpt>
      <trkpt lat="48.66901" lon="2.51767">
        <ele>93</ele>
        <time>2022-11-15T08:36:07.474Z</time>
      </trkpt>
      <trkpt lat="48.66892" lon="2.51785">
        <ele>93</ele>
        <time>2022-11-15T08:36:12.481Z</time>
      </trkpt>
      <trkpt lat="48.66898" lon="2.51807">
        <ele>93</ele>
        <time>2022-11-15T08:36:17.489Z</time>
      </trkpt>
      <trkpt lat="48.66909" lon="2.51825">
        <ele>92</ele>
        <time>2022-11-15T08:36:22.486Z</time>
      </trkpt>
      <trkpt lat="48.66919" lon="2.51845">
        <ele>92</ele>
        <time>2022-11-15T08:36:27.482Z</time>
      </trkpt>
      <trkpt lat="48.66929" lon="2.51864">
        <ele>93</ele>
        <time>2022-11-15T08:36:32.486Z</time>
      </trkpt>
      <trkpt lat="48.66937" lon="2.5188">
        <ele>92</ele>
        <time>2022-11-15T08:36:36.490Z</time>
      </trkpt>
      <trkpt lat="48.66947" lon="2.51901">
        <ele>92</ele>
        <time>2022-11-15T08:36:41.491Z</time>
      </trkpt>
      <trkpt lat="48.66958" lon="2.51921">
        <ele>93</ele>
        <time>2022-11-15T08:36:46.465Z</time>
      </trkpt>
      <trkpt lat="48.66967" lon="2.51939">
        <ele>90</ele>
        <time>2022-11-15T08:36:50.474Z</time>
      </trkpt>
      <trkpt lat="48.66979" lon="2.51962">
        <ele>92</ele>
        <time>2022-11-15T08:36:55.476Z</time>
      </trkpt>
      <trkpt lat="48.66994" lon="2.51986">
        <ele>91</ele>
        <time>2022-11-15T08:37:00.475Z</time>
      </trkpt>
      <trkpt lat="48.67006" lon="2.52008">
        <ele>91</ele>
        <time>2022-11-15T08:37:05.477Z</time>
      </trkpt>
      <trkpt lat="48.67018" lon="2.52031">
        <ele>91</ele>
        <time>2022-11-15T08:37:10.464Z</time>
      </trkpt>
      <trkpt lat="48.67031" lon="2.52057">
        <ele>92</ele>
        <time>2022-11-15T08:37:15.483Z</time>
      </trkpt>
      <trkpt lat="48.67045" lon="2.5208">
        <ele>94</ele>
        <time>2022-11-15T08:37:20.476Z</time>
      </trkpt>
      <trkpt lat="48.67057" lon="2.521">
        <ele>94</ele>
        <time>2022-11-15T08:37:24.489Z</time>
      </trkpt>
      <trkpt lat="48.6707" lon="2.52121">
        <ele>93</ele>
        <time>2022-11-15T08:37:29.475Z</time>
      </trkpt>
      <trkpt lat="48.6708" lon="2.5214">
        <ele>92</ele>
        <time>2022-11-15T08:37:34.468Z</time>
      </trkpt>
      <trkpt lat="48.67086" lon="2.52154">
        <ele>92</ele>
        <time>2022-11-15T08:37:38.479Z</time>
      </trkpt>
      <trkpt lat="48.67099" lon="2.52177">
        <ele>91</ele>
        <time>2022-11-15T08:37:43.471Z</time>
      </trkpt>
      <trkpt lat="48.67109" lon="2.52197">
        <ele>93</ele>
        <time>2022-11-15T08:37:48.481Z</time>
      </trkpt>
      <trkpt lat="48.67118" lon="2.52218">
        <ele>93</ele>
        <time>2022-11-15T08:37:53.487Z</time>
      </trkpt>
      <trkpt lat="48.67122" lon="2.52238">
        <ele>94</ele>
        <time>2022-11-15T08:42:24.473Z</time>
      </trkpt>
      <trkpt lat="48.67122" lon="2.52242">
        <ele>94</ele>
        <time>2022-11-15T08:42:29.494Z</time>
      </trkpt>
      <trkpt lat="48.67117" lon="2.52247">
        <ele>94</ele>
        <time>2022-11-15T08:42:34.477Z</time>
      </trkpt>
      <trkpt lat="48.67108" lon="2.52259">
        <ele>94</ele>
        <time>2022-11-15T08:42:39.494Z</time>
      </trkpt>
      <trkpt lat="48.67099" lon="2.52275">
        <ele>95</ele>
        <time>2022-11-15T08:42:44.489Z</time>
      </trkpt>
      <trkpt lat="48.67088" lon="2.5229">
        <ele>94</ele>
        <time>2022-11-15T08:42:49.487Z</time>
      </trkpt>
      <trkpt lat="48.67076" lon="2.52307">
        <ele>95</ele>
        <time>2022-11-15T08:42:54.481Z</time>
      </trkpt>
      <trkpt lat="48.67062" lon="2.52324">
        <ele>93</ele>
        <time>2022-11-15T08:42:59.472Z</time>
      </trkpt>
      <trkpt lat="48.67049" lon="2.52342">
        <ele>93</ele>
        <time>2022-11-15T08:43:04.483Z</time>
      </trkpt>
      <trkpt lat="48.67037" lon="2.52359">
        <ele>92</ele>
        <time>2022-11-15T08:43:09.465Z</time>
      </trkpt>
      <trkpt lat="48.67023" lon="2.52374">
        <ele>92</ele>
        <time>2022-11-15T08:43:14.458Z</time>
      </trkpt>
      <trkpt lat="48.67012" lon="2.52388">
        <ele>92</ele>
        <time>2022-11-15T08:43:19.461Z</time>
      </trkpt>
      <trkpt lat="48.66998" lon="2.52405">
        <ele>92</ele>
        <time>2022-11-15T08:43:24.487Z</time>
      </trkpt>
      <trkpt lat="48.66985" lon="2.52424">
        <ele>92</ele>
        <time>2022-11-15T08:43:29.484Z</time>
      </trkpt>
      <trkpt lat="48.66969" lon="2.52443">
        <ele>92</ele>
        <time>2022-11-15T08:43:34.491Z</time>
      </trkpt>
      <trkpt lat="48.66956" lon="2.52463">
        <ele>91</ele>
        <time>2022-11-15T08:43:39.477Z</time>
      </trkpt>
      <trkpt lat="48.66943" lon="2.5248">
        <ele>91</ele>
        <time>2022-11-15T08:43:44.482Z</time>
      </trkpt>
      <trkpt lat="48.66929" lon="2.52498">
        <ele>94</ele>
        <time>2022-11-15T08:43:49.476Z</time>
      </trkpt>
      <trkpt lat="48.66915" lon="2.52518">
        <ele>95</ele>
        <time>2022-11-15T08:43:54.467Z</time>
      </trkpt>
      <trkpt lat="48.66901" lon="2.52541">
        <ele>95</ele>
        <time>2022-11-15T08:43:59.466Z</time>
      </trkpt>
      <trkpt lat="48.66886" lon="2.52564">
        <ele>96</ele>
        <time>2022-11-15T08:44:04.469Z</time>
      </trkpt>
      <trkpt lat="48.66871" lon="2.52584">
        <ele>97</ele>
        <time>2022-11-15T08:44:09.470Z</time>
      </trkpt>
      <trkpt lat="48.66859" lon="2.52599">
        <ele>97</ele>
        <time>2022-11-15T08:44:14.479Z</time>
      </trkpt>
      <trkpt lat="48.6685" lon="2.52614">
        <ele>97</ele>
        <time>2022-11-15T08:44:19.475Z</time>
      </trkpt>
      <trkpt lat="48.66836" lon="2.52632">
        <ele>97</ele>
        <time>2022-11-15T08:44:24.480Z</time>
      </trkpt>
      <trkpt lat="48.66823" lon="2.5265">
        <ele>97</ele>
        <time>2022-11-15T08:44:29.499Z</time>
      </trkpt>
      <trkpt lat="48.66811" lon="2.52667">
        <ele>97</ele>
        <time>2022-11-15T08:44:34.492Z</time>
      </trkpt>
      <trkpt lat="48.66799" lon="2.52686">
        <ele>96</ele>
        <time>2022-11-15T08:44:39.475Z</time>
      </trkpt>
      <trkpt lat="48.66789" lon="2.52699">
        <ele>97</ele>
        <time>2022-11-15T08:44:44.478Z</time>
      </trkpt>
      <trkpt lat="48.66782" lon="2.52709">
        <ele>94</ele>
        <time>2022-11-15T08:44:48.485Z</time>
      </trkpt>
      <trkpt lat="48.66774" lon="2.52724">
        <ele>94</ele>
        <time>2022-11-15T08:44:53.473Z</time>
      </trkpt>
      <trkpt lat="48.66762" lon="2.52737">
        <ele>93</ele>
        <time>2022-11-15T08:44:58.468Z</time>
      </trkpt>
      <trkpt lat="48.66751" lon="2.52742">
        <ele>93</ele>
        <time>2022-11-15T08:45:02.482Z</time>
      </trkpt>
      <trkpt lat="48.66743" lon="2.52746">
        <ele>93</ele>
        <time>2022-11-15T08:45:07.479Z</time>
      </trkpt>
      <trkpt lat="48.66739" lon="2.52753">
        <ele>93</ele>
        <time>2022-11-15T08:45:11.483Z</time>
      </trkpt>
      <trkpt lat="48.66739" lon="2.52769">
        <ele>91</ele>
        <time>2022-11-15T08:45:16.468Z</time>
      </trkpt>
      <trkpt lat="48.66744" lon="2.52793">
        <ele>91</ele>
        <time>2022-11-15T08:45:20.463Z</time>
      </trkpt>
      <trkpt lat="48.66739" lon="2.52797">
        <ele>91</ele>
        <time>2022-11-15T08:46:12.467Z</time>
      </trkpt>
      <trkpt lat="48.66739" lon="2.52798">
        <ele>91</ele>
        <time>2022-11-15T08:46:35.495Z</time>
      </trkpt>
      <trkpt lat="48.66737" lon="2.52799">
        <ele>91</ele>
        <time>2022-11-15T08:46:40.481Z</time>
      </trkpt>
      <trkpt lat="48.66734" lon="2.528">
        <ele>93</ele>
        <time>2022-11-15T08:46:45.484Z</time>
      </trkpt>
      <trkpt lat="48.66727" lon="2.52799">
        <ele>93</ele>
        <time>2022-11-15T08:46:50.471Z</time>
      </trkpt>
      <trkpt lat="48.66724" lon="2.528">
        <ele>93</ele>
        <time>2022-11-15T08:46:55.486Z</time>
      </trkpt>
      <trkpt lat="48.66722" lon="2.528">
        <ele>93</ele>
        <time>2022-11-15T08:47:00.470Z</time>
      </trkpt>
      <trkpt lat="48.66714" lon="2.52801">
        <ele>93</ele>
        <time>2022-11-15T08:47:05.474Z</time>
      </trkpt>
      <trkpt lat="48.66705" lon="2.5281">
        <ele>96</ele>
        <time>2022-11-15T08:47:10.470Z</time>
      </trkpt>
      <trkpt lat="48.66696" lon="2.5282">
        <ele>96</ele>
        <time>2022-11-15T08:47:14.462Z</time>
      </trkpt>
      <trkpt lat="48.66688" lon="2.52831">
        <ele>96</ele>
        <time>2022-11-15T08:47:19.489Z</time>
      </trkpt>
      <trkpt lat="48.66677" lon="2.52845">
        <ele>97</ele>
        <time>2022-11-15T08:47:24.491Z</time>
      </trkpt>
      <trkpt lat="48.66666" lon="2.52856">
        <ele>97</ele>
        <time>2022-11-15T08:47:29.485Z</time>
      </trkpt>
      <trkpt lat="48.66656" lon="2.5287">
        <ele>97</ele>
        <time>2022-11-15T08:47:34.483Z</time>
      </trkpt>
      <trkpt lat="48.66648" lon="2.52879">
        <ele>96</ele>
        <time>2022-11-15T08:47:39.498Z</time>
      </trkpt>
      <trkpt lat="48.66638" lon="2.5288">
        <ele>96</ele>
        <time>2022-11-15T08:47:44.481Z</time>
      </trkpt>
      <trkpt lat="48.66627" lon="2.52857">
        <ele>96</ele>
        <time>2022-11-15T08:47:49.471Z</time>
      </trkpt>
      <trkpt lat="48.66618" lon="2.52837">
        <ele>95</ele>
        <time>2022-11-15T08:47:53.478Z</time>
      </trkpt>
      <trkpt lat="48.66606" lon="2.52819">
        <ele>95</ele>
        <time>2022-11-15T08:47:58.460Z</time>
      </trkpt>
      <trkpt lat="48.66595" lon="2.52799">
        <ele>96</ele>
        <time>2022-11-15T08:48:03.462Z</time>
      </trkpt>
      <trkpt lat="48.66586" lon="2.52783">
        <ele>93</ele>
        <time>2022-11-15T08:48:07.471Z</time>
      </trkpt>
      <trkpt lat="48.66575" lon="2.52762">
        <ele>91</ele>
        <time>2022-11-15T08:48:12.478Z</time>
      </trkpt>
      <trkpt lat="48.66563" lon="2.5274">
        <ele>93</ele>
        <time>2022-11-15T08:48:17.486Z</time>
      </trkpt>
      <trkpt lat="48.66551" lon="2.5272">
        <ele>92</ele>
        <time>2022-11-15T08:48:22.475Z</time>
      </trkpt>
      <trkpt lat="48.66542" lon="2.52705">
        <ele>93</ele>
        <time>2022-11-15T08:48:26.467Z</time>
      </trkpt>
      <trkpt lat="48.66529" lon="2.52689">
        <ele>94</ele>
        <time>2022-11-15T08:48:31.460Z</time>
      </trkpt>
      <trkpt lat="48.66517" lon="2.52668">
        <ele>94</ele>
        <time>2022-11-15T08:48:36.467Z</time>
      </trkpt>
      <trkpt lat="48.66506" lon="2.52648">
        <ele>97</ele>
        <time>2022-11-15T08:48:41.476Z</time>
      </trkpt>
      <trkpt lat="48.66492" lon="2.52629">
        <ele>97</ele>
        <time>2022-11-15T08:48:46.472Z</time>
      </trkpt>
      <trkpt lat="48.66477" lon="2.52607">
        <ele>96</ele>
        <time>2022-11-15T08:48:51.470Z</time>
      </trkpt>
      <trkpt lat="48.66466" lon="2.52579">
        <ele>94</ele>
        <time>2022-11-15T08:48:56.475Z</time>
      </trkpt>
      <trkpt lat="48.66457" lon="2.52556">
        <ele>95</ele>
        <time>2022-11-15T08:49:00.488Z</time>
      </trkpt>
      <trkpt lat="48.66445" lon="2.52533">
        <ele>93</ele>
        <time>2022-11-15T08:49:05.461Z</time>
      </trkpt>
      <trkpt lat="48.66434" lon="2.52513">
        <ele>92</ele>
        <time>2022-11-15T08:49:09.470Z</time>
      </trkpt>
      <trkpt lat="48.66419" lon="2.5249">
        <ele>92</ele>
        <time>2022-11-15T08:49:14.471Z</time>
      </trkpt>
      <trkpt lat="48.66404" lon="2.52477">
        <ele>91</ele>
        <time>2022-11-15T08:49:18.472Z</time>
      </trkpt>
      <trkpt lat="48.66387" lon="2.52459">
        <ele>93</ele>
        <time>2022-11-15T08:49:23.479Z</time>
      </trkpt>
      <trkpt lat="48.66373" lon="2.52439">
        <ele>94</ele>
        <time>2022-11-15T08:49:28.466Z</time>
      </trkpt>
      <trkpt lat="48.66362" lon="2.52414">
        <ele>93</ele>
        <time>2022-11-15T08:49:33.485Z</time>
      </trkpt>
      <trkpt lat="48.66351" lon="2.52388">
        <ele>92</ele>
        <time>2022-11-15T08:49:38.485Z</time>
      </trkpt>
      <trkpt lat="48.6634" lon="2.52361">
        <ele>94</ele>
        <time>2022-11-15T08:49:43.475Z</time>
      </trkpt>
      <trkpt lat="48.66328" lon="2.52337">
        <ele>93</ele>
        <time>2022-11-15T08:49:48.482Z</time>
      </trkpt>
      <trkpt lat="48.66311" lon="2.52314">
        <ele>93</ele>
        <time>2022-11-15T08:49:53.477Z</time>
      </trkpt>
      <trkpt lat="48.66296" lon="2.52289">
        <ele>92</ele>
        <time>2022-11-15T08:49:58.493Z</time>
      </trkpt>
      <trkpt lat="48.66283" lon="2.52265">
        <ele>94</ele>
        <time>2022-11-15T08:50:03.481Z</time>
      </trkpt>
      <trkpt lat="48.66268" lon="2.52241">
        <ele>94</ele>
        <time>2022-11-15T08:50:08.481Z</time>
      </trkpt>
      <trkpt lat="48.66256" lon="2.52214">
        <ele>95</ele>
        <time>2022-11-15T08:50:13.481Z</time>
      </trkpt>
      <trkpt lat="48.66242" lon="2.52186">
        <ele>96</ele>
        <time>2022-11-15T08:50:18.483Z</time>
      </trkpt>
      <trkpt lat="48.66227" lon="2.5216">
        <ele>96</ele>
        <time>2022-11-15T08:50:23.465Z</time>
      </trkpt>
      <trkpt lat="48.66213" lon="2.52134">
        <ele>96</ele>
        <time>2022-11-15T08:50:28.469Z</time>
      </trkpt>
      <trkpt lat="48.66198" lon="2.52105">
        <ele>96</ele>
        <time>2022-11-15T08:50:33.462Z</time>
      </trkpt>
      <trkpt lat="48.66188" lon="2.52079">
        <ele>95</ele>
        <time>2022-11-15T08:50:37.478Z</time>
      </trkpt>
      <trkpt lat="48.66176" lon="2.52055">
        <ele>96</ele>
        <time>2022-11-15T08:50:41.489Z</time>
      </trkpt>
      <trkpt lat="48.66156" lon="2.52033">
        <ele>95</ele>
        <time>2022-11-15T08:50:46.475Z</time>
      </trkpt>
      <trkpt lat="48.66142" lon="2.52006">
        <ele>96</ele>
        <time>2022-11-15T08:50:51.492Z</time>
      </trkpt>
      <trkpt lat="48.66135" lon="2.51972">
        <ele>95</ele>
        <time>2022-11-15T08:50:56.485Z</time>
      </trkpt>
      <trkpt lat="48.66127" lon="2.51942">
        <ele>95</ele>
        <time>2022-11-15T08:51:01.485Z</time>
      </trkpt>
      <trkpt lat="48.66112" lon="2.51918">
        <ele>92</ele>
        <time>2022-11-15T08:51:06.478Z</time>
      </trkpt>
      <trkpt lat="48.66099" lon="2.51898">
        <ele>90</ele>
        <time>2022-11-15T08:51:11.462Z</time>
      </trkpt>
      <trkpt lat="48.66084" lon="2.51884">
        <ele>90</ele>
        <time>2022-11-15T08:51:16.477Z</time>
      </trkpt>
      <trkpt lat="48.66069" lon="2.51876">
        <ele>89</ele>
        <time>2022-11-15T08:51:21.473Z</time>
      </trkpt>
      <trkpt lat="48.66062" lon="2.51868">
        <ele>88</ele>
        <time>2022-11-15T08:51:40.464Z</time>
      </trkpt>
      <trkpt lat="48.66058" lon="2.51864">
        <ele>88</ele>
        <time>2022-11-15T08:51:44.495Z</time>
      </trkpt>
      <trkpt lat="48.66057" lon="2.51863">
        <ele>88</ele>
        <time>2022-11-15T08:51:49.492Z</time>
      </trkpt>
      <trkpt lat="48.66058" lon="2.51861">
        <ele>88</ele>
        <time>2022-11-15T08:51:54.489Z</time>
      </trkpt>
      <trkpt lat="48.66058" lon="2.51853">
        <ele>88</ele>
        <time>2022-11-15T08:51:59.489Z</time>
      </trkpt>
      <trkpt lat="48.66057" lon="2.51836">
        <ele>86</ele>
        <time>2022-11-15T08:52:04.475Z</time>
      </trkpt>
      <trkpt lat="48.66051" lon="2.51818">
        <ele>85</ele>
        <time>2022-11-15T08:52:09.470Z</time>
      </trkpt>
      <trkpt lat="48.66039" lon="2.51803">
        <ele>88</ele>
        <time>2022-11-15T08:52:14.466Z</time>
      </trkpt>
      <trkpt lat="48.66025" lon="2.51792">
        <ele>88</ele>
        <time>2022-11-15T08:52:19.486Z</time>
      </trkpt>
      <trkpt lat="48.66014" lon="2.51792">
        <ele>88</ele>
        <time>2022-11-15T08:52:23.490Z</time>
      </trkpt>
      <trkpt lat="48.66003" lon="2.51787">
        <ele>91</ele>
        <time>2022-11-15T08:52:28.491Z</time>
      </trkpt>
      <trkpt lat="48.66001" lon="2.51761">
        <ele>92</ele>
        <time>2022-11-15T08:52:33.488Z</time>
      </trkpt>
      <trkpt lat="48.6599" lon="2.51721">
        <ele>93</ele>
        <time>2022-11-15T08:52:38.491Z</time>
      </trkpt>
      <trkpt lat="48.65974" lon="2.51682">
        <ele>94</ele>
        <time>2022-11-15T08:52:43.485Z</time>
      </trkpt>
      <trkpt lat="48.65957" lon="2.5165">
        <ele>93</ele>
        <time>2022-11-15T08:52:47.492Z</time>
      </trkpt>
      <trkpt lat="48.65935" lon="2.51609">
        <ele>91</ele>
        <time>2022-11-15T08:52:52.467Z</time>
      </trkpt>
      <trkpt lat="48.65907" lon="2.51583">
        <ele>90</ele>
        <time>2022-11-15T08:52:57.485Z</time>
      </trkpt>
      <trkpt lat="48.65887" lon="2.51553">
        <ele>91</ele>
        <time>2022-11-15T08:53:02.469Z</time>
      </trkpt>
      <trkpt lat="48.65869" lon="2.51521">
        <ele>93</ele>
        <time>2022-11-15T08:53:07.479Z</time>
      </trkpt>
      <trkpt lat="48.65852" lon="2.51486">
        <ele>92</ele>
        <time>2022-11-15T08:53:12.470Z</time>
      </trkpt>
      <trkpt lat="48.65834" lon="2.5145">
        <ele>92</ele>
        <time>2022-11-15T08:53:17.492Z</time>
      </trkpt>
      <trkpt lat="48.65816" lon="2.51419">
        <ele>92</ele>
        <time>2022-11-15T08:53:22.481Z</time>
      </trkpt>
      <trkpt lat="48.65799" lon="2.51391">
        <ele>90</ele>
        <time>2022-11-15T08:53:27.468Z</time>
      </trkpt>
      <trkpt lat="48.65783" lon="2.51355">
        <ele>89</ele>
        <time>2022-11-15T08:53:32.484Z</time>
      </trkpt>
      <trkpt lat="48.65765" lon="2.5132">
        <ele>87</ele>
        <time>2022-11-15T08:53:37.481Z</time>
      </trkpt>
      <trkpt lat="48.65744" lon="2.51297">
        <ele>86</ele>
        <time>2022-11-15T08:53:42.489Z</time>
      </trkpt>
      <trkpt lat="48.65726" lon="2.51283">
        <ele>83</ele>
        <time>2022-11-15T08:53:46.493Z</time>
      </trkpt>
      <trkpt lat="48.65704" lon="2.5128">
        <ele>82</ele>
        <time>2022-11-15T08:53:51.485Z</time>
      </trkpt>
      <trkpt lat="48.65693" lon="2.51269">
        <ele>82</ele>
        <time>2022-11-15T08:53:56.479Z</time>
      </trkpt>
      <trkpt lat="48.6569" lon="2.51258">
        <ele>82</ele>
        <time>2022-11-15T08:54:00.481Z</time>
      </trkpt>
      <trkpt lat="48.65683" lon="2.51245">
        <ele>82</ele>
        <time>2022-11-15T08:54:05.496Z</time>
      </trkpt>
      <trkpt lat="48.65673" lon="2.51227">
        <ele>82</ele>
        <time>2022-11-15T08:54:10.494Z</time>
      </trkpt>
      <trkpt lat="48.65659" lon="2.51205">
        <ele>82</ele>
        <time>2022-11-15T08:54:15.494Z</time>
      </trkpt>
      <trkpt lat="48.65647" lon="2.51184">
        <ele>83</ele>
        <time>2022-11-15T08:54:20.500Z</time>
      </trkpt>
      <trkpt lat="48.65636" lon="2.51169">
        <ele>83</ele>
        <time>2022-11-15T08:54:25.496Z</time>
      </trkpt>
      <trkpt lat="48.65633" lon="2.51151">
        <ele>83</ele>
        <time>2022-11-15T08:54:30.477Z</time>
      </trkpt>
      <trkpt lat="48.65635" lon="2.51146">
        <ele>83</ele>
        <time>2022-11-15T08:54:35.479Z</time>
      </trkpt>
      <trkpt lat="48.65629" lon="2.51153">
        <ele>83</ele>
        <time>2022-11-15T08:54:40.474Z</time>
      </trkpt>
      <trkpt lat="48.65628" lon="2.51178">
        <ele>83</ele>
        <time>2022-11-15T08:54:45.477Z</time>
      </trkpt>
      <trkpt lat="48.6563" lon="2.51202">
        <ele>83</ele>
        <time>2022-11-15T08:54:49.508Z</time>
      </trkpt>
      <trkpt lat="48.65621" lon="2.51229">
        <ele>84</ele>
        <time>2022-11-15T08:54:54.495Z</time>
      </trkpt>
      <trkpt lat="48.65603" lon="2.51255">
        <ele>85</ele>
        <time>2022-11-15T08:54:59.486Z</time>
      </trkpt>
      <trkpt lat="48.65578" lon="2.51262">
        <ele>86</ele>
        <time>2022-11-15T08:55:04.497Z</time>
      </trkpt>
      <trkpt lat="48.65554" lon="2.51247">
        <ele>86</ele>
        <time>2022-11-15T08:55:09.495Z</time>
      </trkpt>
      <trkpt lat="48.65532" lon="2.51226">
        <ele>84</ele>
        <time>2022-11-15T08:55:14.498Z</time>
      </trkpt>
      <trkpt lat="48.65508" lon="2.51208">
        <ele>85</ele>
        <time>2022-11-15T08:55:19.494Z</time>
      </trkpt>
      <trkpt lat="48.65483" lon="2.51193">
        <ele>87</ele>
        <time>2022-11-15T08:55:24.492Z</time>
      </trkpt>
      <trkpt lat="48.65456" lon="2.51183">
        <ele>88</ele>
        <time>2022-11-15T08:55:29.498Z</time>
      </trkpt>
      <trkpt lat="48.65428" lon="2.5118">
        <ele>87</ele>
        <time>2022-11-15T08:55:34.484Z</time>
      </trkpt>
      <trkpt lat="48.65399" lon="2.51171">
        <ele>90</ele>
        <time>2022-11-15T08:55:39.503Z</time>
      </trkpt>
      <trkpt lat="48.65371" lon="2.51157">
        <ele>90</ele>
        <time>2022-11-15T08:55:44.498Z</time>
      </trkpt>
      <trkpt lat="48.65341" lon="2.51151">
        <ele>88</ele>
        <time>2022-11-15T08:55:49.505Z</time>
      </trkpt>
      <trkpt lat="48.65312" lon="2.51151">
        <ele>86</ele>
        <time>2022-11-15T08:55:54.501Z</time>
      </trkpt>
      <trkpt lat="48.65284" lon="2.51155">
        <ele>85</ele>
        <time>2022-11-15T08:55:59.495Z</time>
      </trkpt>
      <trkpt lat="48.65257" lon="2.51163">
        <ele>84</ele>
        <time>2022-11-15T08:56:04.493Z</time>
      </trkpt>
      <trkpt lat="48.6523" lon="2.51178">
        <ele>82</ele>
        <time>2022-11-15T08:56:09.499Z</time>
      </trkpt>
      <trkpt lat="48.65202" lon="2.51199">
        <ele>81</ele>
        <time>2022-11-15T08:56:14.476Z</time>
      </trkpt>
      <trkpt lat="48.65178" lon="2.51209">
        <ele>82</ele>
        <time>2022-11-15T08:56:18.495Z</time>
      </trkpt>
      <trkpt lat="48.65153" lon="2.51215">
        <ele>82</ele>
        <time>2022-11-15T08:56:22.496Z</time>
      </trkpt>
      <trkpt lat="48.65129" lon="2.51218">
        <ele>79</ele>
        <time>2022-11-15T08:56:26.607Z</time>
      </trkpt>
      <trkpt lat="48.65098" lon="2.51219">
        <ele>78</ele>
        <time>2022-11-15T08:56:31.480Z</time>
      </trkpt>
      <trkpt lat="48.65067" lon="2.51219">
        <ele>77</ele>
        <time>2022-11-15T08:56:36.498Z</time>
      </trkpt>
      <trkpt lat="48.65036" lon="2.51217">
        <ele>76</ele>
        <time>2022-11-15T08:56:41.504Z</time>
      </trkpt>
      <trkpt lat="48.65012" lon="2.51212">
        <ele>74</ele>
        <time>2022-11-15T08:56:45.623Z</time>
      </trkpt>
      <trkpt lat="48.64979" lon="2.51201">
        <ele>70</ele>
        <time>2022-11-15T08:56:50.481Z</time>
      </trkpt>
      <trkpt lat="48.64945" lon="2.51188">
        <ele>70</ele>
        <time>2022-11-15T08:56:55.490Z</time>
      </trkpt>
      <trkpt lat="48.64919" lon="2.5118">
        <ele>66</ele>
        <time>2022-11-15T08:56:59.565Z</time>
      </trkpt>
      <trkpt lat="48.64888" lon="2.51171">
        <ele>68</ele>
        <time>2022-11-15T08:57:04.498Z</time>
      </trkpt>
      <trkpt lat="48.6486" lon="2.51161">
        <ele>70</ele>
        <time>2022-11-15T08:57:09.491Z</time>
      </trkpt>
      <trkpt lat="48.64833" lon="2.5115">
        <ele>68</ele>
        <time>2022-11-15T08:57:14.508Z</time>
      </trkpt>
      <trkpt lat="48.64807" lon="2.5114">
        <ele>68</ele>
        <time>2022-11-15T08:57:19.501Z</time>
      </trkpt>
      <trkpt lat="48.64784" lon="2.51132">
        <ele>68</ele>
        <time>2022-11-15T08:57:24.500Z</time>
      </trkpt>
      <trkpt lat="48.64762" lon="2.51123">
        <ele>68</ele>
        <time>2022-11-15T08:57:29.498Z</time>
      </trkpt>
      <trkpt lat="48.64746" lon="2.51117">
        <ele>68</ele>
        <time>2022-11-15T08:57:34.501Z</time>
      </trkpt>
      <trkpt lat="48.64732" lon="2.51112">
        <ele>69</ele>
        <time>2022-11-15T08:57:39.512Z</time>
      </trkpt>
      <trkpt lat="48.64718" lon="2.51105">
        <ele>69</ele>
        <time>2022-11-15T08:57:44.504Z</time>
      </trkpt>
      <trkpt lat="48.64706" lon="2.511">
        <ele>69</ele>
        <time>2022-11-15T08:57:49.501Z</time>
      </trkpt>
      <trkpt lat="48.64696" lon="2.51097">
        <ele>70</ele>
        <time>2022-11-15T08:57:53.519Z</time>
      </trkpt>
      <trkpt lat="48.64681" lon="2.5109">
        <ele>70</ele>
        <time>2022-11-15T08:57:58.491Z</time>
      </trkpt>
      <trkpt lat="48.64668" lon="2.5108">
        <ele>70</ele>
        <time>2022-11-15T08:58:03.506Z</time>
      </trkpt>
      <trkpt lat="48.64657" lon="2.51072">
        <ele>70</ele>
        <time>2022-11-15T08:58:07.507Z</time>
      </trkpt>
      <trkpt lat="48.64644" lon="2.51062">
        <ele>71</ele>
        <time>2022-11-15T08:58:12.506Z</time>
      </trkpt>
      <trkpt lat="48.6463" lon="2.51053">
        <ele>71</ele>
        <time>2022-11-15T08:58:17.512Z</time>
      </trkpt>
      <trkpt lat="48.64615" lon="2.51044">
        <ele>72</ele>
        <time>2022-11-15T08:58:22.501Z</time>
      </trkpt>
      <trkpt lat="48.64602" lon="2.5103">
        <ele>71</ele>
        <time>2022-11-15T08:58:27.502Z</time>
      </trkpt>
      <trkpt lat="48.64592" lon="2.51021">
        <ele>72</ele>
        <time>2022-11-15T08:58:31.519Z</time>
      </trkpt>
      <trkpt lat="48.64579" lon="2.51006">
        <ele>70</ele>
        <time>2022-11-15T08:58:36.501Z</time>
      </trkpt>
      <trkpt lat="48.64564" lon="2.50991">
        <ele>72</ele>
        <time>2022-11-15T08:58:41.503Z</time>
      </trkpt>
      <trkpt lat="48.6455" lon="2.50977">
        <ele>71</ele>
        <time>2022-11-15T08:58:46.500Z</time>
      </trkpt>
      <trkpt lat="48.64534" lon="2.50964">
        <ele>71</ele>
        <time>2022-11-15T08:58:51.618Z</time>
      </trkpt>
      <trkpt lat="48.64518" lon="2.50953">
        <ele>70</ele>
        <time>2022-11-15T08:58:56.487Z</time>
      </trkpt>
      <trkpt lat="48.64501" lon="2.50941">
        <ele>72</ele>
        <time>2022-11-15T08:59:01.509Z</time>
      </trkpt>
      <trkpt lat="48.64488" lon="2.50932">
        <ele>72</ele>
        <time>2022-11-15T08:59:05.623Z</time>
      </trkpt>
      <trkpt lat="48.64471" lon="2.50921">
        <ele>74</ele>
        <time>2022-11-15T08:59:10.510Z</time>
      </trkpt>
      <trkpt lat="48.64454" lon="2.50909">
        <ele>73</ele>
        <time>2022-11-15T08:59:15.514Z</time>
      </trkpt>
      <trkpt lat="48.64436" lon="2.50895">
        <ele>72</ele>
        <time>2022-11-15T08:59:20.495Z</time>
      </trkpt>
      <trkpt lat="48.6442" lon="2.50883">
        <ele>72</ele>
        <time>2022-11-15T08:59:25.492Z</time>
      </trkpt>
      <trkpt lat="48.64404" lon="2.50869">
        <ele>72</ele>
        <time>2022-11-15T08:59:30.484Z</time>
      </trkpt>
      <trkpt lat="48.64392" lon="2.50857">
        <ele>73</ele>
        <time>2022-11-15T08:59:34.498Z</time>
      </trkpt>
      <trkpt lat="48.64376" lon="2.50842">
        <ele>74</ele>
        <time>2022-11-15T08:59:39.503Z</time>
      </trkpt>
      <trkpt lat="48.64359" lon="2.50832">
        <ele>74</ele>
        <time>2022-11-15T08:59:44.482Z</time>
      </trkpt>
      <trkpt lat="48.64342" lon="2.50823">
        <ele>75</ele>
        <time>2022-11-15T08:59:49.503Z</time>
      </trkpt>
      <trkpt lat="48.64327" lon="2.50816">
        <ele>75</ele>
        <time>2022-11-15T08:59:54.498Z</time>
      </trkpt>
      <trkpt lat="48.64313" lon="2.50811">
        <ele>76</ele>
        <time>2022-11-15T08:59:59.492Z</time>
      </trkpt>
      <trkpt lat="48.643" lon="2.50808">
        <ele>76</ele>
        <time>2022-11-15T09:00:04.502Z</time>
      </trkpt>
      <trkpt lat="48.64288" lon="2.50808">
        <ele>76</ele>
        <time>2022-11-15T09:00:08.506Z</time>
      </trkpt>
      <trkpt lat="48.64274" lon="2.50807">
        <ele>76</ele>
        <time>2022-11-15T09:00:13.496Z</time>
      </trkpt>
      <trkpt lat="48.6426" lon="2.50808">
        <ele>76</ele>
        <time>2022-11-15T09:00:18.507Z</time>
      </trkpt>
      <trkpt lat="48.64247" lon="2.50808">
        <ele>76</ele>
        <time>2022-11-15T09:00:23.507Z</time>
      </trkpt>
      <trkpt lat="48.64231" lon="2.50808">
        <ele>77</ele>
        <time>2022-11-15T09:00:28.510Z</time>
      </trkpt>
      <trkpt lat="48.64215" lon="2.5081">
        <ele>77</ele>
        <time>2022-11-15T09:00:33.505Z</time>
      </trkpt>
      <trkpt lat="48.642" lon="2.50811">
        <ele>79</ele>
        <time>2022-11-15T09:00:37.513Z</time>
      </trkpt>
      <trkpt lat="48.64183" lon="2.50814">
        <ele>79</ele>
        <time>2022-11-15T09:00:42.505Z</time>
      </trkpt>
      <trkpt lat="48.64166" lon="2.50822">
        <ele>80</ele>
        <time>2022-11-15T09:00:47.508Z</time>
      </trkpt>
      <trkpt lat="48.64154" lon="2.5083">
        <ele>80</ele>
        <time>2022-11-15T09:00:51.520Z</time>
      </trkpt>
      <trkpt lat="48.64139" lon="2.5084">
        <ele>81</ele>
        <time>2022-11-15T09:00:56.512Z</time>
      </trkpt>
      <trkpt lat="48.64123" lon="2.50853">
        <ele>83</ele>
        <time>2022-11-15T09:01:01.506Z</time>
      </trkpt>
      <trkpt lat="48.64114" lon="2.5086">
        <ele>83</ele>
        <time>2022-11-15T09:01:04.490Z</time>
      </trkpt>
      <trkpt lat="48.64095" lon="2.50876">
        <ele>82</ele>
        <time>2022-11-15T09:01:10.480Z</time>
      </trkpt>
      <trkpt lat="48.64079" lon="2.50885">
        <ele>82</ele>
        <time>2022-11-15T09:01:15.500Z</time>
      </trkpt>
      <trkpt lat="48.64061" lon="2.50893">
        <ele>81</ele>
        <time>2022-11-15T09:01:20.492Z</time>
      </trkpt>
      <trkpt lat="48.64044" lon="2.50897">
        <ele>81</ele>
        <time>2022-11-15T09:01:25.490Z</time>
      </trkpt>
      <trkpt lat="48.64031" lon="2.50899">
        <ele>81</ele>
        <time>2022-11-15T09:01:29.492Z</time>
      </trkpt>
      <trkpt lat="48.64014" lon="2.50892">
        <ele>81</ele>
        <time>2022-11-15T09:01:34.481Z</time>
      </trkpt>
      <trkpt lat="48.63999" lon="2.50886">
        <ele>84</ele>
        <time>2022-11-15T09:01:39.493Z</time>
      </trkpt>
      <trkpt lat="48.63982" lon="2.50893">
        <ele>86</ele>
        <time>2022-11-15T09:01:44.498Z</time>
      </trkpt>
      <trkpt lat="48.63968" lon="2.509">
        <ele>86</ele>
        <time>2022-11-15T09:01:48.509Z</time>
      </trkpt>
      <trkpt lat="48.63949" lon="2.50908">
        <ele>84</ele>
        <time>2022-11-15T09:01:53.490Z</time>
      </trkpt>
      <trkpt lat="48.63931" lon="2.50913">
        <ele>84</ele>
        <time>2022-11-15T09:01:58.501Z</time>
      </trkpt>
      <trkpt lat="48.63915" lon="2.50917">
        <ele>83</ele>
        <time>2022-11-15T09:02:03.521Z</time>
      </trkpt>
      <trkpt lat="48.63907" lon="2.50934">
        <ele>82</ele>
        <time>2022-11-15T09:02:08.496Z</time>
      </trkpt>
      <trkpt lat="48.63892" lon="2.50951">
        <ele>81</ele>
        <time>2022-11-15T09:02:13.486Z</time>
      </trkpt>
      <trkpt lat="48.63878" lon="2.50971">
        <ele>81</ele>
        <time>2022-11-15T09:02:18.496Z</time>
      </trkpt>
      <trkpt lat="48.63871" lon="2.50997">
        <ele>81</ele>
        <time>2022-11-15T09:02:23.505Z</time>
      </trkpt>
      <trkpt lat="48.63861" lon="2.51018">
        <ele>82</ele>
        <time>2022-11-15T09:02:28.492Z</time>
      </trkpt>
      <trkpt lat="48.63848" lon="2.51025">
        <ele>82</ele>
        <time>2022-11-15T09:02:33.506Z</time>
      </trkpt>
      <trkpt lat="48.63838" lon="2.51027">
        <ele>81</ele>
        <time>2022-11-15T09:02:37.520Z</time>
      </trkpt>
      <trkpt lat="48.63826" lon="2.51029">
        <ele>81</ele>
        <time>2022-11-15T09:02:42.497Z</time>
      </trkpt>
      <trkpt lat="48.63813" lon="2.51033">
        <ele>81</ele>
        <time>2022-11-15T09:02:47.509Z</time>
      </trkpt>
      <trkpt lat="48.63797" lon="2.51035">
        <ele>81</ele>
        <time>2022-11-15T09:02:52.504Z</time>
      </trkpt>
      <trkpt lat="48.63781" lon="2.51041">
        <ele>82</ele>
        <time>2022-11-15T09:02:57.506Z</time>
      </trkpt>
      <trkpt lat="48.63765" lon="2.51047">
        <ele>82</ele>
        <time>2022-11-15T09:03:02.511Z</time>
      </trkpt>
      <trkpt lat="48.63749" lon="2.51064">
        <ele>82</ele>
        <time>2022-11-15T09:03:07.492Z</time>
      </trkpt>
      <trkpt lat="48.63736" lon="2.51084">
        <ele>83</ele>
        <time>2022-11-15T09:03:12.494Z</time>
      </trkpt>
      <trkpt lat="48.63726" lon="2.51103">
        <ele>83</ele>
        <time>2022-11-15T09:03:16.508Z</time>
      </trkpt>
      <trkpt lat="48.63716" lon="2.51128">
        <ele>83</ele>
        <time>2022-11-15T09:03:21.481Z</time>
      </trkpt>
      <trkpt lat="48.6371" lon="2.51153">
        <ele>83</ele>
        <time>2022-11-15T09:03:26.496Z</time>
      </trkpt>
      <trkpt lat="48.63706" lon="2.5118">
        <ele>83</ele>
        <time>2022-11-15T09:03:31.507Z</time>
      </trkpt>
      <trkpt lat="48.6369" lon="2.51199">
        <ele>82</ele>
        <time>2022-11-15T09:03:36.514Z</time>
      </trkpt>
      <trkpt lat="48.63674" lon="2.51206">
        <ele>81</ele>
        <time>2022-11-15T09:03:41.516Z</time>
      </trkpt>
      <trkpt lat="48.63656" lon="2.51212">
        <ele>81</ele>
        <time>2022-11-15T09:03:46.496Z</time>
      </trkpt>
      <trkpt lat="48.63641" lon="2.51218">
        <ele>81</ele>
        <time>2022-11-15T09:03:50.510Z</time>
      </trkpt>
      <trkpt lat="48.6362" lon="2.51223">
        <ele>82</ele>
        <time>2022-11-15T09:03:55.516Z</time>
      </trkpt>
      <trkpt lat="48.63603" lon="2.51225">
        <ele>82</ele>
        <time>2022-11-15T09:03:59.525Z</time>
      </trkpt>
      <trkpt lat="48.63581" lon="2.51229">
        <ele>83</ele>
        <time>2022-11-15T09:04:04.490Z</time>
      </trkpt>
      <trkpt lat="48.63559" lon="2.51235">
        <ele>83</ele>
        <time>2022-11-15T09:04:09.490Z</time>
      </trkpt>
      <trkpt lat="48.63541" lon="2.51239">
        <ele>82</ele>
        <time>2022-11-15T09:04:13.517Z</time>
      </trkpt>
      <trkpt lat="48.63521" lon="2.51244">
        <ele>82</ele>
        <time>2022-11-15T09:04:18.494Z</time>
      </trkpt>
      <trkpt lat="48.635" lon="2.51247">
        <ele>83</ele>
        <time>2022-11-15T09:04:23.494Z</time>
      </trkpt>
      <trkpt lat="48.6348" lon="2.51248">
        <ele>84</ele>
        <time>2022-11-15T09:04:28.486Z</time>
      </trkpt>
      <trkpt lat="48.63464" lon="2.5125">
        <ele>84</ele>
        <time>2022-11-15T09:04:32.514Z</time>
      </trkpt>
      <trkpt lat="48.63444" lon="2.51253">
        <ele>83</ele>
        <time>2022-11-15T09:04:37.508Z</time>
      </trkpt>
      <trkpt lat="48.63425" lon="2.51256">
        <ele>82</ele>
        <time>2022-11-15T09:04:42.507Z</time>
      </trkpt>
      <trkpt lat="48.63409" lon="2.51243">
        <ele>82</ele>
        <time>2022-11-15T09:04:47.505Z</time>
      </trkpt>
      <trkpt lat="48.63392" lon="2.5123">
        <ele>82</ele>
        <time>2022-11-15T09:04:52.516Z</time>
      </trkpt>
      <trkpt lat="48.63373" lon="2.51228">
        <ele>82</ele>
        <time>2022-11-15T09:04:57.500Z</time>
      </trkpt>
      <trkpt lat="48.6336" lon="2.51244">
        <ele>83</ele>
        <time>2022-11-15T09:05:02.517Z</time>
      </trkpt>
      <trkpt lat="48.63348" lon="2.51263">
        <ele>83</ele>
        <time>2022-11-15T09:05:07.492Z</time>
      </trkpt>
      <trkpt lat="48.63329" lon="2.51266">
        <ele>84</ele>
        <time>2022-11-15T09:05:12.494Z</time>
      </trkpt>
      <trkpt lat="48.6331" lon="2.51271">
        <ele>84</ele>
        <time>2022-11-15T09:05:17.497Z</time>
      </trkpt>
      <trkpt lat="48.63293" lon="2.51275">
        <ele>84</ele>
        <time>2022-11-15T09:05:22.504Z</time>
      </trkpt>
      <trkpt lat="48.63275" lon="2.51268">
        <ele>85</ele>
        <time>2022-11-15T09:05:27.498Z</time>
      </trkpt>
      <trkpt lat="48.63258" lon="2.51268">
        <ele>87</ele>
        <time>2022-11-15T09:05:32.521Z</time>
      </trkpt>
      <trkpt lat="48.63246" lon="2.51289">
        <ele>87</ele>
        <time>2022-11-15T09:05:37.501Z</time>
      </trkpt>
      <trkpt lat="48.63233" lon="2.51305">
        <ele>85</ele>
        <time>2022-11-15T09:05:42.501Z</time>
      </trkpt>
      <trkpt lat="48.63219" lon="2.51316">
        <ele>85</ele>
        <time>2022-11-15T09:05:47.504Z</time>
      </trkpt>
      <trkpt lat="48.63203" lon="2.51325">
        <ele>83</ele>
        <time>2022-11-15T09:05:52.511Z</time>
      </trkpt>
      <trkpt lat="48.63189" lon="2.51336">
        <ele>83</ele>
        <time>2022-11-15T09:05:57.505Z</time>
      </trkpt>
      <trkpt lat="48.63175" lon="2.51347">
        <ele>84</ele>
        <time>2022-11-15T09:06:02.503Z</time>
      </trkpt>
      <trkpt lat="48.63161" lon="2.51354">
        <ele>84</ele>
        <time>2022-11-15T09:06:07.485Z</time>
      </trkpt>
      <trkpt lat="48.63148" lon="2.51363">
        <ele>85</ele>
        <time>2022-11-15T09:06:12.509Z</time>
      </trkpt>
      <trkpt lat="48.63134" lon="2.51372">
        <ele>85</ele>
        <time>2022-11-15T09:06:17.486Z</time>
      </trkpt>
      <trkpt lat="48.63118" lon="2.51383">
        <ele>86</ele>
        <time>2022-11-15T09:06:22.501Z</time>
      </trkpt>
      <trkpt lat="48.63101" lon="2.51395">
        <ele>86</ele>
        <time>2022-11-15T09:06:27.504Z</time>
      </trkpt>
      <trkpt lat="48.63084" lon="2.51408">
        <ele>87</ele>
        <time>2022-11-15T09:06:32.482Z</time>
      </trkpt>
      <trkpt lat="48.63069" lon="2.51418">
        <ele>87</ele>
        <time>2022-11-15T09:06:36.509Z</time>
      </trkpt>
      <trkpt lat="48.63049" lon="2.51428">
        <ele>86</ele>
        <time>2022-11-15T09:06:41.492Z</time>
      </trkpt>
      <trkpt lat="48.63033" lon="2.51429">
        <ele>86</ele>
        <time>2022-11-15T09:06:45.517Z</time>
      </trkpt>
      <trkpt lat="48.63021" lon="2.5142">
        <ele>86</ele>
        <time>2022-11-15T09:06:50.504Z</time>
      </trkpt>
      <trkpt lat="48.62983" lon="2.5139">
        <ele>85</ele>
        <time>2022-11-15T09:07:34.486Z</time>
      </trkpt>
      <trkpt lat="48.62983" lon="2.5139">
        <ele>85</ele>
        <time>2022-11-15T09:07:42.501Z</time>
      </trkpt>
      <trkpt lat="48.62973" lon="2.5139">
        <ele>85</ele>
        <time>2022-11-15T09:07:47.496Z</time>
      </trkpt>
      <trkpt lat="48.62968" lon="2.51405">
        <ele>86</ele>
        <time>2022-11-15T09:07:52.500Z</time>
      </trkpt>
      <trkpt lat="48.62967" lon="2.5141">
        <ele>86</ele>
        <time>2022-11-15T09:07:57.514Z</time>
      </trkpt>
      <trkpt lat="48.62967" lon="2.51413">
        <ele>86</ele>
        <time>2022-11-15T09:08:44.517Z</time>
      </trkpt>
      <trkpt lat="48.62966" lon="2.51419">
        <ele>86</ele>
        <time>2022-11-15T09:09:38.504Z</time>
      </trkpt>
      <trkpt lat="48.62962" lon="2.51438">
        <ele>85</ele>
        <time>2022-11-15T09:09:43.496Z</time>
      </trkpt>
      <trkpt lat="48.62957" lon="2.51462">
        <ele>84</ele>
        <time>2022-11-15T09:09:48.512Z</time>
      </trkpt>
      <trkpt lat="48.62949" lon="2.51486">
        <ele>83</ele>
        <time>2022-11-15T09:09:53.490Z</time>
      </trkpt>
      <trkpt lat="48.62938" lon="2.51505">
        <ele>83</ele>
        <time>2022-11-15T09:09:57.498Z</time>
      </trkpt>
      <trkpt lat="48.62922" lon="2.51526">
        <ele>83</ele>
        <time>2022-11-15T09:10:02.497Z</time>
      </trkpt>
      <trkpt lat="48.62906" lon="2.51547">
        <ele>84</ele>
        <time>2022-11-15T09:10:07.501Z</time>
      </trkpt>
      <trkpt lat="48.62888" lon="2.51571">
        <ele>83</ele>
        <time>2022-11-15T09:10:12.491Z</time>
      </trkpt>
      <trkpt lat="48.62871" lon="2.51591">
        <ele>83</ele>
        <time>2022-11-15T09:10:17.483Z</time>
      </trkpt>
      <trkpt lat="48.62852" lon="2.51612">
        <ele>83</ele>
        <time>2022-11-15T09:10:22.490Z</time>
      </trkpt>
      <trkpt lat="48.62838" lon="2.51628">
        <ele>83</ele>
        <time>2022-11-15T09:10:26.505Z</time>
      </trkpt>
      <trkpt lat="48.62821" lon="2.51646">
        <ele>83</ele>
        <time>2022-11-15T09:10:31.498Z</time>
      </trkpt>
      <trkpt lat="48.62806" lon="2.51663">
        <ele>83</ele>
        <time>2022-11-15T09:10:36.501Z</time>
      </trkpt>
      <trkpt lat="48.62794" lon="2.5164">
        <ele>83</ele>
        <time>2022-11-15T09:10:41.503Z</time>
      </trkpt>
      <trkpt lat="48.62785" lon="2.5162">
        <ele>85</ele>
        <time>2022-11-15T09:10:45.513Z</time>
      </trkpt>
      <trkpt lat="48.62779" lon="2.51597">
        <ele>85</ele>
        <time>2022-11-15T09:10:50.506Z</time>
      </trkpt>
      <trkpt lat="48.62764" lon="2.51592">
        <ele>85</ele>
        <time>2022-11-15T09:10:55.482Z</time>
      </trkpt>
      <trkpt lat="48.62751" lon="2.51583">
        <ele>86</ele>
        <time>2022-11-15T09:10:59.510Z</time>
      </trkpt>
      <trkpt lat="48.62733" lon="2.51573">
        <ele>86</ele>
        <time>2022-11-15T09:11:04.487Z</time>
      </trkpt>
      <trkpt lat="48.62715" lon="2.51569">
        <ele>86</ele>
        <time>2022-11-15T09:11:09.506Z</time>
      </trkpt>
      <trkpt lat="48.627" lon="2.51566">
        <ele>85</ele>
        <time>2022-11-15T09:11:13.497Z</time>
      </trkpt>
      <trkpt lat="48.62682" lon="2.51561">
        <ele>85</ele>
        <time>2022-11-15T09:11:18.496Z</time>
      </trkpt>
      <trkpt lat="48.62665" lon="2.51556">
        <ele>85</ele>
        <time>2022-11-15T09:11:23.480Z</time>
      </trkpt>
      <trkpt lat="48.6265" lon="2.51551">
        <ele>85</ele>
        <time>2022-11-15T09:11:27.493Z</time>
      </trkpt>
      <trkpt lat="48.62636" lon="2.51545">
        <ele>85</ele>
        <time>2022-11-15T09:11:31.489Z</time>
      </trkpt>
      <trkpt lat="48.6262" lon="2.51537">
        <ele>83</ele>
        <time>2022-11-15T09:11:36.487Z</time>
      </trkpt>
      <trkpt lat="48.62614" lon="2.51525">
        <ele>83</ele>
        <time>2022-11-15T09:11:40.521Z</time>
      </trkpt>
      <trkpt lat="48.62604" lon="2.51533">
        <ele>83</ele>
        <time>2022-11-15T09:11:45.504Z</time>
      </trkpt>
      <trkpt lat="48.62589" lon="2.51525">
        <ele>82</ele>
        <time>2022-11-15T09:11:50.501Z</time>
      </trkpt>
      <trkpt lat="48.62573" lon="2.51517">
        <ele>82</ele>
        <time>2022-11-15T09:11:55.505Z</time>
      </trkpt>
      <trkpt lat="48.6256" lon="2.51513">
        <ele>83</ele>
        <time>2022-11-15T09:11:59.512Z</time>
      </trkpt>
      <trkpt lat="48.62539" lon="2.51503">
        <ele>83</ele>
        <time>2022-11-15T09:12:04.516Z</time>
      </trkpt>
      <trkpt lat="48.6252" lon="2.51492">
        <ele>83</ele>
        <time>2022-11-15T09:12:09.509Z</time>
      </trkpt>
      <trkpt lat="48.625" lon="2.51477">
        <ele>83</ele>
        <time>2022-11-15T09:12:14.505Z</time>
      </trkpt>
      <trkpt lat="48.62482" lon="2.51464">
        <ele>84</ele>
        <time>2022-11-15T09:12:19.490Z</time>
      </trkpt>
      <trkpt lat="48.62467" lon="2.51449">
        <ele>84</ele>
        <time>2022-11-15T09:12:24.489Z</time>
      </trkpt>
      <trkpt lat="48.62455" lon="2.51443">
        <ele>85</ele>
        <time>2022-11-15T09:12:28.496Z</time>
      </trkpt>
      <trkpt lat="48.6244" lon="2.51433">
        <ele>85</ele>
        <time>2022-11-15T09:12:33.486Z</time>
      </trkpt>
      <trkpt lat="48.62427" lon="2.51422">
        <ele>87</ele>
        <time>2022-11-15T09:12:37.504Z</time>
      </trkpt>
      <trkpt lat="48.62408" lon="2.51407">
        <ele>87</ele>
        <time>2022-11-15T09:12:42.496Z</time>
      </trkpt>
      <trkpt lat="48.62389" lon="2.51393">
        <ele>88</ele>
        <time>2022-11-15T09:12:47.510Z</time>
      </trkpt>
      <trkpt lat="48.62371" lon="2.51377">
        <ele>89</ele>
        <time>2022-11-15T09:12:52.502Z</time>
      </trkpt>
      <trkpt lat="48.62351" lon="2.51363">
        <ele>88</ele>
        <time>2022-11-15T09:12:57.513Z</time>
      </trkpt>
      <trkpt lat="48.62331" lon="2.51348">
        <ele>89</ele>
        <time>2022-11-15T09:13:02.517Z</time>
      </trkpt>
      <trkpt lat="48.62312" lon="2.51332">
        <ele>88</ele>
        <time>2022-11-15T09:13:07.513Z</time>
      </trkpt>
      <trkpt lat="48.62294" lon="2.51316">
        <ele>88</ele>
        <time>2022-11-15T09:13:12.502Z</time>
      </trkpt>
      <trkpt lat="48.62276" lon="2.51302">
        <ele>87</ele>
        <time>2022-11-15T09:13:17.493Z</time>
      </trkpt>
      <trkpt lat="48.62259" lon="2.51288">
        <ele>84</ele>
        <time>2022-11-15T09:13:22.484Z</time>
      </trkpt>
      <trkpt lat="48.62244" lon="2.51277">
        <ele>84</ele>
        <time>2022-11-15T09:13:26.486Z</time>
      </trkpt>
      <trkpt lat="48.62227" lon="2.51262">
        <ele>84</ele>
        <time>2022-11-15T09:13:31.499Z</time>
      </trkpt>
      <trkpt lat="48.62209" lon="2.51249">
        <ele>84</ele>
        <time>2022-11-15T09:13:36.489Z</time>
      </trkpt>
      <trkpt lat="48.6219" lon="2.51235">
        <ele>87</ele>
        <time>2022-11-15T09:13:41.486Z</time>
      </trkpt>
      <trkpt lat="48.62172" lon="2.5122">
        <ele>87</ele>
        <time>2022-11-15T09:13:46.500Z</time>
      </trkpt>
      <trkpt lat="48.62153" lon="2.51206">
        <ele>87</ele>
        <time>2022-11-15T09:13:51.509Z</time>
      </trkpt>
      <trkpt lat="48.62135" lon="2.51191">
        <ele>85</ele>
        <time>2022-11-15T09:13:56.504Z</time>
      </trkpt>
      <trkpt lat="48.62116" lon="2.51176">
        <ele>83</ele>
        <time>2022-11-15T09:14:01.501Z</time>
      </trkpt>
      <trkpt lat="48.62097" lon="2.5116">
        <ele>83</ele>
        <time>2022-11-15T09:14:06.506Z</time>
      </trkpt>
      <trkpt lat="48.62078" lon="2.51146">
        <ele>86</ele>
        <time>2022-11-15T09:14:11.495Z</time>
      </trkpt>
      <trkpt lat="48.6206" lon="2.51131">
        <ele>87</ele>
        <time>2022-11-15T09:14:16.516Z</time>
      </trkpt>
      <trkpt lat="48.62044" lon="2.51119">
        <ele>87</ele>
        <time>2022-11-15T09:14:21.502Z</time>
      </trkpt>
      <trkpt lat="48.6203" lon="2.51108">
        <ele>87</ele>
        <time>2022-11-15T09:14:26.490Z</time>
      </trkpt>
      <trkpt lat="48.62016" lon="2.51098">
        <ele>87</ele>
        <time>2022-11-15T09:14:31.487Z</time>
      </trkpt>
      <trkpt lat="48.61999" lon="2.51084">
        <ele>88</ele>
        <time>2022-11-15T09:14:36.489Z</time>
      </trkpt>
      <trkpt lat="48.61982" lon="2.51068">
        <ele>89</ele>
        <time>2022-11-15T09:14:41.493Z</time>
      </trkpt>
      <trkpt lat="48.61965" lon="2.51055">
        <ele>89</ele>
        <time>2022-11-15T09:14:46.482Z</time>
      </trkpt>
      <trkpt lat="48.6195" lon="2.51042">
        <ele>87</ele>
        <time>2022-11-15T09:14:51.515Z</time>
      </trkpt>
      <trkpt lat="48.61933" lon="2.51028">
        <ele>87</ele>
        <time>2022-11-15T09:14:56.487Z</time>
      </trkpt>
      <trkpt lat="48.6192" lon="2.51019">
        <ele>83</ele>
        <time>2022-11-15T09:15:00.508Z</time>
      </trkpt>
      <trkpt lat="48.61905" lon="2.51007">
        <ele>82</ele>
        <time>2022-11-15T09:15:05.513Z</time>
      </trkpt>
      <trkpt lat="48.61891" lon="2.50996">
        <ele>82</ele>
        <time>2022-11-15T09:15:10.512Z</time>
      </trkpt>
      <trkpt lat="48.61887" lon="2.50992">
        <ele>82</ele>
        <time>2022-11-15T09:15:15.509Z</time>
      </trkpt>
      <trkpt lat="48.61887" lon="2.50992">
        <ele>82</ele>
        <time>2022-11-15T09:15:19.514Z</time>
      </trkpt>
      <trkpt lat="48.61887" lon="2.50992">
        <ele>82</ele>
        <time>2022-11-15T09:15:24.495Z</time>
      </trkpt>
      <trkpt lat="48.61886" lon="2.50991">
        <ele>82</ele>
        <time>2022-11-15T09:15:29.486Z</time>
      </trkpt>
      <trkpt lat="48.61878" lon="2.50984">
        <ele>82</ele>
        <time>2022-11-15T09:15:34.495Z</time>
      </trkpt>
      <trkpt lat="48.61869" lon="2.50978">
        <ele>84</ele>
        <time>2022-11-15T09:15:39.500Z</time>
      </trkpt>
      <trkpt lat="48.61859" lon="2.50969">
        <ele>84</ele>
        <time>2022-11-15T09:15:43.487Z</time>
      </trkpt>
      <trkpt lat="48.61844" lon="2.50957">
        <ele>85</ele>
        <time>2022-11-15T09:15:48.505Z</time>
      </trkpt>
      <trkpt lat="48.61828" lon="2.50946">
        <ele>85</ele>
        <time>2022-11-15T09:15:53.483Z</time>
      </trkpt>
      <trkpt lat="48.61813" lon="2.50934">
        <ele>85</ele>
        <time>2022-11-15T09:15:58.497Z</time>
      </trkpt>
      <trkpt lat="48.61797" lon="2.50922">
        <ele>85</ele>
        <time>2022-11-15T09:16:03.495Z</time>
      </trkpt>
      <trkpt lat="48.61785" lon="2.50913">
        <ele>86</ele>
        <time>2022-11-15T09:16:07.512Z</time>
      </trkpt>
      <trkpt lat="48.6177" lon="2.50901">
        <ele>87</ele>
        <time>2022-11-15T09:16:12.517Z</time>
      </trkpt>
      <trkpt lat="48.61755" lon="2.50889">
        <ele>88</ele>
        <time>2022-11-15T09:16:17.526Z</time>
      </trkpt>
      <trkpt lat="48.6174" lon="2.50877">
        <ele>88</ele>
        <time>2022-11-15T09:16:22.517Z</time>
      </trkpt>
      <trkpt lat="48.61725" lon="2.50865">
        <ele>87</ele>
        <time>2022-11-15T09:16:27.502Z</time>
      </trkpt>
      <trkpt lat="48.6171" lon="2.50852">
        <ele>87</ele>
        <time>2022-11-15T09:16:32.494Z</time>
      </trkpt>
      <trkpt lat="48.61694" lon="2.50839">
        <ele>87</ele>
        <time>2022-11-15T09:16:37.505Z</time>
      </trkpt>
      <trkpt lat="48.61679" lon="2.50827">
        <ele>88</ele>
        <time>2022-11-15T09:16:42.491Z</time>
      </trkpt>
      <trkpt lat="48.61666" lon="2.50822">
        <ele>88</ele>
        <time>2022-11-15T09:16:47.500Z</time>
      </trkpt>
      <trkpt lat="48.61653" lon="2.50827">
        <ele>88</ele>
        <time>2022-11-15T09:16:51.487Z</time>
      </trkpt>
      <trkpt lat="48.61636" lon="2.50834">
        <ele>88</ele>
        <time>2022-11-15T09:16:56.494Z</time>
      </trkpt>
      <trkpt lat="48.61617" lon="2.50843">
        <ele>88</ele>
        <time>2022-11-15T09:17:01.492Z</time>
      </trkpt>
      <trkpt lat="48.61602" lon="2.5085">
        <ele>87</ele>
        <time>2022-11-15T09:17:06.513Z</time>
      </trkpt>
      <trkpt lat="48.61593" lon="2.50832">
        <ele>90</ele>
        <time>2022-11-15T09:17:11.515Z</time>
      </trkpt>
      <trkpt lat="48.61582" lon="2.5082">
        <ele>90</ele>
        <time>2022-11-15T09:17:16.506Z</time>
      </trkpt>
      <trkpt lat="48.6157" lon="2.50829">
        <ele>90</ele>
        <time>2022-11-15T09:17:21.515Z</time>
      </trkpt>
      <trkpt lat="48.61552" lon="2.50826">
        <ele>90</ele>
        <time>2022-11-15T09:17:26.500Z</time>
      </trkpt>
      <trkpt lat="48.61539" lon="2.50813">
        <ele>90</ele>
        <time>2022-11-15T09:17:30.512Z</time>
      </trkpt>
      <trkpt lat="48.6153" lon="2.50795">
        <ele>90</ele>
        <time>2022-11-15T09:17:35.493Z</time>
      </trkpt>
      <trkpt lat="48.61519" lon="2.50773">
        <ele>90</ele>
        <time>2022-11-15T09:17:40.493Z</time>
      </trkpt>
      <trkpt lat="48.61505" lon="2.5075">
        <ele>91</ele>
        <time>2022-11-15T09:17:45.496Z</time>
      </trkpt>
      <trkpt lat="48.61493" lon="2.50729">
        <ele>91</ele>
        <time>2022-11-15T09:17:50.486Z</time>
      </trkpt>
      <trkpt lat="48.61484" lon="2.50711">
        <ele>91</ele>
        <time>2022-11-15T09:17:55.492Z</time>
      </trkpt>
      <trkpt lat="48.61474" lon="2.50693">
        <ele>91</ele>
        <time>2022-11-15T09:18:00.485Z</time>
      </trkpt>
      <trkpt lat="48.61459" lon="2.50669">
        <ele>90</ele>
        <time>2022-11-15T09:18:05.489Z</time>
      </trkpt>
      <trkpt lat="48.61445" lon="2.50643">
        <ele>90</ele>
        <time>2022-11-15T09:18:10.508Z</time>
      </trkpt>
      <trkpt lat="48.61431" lon="2.50618">
        <ele>90</ele>
        <time>2022-11-15T09:18:15.499Z</time>
      </trkpt>
      <trkpt lat="48.61417" lon="2.50596">
        <ele>90</ele>
        <time>2022-11-15T09:18:20.498Z</time>
      </trkpt>
      <trkpt lat="48.614" lon="2.50579">
        <ele>90</ele>
        <time>2022-11-15T09:18:25.510Z</time>
      </trkpt>
      <trkpt lat="48.61387" lon="2.50567">
        <ele>91</ele>
        <time>2022-11-15T09:18:30.505Z</time>
      </trkpt>
      <trkpt lat="48.61383" lon="2.5055">
        <ele>91</ele>
        <time>2022-11-15T09:18:34.502Z</time>
      </trkpt>
      <trkpt lat="48.61393" lon="2.50525">
        <ele>91</ele>
        <time>2022-11-15T09:18:39.482Z</time>
      </trkpt>
      <trkpt lat="48.6139" lon="2.50505">
        <ele>90</ele>
        <time>2022-11-15T09:18:43.506Z</time>
      </trkpt>
      <trkpt lat="48.61375" lon="2.50484">
        <ele>90</ele>
        <time>2022-11-15T09:18:48.498Z</time>
      </trkpt>
      <trkpt lat="48.61369" lon="2.5045">
        <ele>90</ele>
        <time>2022-11-15T09:18:53.500Z</time>
      </trkpt>
      <trkpt lat="48.61363" lon="2.50415">
        <ele>90</ele>
        <time>2022-11-15T09:18:58.495Z</time>
      </trkpt>
      <trkpt lat="48.61357" lon="2.50381">
        <ele>89</ele>
        <time>2022-11-15T09:19:03.484Z</time>
      </trkpt>
      <trkpt lat="48.61353" lon="2.50352">
        <ele>89</ele>
        <time>2022-11-15T09:19:07.496Z</time>
      </trkpt>
      <trkpt lat="48.61347" lon="2.50322">
        <ele>89</ele>
        <time>2022-11-15T09:19:11.512Z</time>
      </trkpt>
      <trkpt lat="48.61342" lon="2.5029">
        <ele>90</ele>
        <time>2022-11-15T09:19:16.500Z</time>
      </trkpt>
      <trkpt lat="48.6133" lon="2.50278">
        <ele>90</ele>
        <time>2022-11-15T09:19:21.512Z</time>
      </trkpt>
      <trkpt lat="48.61319" lon="2.50283">
        <ele>91</ele>
        <time>2022-11-15T09:19:26.503Z</time>
      </trkpt>
      <trkpt lat="48.6131" lon="2.5028">
        <ele>91</ele>
        <time>2022-11-15T09:19:31.485Z</time>
      </trkpt>
      <trkpt lat="48.61307" lon="2.50281">
        <ele>91</ele>
        <time>2022-11-15T09:19:35.505Z</time>
      </trkpt>
      <trkpt lat="48.61308" lon="2.50281">
        <ele>91</ele>
        <time>2022-11-15T09:19:40.501Z</time>
      </trkpt>
      <trkpt lat="48.61307" lon="2.50281">
        <ele>91</ele>
        <time>2022-11-15T09:20:10.480Z</time>
      </trkpt>
      <trkpt lat="48.61302" lon="2.50284">
        <ele>91</ele>
        <time>2022-11-15T09:20:15.489Z</time>
      </trkpt>
      <trkpt lat="48.61297" lon="2.50287">
        <ele>91</ele>
        <time>2022-11-15T09:20:19.504Z</time>
      </trkpt>
      <trkpt lat="48.61284" lon="2.50292">
        <ele>92</ele>
        <time>2022-11-15T09:20:24.507Z</time>
      </trkpt>
      <trkpt lat="48.61272" lon="2.50293">
        <ele>91</ele>
        <time>2022-11-15T09:20:28.512Z</time>
      </trkpt>
      <trkpt lat="48.61263" lon="2.50277">
        <ele>93</ele>
        <time>2022-11-15T09:20:33.490Z</time>
      </trkpt>
      <trkpt lat="48.61261" lon="2.50261">
        <ele>94</ele>
        <time>2022-11-15T09:20:38.503Z</time>
      </trkpt>
      <trkpt lat="48.61254" lon="2.50247">
        <ele>94</ele>
        <time>2022-11-15T09:20:43.482Z</time>
      </trkpt>
      <trkpt lat="48.61243" lon="2.50245">
        <ele>94</ele>
        <time>2022-11-15T09:20:48.500Z</time>
      </trkpt>
      <trkpt lat="48.61232" lon="2.50248">
        <ele>95</ele>
        <time>2022-11-15T09:20:53.492Z</time>
      </trkpt>
      <trkpt lat="48.6122" lon="2.5025">
        <ele>95</ele>
        <time>2022-11-15T09:20:58.487Z</time>
      </trkpt>
      <trkpt lat="48.61207" lon="2.50253">
        <ele>96</ele>
        <time>2022-11-15T09:21:03.489Z</time>
      </trkpt>
      <trkpt lat="48.61199" lon="2.50255">
        <ele>96</ele>
        <time>2022-11-15T09:21:08.483Z</time>
      </trkpt>
      <trkpt lat="48.61193" lon="2.50248">
        <ele>96</ele>
        <time>2022-11-15T09:21:13.492Z</time>
      </trkpt>
      <trkpt lat="48.61192" lon="2.50235">
        <ele>95</ele>
        <time>2022-11-15T09:21:18.502Z</time>
      </trkpt>
      <trkpt lat="48.61182" lon="2.50224">
        <ele>95</ele>
        <time>2022-11-15T09:21:23.487Z</time>
      </trkpt>
      <trkpt lat="48.61169" lon="2.50213">
        <ele>95</ele>
        <time>2022-11-15T09:21:28.512Z</time>
      </trkpt>
      <trkpt lat="48.61155" lon="2.50201">
        <ele>93</ele>
        <time>2022-11-15T09:21:33.484Z</time>
      </trkpt>
      <trkpt lat="48.61141" lon="2.50192">
        <ele>93</ele>
        <time>2022-11-15T09:21:38.506Z</time>
      </trkpt>
      <trkpt lat="48.61125" lon="2.50198">
        <ele>94</ele>
        <time>2022-11-15T09:21:43.504Z</time>
      </trkpt>
      <trkpt lat="48.61109" lon="2.50206">
        <ele>94</ele>
        <time>2022-11-15T09:21:48.492Z</time>
      </trkpt>
      <trkpt lat="48.61092" lon="2.50212">
        <ele>94</ele>
        <time>2022-11-15T09:21:53.490Z</time>
      </trkpt>
      <trkpt lat="48.61075" lon="2.5022">
        <ele>94</ele>
        <time>2022-11-15T09:21:58.484Z</time>
      </trkpt>
      <trkpt lat="48.61057" lon="2.50229">
        <ele>94</ele>
        <time>2022-11-15T09:22:03.477Z</time>
      </trkpt>
      <trkpt lat="48.6104" lon="2.50235">
        <ele>96</ele>
        <time>2022-11-15T09:22:08.486Z</time>
      </trkpt>
      <trkpt lat="48.61022" lon="2.5024">
        <ele>95</ele>
        <time>2022-11-15T09:22:13.489Z</time>
      </trkpt>
      <trkpt lat="48.61004" lon="2.50248">
        <ele>99</ele>
        <time>2022-11-15T09:22:18.481Z</time>
      </trkpt>
      <trkpt lat="48.60985" lon="2.50254">
        <ele>99</ele>
        <time>2022-11-15T09:22:22.486Z</time>
      </trkpt>
      <trkpt lat="48.60962" lon="2.50262">
        <ele>99</ele>
        <time>2022-11-15T09:22:27.493Z</time>
      </trkpt>
      <trkpt lat="48.60943" lon="2.50269">
        <ele>97</ele>
        <time>2022-11-15T09:22:32.507Z</time>
      </trkpt>
      <trkpt lat="48.60925" lon="2.50275">
        <ele>97</ele>
        <time>2022-11-15T09:22:37.511Z</time>
      </trkpt>
      <trkpt lat="48.60902" lon="2.50287">
        <ele>99</ele>
        <time>2022-11-15T09:22:42.503Z</time>
      </trkpt>
      <trkpt lat="48.60884" lon="2.50293">
        <ele>98</ele>
        <time>2022-11-15T09:22:47.513Z</time>
      </trkpt>
      <trkpt lat="48.60863" lon="2.503">
        <ele>100</ele>
        <time>2022-11-15T09:22:52.496Z</time>
      </trkpt>
      <trkpt lat="48.60846" lon="2.5031">
        <ele>96</ele>
        <time>2022-11-15T09:22:57.513Z</time>
      </trkpt>
      <trkpt lat="48.6083" lon="2.50319">
        <ele>96</ele>
        <time>2022-11-15T09:23:02.501Z</time>
      </trkpt>
      <trkpt lat="48.60829" lon="2.50337">
        <ele>96</ele>
        <time>2022-11-15T09:23:07.492Z</time>
      </trkpt>
      <trkpt lat="48.60834" lon="2.50362">
        <ele>96</ele>
        <time>2022-11-15T09:23:12.490Z</time>
      </trkpt>
      <trkpt lat="48.6084" lon="2.50388">
        <ele>95</ele>
        <time>2022-11-15T09:23:17.485Z</time>
      </trkpt>
      <trkpt lat="48.60843" lon="2.50409">
        <ele>92</ele>
        <time>2022-11-15T09:23:22.497Z</time>
      </trkpt>
      <trkpt lat="48.60851" lon="2.50434">
        <ele>91</ele>
        <time>2022-11-15T09:23:27.488Z</time>
      </trkpt>
      <trkpt lat="48.60854" lon="2.50453">
        <ele>91</ele>
        <time>2022-11-15T09:23:31.498Z</time>
      </trkpt>
      <trkpt lat="48.60857" lon="2.50483">
        <ele>90</ele>
        <time>2022-11-15T09:23:36.504Z</time>
      </trkpt>
      <trkpt lat="48.60864" lon="2.50509">
        <ele>90</ele>
        <time>2022-11-15T09:23:41.499Z</time>
      </trkpt>
      <trkpt lat="48.60871" lon="2.5053">
        <ele>91</ele>
        <time>2022-11-15T09:23:46.512Z</time>
      </trkpt>
      <trkpt lat="48.60876" lon="2.50554">
        <ele>92</ele>
        <time>2022-11-15T09:23:51.505Z</time>
      </trkpt>
      <trkpt lat="48.60876" lon="2.50574">
        <ele>92</ele>
        <time>2022-11-15T09:23:56.497Z</time>
      </trkpt>
      <trkpt lat="48.60868" lon="2.50587">
        <ele>92</ele>
        <time>2022-11-15T09:24:01.515Z</time>
      </trkpt>
      <trkpt lat="48.60861" lon="2.50609">
        <ele>92</ele>
        <time>2022-11-15T09:24:06.498Z</time>
      </trkpt>
      <trkpt lat="48.60849" lon="2.50613">
        <ele>92</ele>
        <time>2022-11-15T09:24:11.504Z</time>
      </trkpt>
      <trkpt lat="48.60842" lon="2.50616">
        <ele>90</ele>
        <time>2022-11-15T09:24:16.493Z</time>
      </trkpt>
      <trkpt lat="48.60839" lon="2.50619">
        <ele>90</ele>
        <time>2022-11-15T09:25:56.513Z</time>
      </trkpt>
      <trkpt lat="48.60839" lon="2.5062">
        <ele>90</ele>
        <time>2022-11-15T09:26:20.501Z</time>
      </trkpt>
      <trkpt lat="48.60837" lon="2.50621">
        <ele>90</ele>
        <time>2022-11-15T09:26:52.510Z</time>
      </trkpt>
      <trkpt lat="48.60824" lon="2.50629">
        <ele>90</ele>
        <time>2022-11-15T09:26:57.500Z</time>
      </trkpt>
      <trkpt lat="48.60806" lon="2.50641">
        <ele>89</ele>
        <time>2022-11-15T09:27:02.486Z</time>
      </trkpt>
      <trkpt lat="48.60786" lon="2.50654">
        <ele>91</ele>
        <time>2022-11-15T09:27:07.498Z</time>
      </trkpt>
      <trkpt lat="48.60767" lon="2.50667">
        <ele>91</ele>
        <time>2022-11-15T09:27:12.499Z</time>
      </trkpt>
      <trkpt lat="48.6075" lon="2.50678">
        <ele>91</ele>
        <time>2022-11-15T09:27:17.500Z</time>
      </trkpt>
      <trkpt lat="48.60733" lon="2.50688">
        <ele>91</ele>
        <time>2022-11-15T09:27:22.517Z</time>
      </trkpt>
      <trkpt lat="48.60714" lon="2.50698">
        <ele>91</ele>
        <time>2022-11-15T09:27:27.502Z</time>
      </trkpt>
      <trkpt lat="48.60695" lon="2.50708">
        <ele>90</ele>
        <time>2022-11-15T09:27:32.481Z</time>
      </trkpt>
      <trkpt lat="48.60677" lon="2.50717">
        <ele>90</ele>
        <time>2022-11-15T09:27:37.508Z</time>
      </trkpt>
      <trkpt lat="48.60662" lon="2.50722">
        <ele>90</ele>
        <time>2022-11-15T09:27:42.495Z</time>
      </trkpt>
      <trkpt lat="48.60653" lon="2.50729">
        <ele>90</ele>
        <time>2022-11-15T09:27:47.494Z</time>
      </trkpt>
      <trkpt lat="48.60645" lon="2.50733">
        <ele>89</ele>
        <time>2022-11-15T09:27:52.488Z</time>
      </trkpt>
      <trkpt lat="48.60631" lon="2.50738">
        <ele>90</ele>
        <time>2022-11-15T09:27:57.490Z</time>
      </trkpt>
      <trkpt lat="48.60615" lon="2.50744">
        <ele>89</ele>
        <time>2022-11-15T09:28:02.497Z</time>
      </trkpt>
      <trkpt lat="48.60597" lon="2.50751">
        <ele>90</ele>
        <time>2022-11-15T09:28:07.509Z</time>
      </trkpt>
      <trkpt lat="48.60578" lon="2.50759">
        <ele>90</ele>
        <time>2022-11-15T09:28:12.507Z</time>
      </trkpt>
      <trkpt lat="48.60559" lon="2.50766">
        <ele>90</ele>
        <time>2022-11-15T09:28:17.480Z</time>
      </trkpt>
      <trkpt lat="48.60543" lon="2.50774">
        <ele>90</ele>
        <time>2022-11-15T09:28:22.505Z</time>
      </trkpt>
      <trkpt lat="48.60528" lon="2.5078">
        <ele>89</ele>
        <time>2022-11-15T09:28:27.487Z</time>
      </trkpt>
      <trkpt lat="48.60521" lon="2.50789">
        <ele>89</ele>
        <time>2022-11-15T09:28:31.506Z</time>
      </trkpt>
      <trkpt lat="48.60525" lon="2.50812">
        <ele>90</ele>
        <time>2022-11-15T09:28:36.516Z</time>
      </trkpt>
      <trkpt lat="48.60529" lon="2.50839">
        <ele>90</ele>
        <time>2022-11-15T09:28:41.484Z</time>
      </trkpt>
      <trkpt lat="48.60533" lon="2.50864">
        <ele>91</ele>
        <time>2022-11-15T09:28:46.503Z</time>
      </trkpt>
      <trkpt lat="48.60536" lon="2.50888">
        <ele>93</ele>
        <time>2022-11-15T09:28:51.481Z</time>
      </trkpt>
      <trkpt lat="48.6054" lon="2.50912">
        <ele>94</ele>
        <time>2022-11-15T09:28:56.487Z</time>
      </trkpt>
      <trkpt lat="48.60543" lon="2.50937">
        <ele>93</ele>
        <time>2022-11-15T09:29:01.482Z</time>
      </trkpt>
      <trkpt lat="48.60547" lon="2.50966">
        <ele>92</ele>
        <time>2022-11-15T09:29:06.482Z</time>
      </trkpt>
      <trkpt lat="48.6055" lon="2.50993">
        <ele>93</ele>
        <time>2022-11-15T09:29:10.498Z</time>
      </trkpt>
      <trkpt lat="48.60554" lon="2.51026">
        <ele>92</ele>
        <time>2022-11-15T09:29:15.479Z</time>
      </trkpt>
      <trkpt lat="48.60558" lon="2.51055">
        <ele>93</ele>
        <time>2022-11-15T09:29:19.506Z</time>
      </trkpt>
      <trkpt lat="48.60559" lon="2.51093">
        <ele>92</ele>
        <time>2022-11-15T09:29:24.497Z</time>
      </trkpt>
      <trkpt lat="48.60561" lon="2.51126">
        <ele>90</ele>
        <time>2022-11-15T09:29:29.496Z</time>
      </trkpt>
      <trkpt lat="48.60562" lon="2.51154">
        <ele>90</ele>
        <time>2022-11-15T09:29:34.498Z</time>
      </trkpt>
      <trkpt lat="48.60563" lon="2.51187">
        <ele>89</ele>
        <time>2022-11-15T09:29:39.503Z</time>
      </trkpt>
      <trkpt lat="48.60564" lon="2.51224">
        <ele>89</ele>
        <time>2022-11-15T09:29:44.521Z</time>
      </trkpt>
      <trkpt lat="48.60564" lon="2.51258">
        <ele>89</ele>
        <time>2022-11-15T09:29:49.480Z</time>
      </trkpt>
      <trkpt lat="48.60565" lon="2.51288">
        <ele>89</ele>
        <time>2022-11-15T09:29:54.489Z</time>
      </trkpt>
      <trkpt lat="48.60557" lon="2.51309">
        <ele>89</ele>
        <time>2022-11-15T09:29:59.495Z</time>
      </trkpt>
      <trkpt lat="48.60557" lon="2.51333">
        <ele>90</ele>
        <time>2022-11-15T09:30:04.493Z</time>
      </trkpt>
      <trkpt lat="48.60557" lon="2.5136">
        <ele>89</ele>
        <time>2022-11-15T09:30:09.488Z</time>
      </trkpt>
      <trkpt lat="48.60558" lon="2.51391">
        <ele>88</ele>
        <time>2022-11-15T09:30:14.506Z</time>
      </trkpt>
      <trkpt lat="48.60557" lon="2.51422">
        <ele>87</ele>
        <time>2022-11-15T09:30:19.487Z</time>
      </trkpt>
      <trkpt lat="48.60557" lon="2.51452">
        <ele>88</ele>
        <time>2022-11-15T09:30:24.500Z</time>
      </trkpt>
      <trkpt lat="48.60556" lon="2.51482">
        <ele>88</ele>
        <time>2022-11-15T09:30:29.492Z</time>
      </trkpt>
      <trkpt lat="48.60553" lon="2.51509">
        <ele>89</ele>
        <time>2022-11-15T09:30:34.504Z</time>
      </trkpt>
      <trkpt lat="48.60551" lon="2.51539">
        <ele>88</ele>
        <time>2022-11-15T09:30:39.507Z</time>
      </trkpt>
      <trkpt lat="48.60543" lon="2.51581">
        <ele>87</ele>
        <time>2022-11-15T09:30:58.519Z</time>
      </trkpt>
      <trkpt lat="48.60542" lon="2.51584">
        <ele>87</ele>
        <time>2022-11-15T09:31:13.494Z</time>
      </trkpt>
      <trkpt lat="48.60539" lon="2.51596">
        <ele>88</ele>
        <time>2022-11-15T09:31:18.488Z</time>
      </trkpt>
      <trkpt lat="48.60536" lon="2.51613">
        <ele>88</ele>
        <time>2022-11-15T09:31:22.504Z</time>
      </trkpt>
      <trkpt lat="48.60533" lon="2.51629">
        <ele>87</ele>
        <time>2022-11-15T09:31:26.499Z</time>
      </trkpt>
      <trkpt lat="48.60527" lon="2.51651">
        <ele>87</ele>
        <time>2022-11-15T09:31:31.497Z</time>
      </trkpt>
      <trkpt lat="48.60523" lon="2.51674">
        <ele>88</ele>
        <time>2022-11-15T09:31:36.490Z</time>
      </trkpt>
      <trkpt lat="48.60521" lon="2.51692">
        <ele>88</ele>
        <time>2022-11-15T09:31:41.503Z</time>
      </trkpt>
      <trkpt lat="48.60516" lon="2.51707">
        <ele>88</ele>
        <time>2022-11-15T09:31:46.506Z</time>
      </trkpt>
      <trkpt lat="48.60514" lon="2.5172">
        <ele>89</ele>
        <time>2022-11-15T09:31:50.500Z</time>
      </trkpt>
      <trkpt lat="48.60511" lon="2.51734">
        <ele>89</ele>
        <time>2022-11-15T09:31:55.499Z</time>
      </trkpt>
      <trkpt lat="48.60507" lon="2.5175">
        <ele>89</ele>
        <time>2022-11-15T09:32:00.515Z</time>
      </trkpt>
      <trkpt lat="48.60505" lon="2.51767">
        <ele>89</ele>
        <time>2022-11-15T09:32:05.513Z</time>
      </trkpt>
      <trkpt lat="48.60502" lon="2.51788">
        <ele>89</ele>
        <time>2022-11-15T09:32:10.496Z</time>
      </trkpt>
      <trkpt lat="48.60499" lon="2.51811">
        <ele>89</ele>
        <time>2022-11-15T09:32:15.497Z</time>
      </trkpt>
      <trkpt lat="48.60495" lon="2.51836">
        <ele>89</ele>
        <time>2022-11-15T09:32:20.485Z</time>
      </trkpt>
      <trkpt lat="48.60492" lon="2.51864">
        <ele>90</ele>
        <time>2022-11-15T09:32:25.486Z</time>
      </trkpt>
      <trkpt lat="48.60488" lon="2.5189">
        <ele>89</ele>
        <time>2022-11-15T09:32:30.482Z</time>
      </trkpt>
      <trkpt lat="48.60485" lon="2.51911">
        <ele>91</ele>
        <time>2022-11-15T09:32:35.497Z</time>
      </trkpt>
      <trkpt lat="48.60482" lon="2.51935">
        <ele>89</ele>
        <time>2022-11-15T09:32:40.481Z</time>
      </trkpt>
      <trkpt lat="48.60478" lon="2.51962">
        <ele>88</ele>
        <time>2022-11-15T09:32:45.481Z</time>
      </trkpt>
      <trkpt lat="48.60475" lon="2.51984">
        <ele>88</ele>
        <time>2022-11-15T09:32:49.506Z</time>
      </trkpt>
      <trkpt lat="48.60471" lon="2.52011">
        <ele>88</ele>
        <time>2022-11-15T09:32:54.493Z</time>
      </trkpt>
      <trkpt lat="48.60468" lon="2.52039">
        <ele>88</ele>
        <time>2022-11-15T09:32:59.498Z</time>
      </trkpt>
      <trkpt lat="48.60464" lon="2.52067">
        <ele>88</ele>
        <time>2022-11-15T09:33:04.525Z</time>
      </trkpt>
      <trkpt lat="48.6046" lon="2.52095">
        <ele>89</ele>
        <time>2022-11-15T09:33:09.494Z</time>
      </trkpt>
      <trkpt lat="48.60456" lon="2.52124">
        <ele>89</ele>
        <time>2022-11-15T09:33:14.505Z</time>
      </trkpt>
      <trkpt lat="48.60452" lon="2.52153">
        <ele>88</ele>
        <time>2022-11-15T09:33:19.492Z</time>
      </trkpt>
      <trkpt lat="48.60449" lon="2.52182">
        <ele>88</ele>
        <time>2022-11-15T09:33:24.484Z</time>
      </trkpt>
      <trkpt lat="48.60446" lon="2.52211">
        <ele>87</ele>
        <time>2022-11-15T09:33:29.497Z</time>
      </trkpt>
      <trkpt lat="48.60441" lon="2.52236">
        <ele>87</ele>
        <time>2022-11-15T09:33:34.493Z</time>
      </trkpt>
      <trkpt lat="48.60433" lon="2.52263">
        <ele>87</ele>
        <time>2022-11-15T09:33:39.502Z</time>
      </trkpt>
      <trkpt lat="48.60422" lon="2.52285">
        <ele>86</ele>
        <time>2022-11-15T09:33:44.492Z</time>
      </trkpt>
      <trkpt lat="48.60408" lon="2.52301">
        <ele>87</ele>
        <time>2022-11-15T09:33:49.485Z</time>
      </trkpt>
      <trkpt lat="48.60392" lon="2.52312">
        <ele>87</ele>
        <time>2022-11-15T09:33:54.504Z</time>
      </trkpt>
      <trkpt lat="48.60374" lon="2.52321">
        <ele>89</ele>
        <time>2022-11-15T09:33:59.497Z</time>
      </trkpt>
      <trkpt lat="48.60358" lon="2.52334">
        <ele>89</ele>
        <time>2022-11-15T09:34:04.502Z</time>
      </trkpt>
      <trkpt lat="48.60348" lon="2.52357">
        <ele>90</ele>
        <time>2022-11-15T09:34:09.509Z</time>
      </trkpt>
      <trkpt lat="48.60342" lon="2.52384">
        <ele>91</ele>
        <time>2022-11-15T09:34:14.493Z</time>
      </trkpt>
      <trkpt lat="48.60338" lon="2.52404">
        <ele>91</ele>
        <time>2022-11-15T09:34:18.500Z</time>
      </trkpt>
      <trkpt lat="48.6033" lon="2.52433">
        <ele>90</ele>
        <time>2022-11-15T09:34:23.507Z</time>
      </trkpt>
      <trkpt lat="48.60323" lon="2.5246">
        <ele>89</ele>
        <time>2022-11-15T09:34:28.504Z</time>
      </trkpt>
      <trkpt lat="48.60317" lon="2.52484">
        <ele>88</ele>
        <time>2022-11-15T09:34:33.486Z</time>
      </trkpt>
      <trkpt lat="48.60312" lon="2.5251">
        <ele>88</ele>
        <time>2022-11-15T09:34:38.494Z</time>
      </trkpt>
      <trkpt lat="48.60307" lon="2.52527">
        <ele>89</ele>
        <time>2022-11-15T09:34:42.496Z</time>
      </trkpt>
      <trkpt lat="48.603" lon="2.52556">
        <ele>89</ele>
        <time>2022-11-15T09:34:47.494Z</time>
      </trkpt>
      <trkpt lat="48.60292" lon="2.52585">
        <ele>89</ele>
        <time>2022-11-15T09:34:52.488Z</time>
      </trkpt>
      <trkpt lat="48.60286" lon="2.52609">
        <ele>89</ele>
        <time>2022-11-15T09:34:57.484Z</time>
      </trkpt>
      <trkpt lat="48.6028" lon="2.52638">
        <ele>89</ele>
        <time>2022-11-15T09:35:02.485Z</time>
      </trkpt>
      <trkpt lat="48.60271" lon="2.52671">
        <ele>89</ele>
        <time>2022-11-15T09:35:07.503Z</time>
      </trkpt>
      <trkpt lat="48.60262" lon="2.52704">
        <ele>88</ele>
        <time>2022-11-15T09:35:12.501Z</time>
      </trkpt>
      <trkpt lat="48.60254" lon="2.52738">
        <ele>90</ele>
        <time>2022-11-15T09:35:17.501Z</time>
      </trkpt>
      <trkpt lat="48.60248" lon="2.52766">
        <ele>90</ele>
        <time>2022-11-15T09:35:21.503Z</time>
      </trkpt>
      <trkpt lat="48.60238" lon="2.528">
        <ele>90</ele>
        <time>2022-11-15T09:35:26.504Z</time>
      </trkpt>
      <trkpt lat="48.60231" lon="2.5283">
        <ele>90</ele>
        <time>2022-11-15T09:35:31.504Z</time>
      </trkpt>
      <trkpt lat="48.60222" lon="2.52861">
        <ele>91</ele>
        <time>2022-11-15T09:35:36.500Z</time>
      </trkpt>
      <trkpt lat="48.60215" lon="2.5289">
        <ele>94</ele>
        <time>2022-11-15T09:35:41.504Z</time>
      </trkpt>
      <trkpt lat="48.60208" lon="2.52917">
        <ele>93</ele>
        <time>2022-11-15T09:35:46.498Z</time>
      </trkpt>
      <trkpt lat="48.60201" lon="2.52942">
        <ele>93</ele>
        <time>2022-11-15T09:35:51.487Z</time>
      </trkpt>
      <trkpt lat="48.60196" lon="2.52961">
        <ele>92</ele>
        <time>2022-11-15T09:35:55.493Z</time>
      </trkpt>
      <trkpt lat="48.60191" lon="2.52983">
        <ele>92</ele>
        <time>2022-11-15T09:36:00.494Z</time>
      </trkpt>
      <trkpt lat="48.60187" lon="2.52999">
        <ele>91</ele>
        <time>2022-11-15T09:36:05.516Z</time>
      </trkpt>
      <trkpt lat="48.60175" lon="2.53003">
        <ele>90</ele>
        <time>2022-11-15T09:36:10.488Z</time>
      </trkpt>
      <trkpt lat="48.60162" lon="2.53005">
        <ele>90</ele>
        <time>2022-11-15T09:36:15.496Z</time>
      </trkpt>
      <trkpt lat="48.60147" lon="2.53007">
        <ele>90</ele>
        <time>2022-11-15T09:36:20.501Z</time>
      </trkpt>
      <trkpt lat="48.60132" lon="2.53008">
        <ele>90</ele>
        <time>2022-11-15T09:36:25.501Z</time>
      </trkpt>
      <trkpt lat="48.60118" lon="2.53011">
        <ele>89</ele>
        <time>2022-11-15T09:36:30.495Z</time>
      </trkpt>
      <trkpt lat="48.60103" lon="2.53012">
        <ele>89</ele>
        <time>2022-11-15T09:36:35.505Z</time>
      </trkpt>
      <trkpt lat="48.60087" lon="2.53013">
        <ele>87</ele>
        <time>2022-11-15T09:36:40.511Z</time>
      </trkpt>
      <trkpt lat="48.60072" lon="2.53015">
        <ele>88</ele>
        <time>2022-11-15T09:36:45.490Z</time>
      </trkpt>
      <trkpt lat="48.60053" lon="2.53016">
        <ele>87</ele>
        <time>2022-11-15T09:36:50.510Z</time>
      </trkpt>
      <trkpt lat="48.60037" lon="2.53017">
        <ele>86</ele>
        <time>2022-11-15T09:36:55.498Z</time>
      </trkpt>
      <trkpt lat="48.6002" lon="2.53018">
        <ele>86</ele>
        <time>2022-11-15T09:37:00.489Z</time>
      </trkpt>
      <trkpt lat="48.60001" lon="2.53021">
        <ele>88</ele>
        <time>2022-11-15T09:37:05.488Z</time>
      </trkpt>
      <trkpt lat="48.59986" lon="2.53022">
        <ele>89</ele>
        <time>2022-11-15T09:37:09.493Z</time>
      </trkpt>
      <trkpt lat="48.59966" lon="2.53024">
        <ele>89</ele>
        <time>2022-11-15T09:37:14.498Z</time>
      </trkpt>
      <trkpt lat="48.59947" lon="2.53026">
        <ele>89</ele>
        <time>2022-11-15T09:37:19.502Z</time>
      </trkpt>
      <trkpt lat="48.59928" lon="2.53027">
        <ele>89</ele>
        <time>2022-11-15T09:37:24.492Z</time>
      </trkpt>
      <trkpt lat="48.59908" lon="2.53028">
        <ele>89</ele>
        <time>2022-11-15T09:37:29.492Z</time>
      </trkpt>
      <trkpt lat="48.59888" lon="2.5303">
        <ele>88</ele>
        <time>2022-11-15T09:37:34.505Z</time>
      </trkpt>
      <trkpt lat="48.59871" lon="2.53031">
        <ele>87</ele>
        <time>2022-11-15T09:37:39.502Z</time>
      </trkpt>
      <trkpt lat="48.59854" lon="2.53033">
        <ele>87</ele>
        <time>2022-11-15T09:37:43.505Z</time>
      </trkpt>
      <trkpt lat="48.59833" lon="2.53036">
        <ele>88</ele>
        <time>2022-11-15T09:37:48.513Z</time>
      </trkpt>
      <trkpt lat="48.59812" lon="2.53037">
        <ele>88</ele>
        <time>2022-11-15T09:37:53.505Z</time>
      </trkpt>
      <trkpt lat="48.59791" lon="2.53039">
        <ele>88</ele>
        <time>2022-11-15T09:37:58.505Z</time>
      </trkpt>
      <trkpt lat="48.5977" lon="2.53039">
        <ele>88</ele>
        <time>2022-11-15T09:38:03.511Z</time>
      </trkpt>
      <trkpt lat="48.59749" lon="2.5304">
        <ele>88</ele>
        <time>2022-11-15T09:38:08.502Z</time>
      </trkpt>
      <trkpt lat="48.59729" lon="2.53042">
        <ele>90</ele>
        <time>2022-11-15T09:38:13.489Z</time>
      </trkpt>
      <trkpt lat="48.59708" lon="2.53044">
        <ele>90</ele>
        <time>2022-11-15T09:38:18.486Z</time>
      </trkpt>
      <trkpt lat="48.59691" lon="2.53046">
        <ele>90</ele>
        <time>2022-11-15T09:38:22.506Z</time>
      </trkpt>
      <trkpt lat="48.59669" lon="2.53048">
        <ele>90</ele>
        <time>2022-11-15T09:38:27.481Z</time>
      </trkpt>
      <trkpt lat="48.59653" lon="2.53051">
        <ele>90</ele>
        <time>2022-11-15T09:38:31.492Z</time>
      </trkpt>
      <trkpt lat="48.59634" lon="2.53058">
        <ele>90</ele>
        <time>2022-11-15T09:38:36.496Z</time>
      </trkpt>
      <trkpt lat="48.59614" lon="2.53064">
        <ele>92</ele>
        <time>2022-11-15T09:38:41.483Z</time>
      </trkpt>
      <trkpt lat="48.59596" lon="2.53066">
        <ele>93</ele>
        <time>2022-11-15T09:38:46.486Z</time>
      </trkpt>
      <trkpt lat="48.59578" lon="2.53066">
        <ele>93</ele>
        <time>2022-11-15T09:38:51.505Z</time>
      </trkpt>
      <trkpt lat="48.59559" lon="2.53068">
        <ele>94</ele>
        <time>2022-11-15T09:38:56.515Z</time>
      </trkpt>
      <trkpt lat="48.59537" lon="2.53069">
        <ele>92</ele>
        <time>2022-11-15T09:39:01.502Z</time>
      </trkpt>
      <trkpt lat="48.59515" lon="2.53072">
        <ele>92</ele>
        <time>2022-11-15T09:39:06.512Z</time>
      </trkpt>
      <trkpt lat="48.59493" lon="2.53074">
        <ele>91</ele>
        <time>2022-11-15T09:39:11.505Z</time>
      </trkpt>
      <trkpt lat="48.59471" lon="2.53076">
        <ele>90</ele>
        <time>2022-11-15T09:39:16.506Z</time>
      </trkpt>
      <trkpt lat="48.59454" lon="2.53076">
        <ele>89</ele>
        <time>2022-11-15T09:39:20.508Z</time>
      </trkpt>
      <trkpt lat="48.59431" lon="2.53079">
        <ele>89</ele>
        <time>2022-11-15T09:39:25.510Z</time>
      </trkpt>
      <trkpt lat="48.59408" lon="2.53082">
        <ele>89</ele>
        <time>2022-11-15T09:39:30.488Z</time>
      </trkpt>
      <trkpt lat="48.59389" lon="2.53089">
        <ele>89</ele>
        <time>2022-11-15T09:39:35.484Z</time>
      </trkpt>
      <trkpt lat="48.59387" lon="2.53118">
        <ele>89</ele>
        <time>2022-11-15T09:39:40.483Z</time>
      </trkpt>
      <trkpt lat="48.59397" lon="2.53147">
        <ele>90</ele>
        <time>2022-11-15T09:39:45.497Z</time>
      </trkpt>
      <trkpt lat="48.59407" lon="2.53173">
        <ele>90</ele>
        <time>2022-11-15T09:39:50.482Z</time>
      </trkpt>
      <trkpt lat="48.59416" lon="2.53206">
        <ele>90</ele>
        <time>2022-11-15T09:39:55.486Z</time>
      </trkpt>
      <trkpt lat="48.59423" lon="2.53236">
        <ele>91</ele>
        <time>2022-11-15T09:40:00.483Z</time>
      </trkpt>
      <trkpt lat="48.59433" lon="2.53264">
        <ele>90</ele>
        <time>2022-11-15T09:40:05.481Z</time>
      </trkpt>
      <trkpt lat="48.59441" lon="2.53294">
        <ele>90</ele>
        <time>2022-11-15T09:40:10.506Z</time>
      </trkpt>
      <trkpt lat="48.5945" lon="2.53327">
        <ele>91</ele>
        <time>2022-11-15T09:40:15.508Z</time>
      </trkpt>
      <trkpt lat="48.59459" lon="2.53357">
        <ele>92</ele>
        <time>2022-11-15T09:40:20.497Z</time>
      </trkpt>
      <trkpt lat="48.59468" lon="2.53386">
        <ele>92</ele>
        <time>2022-11-15T09:40:25.502Z</time>
      </trkpt>
      <trkpt lat="48.59478" lon="2.53416">
        <ele>91</ele>
        <time>2022-11-15T09:40:30.534Z</time>
      </trkpt>
      <trkpt lat="48.59488" lon="2.53446">
        <ele>91</ele>
        <time>2022-11-15T09:40:35.502Z</time>
      </trkpt>
      <trkpt lat="48.59496" lon="2.5348">
        <ele>91</ele>
        <time>2022-11-15T09:40:40.496Z</time>
      </trkpt>
      <trkpt lat="48.59506" lon="2.53509">
        <ele>91</ele>
        <time>2022-11-15T09:40:45.503Z</time>
      </trkpt>
      <trkpt lat="48.59515" lon="2.53538">
        <ele>92</ele>
        <time>2022-11-15T09:40:50.502Z</time>
      </trkpt>
      <trkpt lat="48.59524" lon="2.53566">
        <ele>91</ele>
        <time>2022-11-15T09:40:55.495Z</time>
      </trkpt>
      <trkpt lat="48.59531" lon="2.53595">
        <ele>91</ele>
        <time>2022-11-15T09:41:00.496Z</time>
      </trkpt>
      <trkpt lat="48.5954" lon="2.53623">
        <ele>91</ele>
        <time>2022-11-15T09:41:05.482Z</time>
      </trkpt>
      <trkpt lat="48.59551" lon="2.53656">
        <ele>91</ele>
        <time>2022-11-15T09:41:10.480Z</time>
      </trkpt>
      <trkpt lat="48.59561" lon="2.53685">
        <ele>90</ele>
        <time>2022-11-15T09:41:15.481Z</time>
      </trkpt>
      <trkpt lat="48.59571" lon="2.53713">
        <ele>91</ele>
        <time>2022-11-15T09:41:20.483Z</time>
      </trkpt>
      <trkpt lat="48.59579" lon="2.53743">
        <ele>90</ele>
        <time>2022-11-15T09:41:25.499Z</time>
      </trkpt>
      <trkpt lat="48.59587" lon="2.53772">
        <ele>91</ele>
        <time>2022-11-15T09:41:30.504Z</time>
      </trkpt>
      <trkpt lat="48.59595" lon="2.53799">
        <ele>92</ele>
        <time>2022-11-15T09:41:35.484Z</time>
      </trkpt>
      <trkpt lat="48.59605" lon="2.53828">
        <ele>92</ele>
        <time>2022-11-15T09:41:40.502Z</time>
      </trkpt>
      <trkpt lat="48.59615" lon="2.53858">
        <ele>93</ele>
        <time>2022-11-15T09:41:45.496Z</time>
      </trkpt>
      <trkpt lat="48.59622" lon="2.53887">
        <ele>93</ele>
        <time>2022-11-15T09:41:50.519Z</time>
      </trkpt>
      <trkpt lat="48.5963" lon="2.53916">
        <ele>91</ele>
        <time>2022-11-15T09:41:55.506Z</time>
      </trkpt>
      <trkpt lat="48.59638" lon="2.53946">
        <ele>92</ele>
        <time>2022-11-15T09:42:00.493Z</time>
      </trkpt>
      <trkpt lat="48.59645" lon="2.53973">
        <ele>92</ele>
        <time>2022-11-15T09:42:05.496Z</time>
      </trkpt>
      <trkpt lat="48.59653" lon="2.53998">
        <ele>91</ele>
        <time>2022-11-15T09:42:10.484Z</time>
      </trkpt>
      <trkpt lat="48.59661" lon="2.54024">
        <ele>90</ele>
        <time>2022-11-15T09:42:15.498Z</time>
      </trkpt>
      <trkpt lat="48.59668" lon="2.54046">
        <ele>91</ele>
        <time>2022-11-15T09:42:19.503Z</time>
      </trkpt>
      <trkpt lat="48.59677" lon="2.54074">
        <ele>92</ele>
        <time>2022-11-15T09:42:24.481Z</time>
      </trkpt>
      <trkpt lat="48.59684" lon="2.54105">
        <ele>91</ele>
        <time>2022-11-15T09:42:29.493Z</time>
      </trkpt>
      <trkpt lat="48.59693" lon="2.54134">
        <ele>90</ele>
        <time>2022-11-15T09:42:34.497Z</time>
      </trkpt>
      <trkpt lat="48.59703" lon="2.54164">
        <ele>90</ele>
        <time>2022-11-15T09:42:39.501Z</time>
      </trkpt>
      <trkpt lat="48.59714" lon="2.54193">
        <ele>88</ele>
        <time>2022-11-15T09:42:44.494Z</time>
      </trkpt>
      <trkpt lat="48.59723" lon="2.54223">
        <ele>89</ele>
        <time>2022-11-15T09:42:49.507Z</time>
      </trkpt>
      <trkpt lat="48.59731" lon="2.54253">
        <ele>89</ele>
        <time>2022-11-15T09:42:54.501Z</time>
      </trkpt>
      <trkpt lat="48.59739" lon="2.54283">
        <ele>89</ele>
        <time>2022-11-15T09:42:59.499Z</time>
      </trkpt>
      <trkpt lat="48.59747" lon="2.54305">
        <ele>89</ele>
        <time>2022-11-15T09:43:03.507Z</time>
      </trkpt>
      <trkpt lat="48.59753" lon="2.54327">
        <ele>89</ele>
        <time>2022-11-15T09:43:07.520Z</time>
      </trkpt>
      <trkpt lat="48.59761" lon="2.54352">
        <ele>89</ele>
        <time>2022-11-15T09:43:12.504Z</time>
      </trkpt>
      <trkpt lat="48.59768" lon="2.54374">
        <ele>90</ele>
        <time>2022-11-15T09:43:17.486Z</time>
      </trkpt>
      <trkpt lat="48.59777" lon="2.54395">
        <ele>90</ele>
        <time>2022-11-15T09:43:22.493Z</time>
      </trkpt>
      <trkpt lat="48.59786" lon="2.54418">
        <ele>90</ele>
        <time>2022-11-15T09:43:27.491Z</time>
      </trkpt>
      <trkpt lat="48.59796" lon="2.54444">
        <ele>91</ele>
        <time>2022-11-15T09:43:32.495Z</time>
      </trkpt>
      <trkpt lat="48.59805" lon="2.54472">
        <ele>91</ele>
        <time>2022-11-15T09:43:37.506Z</time>
      </trkpt>
      <trkpt lat="48.59813" lon="2.54498">
        <ele>91</ele>
        <time>2022-11-15T09:43:42.489Z</time>
      </trkpt>
      <trkpt lat="48.59822" lon="2.54521">
        <ele>91</ele>
        <time>2022-11-15T09:43:47.481Z</time>
      </trkpt>
      <trkpt lat="48.5983" lon="2.54542">
        <ele>91</ele>
        <time>2022-11-15T09:43:51.506Z</time>
      </trkpt>
      <trkpt lat="48.59841" lon="2.54565">
        <ele>91</ele>
        <time>2022-11-15T09:43:56.506Z</time>
      </trkpt>
      <trkpt lat="48.59847" lon="2.54581">
        <ele>90</ele>
        <time>2022-11-15T09:44:01.498Z</time>
      </trkpt>
      <trkpt lat="48.59853" lon="2.54601">
        <ele>89</ele>
        <time>2022-11-15T09:44:06.502Z</time>
      </trkpt>
      <trkpt lat="48.59861" lon="2.54621">
        <ele>89</ele>
        <time>2022-11-15T09:44:11.502Z</time>
      </trkpt>
      <trkpt lat="48.59867" lon="2.5464">
        <ele>89</ele>
        <time>2022-11-15T09:44:16.502Z</time>
      </trkpt>
      <trkpt lat="48.59874" lon="2.5466">
        <ele>88</ele>
        <time>2022-11-15T09:44:21.495Z</time>
      </trkpt>
      <trkpt lat="48.5988" lon="2.54681">
        <ele>87</ele>
        <time>2022-11-15T09:44:26.502Z</time>
      </trkpt>
      <trkpt lat="48.59886" lon="2.547">
        <ele>88</ele>
        <time>2022-11-15T09:44:31.484Z</time>
      </trkpt>
      <trkpt lat="48.59891" lon="2.54714">
        <ele>88</ele>
        <time>2022-11-15T09:44:35.496Z</time>
      </trkpt>
      <trkpt lat="48.59898" lon="2.54727">
        <ele>88</ele>
        <time>2022-11-15T09:44:40.478Z</time>
      </trkpt>
      <trkpt lat="48.59904" lon="2.5474">
        <ele>87</ele>
        <time>2022-11-15T09:44:44.488Z</time>
      </trkpt>
      <trkpt lat="48.59912" lon="2.54762">
        <ele>87</ele>
        <time>2022-11-15T09:44:49.501Z</time>
      </trkpt>
      <trkpt lat="48.59919" lon="2.54785">
        <ele>88</ele>
        <time>2022-11-15T09:44:54.484Z</time>
      </trkpt>
      <trkpt lat="48.59925" lon="2.54803">
        <ele>88</ele>
        <time>2022-11-15T09:44:58.497Z</time>
      </trkpt>
      <trkpt lat="48.59931" lon="2.5482">
        <ele>87</ele>
        <time>2022-11-15T09:45:02.498Z</time>
      </trkpt>
      <trkpt lat="48.59937" lon="2.54844">
        <ele>87</ele>
        <time>2022-11-15T09:45:07.502Z</time>
      </trkpt>
      <trkpt lat="48.59946" lon="2.54867">
        <ele>86</ele>
        <time>2022-11-15T09:45:12.505Z</time>
      </trkpt>
      <trkpt lat="48.59958" lon="2.5488">
        <ele>86</ele>
        <time>2022-11-15T09:45:17.501Z</time>
      </trkpt>
      <trkpt lat="48.59974" lon="2.54878">
        <ele>86</ele>
        <time>2022-11-15T09:45:22.509Z</time>
      </trkpt>
      <trkpt lat="48.59984" lon="2.54862">
        <ele>87</ele>
        <time>2022-11-15T09:45:27.501Z</time>
      </trkpt>
      <trkpt lat="48.59988" lon="2.54874">
        <ele>87</ele>
        <time>2022-11-15T09:45:32.494Z</time>
      </trkpt>
      <trkpt lat="48.59985" lon="2.54884">
        <ele>86</ele>
        <time>2022-11-15T09:45:37.512Z</time>
      </trkpt>
      <trkpt lat="48.59984" lon="2.54891">
        <ele>86</ele>
        <time>2022-11-15T09:45:42.504Z</time>
      </trkpt>
      <trkpt lat="48.59983" lon="2.5491">
        <ele>87</ele>
        <time>2022-11-15T09:45:47.503Z</time>
      </trkpt>
      <trkpt lat="48.59984" lon="2.54935">
        <ele>88</ele>
        <time>2022-11-15T09:45:52.489Z</time>
      </trkpt>
      <trkpt lat="48.5999" lon="2.54966">
        <ele>89</ele>
        <time>2022-11-15T09:45:57.506Z</time>
      </trkpt>
      <trkpt lat="48.6" lon="2.54993">
        <ele>90</ele>
        <time>2022-11-15T09:46:02.485Z</time>
      </trkpt>
      <trkpt lat="48.60011" lon="2.55017">
        <ele>90</ele>
        <time>2022-11-15T09:46:07.483Z</time>
      </trkpt>
      <trkpt lat="48.60022" lon="2.55032">
        <ele>89</ele>
        <time>2022-11-15T09:46:12.486Z</time>
      </trkpt>
      <trkpt lat="48.60023" lon="2.55046">
        <ele>89</ele>
        <time>2022-11-15T09:46:16.500Z</time>
      </trkpt>
      <trkpt lat="48.60022" lon="2.55065">
        <ele>89</ele>
        <time>2022-11-15T09:46:21.491Z</time>
      </trkpt>
      <trkpt lat="48.60026" lon="2.55099">
        <ele>91</ele>
        <time>2022-11-15T09:46:26.482Z</time>
      </trkpt>
      <trkpt lat="48.6003" lon="2.55134">
        <ele>94</ele>
        <time>2022-11-15T09:46:31.499Z</time>
      </trkpt>
      <trkpt lat="48.60034" lon="2.55168">
        <ele>94</ele>
        <time>2022-11-15T09:46:36.512Z</time>
      </trkpt>
      <trkpt lat="48.60039" lon="2.55204">
        <ele>94</ele>
        <time>2022-11-15T09:46:41.509Z</time>
      </trkpt>
      <trkpt lat="48.60043" lon="2.5524">
        <ele>91</ele>
        <time>2022-11-15T09:46:46.509Z</time>
      </trkpt>
      <trkpt lat="48.60047" lon="2.55277">
        <ele>91</ele>
        <time>2022-11-15T09:46:51.500Z</time>
      </trkpt>
      <trkpt lat="48.60052" lon="2.55313">
        <ele>90</ele>
        <time>2022-11-15T09:46:56.503Z</time>
      </trkpt>
      <trkpt lat="48.60056" lon="2.5535">
        <ele>86</ele>
        <time>2022-11-15T09:47:01.516Z</time>
      </trkpt>
      <trkpt lat="48.60061" lon="2.55385">
        <ele>88</ele>
        <time>2022-11-15T09:47:06.486Z</time>
      </trkpt>
      <trkpt lat="48.60066" lon="2.5542">
        <ele>89</ele>
        <time>2022-11-15T09:47:11.491Z</time>
      </trkpt>
      <trkpt lat="48.6007" lon="2.55455">
        <ele>87</ele>
        <time>2022-11-15T09:47:16.491Z</time>
      </trkpt>
      <trkpt lat="48.60073" lon="2.55482">
        <ele>87</ele>
        <time>2022-11-15T09:47:21.495Z</time>
      </trkpt>
      <trkpt lat="48.60077" lon="2.55509">
        <ele>86</ele>
        <time>2022-11-15T09:47:26.491Z</time>
      </trkpt>
      <trkpt lat="48.60081" lon="2.55534">
        <ele>86</ele>
        <time>2022-11-15T09:47:31.497Z</time>
      </trkpt>
      <trkpt lat="48.60084" lon="2.55559">
        <ele>86</ele>
        <time>2022-11-15T09:47:36.499Z</time>
      </trkpt>
      <trkpt lat="48.60087" lon="2.5558">
        <ele>86</ele>
        <time>2022-11-15T09:47:41.502Z</time>
      </trkpt>
      <trkpt lat="48.60093" lon="2.55609">
        <ele>86</ele>
        <time>2022-11-15T09:47:46.498Z</time>
      </trkpt>
      <trkpt lat="48.60105" lon="2.55635">
        <ele>88</ele>
        <time>2022-11-15T09:47:51.512Z</time>
      </trkpt>
      <trkpt lat="48.60119" lon="2.55656">
        <ele>89</ele>
        <time>2022-11-15T09:47:56.502Z</time>
      </trkpt>
      <trkpt lat="48.60131" lon="2.55671">
        <ele>89</ele>
        <time>2022-11-15T09:48:01.511Z</time>
      </trkpt>
      <trkpt lat="48.60141" lon="2.55685">
        <ele>89</ele>
        <time>2022-11-15T09:48:06.502Z</time>
      </trkpt>
      <trkpt lat="48.6015" lon="2.55702">
        <ele>89</ele>
        <time>2022-11-15T09:48:11.506Z</time>
      </trkpt>
      <trkpt lat="48.60157" lon="2.55719">
        <ele>87</ele>
        <time>2022-11-15T09:48:16.509Z</time>
      </trkpt>
      <trkpt lat="48.60162" lon="2.55733">
        <ele>87</ele>
        <time>2022-11-15T09:48:21.505Z</time>
      </trkpt>
      <trkpt lat="48.60168" lon="2.55745">
        <ele>87</ele>
        <time>2022-11-15T09:48:26.490Z</time>
      </trkpt>
      <trkpt lat="48.60176" lon="2.55759">
        <ele>87</ele>
        <time>2022-11-15T09:52:32.489Z</time>
      </trkpt>
      <trkpt lat="48.60181" lon="2.55761">
        <ele>87</ele>
        <time>2022-11-15T09:52:36.521Z</time>
      </trkpt>
      <trkpt lat="48.60191" lon="2.55765">
        <ele>87</ele>
        <time>2022-11-15T09:52:41.505Z</time>
      </trkpt>
      <trkpt lat="48.60188" lon="2.55783">
        <ele>87</ele>
        <time>2022-11-15T09:52:46.516Z</time>
      </trkpt>
      <trkpt lat="48.60176" lon="2.55797">
        <ele>86</ele>
        <time>2022-11-15T09:52:51.513Z</time>
      </trkpt>
      <trkpt lat="48.6017" lon="2.55809">
        <ele>86</ele>
        <time>2022-11-15T09:52:55.525Z</time>
      </trkpt>
      <trkpt lat="48.60168" lon="2.5583">
        <ele>86</ele>
        <time>2022-11-15T09:53:00.503Z</time>
      </trkpt>
      <trkpt lat="48.60165" lon="2.55851">
        <ele>86</ele>
        <time>2022-11-15T09:53:05.513Z</time>
      </trkpt>
      <trkpt lat="48.6016" lon="2.55873">
        <ele>86</ele>
        <time>2022-11-15T09:53:10.509Z</time>
      </trkpt>
      <trkpt lat="48.60152" lon="2.559">
        <ele>90</ele>
        <time>2022-11-15T09:53:15.508Z</time>
      </trkpt>
      <trkpt lat="48.60144" lon="2.55929">
        <ele>91</ele>
        <time>2022-11-15T09:53:20.485Z</time>
      </trkpt>
      <trkpt lat="48.60138" lon="2.55958">
        <ele>91</ele>
        <time>2022-11-15T09:53:25.486Z</time>
      </trkpt>
      <trkpt lat="48.6014" lon="2.5599">
        <ele>91</ele>
        <time>2022-11-15T09:53:30.493Z</time>
      </trkpt>
      <trkpt lat="48.60145" lon="2.56019">
        <ele>92</ele>
        <time>2022-11-15T09:53:35.497Z</time>
      </trkpt>
      <trkpt lat="48.6015" lon="2.56048">
        <ele>91</ele>
        <time>2022-11-15T09:53:40.502Z</time>
      </trkpt>
      <trkpt lat="48.60154" lon="2.56075">
        <ele>90</ele>
        <time>2022-11-15T09:53:45.502Z</time>
      </trkpt>
      <trkpt lat="48.60159" lon="2.56098">
        <ele>89</ele>
        <time>2022-11-15T09:53:50.501Z</time>
      </trkpt>
      <trkpt lat="48.60163" lon="2.56118">
        <ele>89</ele>
        <time>2022-11-15T09:53:55.494Z</time>
      </trkpt>
      <trkpt lat="48.60163" lon="2.56133">
        <ele>89</ele>
        <time>2022-11-15T09:54:00.497Z</time>
      </trkpt>
      <trkpt lat="48.60164" lon="2.56145">
        <ele>89</ele>
        <time>2022-11-15T09:54:05.485Z</time>
      </trkpt>
      <trkpt lat="48.60162" lon="2.56148">
        <ele>89</ele>
        <time>2022-11-15T09:54:10.510Z</time>
      </trkpt>
      <trkpt lat="48.60166" lon="2.56165">
        <ele>89</ele>
        <time>2022-11-15T10:05:38.497Z</time>
      </trkpt>
      <trkpt lat="48.60166" lon="2.56172">
        <ele>89</ele>
        <time>2022-11-15T10:05:43.506Z</time>
      </trkpt>
      <trkpt lat="48.60166" lon="2.56183">
        <ele>89</ele>
        <time>2022-11-15T10:05:48.494Z</time>
      </trkpt>
      <trkpt lat="48.60166" lon="2.56192">
        <ele>89</ele>
        <time>2022-11-15T10:05:53.517Z</time>
      </trkpt>
      <trkpt lat="48.60159" lon="2.56197">
        <ele>89</ele>
        <time>2022-11-15T10:05:58.509Z</time>
      </trkpt>
      <trkpt lat="48.60148" lon="2.562">
        <ele>89</ele>
        <time>2022-11-15T10:06:03.484Z</time>
      </trkpt>
      <trkpt lat="48.60137" lon="2.56201">
        <ele>89</ele>
        <time>2022-11-15T10:06:08.510Z</time>
      </trkpt>
      <trkpt lat="48.60125" lon="2.56205">
        <ele>89</ele>
        <time>2022-11-15T10:06:13.492Z</time>
      </trkpt>
      <trkpt lat="48.60109" lon="2.5621">
        <ele>89</ele>
        <time>2022-11-15T10:06:18.492Z</time>
      </trkpt>
      <trkpt lat="48.60099" lon="2.56213">
        <ele>89</ele>
        <time>2022-11-15T10:06:23.515Z</time>
      </trkpt>
      <trkpt lat="48.60082" lon="2.5621">
        <ele>89</ele>
        <time>2022-11-15T10:06:28.506Z</time>
      </trkpt>
      <trkpt lat="48.60065" lon="2.56213">
        <ele>90</ele>
        <time>2022-11-15T10:06:33.501Z</time>
      </trkpt>
      <trkpt lat="48.60048" lon="2.56215">
        <ele>90</ele>
        <time>2022-11-15T10:06:38.499Z</time>
      </trkpt>
      <trkpt lat="48.60032" lon="2.56219">
        <ele>89</ele>
        <time>2022-11-15T10:06:43.486Z</time>
      </trkpt>
      <trkpt lat="48.60016" lon="2.56221">
        <ele>89</ele>
        <time>2022-11-15T10:06:48.521Z</time>
      </trkpt>
      <trkpt lat="48.60005" lon="2.56224">
        <ele>87</ele>
        <time>2022-11-15T10:06:53.509Z</time>
      </trkpt>
      <trkpt lat="48.59997" lon="2.56226">
        <ele>87</ele>
        <time>2022-11-15T10:06:58.500Z</time>
      </trkpt>
      <trkpt lat="48.59988" lon="2.56228">
        <ele>87</ele>
        <time>2022-11-15T10:07:03.495Z</time>
      </trkpt>
      <trkpt lat="48.59981" lon="2.56229">
        <ele>87</ele>
        <time>2022-11-15T10:07:08.510Z</time>
      </trkpt>
      <trkpt lat="48.59979" lon="2.56228">
        <ele>87</ele>
        <time>2022-11-15T10:07:13.509Z</time>
      </trkpt>
      <trkpt lat="48.59978" lon="2.56229">
        <ele>87</ele>
        <time>2022-11-15T10:07:18.499Z</time>
      </trkpt>
      <trkpt lat="48.59974" lon="2.5623">
        <ele>87</ele>
        <time>2022-11-15T10:07:57.508Z</time>
      </trkpt>
      <trkpt lat="48.59974" lon="2.56232">
        <ele>87</ele>
        <time>2022-11-15T10:08:01.500Z</time>
      </trkpt>
      <trkpt lat="48.59966" lon="2.56234">
        <ele>87</ele>
        <time>2022-11-15T10:08:06.495Z</time>
      </trkpt>
      <trkpt lat="48.59955" lon="2.56236">
        <ele>88</ele>
        <time>2022-11-15T10:08:11.509Z</time>
      </trkpt>
      <trkpt lat="48.59943" lon="2.56241">
        <ele>88</ele>
        <time>2022-11-15T10:08:16.504Z</time>
      </trkpt>
      <trkpt lat="48.59927" lon="2.56245">
        <ele>85</ele>
        <time>2022-11-15T10:08:21.507Z</time>
      </trkpt>
      <trkpt lat="48.59912" lon="2.56236">
        <ele>84</ele>
        <time>2022-11-15T10:08:26.520Z</time>
      </trkpt>
      <trkpt lat="48.59897" lon="2.56241">
        <ele>84</ele>
        <time>2022-11-15T10:08:30.516Z</time>
      </trkpt>
      <trkpt lat="48.59877" lon="2.56248">
        <ele>84</ele>
        <time>2022-11-15T10:08:35.484Z</time>
      </trkpt>
      <trkpt lat="48.59859" lon="2.56252">
        <ele>86</ele>
        <time>2022-11-15T10:08:39.483Z</time>
      </trkpt>
      <trkpt lat="48.5984" lon="2.56258">
        <ele>85</ele>
        <time>2022-11-15T10:08:44.486Z</time>
      </trkpt>
      <trkpt lat="48.59818" lon="2.56262">
        <ele>85</ele>
        <time>2022-11-15T10:08:49.492Z</time>
      </trkpt>
      <trkpt lat="48.59795" lon="2.5627">
        <ele>86</ele>
        <time>2022-11-15T10:08:54.496Z</time>
      </trkpt>
      <trkpt lat="48.59772" lon="2.56279">
        <ele>86</ele>
        <time>2022-11-15T10:08:59.483Z</time>
      </trkpt>
      <trkpt lat="48.59751" lon="2.5629">
        <ele>88</ele>
        <time>2022-11-15T10:09:04.493Z</time>
      </trkpt>
      <trkpt lat="48.59729" lon="2.56303">
        <ele>87</ele>
        <time>2022-11-15T10:09:09.514Z</time>
      </trkpt>
      <trkpt lat="48.59707" lon="2.56318">
        <ele>89</ele>
        <time>2022-11-15T10:09:14.506Z</time>
      </trkpt>
      <trkpt lat="48.59685" lon="2.56336">
        <ele>88</ele>
        <time>2022-11-15T10:09:19.481Z</time>
      </trkpt>
      <trkpt lat="48.59665" lon="2.56353">
        <ele>88</ele>
        <time>2022-11-15T10:09:24.485Z</time>
      </trkpt>
      <trkpt lat="48.59649" lon="2.56367">
        <ele>86</ele>
        <time>2022-11-15T10:09:28.498Z</time>
      </trkpt>
      <trkpt lat="48.5963" lon="2.56385">
        <ele>86</ele>
        <time>2022-11-15T10:09:33.505Z</time>
      </trkpt>
      <trkpt lat="48.5961" lon="2.56403">
        <ele>85</ele>
        <time>2022-11-15T10:09:38.505Z</time>
      </trkpt>
      <trkpt lat="48.5959" lon="2.5642">
        <ele>85</ele>
        <time>2022-11-15T10:09:43.503Z</time>
      </trkpt>
      <trkpt lat="48.5957" lon="2.56437">
        <ele>85</ele>
        <time>2022-11-15T10:09:48.500Z</time>
      </trkpt>
      <trkpt lat="48.59553" lon="2.56447">
        <ele>83</ele>
        <time>2022-11-15T10:09:52.508Z</time>
      </trkpt>
      <trkpt lat="48.59534" lon="2.56458">
        <ele>83</ele>
        <time>2022-11-15T10:09:57.514Z</time>
      </trkpt>
      <trkpt lat="48.59517" lon="2.56474">
        <ele>83</ele>
        <time>2022-11-15T10:10:02.491Z</time>
      </trkpt>
      <trkpt lat="48.59507" lon="2.56492">
        <ele>84</ele>
        <time>2022-11-15T10:10:06.484Z</time>
      </trkpt>
      <trkpt lat="48.59499" lon="2.56514">
        <ele>84</ele>
        <time>2022-11-15T10:10:11.483Z</time>
      </trkpt>
      <trkpt lat="48.59498" lon="2.56519">
        <ele>84</ele>
        <time>2022-11-15T10:10:15.503Z</time>
      </trkpt>
      <trkpt lat="48.59497" lon="2.56522">
        <ele>84</ele>
        <time>2022-11-15T10:10:20.491Z</time>
      </trkpt>
      <trkpt lat="48.59495" lon="2.56522">
        <ele>84</ele>
        <time>2022-11-15T10:10:25.486Z</time>
      </trkpt>
      <trkpt lat="48.59482" lon="2.5652">
        <ele>84</ele>
        <time>2022-11-15T10:10:30.488Z</time>
      </trkpt>
      <trkpt lat="48.59467" lon="2.5652">
        <ele>84</ele>
        <time>2022-11-15T10:10:35.483Z</time>
      </trkpt>
      <trkpt lat="48.59449" lon="2.5651">
        <ele>87</ele>
        <time>2022-11-15T10:10:40.482Z</time>
      </trkpt>
      <trkpt lat="48.59428" lon="2.56513">
        <ele>91</ele>
        <time>2022-11-15T10:10:45.495Z</time>
      </trkpt>
      <trkpt lat="48.59411" lon="2.56516">
        <ele>92</ele>
        <time>2022-11-15T10:10:49.515Z</time>
      </trkpt>
      <trkpt lat="48.59391" lon="2.56518">
        <ele>93</ele>
        <time>2022-11-15T10:10:54.512Z</time>
      </trkpt>
      <trkpt lat="48.59371" lon="2.56518">
        <ele>93</ele>
        <time>2022-11-15T10:10:59.502Z</time>
      </trkpt>
      <trkpt lat="48.59352" lon="2.56515">
        <ele>93</ele>
        <time>2022-11-15T10:11:04.485Z</time>
      </trkpt>
      <trkpt lat="48.5933" lon="2.56509">
        <ele>92</ele>
        <time>2022-11-15T10:11:09.502Z</time>
      </trkpt>
      <trkpt lat="48.59308" lon="2.56506">
        <ele>91</ele>
        <time>2022-11-15T10:11:14.498Z</time>
      </trkpt>
      <trkpt lat="48.5929" lon="2.56497">
        <ele>91</ele>
        <time>2022-11-15T10:11:18.512Z</time>
      </trkpt>
      <trkpt lat="48.59267" lon="2.5649">
        <ele>91</ele>
        <time>2022-11-15T10:11:23.497Z</time>
      </trkpt>
      <trkpt lat="48.59244" lon="2.56485">
        <ele>92</ele>
        <time>2022-11-15T10:11:28.493Z</time>
      </trkpt>
      <trkpt lat="48.59219" lon="2.56481">
        <ele>92</ele>
        <time>2022-11-15T10:11:33.479Z</time>
      </trkpt>
      <trkpt lat="48.59195" lon="2.56473">
        <ele>92</ele>
        <time>2022-11-15T10:11:38.491Z</time>
      </trkpt>
      <trkpt lat="48.59176" lon="2.56464">
        <ele>90</ele>
        <time>2022-11-15T10:11:43.480Z</time>
      </trkpt>
      <trkpt lat="48.59153" lon="2.56455">
        <ele>90</ele>
        <time>2022-11-15T10:11:48.485Z</time>
      </trkpt>
      <trkpt lat="48.59134" lon="2.5645">
        <ele>87</ele>
        <time>2022-11-15T10:11:52.491Z</time>
      </trkpt>
      <trkpt lat="48.59112" lon="2.56442">
        <ele>87</ele>
        <time>2022-11-15T10:11:57.498Z</time>
      </trkpt>
      <trkpt lat="48.59094" lon="2.56436">
        <ele>89</ele>
        <time>2022-11-15T10:12:01.503Z</time>
      </trkpt>
      <trkpt lat="48.59071" lon="2.56428">
        <ele>89</ele>
        <time>2022-11-15T10:12:06.486Z</time>
      </trkpt>
      <trkpt lat="48.59048" lon="2.56421">
        <ele>91</ele>
        <time>2022-11-15T10:12:11.504Z</time>
      </trkpt>
      <trkpt lat="48.59026" lon="2.56414">
        <ele>91</ele>
        <time>2022-11-15T10:12:16.501Z</time>
      </trkpt>
      <trkpt lat="48.59005" lon="2.56403">
        <ele>90</ele>
        <time>2022-11-15T10:12:21.506Z</time>
      </trkpt>
      <trkpt lat="48.58986" lon="2.56395">
        <ele>89</ele>
        <time>2022-11-15T10:12:26.499Z</time>
      </trkpt>
      <trkpt lat="48.58976" lon="2.56383">
        <ele>85</ele>
        <time>2022-11-15T10:12:31.508Z</time>
      </trkpt>
      <trkpt lat="48.5896" lon="2.56371">
        <ele>87</ele>
        <time>2022-11-15T10:12:36.503Z</time>
      </trkpt>
      <trkpt lat="48.5894" lon="2.56359">
        <ele>85</ele>
        <time>2022-11-15T10:12:41.512Z</time>
      </trkpt>
      <trkpt lat="48.5892" lon="2.5635">
        <ele>85</ele>
        <time>2022-11-15T10:12:46.491Z</time>
      </trkpt>
      <trkpt lat="48.589" lon="2.56342">
        <ele>85</ele>
        <time>2022-11-15T10:12:51.492Z</time>
      </trkpt>
      <trkpt lat="48.58884" lon="2.56336">
        <ele>85</ele>
        <time>2022-11-15T10:12:55.496Z</time>
      </trkpt>
      <trkpt lat="48.58868" lon="2.5633">
        <ele>87</ele>
        <time>2022-11-15T10:13:00.484Z</time>
      </trkpt>
      <trkpt lat="48.58854" lon="2.56325">
        <ele>87</ele>
        <time>2022-11-15T10:13:05.487Z</time>
      </trkpt>
      <trkpt lat="48.58838" lon="2.56321">
        <ele>88</ele>
        <time>2022-11-15T10:13:10.478Z</time>
      </trkpt>
      <trkpt lat="48.58822" lon="2.56331">
        <ele>88</ele>
        <time>2022-11-15T10:13:15.504Z</time>
      </trkpt>
      <trkpt lat="48.58808" lon="2.56338">
        <ele>88</ele>
        <time>2022-11-15T10:13:20.494Z</time>
      </trkpt>
      <trkpt lat="48.58799" lon="2.56327">
        <ele>88</ele>
        <time>2022-11-15T10:13:25.505Z</time>
      </trkpt>
      <trkpt lat="48.58787" lon="2.56327">
        <ele>86</ele>
        <time>2022-11-15T10:13:30.489Z</time>
      </trkpt>
      <trkpt lat="48.58777" lon="2.56339">
        <ele>86</ele>
        <time>2022-11-15T10:13:35.502Z</time>
      </trkpt>
      <trkpt lat="48.58769" lon="2.5636">
        <ele>85</ele>
        <time>2022-11-15T10:13:40.498Z</time>
      </trkpt>
      <trkpt lat="48.58759" lon="2.56387">
        <ele>83</ele>
        <time>2022-11-15T10:13:45.506Z</time>
      </trkpt>
      <trkpt lat="48.58749" lon="2.56415">
        <ele>83</ele>
        <time>2022-11-15T10:13:50.508Z</time>
      </trkpt>
      <trkpt lat="48.58737" lon="2.56444">
        <ele>83</ele>
        <time>2022-11-15T10:13:55.511Z</time>
      </trkpt>
      <trkpt lat="48.58726" lon="2.56472">
        <ele>84</ele>
        <time>2022-11-15T10:14:00.507Z</time>
      </trkpt>
      <trkpt lat="48.58714" lon="2.56501">
        <ele>84</ele>
        <time>2022-11-15T10:14:05.520Z</time>
      </trkpt>
      <trkpt lat="48.58702" lon="2.56531">
        <ele>83</ele>
        <time>2022-11-15T10:14:10.494Z</time>
      </trkpt>
      <trkpt lat="48.58691" lon="2.5656">
        <ele>83</ele>
        <time>2022-11-15T10:14:15.486Z</time>
      </trkpt>
      <trkpt lat="48.58677" lon="2.56589">
        <ele>84</ele>
        <time>2022-11-15T10:14:20.484Z</time>
      </trkpt>
      <trkpt lat="48.58666" lon="2.56619">
        <ele>84</ele>
        <time>2022-11-15T10:14:25.483Z</time>
      </trkpt>
      <trkpt lat="48.5866" lon="2.56634">
        <ele>85</ele>
        <time>2022-11-15T10:14:30.501Z</time>
      </trkpt>
      <trkpt lat="48.58655" lon="2.56648">
        <ele>85</ele>
        <time>2022-11-15T10:14:35.487Z</time>
      </trkpt>
      <trkpt lat="48.58649" lon="2.56667">
        <ele>85</ele>
        <time>2022-11-15T10:14:40.497Z</time>
      </trkpt>
      <trkpt lat="48.5864" lon="2.56695">
        <ele>85</ele>
        <time>2022-11-15T10:14:45.482Z</time>
      </trkpt>
      <trkpt lat="48.58631" lon="2.56721">
        <ele>85</ele>
        <time>2022-11-15T10:14:49.492Z</time>
      </trkpt>
      <trkpt lat="48.58619" lon="2.56753">
        <ele>86</ele>
        <time>2022-11-15T10:14:54.480Z</time>
      </trkpt>
      <trkpt lat="48.58609" lon="2.56788">
        <ele>86</ele>
        <time>2022-11-15T10:14:59.512Z</time>
      </trkpt>
      <trkpt lat="48.58601" lon="2.56818">
        <ele>86</ele>
        <time>2022-11-15T10:15:03.500Z</time>
      </trkpt>
      <trkpt lat="48.58592" lon="2.56858">
        <ele>84</ele>
        <time>2022-11-15T10:15:08.510Z</time>
      </trkpt>
      <trkpt lat="48.58583" lon="2.569">
        <ele>83</ele>
        <time>2022-11-15T10:15:13.496Z</time>
      </trkpt>
      <trkpt lat="48.58579" lon="2.56934">
        <ele>81</ele>
        <time>2022-11-15T10:15:17.504Z</time>
      </trkpt>
      <trkpt lat="48.58573" lon="2.56973">
        <ele>80</ele>
        <time>2022-11-15T10:15:22.481Z</time>
      </trkpt>
      <trkpt lat="48.58571" lon="2.57">
        <ele>80</ele>
        <time>2022-11-15T10:15:26.502Z</time>
      </trkpt>
      <trkpt lat="48.58566" lon="2.57033">
        <ele>82</ele>
        <time>2022-11-15T10:15:31.495Z</time>
      </trkpt>
      <trkpt lat="48.58563" lon="2.57062">
        <ele>82</ele>
        <time>2022-11-15T10:15:36.482Z</time>
      </trkpt>
      <trkpt lat="48.58557" lon="2.57086">
        <ele>82</ele>
        <time>2022-11-15T10:15:40.501Z</time>
      </trkpt>
      <trkpt lat="48.58537" lon="2.57092">
        <ele>84</ele>
        <time>2022-11-15T10:15:45.490Z</time>
      </trkpt>
      <trkpt lat="48.58517" lon="2.57081">
        <ele>84</ele>
        <time>2022-11-15T10:15:50.485Z</time>
      </trkpt>
      <trkpt lat="48.58496" lon="2.57065">
        <ele>85</ele>
        <time>2022-11-15T10:15:55.501Z</time>
      </trkpt>
      <trkpt lat="48.58477" lon="2.5705">
        <ele>84</ele>
        <time>2022-11-15T10:16:00.484Z</time>
      </trkpt>
      <trkpt lat="48.5846" lon="2.57034">
        <ele>84</ele>
        <time>2022-11-15T10:16:05.492Z</time>
      </trkpt>
      <trkpt lat="48.5845" lon="2.57018">
        <ele>83</ele>
        <time>2022-11-15T10:16:09.496Z</time>
      </trkpt>
      <trkpt lat="48.58439" lon="2.57009">
        <ele>83</ele>
        <time>2022-11-15T10:16:14.493Z</time>
      </trkpt>
      <trkpt lat="48.58428" lon="2.57002">
        <ele>83</ele>
        <time>2022-11-15T10:16:19.505Z</time>
      </trkpt>
      <trkpt lat="48.58417" lon="2.56984">
        <ele>84</ele>
        <time>2022-11-15T10:16:24.510Z</time>
      </trkpt>
      <trkpt lat="48.58403" lon="2.56959">
        <ele>84</ele>
        <time>2022-11-15T10:16:29.506Z</time>
      </trkpt>
      <trkpt lat="48.58388" lon="2.56932">
        <ele>86</ele>
        <time>2022-11-15T10:16:34.487Z</time>
      </trkpt>
      <trkpt lat="48.58375" lon="2.56904">
        <ele>87</ele>
        <time>2022-11-15T10:16:39.500Z</time>
      </trkpt>
      <trkpt lat="48.58358" lon="2.5688">
        <ele>86</ele>
        <time>2022-11-15T10:16:44.506Z</time>
      </trkpt>
      <trkpt lat="48.58348" lon="2.56857">
        <ele>86</ele>
        <time>2022-11-15T10:16:49.496Z</time>
      </trkpt>
      <trkpt lat="48.58335" lon="2.56829">
        <ele>85</ele>
        <time>2022-11-15T10:16:54.487Z</time>
      </trkpt>
      <trkpt lat="48.58319" lon="2.56802">
        <ele>87</ele>
        <time>2022-11-15T10:16:59.488Z</time>
      </trkpt>
      <trkpt lat="48.58304" lon="2.56773">
        <ele>87</ele>
        <time>2022-11-15T10:17:04.493Z</time>
      </trkpt>
      <trkpt lat="48.58288" lon="2.56744">
        <ele>86</ele>
        <time>2022-11-15T10:17:09.489Z</time>
      </trkpt>
      <trkpt lat="48.58275" lon="2.56719">
        <ele>85</ele>
        <time>2022-11-15T10:17:13.486Z</time>
      </trkpt>
      <trkpt lat="48.5826" lon="2.5669">
        <ele>84</ele>
        <time>2022-11-15T10:17:18.495Z</time>
      </trkpt>
      <trkpt lat="48.58244" lon="2.5666">
        <ele>84</ele>
        <time>2022-11-15T10:17:23.483Z</time>
      </trkpt>
      <trkpt lat="48.58232" lon="2.56637">
        <ele>82</ele>
        <time>2022-11-15T10:17:27.495Z</time>
      </trkpt>
      <trkpt lat="48.58219" lon="2.56608">
        <ele>82</ele>
        <time>2022-11-15T10:17:32.500Z</time>
      </trkpt>
      <trkpt lat="48.58207" lon="2.56584">
        <ele>81</ele>
        <time>2022-11-15T10:17:37.491Z</time>
      </trkpt>
      <trkpt lat="48.58195" lon="2.56559">
        <ele>81</ele>
        <time>2022-11-15T10:17:56.512Z</time>
      </trkpt>
      <trkpt lat="48.58195" lon="2.56557">
        <ele>81</ele>
        <time>2022-11-15T10:18:41.497Z</time>
      </trkpt>
      <trkpt lat="48.58195" lon="2.56557">
        <ele>81</ele>
        <time>2022-11-15T10:18:46.496Z</time>
      </trkpt>
      <trkpt lat="48.58193" lon="2.56554">
        <ele>81</ele>
        <time>2022-11-15T10:19:00.490Z</time>
      </trkpt>
      <trkpt lat="48.58188" lon="2.56545">
        <ele>81</ele>
        <time>2022-11-15T10:19:04.500Z</time>
      </trkpt>
      <trkpt lat="48.58178" lon="2.56526">
        <ele>79</ele>
        <time>2022-11-15T10:19:09.492Z</time>
      </trkpt>
      <trkpt lat="48.58166" lon="2.56506">
        <ele>79</ele>
        <time>2022-11-15T10:19:13.509Z</time>
      </trkpt>
      <trkpt lat="48.58146" lon="2.56476">
        <ele>79</ele>
        <time>2022-11-15T10:19:18.493Z</time>
      </trkpt>
      <trkpt lat="48.5813" lon="2.56447">
        <ele>79</ele>
        <time>2022-11-15T10:19:23.512Z</time>
      </trkpt>
      <trkpt lat="48.58107" lon="2.56405">
        <ele>79</ele>
        <time>2022-11-15T10:19:38.496Z</time>
      </trkpt>
      <trkpt lat="48.58111" lon="2.56392">
        <ele>78</ele>
        <time>2022-11-15T10:19:43.505Z</time>
      </trkpt>
      <trkpt lat="48.58115" lon="2.56367">
        <ele>78</ele>
        <time>2022-11-15T10:19:48.496Z</time>
      </trkpt>
      <trkpt lat="48.58116" lon="2.56343">
        <ele>78</ele>
        <time>2022-11-15T10:19:53.483Z</time>
      </trkpt>
      <trkpt lat="48.5812" lon="2.56316">
        <ele>78</ele>
        <time>2022-11-15T10:19:58.481Z</time>
      </trkpt>
      <trkpt lat="48.58126" lon="2.56286">
        <ele>80</ele>
        <time>2022-11-15T10:20:03.490Z</time>
      </trkpt>
      <trkpt lat="48.58132" lon="2.56261">
        <ele>80</ele>
        <time>2022-11-15T10:20:07.484Z</time>
      </trkpt>
      <trkpt lat="48.58137" lon="2.5623">
        <ele>81</ele>
        <time>2022-11-15T10:20:12.486Z</time>
      </trkpt>
      <trkpt lat="48.58139" lon="2.56208">
        <ele>82</ele>
        <time>2022-11-15T10:20:16.483Z</time>
      </trkpt>
      <trkpt lat="48.58144" lon="2.5618">
        <ele>82</ele>
        <time>2022-11-15T10:20:21.492Z</time>
      </trkpt>
      <trkpt lat="48.58151" lon="2.56152">
        <ele>81</ele>
        <time>2022-11-15T10:20:26.487Z</time>
      </trkpt>
      <trkpt lat="48.58156" lon="2.56123">
        <ele>81</ele>
        <time>2022-11-15T10:20:31.496Z</time>
      </trkpt>
      <trkpt lat="48.58159" lon="2.561">
        <ele>81</ele>
        <time>2022-11-15T10:20:35.488Z</time>
      </trkpt>
      <trkpt lat="48.58163" lon="2.5608">
        <ele>80</ele>
        <time>2022-11-15T10:20:40.480Z</time>
      </trkpt>
      <trkpt lat="48.58168" lon="2.56073">
        <ele>80</ele>
        <time>2022-11-15T10:20:44.489Z</time>
      </trkpt>
      <trkpt lat="48.5817" lon="2.56056">
        <ele>79</ele>
        <time>2022-11-15T10:20:49.510Z</time>
      </trkpt>
      <trkpt lat="48.58156" lon="2.56042">
        <ele>79</ele>
        <time>2022-11-15T10:20:54.496Z</time>
      </trkpt>
      <trkpt lat="48.58139" lon="2.56033">
        <ele>78</ele>
        <time>2022-11-15T10:20:59.499Z</time>
      </trkpt>
      <trkpt lat="48.58119" lon="2.56018">
        <ele>80</ele>
        <time>2022-11-15T10:21:04.487Z</time>
      </trkpt>
      <trkpt lat="48.58106" lon="2.55992">
        <ele>80</ele>
        <time>2022-11-15T10:21:09.488Z</time>
      </trkpt>
      <trkpt lat="48.58094" lon="2.5597">
        <ele>80</ele>
        <time>2022-11-15T10:21:14.498Z</time>
      </trkpt>
      <trkpt lat="48.58073" lon="2.55956">
        <ele>81</ele>
        <time>2022-11-15T10:21:19.501Z</time>
      </trkpt>
      <trkpt lat="48.58053" lon="2.55938">
        <ele>82</ele>
        <time>2022-11-15T10:21:24.486Z</time>
      </trkpt>
      <trkpt lat="48.58034" lon="2.55921">
        <ele>81</ele>
        <time>2022-11-15T10:21:29.492Z</time>
      </trkpt>
      <trkpt lat="48.58016" lon="2.55909">
        <ele>81</ele>
        <time>2022-11-15T10:21:34.482Z</time>
      </trkpt>
      <trkpt lat="48.57998" lon="2.55895">
        <ele>82</ele>
        <time>2022-11-15T10:21:39.482Z</time>
      </trkpt>
      <trkpt lat="48.57984" lon="2.55884">
        <ele>82</ele>
        <time>2022-11-15T10:21:43.503Z</time>
      </trkpt>
      <trkpt lat="48.57968" lon="2.55871">
        <ele>81</ele>
        <time>2022-11-15T10:21:48.489Z</time>
      </trkpt>
      <trkpt lat="48.57955" lon="2.5586">
        <ele>80</ele>
        <time>2022-11-15T10:21:52.496Z</time>
      </trkpt>
      <trkpt lat="48.57938" lon="2.55845">
        <ele>80</ele>
        <time>2022-11-15T10:21:57.480Z</time>
      </trkpt>
      <trkpt lat="48.57926" lon="2.55834">
        <ele>81</ele>
        <time>2022-11-15T10:22:01.487Z</time>
      </trkpt>
      <trkpt lat="48.57918" lon="2.55827">
        <ele>81</ele>
        <time>2022-11-15T10:22:05.512Z</time>
      </trkpt>
      <trkpt lat="48.57912" lon="2.55812">
        <ele>81</ele>
        <time>2022-11-15T10:22:10.482Z</time>
      </trkpt>
      <trkpt lat="48.57913" lon="2.558">
        <ele>81</ele>
        <time>2022-11-15T10:22:24.494Z</time>
      </trkpt>
      <trkpt lat="48.57913" lon="2.55794">
        <ele>81</ele>
        <time>2022-11-15T10:22:34.481Z</time>
      </trkpt>
      <trkpt lat="48.57914" lon="2.55786">
        <ele>80</ele>
        <time>2022-11-15T10:22:39.505Z</time>
      </trkpt>
      <trkpt lat="48.57914" lon="2.55779">
        <ele>80</ele>
        <time>2022-11-15T10:22:44.490Z</time>
      </trkpt>
      <trkpt lat="48.57914" lon="2.55779">
        <ele>80</ele>
        <time>2022-11-15T10:22:49.491Z</time>
      </trkpt>
      <trkpt lat="48.57914" lon="2.55779">
        <ele>80</ele>
        <time>2022-11-15T10:22:54.490Z</time>
      </trkpt>
      <trkpt lat="48.57912" lon="2.55776">
        <ele>80</ele>
        <time>2022-11-15T10:23:04.488Z</time>
      </trkpt>
      <trkpt lat="48.5791" lon="2.55763">
        <ele>79</ele>
        <time>2022-11-15T10:23:09.486Z</time>
      </trkpt>
      <trkpt lat="48.57905" lon="2.55747">
        <ele>79</ele>
        <time>2022-11-15T10:23:14.488Z</time>
      </trkpt>
      <trkpt lat="48.57899" lon="2.55727">
        <ele>79</ele>
        <time>2022-11-15T10:23:19.484Z</time>
      </trkpt>
      <trkpt lat="48.57892" lon="2.55703">
        <ele>80</ele>
        <time>2022-11-15T10:23:24.483Z</time>
      </trkpt>
      <trkpt lat="48.57887" lon="2.55683">
        <ele>80</ele>
        <time>2022-11-15T10:23:28.506Z</time>
      </trkpt>
      <trkpt lat="48.57879" lon="2.55656">
        <ele>81</ele>
        <time>2022-11-15T10:23:33.499Z</time>
      </trkpt>
      <trkpt lat="48.5787" lon="2.55627">
        <ele>80</ele>
        <time>2022-11-15T10:23:38.505Z</time>
      </trkpt>
      <trkpt lat="48.57861" lon="2.55598">
        <ele>81</ele>
        <time>2022-11-15T10:23:43.517Z</time>
      </trkpt>
      <trkpt lat="48.57853" lon="2.55568">
        <ele>81</ele>
        <time>2022-11-15T10:23:48.498Z</time>
      </trkpt>
      <trkpt lat="48.57844" lon="2.55537">
        <ele>81</ele>
        <time>2022-11-15T10:23:53.505Z</time>
      </trkpt>
      <trkpt lat="48.57834" lon="2.55508">
        <ele>83</ele>
        <time>2022-11-15T10:23:58.500Z</time>
      </trkpt>
      <trkpt lat="48.57825" lon="2.55475">
        <ele>84</ele>
        <time>2022-11-15T10:24:03.508Z</time>
      </trkpt>
      <trkpt lat="48.57815" lon="2.55443">
        <ele>84</ele>
        <time>2022-11-15T10:24:08.494Z</time>
      </trkpt>
      <trkpt lat="48.57805" lon="2.55418">
        <ele>84</ele>
        <time>2022-11-15T10:24:12.498Z</time>
      </trkpt>
      <trkpt lat="48.57794" lon="2.55388">
        <ele>84</ele>
        <time>2022-11-15T10:24:17.494Z</time>
      </trkpt>
      <trkpt lat="48.57782" lon="2.55356">
        <ele>83</ele>
        <time>2022-11-15T10:24:22.499Z</time>
      </trkpt>
      <trkpt lat="48.57772" lon="2.55331">
        <ele>83</ele>
        <time>2022-11-15T10:24:26.496Z</time>
      </trkpt>
      <trkpt lat="48.57762" lon="2.55303">
        <ele>82</ele>
        <time>2022-11-15T10:24:30.508Z</time>
      </trkpt>
      <trkpt lat="48.57749" lon="2.5527">
        <ele>84</ele>
        <time>2022-11-15T10:24:35.490Z</time>
      </trkpt>
      <trkpt lat="48.57736" lon="2.55238">
        <ele>88</ele>
        <time>2022-11-15T10:24:40.486Z</time>
      </trkpt>
      <trkpt lat="48.57727" lon="2.55208">
        <ele>93</ele>
        <time>2022-11-15T10:24:45.481Z</time>
      </trkpt>
      <trkpt lat="48.57716" lon="2.55178">
        <ele>93</ele>
        <time>2022-11-15T10:24:50.507Z</time>
      </trkpt>
      <trkpt lat="48.57705" lon="2.55147">
        <ele>94</ele>
        <time>2022-11-15T10:24:55.483Z</time>
      </trkpt>
      <trkpt lat="48.57692" lon="2.55117">
        <ele>94</ele>
        <time>2022-11-15T10:25:00.488Z</time>
      </trkpt>
      <trkpt lat="48.57681" lon="2.5509">
        <ele>94</ele>
        <time>2022-11-15T10:25:04.481Z</time>
      </trkpt>
      <trkpt lat="48.5767" lon="2.55056">
        <ele>94</ele>
        <time>2022-11-15T10:25:09.511Z</time>
      </trkpt>
      <trkpt lat="48.57657" lon="2.55024">
        <ele>94</ele>
        <time>2022-11-15T10:25:14.491Z</time>
      </trkpt>
      <trkpt lat="48.57646" lon="2.54992">
        <ele>94</ele>
        <time>2022-11-15T10:25:19.503Z</time>
      </trkpt>
      <trkpt lat="48.57632" lon="2.5496">
        <ele>94</ele>
        <time>2022-11-15T10:25:24.498Z</time>
      </trkpt>
      <trkpt lat="48.57619" lon="2.5493">
        <ele>92</ele>
        <time>2022-11-15T10:25:29.502Z</time>
      </trkpt>
      <trkpt lat="48.57607" lon="2.54898">
        <ele>93</ele>
        <time>2022-11-15T10:25:34.494Z</time>
      </trkpt>
      <trkpt lat="48.57594" lon="2.54866">
        <ele>92</ele>
        <time>2022-11-15T10:25:39.488Z</time>
      </trkpt>
      <trkpt lat="48.57584" lon="2.54833">
        <ele>91</ele>
        <time>2022-11-15T10:25:44.499Z</time>
      </trkpt>
      <trkpt lat="48.57573" lon="2.54805">
        <ele>91</ele>
        <time>2022-11-15T10:25:49.480Z</time>
      </trkpt>
      <trkpt lat="48.57561" lon="2.54775">
        <ele>89</ele>
        <time>2022-11-15T10:25:54.495Z</time>
      </trkpt>
      <trkpt lat="48.57547" lon="2.54744">
        <ele>89</ele>
        <time>2022-11-15T10:25:59.506Z</time>
      </trkpt>
      <trkpt lat="48.57534" lon="2.54712">
        <ele>85</ele>
        <time>2022-11-15T10:26:04.487Z</time>
      </trkpt>
      <trkpt lat="48.57535" lon="2.54692">
        <ele>86</ele>
        <time>2022-11-15T10:26:09.500Z</time>
      </trkpt>
      <trkpt lat="48.57541" lon="2.54679">
        <ele>88</ele>
        <time>2022-11-15T10:26:14.486Z</time>
      </trkpt>
      <trkpt lat="48.57549" lon="2.5467">
        <ele>89</ele>
        <time>2022-11-15T10:26:19.490Z</time>
      </trkpt>
      <trkpt lat="48.57561" lon="2.54662">
        <ele>89</ele>
        <time>2022-11-15T10:26:24.496Z</time>
      </trkpt>
      <trkpt lat="48.57575" lon="2.54651">
        <ele>90</ele>
        <time>2022-11-15T10:26:29.495Z</time>
      </trkpt>
      <trkpt lat="48.57588" lon="2.54638">
        <ele>90</ele>
        <time>2022-11-15T10:26:34.493Z</time>
      </trkpt>
      <trkpt lat="48.57604" lon="2.54626">
        <ele>89</ele>
        <time>2022-11-15T10:26:39.480Z</time>
      </trkpt>
      <trkpt lat="48.57616" lon="2.54615">
        <ele>88</ele>
        <time>2022-11-15T10:26:43.510Z</time>
      </trkpt>
      <trkpt lat="48.57633" lon="2.54603">
        <ele>89</ele>
        <time>2022-11-15T10:26:48.488Z</time>
      </trkpt>
      <trkpt lat="48.57646" lon="2.54593">
        <ele>88</ele>
        <time>2022-11-15T10:26:52.497Z</time>
      </trkpt>
      <trkpt lat="48.57659" lon="2.54578">
        <ele>89</ele>
        <time>2022-11-15T10:26:57.502Z</time>
      </trkpt>
      <trkpt lat="48.57676" lon="2.54565">
        <ele>89</ele>
        <time>2022-11-15T10:27:02.499Z</time>
      </trkpt>
      <trkpt lat="48.57694" lon="2.54549">
        <ele>91</ele>
        <time>2022-11-15T10:27:07.509Z</time>
      </trkpt>
      <trkpt lat="48.57713" lon="2.54533">
        <ele>91</ele>
        <time>2022-11-15T10:27:12.487Z</time>
      </trkpt>
      <trkpt lat="48.57733" lon="2.54517">
        <ele>91</ele>
        <time>2022-11-15T10:27:17.489Z</time>
      </trkpt>
      <trkpt lat="48.5775" lon="2.54503">
        <ele>90</ele>
        <time>2022-11-15T10:27:22.484Z</time>
      </trkpt>
      <trkpt lat="48.57763" lon="2.5449">
        <ele>90</ele>
        <time>2022-11-15T10:27:26.507Z</time>
      </trkpt>
      <trkpt lat="48.57782" lon="2.54472">
        <ele>91</ele>
        <time>2022-11-15T10:27:31.483Z</time>
      </trkpt>
      <trkpt lat="48.57803" lon="2.54455">
        <ele>91</ele>
        <time>2022-11-15T10:27:36.484Z</time>
      </trkpt>
      <trkpt lat="48.57821" lon="2.54439">
        <ele>90</ele>
        <time>2022-11-15T10:27:41.494Z</time>
      </trkpt>
      <trkpt lat="48.57839" lon="2.54424">
        <ele>91</ele>
        <time>2022-11-15T10:27:46.516Z</time>
      </trkpt>
      <trkpt lat="48.57855" lon="2.54408">
        <ele>90</ele>
        <time>2022-11-15T10:27:51.485Z</time>
      </trkpt>
      <trkpt lat="48.57873" lon="2.54391">
        <ele>90</ele>
        <time>2022-11-15T10:27:56.493Z</time>
      </trkpt>
      <trkpt lat="48.57893" lon="2.54374">
        <ele>89</ele>
        <time>2022-11-15T10:28:01.489Z</time>
      </trkpt>
      <trkpt lat="48.5791" lon="2.54358">
        <ele>88</ele>
        <time>2022-11-15T10:28:06.484Z</time>
      </trkpt>
      <trkpt lat="48.57929" lon="2.54343">
        <ele>89</ele>
        <time>2022-11-15T10:28:11.477Z</time>
      </trkpt>
      <trkpt lat="48.57941" lon="2.54332">
        <ele>88</ele>
        <time>2022-11-15T10:28:15.477Z</time>
      </trkpt>
      <trkpt lat="48.57954" lon="2.54316">
        <ele>89</ele>
        <time>2022-11-15T10:28:20.486Z</time>
      </trkpt>
      <trkpt lat="48.57976" lon="2.54315">
        <ele>87</ele>
        <time>2022-11-15T10:28:24.482Z</time>
      </trkpt>
      <trkpt lat="48.57996" lon="2.54297">
        <ele>85</ele>
        <time>2022-11-15T10:28:29.482Z</time>
      </trkpt>
      <trkpt lat="48.58016" lon="2.54277">
        <ele>87</ele>
        <time>2022-11-15T10:28:34.501Z</time>
      </trkpt>
      <trkpt lat="48.58032" lon="2.54257">
        <ele>88</ele>
        <time>2022-11-15T10:28:39.485Z</time>
      </trkpt>
      <trkpt lat="48.58052" lon="2.54241">
        <ele>89</ele>
        <time>2022-11-15T10:28:44.483Z</time>
      </trkpt>
      <trkpt lat="48.5807" lon="2.54224">
        <ele>89</ele>
        <time>2022-11-15T10:28:49.522Z</time>
      </trkpt>
      <trkpt lat="48.58086" lon="2.54207">
        <ele>89</ele>
        <time>2022-11-15T10:28:54.487Z</time>
      </trkpt>
      <trkpt lat="48.58099" lon="2.54196">
        <ele>88</ele>
        <time>2022-11-15T10:28:58.502Z</time>
      </trkpt>
      <trkpt lat="48.58119" lon="2.54183">
        <ele>88</ele>
        <time>2022-11-15T10:29:03.481Z</time>
      </trkpt>
      <trkpt lat="48.58133" lon="2.54172">
        <ele>88</ele>
        <time>2022-11-15T10:29:07.499Z</time>
      </trkpt>
      <trkpt lat="48.58146" lon="2.54159">
        <ele>88</ele>
        <time>2022-11-15T10:29:12.492Z</time>
      </trkpt>
      <trkpt lat="48.58156" lon="2.54147">
        <ele>88</ele>
        <time>2022-11-15T10:29:17.487Z</time>
      </trkpt>
      <trkpt lat="48.58158" lon="2.54133">
        <ele>88</ele>
        <time>2022-11-15T10:29:21.485Z</time>
      </trkpt>
      <trkpt lat="48.58157" lon="2.54111">
        <ele>88</ele>
        <time>2022-11-15T10:29:26.490Z</time>
      </trkpt>
      <trkpt lat="48.58157" lon="2.54088">
        <ele>89</ele>
        <time>2022-11-15T10:29:31.487Z</time>
      </trkpt>
      <trkpt lat="48.58157" lon="2.54062">
        <ele>90</ele>
        <time>2022-11-15T10:29:36.488Z</time>
      </trkpt>
      <trkpt lat="48.58156" lon="2.54034">
        <ele>91</ele>
        <time>2022-11-15T10:29:41.514Z</time>
      </trkpt>
      <trkpt lat="48.58155" lon="2.54012">
        <ele>94</ele>
        <time>2022-11-15T10:29:46.501Z</time>
      </trkpt>
      <trkpt lat="48.58156" lon="2.5399">
        <ele>94</ele>
        <time>2022-11-15T10:29:51.505Z</time>
      </trkpt>
      <trkpt lat="48.58156" lon="2.5397">
        <ele>95</ele>
        <time>2022-11-15T10:29:56.488Z</time>
      </trkpt>
      <trkpt lat="48.58155" lon="2.5395">
        <ele>94</ele>
        <time>2022-11-15T10:30:00.516Z</time>
      </trkpt>
      <trkpt lat="48.58155" lon="2.5393">
        <ele>93</ele>
        <time>2022-11-15T10:30:04.508Z</time>
      </trkpt>
      <trkpt lat="48.58154" lon="2.53907">
        <ele>93</ele>
        <time>2022-11-15T10:30:09.496Z</time>
      </trkpt>
      <trkpt lat="48.58153" lon="2.53882">
        <ele>92</ele>
        <time>2022-11-15T10:30:14.489Z</time>
      </trkpt>
      <trkpt lat="48.58154" lon="2.53863">
        <ele>92</ele>
        <time>2022-11-15T10:30:18.505Z</time>
      </trkpt>
      <trkpt lat="48.58153" lon="2.53838">
        <ele>92</ele>
        <time>2022-11-15T10:30:23.489Z</time>
      </trkpt>
      <trkpt lat="48.58151" lon="2.53816">
        <ele>94</ele>
        <time>2022-11-15T10:30:28.494Z</time>
      </trkpt>
      <trkpt lat="48.58151" lon="2.53794">
        <ele>94</ele>
        <time>2022-11-15T10:30:33.487Z</time>
      </trkpt>
      <trkpt lat="48.58151" lon="2.53766">
        <ele>96</ele>
        <time>2022-11-15T10:30:38.485Z</time>
      </trkpt>
      <trkpt lat="48.58149" lon="2.53739">
        <ele>98</ele>
        <time>2022-11-15T10:30:43.493Z</time>
      </trkpt>
      <trkpt lat="48.58148" lon="2.53712">
        <ele>97</ele>
        <time>2022-11-15T10:30:48.502Z</time>
      </trkpt>
      <trkpt lat="48.58148" lon="2.53685">
        <ele>97</ele>
        <time>2022-11-15T10:30:53.486Z</time>
      </trkpt>
      <trkpt lat="48.58147" lon="2.53656">
        <ele>97</ele>
        <time>2022-11-15T10:30:58.483Z</time>
      </trkpt>
      <trkpt lat="48.58145" lon="2.53624">
        <ele>98</ele>
        <time>2022-11-15T10:31:03.493Z</time>
      </trkpt>
      <trkpt lat="48.58144" lon="2.53593">
        <ele>98</ele>
        <time>2022-11-15T10:31:08.484Z</time>
      </trkpt>
      <trkpt lat="48.58144" lon="2.53561">
        <ele>97</ele>
        <time>2022-11-15T10:31:13.499Z</time>
      </trkpt>
      <trkpt lat="48.58143" lon="2.53532">
        <ele>97</ele>
        <time>2022-11-15T10:31:18.500Z</time>
      </trkpt>
      <trkpt lat="48.58142" lon="2.53501">
        <ele>96</ele>
        <time>2022-11-15T10:31:23.521Z</time>
      </trkpt>
      <trkpt lat="48.5814" lon="2.5347">
        <ele>95</ele>
        <time>2022-11-15T10:31:28.503Z</time>
      </trkpt>
      <trkpt lat="48.58138" lon="2.53439">
        <ele>95</ele>
        <time>2022-11-15T10:31:33.499Z</time>
      </trkpt>
      <trkpt lat="48.58138" lon="2.53409">
        <ele>94</ele>
        <time>2022-11-15T10:31:38.513Z</time>
      </trkpt>
      <trkpt lat="48.58136" lon="2.53379">
        <ele>93</ele>
        <time>2022-11-15T10:31:43.500Z</time>
      </trkpt>
      <trkpt lat="48.58137" lon="2.53357">
        <ele>92</ele>
        <time>2022-11-15T10:31:48.494Z</time>
      </trkpt>
      <trkpt lat="48.58134" lon="2.53326">
        <ele>91</ele>
        <time>2022-11-15T10:31:53.488Z</time>
      </trkpt>
      <trkpt lat="48.5813" lon="2.53288">
        <ele>90</ele>
        <time>2022-11-15T10:31:58.501Z</time>
      </trkpt>
      <trkpt lat="48.58129" lon="2.53258">
        <ele>90</ele>
        <time>2022-11-15T10:32:03.495Z</time>
      </trkpt>
      <trkpt lat="48.58129" lon="2.53234">
        <ele>89</ele>
        <time>2022-11-15T10:32:08.509Z</time>
      </trkpt>
      <trkpt lat="48.58128" lon="2.53211">
        <ele>89</ele>
        <time>2022-11-15T10:32:13.488Z</time>
      </trkpt>
      <trkpt lat="48.58128" lon="2.53197">
        <ele>90</ele>
        <time>2022-11-15T10:32:17.495Z</time>
      </trkpt>
      <trkpt lat="48.58129" lon="2.53181">
        <ele>90</ele>
        <time>2022-11-15T10:32:46.520Z</time>
      </trkpt>
      <trkpt lat="48.58129" lon="2.53178">
        <ele>91</ele>
        <time>2022-11-15T10:33:09.519Z</time>
      </trkpt>
      <trkpt lat="48.58129" lon="2.53174">
        <ele>91</ele>
        <time>2022-11-15T10:33:14.514Z</time>
      </trkpt>
      <trkpt lat="48.58131" lon="2.53172">
        <ele>91</ele>
        <time>2022-11-15T10:33:19.485Z</time>
      </trkpt>
      <trkpt lat="48.58135" lon="2.53164">
        <ele>91</ele>
        <time>2022-11-15T10:33:24.485Z</time>
      </trkpt>
      <trkpt lat="48.58137" lon="2.53162">
        <ele>91</ele>
        <time>2022-11-15T10:34:57.491Z</time>
      </trkpt>
      <trkpt lat="48.58135" lon="2.53171">
        <ele>91</ele>
        <time>2022-11-15T10:35:02.495Z</time>
      </trkpt>
      <trkpt lat="48.5813" lon="2.53176">
        <ele>91</ele>
        <time>2022-11-15T10:35:07.489Z</time>
      </trkpt>
      <trkpt lat="48.5813" lon="2.53175">
        <ele>91</ele>
        <time>2022-11-15T10:35:11.494Z</time>
      </trkpt>
      <trkpt lat="48.58129" lon="2.53175">
        <ele>91</ele>
        <time>2022-11-15T10:35:16.501Z</time>
      </trkpt>
      <trkpt lat="48.58129" lon="2.53175">
        <ele>91</ele>
        <time>2022-11-15T10:35:20.512Z</time>
      </trkpt>
      <trkpt lat="48.58128" lon="2.53177">
        <ele>91</ele>
        <time>2022-11-15T10:36:13.484Z</time>
      </trkpt>
      <trkpt lat="48.58127" lon="2.53174">
        <ele>91</ele>
        <time>2022-11-15T10:36:18.497Z</time>
      </trkpt>
      <trkpt lat="48.58125" lon="2.53164">
        <ele>91</ele>
        <time>2022-11-15T10:36:23.504Z</time>
      </trkpt>
      <trkpt lat="48.58125" lon="2.53146">
        <ele>93</ele>
        <time>2022-11-15T10:36:28.506Z</time>
      </trkpt>
      <trkpt lat="48.58125" lon="2.53122">
        <ele>93</ele>
        <time>2022-11-15T10:36:33.486Z</time>
      </trkpt>
      <trkpt lat="48.58123" lon="2.53099">
        <ele>93</ele>
        <time>2022-11-15T10:36:38.497Z</time>
      </trkpt>
      <trkpt lat="48.58122" lon="2.53077">
        <ele>93</ele>
        <time>2022-11-15T10:36:42.496Z</time>
      </trkpt>
      <trkpt lat="48.58122" lon="2.53047">
        <ele>92</ele>
        <time>2022-11-15T10:36:47.487Z</time>
      </trkpt>
      <trkpt lat="48.58121" lon="2.53014">
        <ele>91</ele>
        <time>2022-11-15T10:36:52.497Z</time>
      </trkpt>
      <trkpt lat="48.58119" lon="2.52981">
        <ele>89</ele>
        <time>2022-11-15T10:36:57.486Z</time>
      </trkpt>
      <trkpt lat="48.58118" lon="2.52949">
        <ele>89</ele>
        <time>2022-11-15T10:37:02.496Z</time>
      </trkpt>
      <trkpt lat="48.58117" lon="2.52916">
        <ele>88</ele>
        <time>2022-11-15T10:37:07.493Z</time>
      </trkpt>
      <trkpt lat="48.58116" lon="2.52883">
        <ele>87</ele>
        <time>2022-11-15T10:37:12.489Z</time>
      </trkpt>
      <trkpt lat="48.58114" lon="2.52848">
        <ele>87</ele>
        <time>2022-11-15T10:37:17.507Z</time>
      </trkpt>
      <trkpt lat="48.58113" lon="2.52814">
        <ele>85</ele>
        <time>2022-11-15T10:37:22.494Z</time>
      </trkpt>
      <trkpt lat="48.58112" lon="2.52779">
        <ele>85</ele>
        <time>2022-11-15T10:37:27.494Z</time>
      </trkpt>
      <trkpt lat="48.5811" lon="2.52744">
        <ele>85</ele>
        <time>2022-11-15T10:37:32.508Z</time>
      </trkpt>
      <trkpt lat="48.58108" lon="2.52708">
        <ele>88</ele>
        <time>2022-11-15T10:37:37.504Z</time>
      </trkpt>
      <trkpt lat="48.58107" lon="2.52676">
        <ele>88</ele>
        <time>2022-11-15T10:37:41.508Z</time>
      </trkpt>
      <trkpt lat="48.58106" lon="2.5264">
        <ele>89</ele>
        <time>2022-11-15T10:37:46.502Z</time>
      </trkpt>
      <trkpt lat="48.58105" lon="2.52602">
        <ele>88</ele>
        <time>2022-11-15T10:37:51.506Z</time>
      </trkpt>
      <trkpt lat="48.58105" lon="2.52565">
        <ele>88</ele>
        <time>2022-11-15T10:37:56.487Z</time>
      </trkpt>
      <trkpt lat="48.58103" lon="2.52528">
        <ele>88</ele>
        <time>2022-11-15T10:38:01.486Z</time>
      </trkpt>
      <trkpt lat="48.58101" lon="2.5249">
        <ele>88</ele>
        <time>2022-11-15T10:38:06.489Z</time>
      </trkpt>
      <trkpt lat="48.581" lon="2.52455">
        <ele>88</ele>
        <time>2022-11-15T10:38:11.496Z</time>
      </trkpt>
      <trkpt lat="48.58099" lon="2.5242">
        <ele>88</ele>
        <time>2022-11-15T10:38:16.486Z</time>
      </trkpt>
      <trkpt lat="48.58098" lon="2.52393">
        <ele>87</ele>
        <time>2022-11-15T10:38:20.507Z</time>
      </trkpt>
      <trkpt lat="48.58097" lon="2.52359">
        <ele>88</ele>
        <time>2022-11-15T10:38:25.483Z</time>
      </trkpt>
      <trkpt lat="48.58095" lon="2.52332">
        <ele>88</ele>
        <time>2022-11-15T10:38:29.513Z</time>
      </trkpt>
      <trkpt lat="48.58094" lon="2.52292">
        <ele>88</ele>
        <time>2022-11-15T10:38:34.493Z</time>
      </trkpt>
      <trkpt lat="48.58092" lon="2.5225">
        <ele>89</ele>
        <time>2022-11-15T10:38:39.482Z</time>
      </trkpt>
      <trkpt lat="48.58092" lon="2.52212">
        <ele>89</ele>
        <time>2022-11-15T10:38:44.493Z</time>
      </trkpt>
      <trkpt lat="48.58093" lon="2.52176">
        <ele>88</ele>
        <time>2022-11-15T10:38:49.494Z</time>
      </trkpt>
      <trkpt lat="48.58089" lon="2.52137">
        <ele>87</ele>
        <time>2022-11-15T10:38:54.490Z</time>
      </trkpt>
      <trkpt lat="48.58086" lon="2.521">
        <ele>86</ele>
        <time>2022-11-15T10:38:59.490Z</time>
      </trkpt>
      <trkpt lat="48.58085" lon="2.52071">
        <ele>86</ele>
        <time>2022-11-15T10:39:03.504Z</time>
      </trkpt>
      <trkpt lat="48.58084" lon="2.52039">
        <ele>87</ele>
        <time>2022-11-15T10:39:08.500Z</time>
      </trkpt>
      <trkpt lat="48.58085" lon="2.52014">
        <ele>87</ele>
        <time>2022-11-15T10:39:13.517Z</time>
      </trkpt>
      <trkpt lat="48.58086" lon="2.51973">
        <ele>85</ele>
        <time>2022-11-15T10:39:18.498Z</time>
      </trkpt>
      <trkpt lat="48.58086" lon="2.51915">
        <ele>84</ele>
        <time>2022-11-15T10:39:23.514Z</time>
      </trkpt>
      <trkpt lat="48.58085" lon="2.51863">
        <ele>86</ele>
        <time>2022-11-15T10:39:28.499Z</time>
      </trkpt>
      <trkpt lat="48.58086" lon="2.51833">
        <ele>88</ele>
        <time>2022-11-15T10:39:32.502Z</time>
      </trkpt>
      <trkpt lat="48.58085" lon="2.51805">
        <ele>88</ele>
        <time>2022-11-15T10:39:37.484Z</time>
      </trkpt>
      <trkpt lat="48.58083" lon="2.51783">
        <ele>88</ele>
        <time>2022-11-15T10:39:41.483Z</time>
      </trkpt>
      <trkpt lat="48.58081" lon="2.51757">
        <ele>87</ele>
        <time>2022-11-15T10:39:45.506Z</time>
      </trkpt>
      <trkpt lat="48.5808" lon="2.51729">
        <ele>87</ele>
        <time>2022-11-15T10:39:50.486Z</time>
      </trkpt>
      <trkpt lat="48.58079" lon="2.51696">
        <ele>87</ele>
        <time>2022-11-15T10:39:55.506Z</time>
      </trkpt>
      <trkpt lat="48.58076" lon="2.51656">
        <ele>87</ele>
        <time>2022-11-15T10:40:00.491Z</time>
      </trkpt>
      <trkpt lat="48.58074" lon="2.51618">
        <ele>87</ele>
        <time>2022-11-15T10:40:05.500Z</time>
      </trkpt>
      <trkpt lat="48.58073" lon="2.5158">
        <ele>87</ele>
        <time>2022-11-15T10:40:10.484Z</time>
      </trkpt>
      <trkpt lat="48.58072" lon="2.51552">
        <ele>87</ele>
        <time>2022-11-15T10:40:14.497Z</time>
      </trkpt>
      <trkpt lat="48.5807" lon="2.51513">
        <ele>88</ele>
        <time>2022-11-15T10:40:19.492Z</time>
      </trkpt>
      <trkpt lat="48.58069" lon="2.51483">
        <ele>88</ele>
        <time>2022-11-15T10:40:23.495Z</time>
      </trkpt>
      <trkpt lat="48.58067" lon="2.51446">
        <ele>89</ele>
        <time>2022-11-15T10:40:28.489Z</time>
      </trkpt>
      <trkpt lat="48.58067" lon="2.51419">
        <ele>90</ele>
        <time>2022-11-15T10:40:32.489Z</time>
      </trkpt>
      <trkpt lat="48.58066" lon="2.51386">
        <ele>90</ele>
        <time>2022-11-15T10:40:37.498Z</time>
      </trkpt>
      <trkpt lat="48.58066" lon="2.51363">
        <ele>90</ele>
        <time>2022-11-15T10:40:41.501Z</time>
      </trkpt>
      <trkpt lat="48.58066" lon="2.51334">
        <ele>88</ele>
        <time>2022-11-15T10:40:46.503Z</time>
      </trkpt>
      <trkpt lat="48.58063" lon="2.51305">
        <ele>87</ele>
        <time>2022-11-15T10:40:51.501Z</time>
      </trkpt>
      <trkpt lat="48.58062" lon="2.51271">
        <ele>86</ele>
        <time>2022-11-15T10:40:56.502Z</time>
      </trkpt>
      <trkpt lat="48.58059" lon="2.51241">
        <ele>86</ele>
        <time>2022-11-15T10:41:01.512Z</time>
      </trkpt>
      <trkpt lat="48.58057" lon="2.51208">
        <ele>85</ele>
        <time>2022-11-15T10:41:06.507Z</time>
      </trkpt>
      <trkpt lat="48.58055" lon="2.51174">
        <ele>85</ele>
        <time>2022-11-15T10:41:11.494Z</time>
      </trkpt>
      <trkpt lat="48.58054" lon="2.51139">
        <ele>86</ele>
        <time>2022-11-15T10:41:16.504Z</time>
      </trkpt>
      <trkpt lat="48.58052" lon="2.51104">
        <ele>87</ele>
        <time>2022-11-15T10:41:21.492Z</time>
      </trkpt>
      <trkpt lat="48.58052" lon="2.51071">
        <ele>88</ele>
        <time>2022-11-15T10:41:26.488Z</time>
      </trkpt>
      <trkpt lat="48.58051" lon="2.51041">
        <ele>89</ele>
        <time>2022-11-15T10:41:31.499Z</time>
      </trkpt>
      <trkpt lat="48.58051" lon="2.50995">
        <ele>90</ele>
        <time>2022-11-15T10:41:38.486Z</time>
      </trkpt>
      <trkpt lat="48.58049" lon="2.50976">
        <ele>90</ele>
        <time>2022-11-15T10:41:42.476Z</time>
      </trkpt>
      <trkpt lat="48.58049" lon="2.50945">
        <ele>90</ele>
        <time>2022-11-15T10:41:47.506Z</time>
      </trkpt>
      <trkpt lat="48.58047" lon="2.50919">
        <ele>90</ele>
        <time>2022-11-15T10:41:52.488Z</time>
      </trkpt>
      <trkpt lat="48.58049" lon="2.50893">
        <ele>91</ele>
        <time>2022-11-15T10:41:57.485Z</time>
      </trkpt>
      <trkpt lat="48.58047" lon="2.50862">
        <ele>91</ele>
        <time>2022-11-15T10:42:02.479Z</time>
      </trkpt>
      <trkpt lat="48.58047" lon="2.50841">
        <ele>92</ele>
        <time>2022-11-15T10:42:06.498Z</time>
      </trkpt>
      <trkpt lat="48.58047" lon="2.50812">
        <ele>92</ele>
        <time>2022-11-15T10:42:11.489Z</time>
      </trkpt>
      <trkpt lat="48.58045" lon="2.50779">
        <ele>91</ele>
        <time>2022-11-15T10:42:16.485Z</time>
      </trkpt>
      <trkpt lat="48.58041" lon="2.50747">
        <ele>93</ele>
        <time>2022-11-15T10:42:21.521Z</time>
      </trkpt>
      <trkpt lat="48.58041" lon="2.5072">
        <ele>92</ele>
        <time>2022-11-15T10:42:26.506Z</time>
      </trkpt>
      <trkpt lat="48.5804" lon="2.50694">
        <ele>92</ele>
        <time>2022-11-15T10:42:31.515Z</time>
      </trkpt>
      <trkpt lat="48.58037" lon="2.50674">
        <ele>91</ele>
        <time>2022-11-15T10:42:36.510Z</time>
      </trkpt>
      <trkpt lat="48.58033" lon="2.50658">
        <ele>91</ele>
        <time>2022-11-15T10:42:41.505Z</time>
      </trkpt>
      <trkpt lat="48.58029" lon="2.50646">
        <ele>91</ele>
        <time>2022-11-15T10:42:46.526Z</time>
      </trkpt>
      <trkpt lat="48.58019" lon="2.50632">
        <ele>91</ele>
        <time>2022-11-15T10:42:51.486Z</time>
      </trkpt>
      <trkpt lat="48.58007" lon="2.50612">
        <ele>90</ele>
        <time>2022-11-15T10:42:56.495Z</time>
      </trkpt>
      <trkpt lat="48.57994" lon="2.50593">
        <ele>91</ele>
        <time>2022-11-15T10:43:01.490Z</time>
      </trkpt>
      <trkpt lat="48.5798" lon="2.50566">
        <ele>90</ele>
        <time>2022-11-15T10:43:06.490Z</time>
      </trkpt>
      <trkpt lat="48.57966" lon="2.50545">
        <ele>90</ele>
        <time>2022-11-15T10:43:10.499Z</time>
      </trkpt>
      <trkpt lat="48.57951" lon="2.50519">
        <ele>89</ele>
        <time>2022-11-15T10:43:15.488Z</time>
      </trkpt>
      <trkpt lat="48.57933" lon="2.50492">
        <ele>89</ele>
        <time>2022-11-15T10:43:20.487Z</time>
      </trkpt>
      <trkpt lat="48.5791" lon="2.50461">
        <ele>91</ele>
        <time>2022-11-15T10:43:25.503Z</time>
      </trkpt>
      <trkpt lat="48.57885" lon="2.50423">
        <ele>88</ele>
        <time>2022-11-15T10:43:30.495Z</time>
      </trkpt>
      <trkpt lat="48.57858" lon="2.50376">
        <ele>86</ele>
        <time>2022-11-15T10:43:35.497Z</time>
      </trkpt>
      <trkpt lat="48.57829" lon="2.5033">
        <ele>85</ele>
        <time>2022-11-15T10:43:40.480Z</time>
      </trkpt>
      <trkpt lat="48.57808" lon="2.50298">
        <ele>84</ele>
        <time>2022-11-15T10:43:44.491Z</time>
      </trkpt>
      <trkpt lat="48.57781" lon="2.50255">
        <ele>84</ele>
        <time>2022-11-15T10:43:49.488Z</time>
      </trkpt>
      <trkpt lat="48.57755" lon="2.50216">
        <ele>86</ele>
        <time>2022-11-15T10:43:54.501Z</time>
      </trkpt>
      <trkpt lat="48.5773" lon="2.50179">
        <ele>87</ele>
        <time>2022-11-15T10:43:59.505Z</time>
      </trkpt>
      <trkpt lat="48.57712" lon="2.50148">
        <ele>86</ele>
        <time>2022-11-15T10:44:03.513Z</time>
      </trkpt>
      <trkpt lat="48.5769" lon="2.50108">
        <ele>86</ele>
        <time>2022-11-15T10:44:08.506Z</time>
      </trkpt>
      <trkpt lat="48.57665" lon="2.50067">
        <ele>81</ele>
        <time>2022-11-15T10:44:13.505Z</time>
      </trkpt>
      <trkpt lat="48.57638" lon="2.5002">
        <ele>81</ele>
        <time>2022-11-15T10:44:18.503Z</time>
      </trkpt>
      <trkpt lat="48.57613" lon="2.49976">
        <ele>79</ele>
        <time>2022-11-15T10:44:23.514Z</time>
      </trkpt>
      <trkpt lat="48.57606" lon="2.49928">
        <ele>74</ele>
        <time>2022-11-15T10:44:28.504Z</time>
      </trkpt>
      <trkpt lat="48.57598" lon="2.49888">
        <ele>73</ele>
        <time>2022-11-15T10:44:33.488Z</time>
      </trkpt>
      <trkpt lat="48.57577" lon="2.49855">
        <ele>70</ele>
        <time>2022-11-15T10:44:37.495Z</time>
      </trkpt>
      <trkpt lat="48.57546" lon="2.49809">
        <ele>67</ele>
        <time>2022-11-15T10:44:42.509Z</time>
      </trkpt>
      <trkpt lat="48.57515" lon="2.49759">
        <ele>65</ele>
        <time>2022-11-15T10:44:47.490Z</time>
      </trkpt>
      <trkpt lat="48.57491" lon="2.49723">
        <ele>65</ele>
        <time>2022-11-15T10:44:51.500Z</time>
      </trkpt>
      <trkpt lat="48.57464" lon="2.49681">
        <ele>64</ele>
        <time>2022-11-15T10:44:56.492Z</time>
      </trkpt>
      <trkpt lat="48.57441" lon="2.49642">
        <ele>63</ele>
        <time>2022-11-15T10:45:01.523Z</time>
      </trkpt>
      <trkpt lat="48.57421" lon="2.49609">
        <ele>63</ele>
        <time>2022-11-15T10:45:05.490Z</time>
      </trkpt>
      <trkpt lat="48.57397" lon="2.49564">
        <ele>62</ele>
        <time>2022-11-15T10:45:10.498Z</time>
      </trkpt>
      <trkpt lat="48.57376" lon="2.49522">
        <ele>61</ele>
        <time>2022-11-15T10:45:15.478Z</time>
      </trkpt>
      <trkpt lat="48.57356" lon="2.49484">
        <ele>61</ele>
        <time>2022-11-15T10:45:20.480Z</time>
      </trkpt>
      <trkpt lat="48.57334" lon="2.49444">
        <ele>59</ele>
        <time>2022-11-15T10:45:25.492Z</time>
      </trkpt>
      <trkpt lat="48.573" lon="2.4942">
        <ele>58</ele>
        <time>2022-11-15T10:45:30.492Z</time>
      </trkpt>
      <trkpt lat="48.5727" lon="2.494">
        <ele>56</ele>
        <time>2022-11-15T10:45:35.509Z</time>
      </trkpt>
      <trkpt lat="48.57236" lon="2.49385">
        <ele>54</ele>
        <time>2022-11-15T10:45:40.511Z</time>
      </trkpt>
      <trkpt lat="48.572" lon="2.49367">
        <ele>51</ele>
        <time>2022-11-15T10:45:45.507Z</time>
      </trkpt>
      <trkpt lat="48.57167" lon="2.49346">
        <ele>47</ele>
        <time>2022-11-15T10:45:50.507Z</time>
      </trkpt>
      <trkpt lat="48.57145" lon="2.49335">
        <ele>46</ele>
        <time>2022-11-15T10:45:54.509Z</time>
      </trkpt>
      <trkpt lat="48.57122" lon="2.49331">
        <ele>45</ele>
        <time>2022-11-15T10:45:59.508Z</time>
      </trkpt>
      <trkpt lat="48.57111" lon="2.49331">
        <ele>45</ele>
        <time>2022-11-15T10:46:04.513Z</time>
      </trkpt>
      <trkpt lat="48.57111" lon="2.49327">
        <ele>45</ele>
        <time>2022-11-15T10:46:09.496Z</time>
      </trkpt>
      <trkpt lat="48.57111" lon="2.49327">
        <ele>45</ele>
        <time>2022-11-15T10:46:14.490Z</time>
      </trkpt>
      <trkpt lat="48.57111" lon="2.49327">
        <ele>45</ele>
        <time>2022-11-15T10:46:19.494Z</time>
      </trkpt>
      <trkpt lat="48.57111" lon="2.49323">
        <ele>45</ele>
        <time>2022-11-15T10:46:29.521Z</time>
      </trkpt>
      <trkpt lat="48.57117" lon="2.49305">
        <ele>45</ele>
        <time>2022-11-15T10:46:34.500Z</time>
      </trkpt>
      <trkpt lat="48.57124" lon="2.4928">
        <ele>46</ele>
        <time>2022-11-15T10:46:39.486Z</time>
      </trkpt>
      <trkpt lat="48.57131" lon="2.49254">
        <ele>46</ele>
        <time>2022-11-15T10:46:44.498Z</time>
      </trkpt>
      <trkpt lat="48.5714" lon="2.49228">
        <ele>45</ele>
        <time>2022-11-15T10:46:49.490Z</time>
      </trkpt>
      <trkpt lat="48.57153" lon="2.492">
        <ele>43</ele>
        <time>2022-11-15T10:46:54.488Z</time>
      </trkpt>
      <trkpt lat="48.57171" lon="2.49175">
        <ele>44</ele>
        <time>2022-11-15T10:46:59.495Z</time>
      </trkpt>
      <trkpt lat="48.57189" lon="2.49154">
        <ele>46</ele>
        <time>2022-11-15T10:47:04.491Z</time>
      </trkpt>
      <trkpt lat="48.57206" lon="2.49137">
        <ele>46</ele>
        <time>2022-11-15T10:47:09.501Z</time>
      </trkpt>
      <trkpt lat="48.57223" lon="2.49125">
        <ele>48</ele>
        <time>2022-11-15T10:47:14.482Z</time>
      </trkpt>
      <trkpt lat="48.57243" lon="2.49115">
        <ele>48</ele>
        <time>2022-11-15T10:47:19.508Z</time>
      </trkpt>
      <trkpt lat="48.57263" lon="2.49108">
        <ele>48</ele>
        <time>2022-11-15T10:47:24.516Z</time>
      </trkpt>
      <trkpt lat="48.57279" lon="2.49103">
        <ele>48</ele>
        <time>2022-11-15T10:47:28.522Z</time>
      </trkpt>
      <trkpt lat="48.57298" lon="2.49099">
        <ele>49</ele>
        <time>2022-11-15T10:47:33.494Z</time>
      </trkpt>
      <trkpt lat="48.57313" lon="2.49099">
        <ele>49</ele>
        <time>2022-11-15T10:47:37.509Z</time>
      </trkpt>
      <trkpt lat="48.57331" lon="2.49096">
        <ele>50</ele>
        <time>2022-11-15T10:47:42.513Z</time>
      </trkpt>
      <trkpt lat="48.57349" lon="2.49094">
        <ele>51</ele>
        <time>2022-11-15T10:47:47.507Z</time>
      </trkpt>
      <trkpt lat="48.57364" lon="2.49092">
        <ele>51</ele>
        <time>2022-11-15T10:47:51.523Z</time>
      </trkpt>
      <trkpt lat="48.57382" lon="2.4909">
        <ele>53</ele>
        <time>2022-11-15T10:47:56.504Z</time>
      </trkpt>
      <trkpt lat="48.574" lon="2.49089">
        <ele>53</ele>
        <time>2022-11-15T10:48:01.497Z</time>
      </trkpt>
      <trkpt lat="48.57419" lon="2.49088">
        <ele>53</ele>
        <time>2022-11-15T10:48:06.512Z</time>
      </trkpt>
      <trkpt lat="48.57438" lon="2.49086">
        <ele>51</ele>
        <time>2022-11-15T10:48:11.485Z</time>
      </trkpt>
      <trkpt lat="48.57457" lon="2.49082">
        <ele>51</ele>
        <time>2022-11-15T10:48:16.501Z</time>
      </trkpt>
      <trkpt lat="48.57476" lon="2.49076">
        <ele>50</ele>
        <time>2022-11-15T10:48:21.494Z</time>
      </trkpt>
      <trkpt lat="48.57491" lon="2.49068">
        <ele>51</ele>
        <time>2022-11-15T10:48:25.498Z</time>
      </trkpt>
      <trkpt lat="48.5751" lon="2.49051">
        <ele>51</ele>
        <time>2022-11-15T10:48:30.497Z</time>
      </trkpt>
      <trkpt lat="48.5753" lon="2.49036">
        <ele>51</ele>
        <time>2022-11-15T10:48:35.515Z</time>
      </trkpt>
      <trkpt lat="48.57549" lon="2.49023">
        <ele>51</ele>
        <time>2022-11-15T10:48:40.487Z</time>
      </trkpt>
      <trkpt lat="48.57568" lon="2.49008">
        <ele>50</ele>
        <time>2022-11-15T10:48:45.512Z</time>
      </trkpt>
      <trkpt lat="48.57589" lon="2.48992">
        <ele>51</ele>
        <time>2022-11-15T10:48:50.486Z</time>
      </trkpt>
      <trkpt lat="48.57609" lon="2.48975">
        <ele>53</ele>
        <time>2022-11-15T10:48:55.498Z</time>
      </trkpt>
      <trkpt lat="48.57631" lon="2.48957">
        <ele>53</ele>
        <time>2022-11-15T10:49:00.520Z</time>
      </trkpt>
      <trkpt lat="48.57653" lon="2.4894">
        <ele>55</ele>
        <time>2022-11-15T10:49:05.503Z</time>
      </trkpt>
      <trkpt lat="48.57677" lon="2.48927">
        <ele>53</ele>
        <time>2022-11-15T10:49:10.508Z</time>
      </trkpt>
      <trkpt lat="48.57699" lon="2.48917">
        <ele>54</ele>
        <time>2022-11-15T10:49:15.522Z</time>
      </trkpt>
      <trkpt lat="48.57721" lon="2.48907">
        <ele>54</ele>
        <time>2022-11-15T10:49:20.514Z</time>
      </trkpt>
      <trkpt lat="48.57739" lon="2.48899">
        <ele>54</ele>
        <time>2022-11-15T10:49:24.506Z</time>
      </trkpt>
      <trkpt lat="48.57761" lon="2.48888">
        <ele>54</ele>
        <time>2022-11-15T10:49:29.489Z</time>
      </trkpt>
      <trkpt lat="48.57783" lon="2.48879">
        <ele>55</ele>
        <time>2022-11-15T10:49:34.486Z</time>
      </trkpt>
      <trkpt lat="48.57807" lon="2.48873">
        <ele>51</ele>
        <time>2022-11-15T10:49:39.485Z</time>
      </trkpt>
      <trkpt lat="48.5783" lon="2.48869">
        <ele>52</ele>
        <time>2022-11-15T10:49:44.495Z</time>
      </trkpt>
      <trkpt lat="48.57854" lon="2.4887">
        <ele>52</ele>
        <time>2022-11-15T10:49:49.495Z</time>
      </trkpt>
      <trkpt lat="48.57876" lon="2.48875">
        <ele>53</ele>
        <time>2022-11-15T10:49:54.490Z</time>
      </trkpt>
      <trkpt lat="48.57898" lon="2.4888">
        <ele>52</ele>
        <time>2022-11-15T10:49:59.493Z</time>
      </trkpt>
      <trkpt lat="48.57915" lon="2.48884">
        <ele>52</ele>
        <time>2022-11-15T10:50:03.506Z</time>
      </trkpt>
      <trkpt lat="48.57936" lon="2.48889">
        <ele>52</ele>
        <time>2022-11-15T10:50:08.492Z</time>
      </trkpt>
      <trkpt lat="48.57958" lon="2.48895">
        <ele>52</ele>
        <time>2022-11-15T10:50:13.502Z</time>
      </trkpt>
      <trkpt lat="48.57981" lon="2.489">
        <ele>53</ele>
        <time>2022-11-15T10:50:18.494Z</time>
      </trkpt>
      <trkpt lat="48.57998" lon="2.48904">
        <ele>54</ele>
        <time>2022-11-15T10:50:22.506Z</time>
      </trkpt>
      <trkpt lat="48.58018" lon="2.48907">
        <ele>52</ele>
        <time>2022-11-15T10:50:27.492Z</time>
      </trkpt>
      <trkpt lat="48.5804" lon="2.48908">
        <ele>52</ele>
        <time>2022-11-15T10:50:32.489Z</time>
      </trkpt>
      <trkpt lat="48.58061" lon="2.48911">
        <ele>51</ele>
        <time>2022-11-15T10:50:37.488Z</time>
      </trkpt>
      <trkpt lat="48.58082" lon="2.48912">
        <ele>53</ele>
        <time>2022-11-15T10:50:42.509Z</time>
      </trkpt>
      <trkpt lat="48.58102" lon="2.48914">
        <ele>54</ele>
        <time>2022-11-15T10:50:47.504Z</time>
      </trkpt>
      <trkpt lat="48.58125" lon="2.48916">
        <ele>54</ele>
        <time>2022-11-15T10:50:52.517Z</time>
      </trkpt>
      <trkpt lat="48.5815" lon="2.48918">
        <ele>54</ele>
        <time>2022-11-15T10:50:57.502Z</time>
      </trkpt>
      <trkpt lat="48.5817" lon="2.48918">
        <ele>53</ele>
        <time>2022-11-15T10:51:01.512Z</time>
      </trkpt>
      <trkpt lat="48.58194" lon="2.48916">
        <ele>53</ele>
        <time>2022-11-15T10:51:06.508Z</time>
      </trkpt>
      <trkpt lat="48.58221" lon="2.48913">
        <ele>52</ele>
        <time>2022-11-15T10:51:11.510Z</time>
      </trkpt>
      <trkpt lat="48.58247" lon="2.48911">
        <ele>50</ele>
        <time>2022-11-15T10:51:16.491Z</time>
      </trkpt>
      <trkpt lat="48.58272" lon="2.48908">
        <ele>50</ele>
        <time>2022-11-15T10:51:21.510Z</time>
      </trkpt>
      <trkpt lat="48.58292" lon="2.48906">
        <ele>49</ele>
        <time>2022-11-15T10:51:26.494Z</time>
      </trkpt>
      <trkpt lat="48.5831" lon="2.4891">
        <ele>49</ele>
        <time>2022-11-15T10:51:31.495Z</time>
      </trkpt>
      <trkpt lat="48.5833" lon="2.48902">
        <ele>49</ele>
        <time>2022-11-15T10:51:36.494Z</time>
      </trkpt>
      <trkpt lat="48.58355" lon="2.48897">
        <ele>50</ele>
        <time>2022-11-15T10:51:41.497Z</time>
      </trkpt>
      <trkpt lat="48.58385" lon="2.48892">
        <ele>49</ele>
        <time>2022-11-15T10:51:46.493Z</time>
      </trkpt>
      <trkpt lat="48.58417" lon="2.48887">
        <ele>50</ele>
        <time>2022-11-15T10:51:51.486Z</time>
      </trkpt>
      <trkpt lat="48.58448" lon="2.48882">
        <ele>50</ele>
        <time>2022-11-15T10:51:56.500Z</time>
      </trkpt>
      <trkpt lat="48.58477" lon="2.48877">
        <ele>50</ele>
        <time>2022-11-15T10:52:01.494Z</time>
      </trkpt>
      <trkpt lat="48.58505" lon="2.48872">
        <ele>48</ele>
        <time>2022-11-15T10:52:06.493Z</time>
      </trkpt>
      <trkpt lat="48.58532" lon="2.48873">
        <ele>47</ele>
        <time>2022-11-15T10:52:11.508Z</time>
      </trkpt>
      <trkpt lat="48.58559" lon="2.48879">
        <ele>46</ele>
        <time>2022-11-15T10:52:16.496Z</time>
      </trkpt>
      <trkpt lat="48.58586" lon="2.48882">
        <ele>44</ele>
        <time>2022-11-15T10:52:21.510Z</time>
      </trkpt>
      <trkpt lat="48.58612" lon="2.48883">
        <ele>43</ele>
        <time>2022-11-15T10:52:26.491Z</time>
      </trkpt>
      <trkpt lat="48.58632" lon="2.48884">
        <ele>43</ele>
        <time>2022-11-15T10:52:30.513Z</time>
      </trkpt>
      <trkpt lat="48.58657" lon="2.48887">
        <ele>43</ele>
        <time>2022-11-15T10:52:35.498Z</time>
      </trkpt>
      <trkpt lat="48.58683" lon="2.48892">
        <ele>44</ele>
        <time>2022-11-15T10:52:40.510Z</time>
      </trkpt>
      <trkpt lat="48.58707" lon="2.489">
        <ele>44</ele>
        <time>2022-11-15T10:52:45.515Z</time>
      </trkpt>
      <trkpt lat="48.5873" lon="2.48909">
        <ele>47</ele>
        <time>2022-11-15T10:52:50.488Z</time>
      </trkpt>
      <trkpt lat="48.58753" lon="2.4892">
        <ele>46</ele>
        <time>2022-11-15T10:52:55.485Z</time>
      </trkpt>
      <trkpt lat="48.58775" lon="2.48931">
        <ele>45</ele>
        <time>2022-11-15T10:53:00.501Z</time>
      </trkpt>
      <trkpt lat="48.58797" lon="2.48942">
        <ele>45</ele>
        <time>2022-11-15T10:53:05.504Z</time>
      </trkpt>
      <trkpt lat="48.5882" lon="2.48949">
        <ele>45</ele>
        <time>2022-11-15T10:53:10.509Z</time>
      </trkpt>
      <trkpt lat="48.58843" lon="2.48954">
        <ele>45</ele>
        <time>2022-11-15T10:53:15.488Z</time>
      </trkpt>
      <trkpt lat="48.58861" lon="2.48959">
        <ele>47</ele>
        <time>2022-11-15T10:53:19.482Z</time>
      </trkpt>
      <trkpt lat="48.58886" lon="2.48964">
        <ele>46</ele>
        <time>2022-11-15T10:53:24.493Z</time>
      </trkpt>
      <trkpt lat="48.58911" lon="2.48972">
        <ele>45</ele>
        <time>2022-11-15T10:53:29.501Z</time>
      </trkpt>
      <trkpt lat="48.58936" lon="2.48982">
        <ele>45</ele>
        <time>2022-11-15T10:53:34.505Z</time>
      </trkpt>
      <trkpt lat="48.58954" lon="2.48992">
        <ele>47</ele>
        <time>2022-11-15T10:53:39.504Z</time>
      </trkpt>
      <trkpt lat="48.58956" lon="2.48996">
        <ele>47</ele>
        <time>2022-11-15T10:53:44.507Z</time>
      </trkpt>
      <trkpt lat="48.58957" lon="2.48996">
        <ele>47</ele>
        <time>2022-11-15T10:53:48.498Z</time>
      </trkpt>
      <trkpt lat="48.58965" lon="2.49">
        <ele>46</ele>
        <time>2022-11-15T10:53:53.516Z</time>
      </trkpt>
      <trkpt lat="48.58981" lon="2.49013">
        <ele>46</ele>
        <time>2022-11-15T10:53:58.495Z</time>
      </trkpt>
      <trkpt lat="48.58999" lon="2.49028">
        <ele>46</ele>
        <time>2022-11-15T10:54:03.494Z</time>
      </trkpt>
      <trkpt lat="48.59019" lon="2.49041">
        <ele>46</ele>
        <time>2022-11-15T10:54:08.496Z</time>
      </trkpt>
      <trkpt lat="48.59041" lon="2.49052">
        <ele>47</ele>
        <time>2022-11-15T10:54:13.514Z</time>
      </trkpt>
      <trkpt lat="48.59065" lon="2.49065">
        <ele>47</ele>
        <time>2022-11-15T10:54:18.504Z</time>
      </trkpt>
      <trkpt lat="48.5909" lon="2.49079">
        <ele>48</ele>
        <time>2022-11-15T10:54:23.489Z</time>
      </trkpt>
      <trkpt lat="48.59111" lon="2.49086">
        <ele>48</ele>
        <time>2022-11-15T10:54:28.504Z</time>
      </trkpt>
      <trkpt lat="48.59136" lon="2.49094">
        <ele>48</ele>
        <time>2022-11-15T10:54:33.492Z</time>
      </trkpt>
      <trkpt lat="48.59154" lon="2.49102">
        <ele>48</ele>
        <time>2022-11-15T10:54:37.505Z</time>
      </trkpt>
      <trkpt lat="48.59174" lon="2.49107">
        <ele>48</ele>
        <time>2022-11-15T10:54:42.502Z</time>
      </trkpt>
      <trkpt lat="48.59192" lon="2.49122">
        <ele>46</ele>
        <time>2022-11-15T10:54:47.502Z</time>
      </trkpt>
      <trkpt lat="48.5921" lon="2.49132">
        <ele>47</ele>
        <time>2022-11-15T10:54:52.501Z</time>
      </trkpt>
      <trkpt lat="48.59226" lon="2.49137">
        <ele>47</ele>
        <time>2022-11-15T10:54:57.493Z</time>
      </trkpt>
      <trkpt lat="48.59245" lon="2.49141">
        <ele>48</ele>
        <time>2022-11-15T10:55:02.505Z</time>
      </trkpt>
      <trkpt lat="48.59267" lon="2.49139">
        <ele>48</ele>
        <time>2022-11-15T10:55:07.492Z</time>
      </trkpt>
      <trkpt lat="48.59286" lon="2.4914">
        <ele>48</ele>
        <time>2022-11-15T10:55:12.483Z</time>
      </trkpt>
      <trkpt lat="48.59305" lon="2.49143">
        <ele>48</ele>
        <time>2022-11-15T10:55:17.494Z</time>
      </trkpt>
      <trkpt lat="48.59323" lon="2.49148">
        <ele>47</ele>
        <time>2022-11-15T10:55:22.486Z</time>
      </trkpt>
      <trkpt lat="48.59341" lon="2.49155">
        <ele>48</ele>
        <time>2022-11-15T10:55:27.494Z</time>
      </trkpt>
      <trkpt lat="48.59357" lon="2.49164">
        <ele>48</ele>
        <time>2022-11-15T10:55:32.490Z</time>
      </trkpt>
      <trkpt lat="48.5937" lon="2.4917">
        <ele>48</ele>
        <time>2022-11-15T10:55:37.510Z</time>
      </trkpt>
      <trkpt lat="48.59388" lon="2.4918">
        <ele>49</ele>
        <time>2022-11-15T10:55:42.489Z</time>
      </trkpt>
      <trkpt lat="48.59407" lon="2.49187">
        <ele>51</ele>
        <time>2022-11-15T10:55:47.486Z</time>
      </trkpt>
      <trkpt lat="48.59427" lon="2.49196">
        <ele>51</ele>
        <time>2022-11-15T10:55:52.486Z</time>
      </trkpt>
      <trkpt lat="48.59445" lon="2.49211">
        <ele>50</ele>
        <time>2022-11-15T10:55:57.481Z</time>
      </trkpt>
      <trkpt lat="48.59459" lon="2.49223">
        <ele>49</ele>
        <time>2022-11-15T10:56:01.501Z</time>
      </trkpt>
      <trkpt lat="48.59474" lon="2.49235">
        <ele>49</ele>
        <time>2022-11-15T10:56:06.509Z</time>
      </trkpt>
      <trkpt lat="48.59487" lon="2.49245">
        <ele>51</ele>
        <time>2022-11-15T10:56:11.509Z</time>
      </trkpt>
      <trkpt lat="48.59502" lon="2.4925">
        <ele>51</ele>
        <time>2022-11-15T10:56:16.506Z</time>
      </trkpt>
      <trkpt lat="48.59516" lon="2.49252">
        <ele>51</ele>
        <time>2022-11-15T10:56:21.506Z</time>
      </trkpt>
      <trkpt lat="48.59534" lon="2.49255">
        <ele>51</ele>
        <time>2022-11-15T10:56:26.498Z</time>
      </trkpt>
      <trkpt lat="48.59553" lon="2.49262">
        <ele>49</ele>
        <time>2022-11-15T10:56:31.501Z</time>
      </trkpt>
      <trkpt lat="48.59566" lon="2.4927">
        <ele>51</ele>
        <time>2022-11-15T10:56:36.486Z</time>
      </trkpt>
      <trkpt lat="48.59579" lon="2.49276">
        <ele>51</ele>
        <time>2022-11-15T10:56:41.482Z</time>
      </trkpt>
      <trkpt lat="48.59593" lon="2.49277">
        <ele>51</ele>
        <time>2022-11-15T10:56:46.487Z</time>
      </trkpt>
      <trkpt lat="48.59605" lon="2.4928">
        <ele>52</ele>
        <time>2022-11-15T10:56:50.493Z</time>
      </trkpt>
      <trkpt lat="48.5962" lon="2.49284">
        <ele>52</ele>
        <time>2022-11-15T10:56:55.484Z</time>
      </trkpt>
      <trkpt lat="48.59633" lon="2.49286">
        <ele>52</ele>
        <time>2022-11-15T10:56:59.491Z</time>
      </trkpt>
      <trkpt lat="48.59648" lon="2.49288">
        <ele>52</ele>
        <time>2022-11-15T10:57:04.488Z</time>
      </trkpt>
      <trkpt lat="48.59667" lon="2.4929">
        <ele>52</ele>
        <time>2022-11-15T10:57:09.496Z</time>
      </trkpt>
      <trkpt lat="48.59687" lon="2.49293">
        <ele>52</ele>
        <time>2022-11-15T10:57:14.502Z</time>
      </trkpt>
      <trkpt lat="48.59707" lon="2.49296">
        <ele>52</ele>
        <time>2022-11-15T10:57:19.500Z</time>
      </trkpt>
      <trkpt lat="48.59726" lon="2.493">
        <ele>51</ele>
        <time>2022-11-15T10:57:24.500Z</time>
      </trkpt>
      <trkpt lat="48.59744" lon="2.49301">
        <ele>50</ele>
        <time>2022-11-15T10:57:29.500Z</time>
      </trkpt>
      <trkpt lat="48.59759" lon="2.493">
        <ele>50</ele>
        <time>2022-11-15T10:57:34.493Z</time>
      </trkpt>
      <trkpt lat="48.59771" lon="2.49296">
        <ele>48</ele>
        <time>2022-11-15T10:57:38.513Z</time>
      </trkpt>
      <trkpt lat="48.59785" lon="2.49292">
        <ele>48</ele>
        <time>2022-11-15T10:57:43.483Z</time>
      </trkpt>
      <trkpt lat="48.59797" lon="2.49286">
        <ele>46</ele>
        <time>2022-11-15T10:57:48.499Z</time>
      </trkpt>
      <trkpt lat="48.59808" lon="2.49281">
        <ele>46</ele>
        <time>2022-11-15T10:57:52.508Z</time>
      </trkpt>
      <trkpt lat="48.59825" lon="2.49276">
        <ele>47</ele>
        <time>2022-11-15T10:57:57.515Z</time>
      </trkpt>
      <trkpt lat="48.5984" lon="2.49271">
        <ele>47</ele>
        <time>2022-11-15T10:58:02.501Z</time>
      </trkpt>
      <trkpt lat="48.59854" lon="2.49267">
        <ele>46</ele>
        <time>2022-11-15T10:58:07.510Z</time>
      </trkpt>
      <trkpt lat="48.59871" lon="2.49264">
        <ele>46</ele>
        <time>2022-11-15T10:58:12.517Z</time>
      </trkpt>
      <trkpt lat="48.59886" lon="2.49262">
        <ele>44</ele>
        <time>2022-11-15T10:58:17.501Z</time>
      </trkpt>
      <trkpt lat="48.5989" lon="2.4926">
        <ele>44</ele>
        <time>2022-11-15T10:58:52.512Z</time>
      </trkpt>
      <trkpt lat="48.59889" lon="2.4928">
        <ele>46</ele>
        <time>2022-11-15T10:58:57.504Z</time>
      </trkpt>
      <trkpt lat="48.59888" lon="2.49296">
        <ele>49</ele>
        <time>2022-11-15T10:59:02.488Z</time>
      </trkpt>
      <trkpt lat="48.59885" lon="2.49315">
        <ele>49</ele>
        <time>2022-11-15T10:59:07.486Z</time>
      </trkpt>
      <trkpt lat="48.5988" lon="2.4933">
        <ele>51</ele>
        <time>2022-11-15T10:59:12.490Z</time>
      </trkpt>
      <trkpt lat="48.59878" lon="2.49332">
        <ele>51</ele>
        <time>2022-11-15T11:02:13.676Z</time>
      </trkpt>
      <trkpt lat="48.59876" lon="2.49329">
        <ele>51</ele>
        <time>2022-11-15T11:02:18.554Z</time>
      </trkpt>
      <trkpt lat="48.59875" lon="2.49329">
        <ele>51</ele>
        <time>2022-11-15T11:02:22.670Z</time>
      </trkpt>
      <trkpt lat="48.59873" lon="2.49328">
        <ele>51</ele>
        <time>2022-11-15T11:02:27.542Z</time>
      </trkpt>
      <trkpt lat="48.59871" lon="2.49325">
        <ele>51</ele>
        <time>2022-11-15T11:02:32.554Z</time>
      </trkpt>
      <trkpt lat="48.59874" lon="2.49333">
        <ele>51</ele>
        <time>2022-11-15T11:08:44.546Z</time>
      </trkpt>
      <trkpt lat="48.59874" lon="2.49333">
        <ele>51</ele>
        <time>2022-11-15T11:08:49.560Z</time>
      </trkpt>
      <trkpt lat="48.59875" lon="2.49334">
        <ele>51</ele>
        <time>2022-11-15T11:08:53.693Z</time>
      </trkpt>
      <trkpt lat="48.59876" lon="2.49337">
        <ele>51</ele>
        <time>2022-11-15T11:08:58.683Z</time>
      </trkpt>
      <trkpt lat="48.59877" lon="2.49343">
        <ele>51</ele>
        <time>2022-11-15T11:09:03.538Z</time>
      </trkpt>
      <trkpt lat="48.5988" lon="2.49347">
        <ele>51</ele>
        <time>2022-11-15T11:11:17.558Z</time>
      </trkpt>
      <trkpt lat="48.59879" lon="2.49345">
        <ele>51</ele>
        <time>2022-11-15T11:11:22.554Z</time>
      </trkpt>
      <trkpt lat="48.59878" lon="2.49344">
        <ele>51</ele>
        <time>2022-11-15T11:11:27.556Z</time>
      </trkpt>
      <trkpt lat="48.59877" lon="2.49342">
        <ele>51</ele>
        <time>2022-11-15T11:11:32.550Z</time>
      </trkpt>
      <trkpt lat="48.59877" lon="2.49336">
        <ele>51</ele>
        <time>2022-11-15T11:11:37.553Z</time>
      </trkpt>
      <trkpt lat="48.59873" lon="2.49332">
        <ele>51</ele>
        <time>2022-11-15T11:13:09.550Z</time>
      </trkpt>
      <trkpt lat="48.59873" lon="2.49331">
        <ele>51</ele>
        <time>2022-11-15T11:13:14.531Z</time>
      </trkpt>
      <trkpt lat="48.59873" lon="2.49331">
        <ele>51</ele>
        <time>2022-11-15T11:13:19.568Z</time>
      </trkpt>
      <trkpt lat="48.59872" lon="2.49328">
        <ele>51</ele>
        <time>2022-11-15T11:13:33.552Z</time>
      </trkpt>
      <trkpt lat="48.59871" lon="2.49325">
        <ele>51</ele>
        <time>2022-11-15T11:13:38.537Z</time>
      </trkpt>
      <trkpt lat="48.59874" lon="2.49326">
        <ele>51</ele>
        <time>2022-11-15T11:14:30.555Z</time>
      </trkpt>
      <trkpt lat="48.59875" lon="2.4933">
        <ele>51</ele>
        <time>2022-11-15T11:14:35.560Z</time>
      </trkpt>
      <trkpt lat="48.59876" lon="2.49331">
        <ele>51</ele>
        <time>2022-11-15T11:14:40.562Z</time>
      </trkpt>
      <trkpt lat="48.59878" lon="2.49332">
        <ele>51</ele>
        <time>2022-11-15T11:14:45.559Z</time>
      </trkpt>
      <trkpt lat="48.59879" lon="2.49333">
        <ele>51</ele>
        <time>2022-11-15T11:14:50.555Z</time>
      </trkpt>
      <trkpt lat="48.59882" lon="2.49322">
        <ele>51</ele>
        <time>2022-11-15T11:20:52.675Z</time>
      </trkpt>
      <trkpt lat="48.5988" lon="2.4932">
        <ele>51</ele>
        <time>2022-11-15T11:20:57.537Z</time>
      </trkpt>
      <trkpt lat="48.5988" lon="2.49316">
        <ele>49</ele>
        <time>2022-11-15T11:21:01.554Z</time>
      </trkpt>
      <trkpt lat="48.59881" lon="2.49315">
        <ele>49</ele>
        <time>2022-11-15T11:21:06.531Z</time>
      </trkpt>
      <trkpt lat="48.59881" lon="2.49313">
        <ele>49</ele>
        <time>2022-11-15T11:21:11.541Z</time>
      </trkpt>
      <trkpt lat="48.59883" lon="2.49318">
        <ele>49</ele>
        <time>2022-11-15T11:21:16.562Z</time>
      </trkpt>
      <trkpt lat="48.59885" lon="2.49324">
        <ele>51</ele>
        <time>2022-11-15T11:21:21.549Z</time>
      </trkpt>
      <trkpt lat="48.59885" lon="2.49325">
        <ele>51</ele>
        <time>2022-11-15T11:21:26.556Z</time>
      </trkpt>
      <trkpt lat="48.59885" lon="2.49326">
        <ele>51</ele>
        <time>2022-11-15T11:21:31.551Z</time>
      </trkpt>
      <trkpt lat="48.59884" lon="2.49332">
        <ele>51</ele>
        <time>2022-11-15T11:21:36.564Z</time>
      </trkpt>
      <trkpt lat="48.59885" lon="2.49326">
        <ele>51</ele>
        <time>2022-11-15T11:23:57.550Z</time>
      </trkpt>
      <trkpt lat="48.59887" lon="2.49327">
        <ele>51</ele>
        <time>2022-11-15T11:24:02.553Z</time>
      </trkpt>
      <trkpt lat="48.5989" lon="2.49338">
        <ele>51</ele>
        <time>2022-11-15T11:24:07.561Z</time>
      </trkpt>
      <trkpt lat="48.59895" lon="2.49343">
        <ele>51</ele>
        <time>2022-11-15T11:24:12.552Z</time>
      </trkpt>
      <trkpt lat="48.59896" lon="2.49343">
        <ele>51</ele>
        <time>2022-11-15T11:24:17.550Z</time>
      </trkpt>
      <trkpt lat="48.59888" lon="2.49342">
        <ele>51</ele>
        <time>2022-11-15T11:26:07.555Z</time>
      </trkpt>
      <trkpt lat="48.59887" lon="2.4934">
        <ele>51</ele>
        <time>2022-11-15T11:26:27.557Z</time>
      </trkpt>
      <trkpt lat="48.59887" lon="2.49338">
        <ele>51</ele>
        <time>2022-11-15T11:26:32.553Z</time>
      </trkpt>
      <trkpt lat="48.59887" lon="2.49337">
        <ele>51</ele>
        <time>2022-11-15T11:26:37.582Z</time>
      </trkpt>
      <trkpt lat="48.59886" lon="2.49335">
        <ele>51</ele>
        <time>2022-11-15T11:26:42.562Z</time>
      </trkpt>
      <trkpt lat="48.59883" lon="2.4933">
        <ele>51</ele>
        <time>2022-11-15T11:31:11.570Z</time>
      </trkpt>
      <trkpt lat="48.59885" lon="2.49328">
        <ele>51</ele>
        <time>2022-11-15T11:31:16.566Z</time>
      </trkpt>
      <trkpt lat="48.59887" lon="2.49325">
        <ele>51</ele>
        <time>2022-11-15T11:31:21.550Z</time>
      </trkpt>
      <trkpt lat="48.59879" lon="2.49327">
        <ele>51</ele>
        <time>2022-11-15T11:31:26.555Z</time>
      </trkpt>
      <trkpt lat="48.59875" lon="2.49331">
        <ele>51</ele>
        <time>2022-11-15T11:31:31.559Z</time>
      </trkpt>
      <trkpt lat="48.59878" lon="2.49324">
        <ele>51</ele>
        <time>2022-11-15T11:32:04.565Z</time>
      </trkpt>
      <trkpt lat="48.59879" lon="2.49325">
        <ele>51</ele>
        <time>2022-11-15T11:32:08.685Z</time>
      </trkpt>
      <trkpt lat="48.5988" lon="2.49327">
        <ele>51</ele>
        <time>2022-11-15T11:32:13.700Z</time>
      </trkpt>
      <trkpt lat="48.59884" lon="2.49334">
        <ele>51</ele>
        <time>2022-11-15T11:32:18.698Z</time>
      </trkpt>
      <trkpt lat="48.59885" lon="2.49338">
        <ele>51</ele>
        <time>2022-11-15T11:32:23.700Z</time>
      </trkpt>
      <trkpt lat="48.59879" lon="2.4933">
        <ele>51</ele>
        <time>2022-11-15T11:33:18.575Z</time>
      </trkpt>
      <trkpt lat="48.59879" lon="2.49328">
        <ele>51</ele>
        <time>2022-11-15T11:33:32.551Z</time>
      </trkpt>
      <trkpt lat="48.59879" lon="2.49327">
        <ele>51</ele>
        <time>2022-11-15T11:33:37.547Z</time>
      </trkpt>
      <trkpt lat="48.5988" lon="2.49325">
        <ele>51</ele>
        <time>2022-11-15T11:33:42.554Z</time>
      </trkpt>
      <trkpt lat="48.59881" lon="2.49325">
        <ele>51</ele>
        <time>2022-11-15T11:33:47.561Z</time>
      </trkpt>
      <trkpt lat="48.5988" lon="2.49332">
        <ele>51</ele>
        <time>2022-11-15T11:40:18.551Z</time>
      </trkpt>
      <trkpt lat="48.59881" lon="2.49332">
        <ele>51</ele>
        <time>2022-11-15T11:40:23.571Z</time>
      </trkpt>
      <trkpt lat="48.59881" lon="2.49333">
        <ele>51</ele>
        <time>2022-11-15T11:40:28.575Z</time>
      </trkpt>
      <trkpt lat="48.59885" lon="2.49336">
        <ele>51</ele>
        <time>2022-11-15T11:40:33.553Z</time>
      </trkpt>
      <trkpt lat="48.59886" lon="2.49338">
        <ele>51</ele>
        <time>2022-11-15T11:40:38.579Z</time>
      </trkpt>
      <trkpt lat="48.59882" lon="2.49332">
        <ele>51</ele>
        <time>2022-11-15T11:41:17.576Z</time>
      </trkpt>
      <trkpt lat="48.59882" lon="2.49332">
        <ele>51</ele>
        <time>2022-11-15T11:41:22.565Z</time>
      </trkpt>
      <trkpt lat="48.59881" lon="2.49331">
        <ele>51</ele>
        <time>2022-11-15T11:41:27.569Z</time>
      </trkpt>
      <trkpt lat="48.5988" lon="2.4933">
        <ele>51</ele>
        <time>2022-11-15T11:41:32.569Z</time>
      </trkpt>
      <trkpt lat="48.59879" lon="2.49329">
        <ele>51</ele>
        <time>2022-11-15T11:41:37.568Z</time>
      </trkpt>
      <trkpt lat="48.59879" lon="2.49327">
        <ele>51</ele>
        <time>2022-11-15T11:48:42.580Z</time>
      </trkpt>
      <trkpt lat="48.5988" lon="2.49322">
        <ele>51</ele>
        <time>2022-11-15T11:48:52.570Z</time>
      </trkpt>
      <trkpt lat="48.59883" lon="2.49315">
        <ele>49</ele>
        <time>2022-11-15T11:48:56.591Z</time>
      </trkpt>
      <trkpt lat="48.59886" lon="2.49303">
        <ele>49</ele>
        <time>2022-11-15T11:49:01.575Z</time>
      </trkpt>
      <trkpt lat="48.59887" lon="2.49293">
        <ele>49</ele>
        <time>2022-11-15T11:49:06.583Z</time>
      </trkpt>
      <trkpt lat="48.59888" lon="2.4928">
        <ele>46</ele>
        <time>2022-11-15T11:49:11.592Z</time>
      </trkpt>
      <trkpt lat="48.59894" lon="2.49263">
        <ele>44</ele>
        <time>2022-11-15T11:49:16.588Z</time>
      </trkpt>
      <trkpt lat="48.59907" lon="2.4926">
        <ele>45</ele>
        <time>2022-11-15T11:49:21.583Z</time>
      </trkpt>
      <trkpt lat="48.59917" lon="2.49259">
        <ele>45</ele>
        <time>2022-11-15T11:49:26.570Z</time>
      </trkpt>
      <trkpt lat="48.59925" lon="2.49259">
        <ele>45</ele>
        <time>2022-11-15T11:49:30.578Z</time>
      </trkpt>
      <trkpt lat="48.59933" lon="2.49263">
        <ele>45</ele>
        <time>2022-11-15T11:49:35.559Z</time>
      </trkpt>
      <trkpt lat="48.59952" lon="2.49264">
        <ele>47</ele>
        <time>2022-11-15T11:49:40.561Z</time>
      </trkpt>
      <trkpt lat="48.59969" lon="2.49262">
        <ele>46</ele>
        <time>2022-11-15T11:49:44.578Z</time>
      </trkpt>
      <trkpt lat="48.59985" lon="2.49259">
        <ele>46</ele>
        <time>2022-11-15T11:49:49.569Z</time>
      </trkpt>
      <trkpt lat="48.59994" lon="2.4926">
        <ele>47</ele>
        <time>2022-11-15T11:49:53.562Z</time>
      </trkpt>
      <trkpt lat="48.59996" lon="2.49276">
        <ele>49</ele>
        <time>2022-11-15T11:49:58.564Z</time>
      </trkpt>
      <trkpt lat="48.59996" lon="2.49282">
        <ele>49</ele>
        <time>2022-11-15T11:50:03.566Z</time>
      </trkpt>
      <trkpt lat="48.60003" lon="2.49295">
        <ele>50</ele>
        <time>2022-11-15T11:52:52.576Z</time>
      </trkpt>
      <trkpt lat="48.60004" lon="2.49298">
        <ele>50</ele>
        <time>2022-11-15T11:52:57.582Z</time>
      </trkpt>
      <trkpt lat="48.60004" lon="2.49299">
        <ele>50</ele>
        <time>2022-11-15T11:53:01.590Z</time>
      </trkpt>
      <trkpt lat="48.60004" lon="2.493">
        <ele>50</ele>
        <time>2022-11-15T11:53:06.589Z</time>
      </trkpt>
      <trkpt lat="48.60005" lon="2.49307">
        <ele>50</ele>
        <time>2022-11-15T11:53:11.595Z</time>
      </trkpt>
      <trkpt lat="48.60005" lon="2.49317">
        <ele>50</ele>
        <time>2022-11-15T11:53:15.602Z</time>
      </trkpt>
      <trkpt lat="48.60007" lon="2.49332">
        <ele>51</ele>
        <time>2022-11-15T11:53:20.579Z</time>
      </trkpt>
      <trkpt lat="48.60007" lon="2.49348">
        <ele>51</ele>
        <time>2022-11-15T11:53:25.583Z</time>
      </trkpt>
      <trkpt lat="48.60009" lon="2.49364">
        <ele>51</ele>
        <time>2022-11-15T11:53:30.585Z</time>
      </trkpt>
      <trkpt lat="48.60011" lon="2.49379">
        <ele>52</ele>
        <time>2022-11-15T11:53:35.578Z</time>
      </trkpt>
      <trkpt lat="48.60015" lon="2.49394">
        <ele>55</ele>
        <time>2022-11-15T11:53:40.567Z</time>
      </trkpt>
      <trkpt lat="48.60015" lon="2.49407">
        <ele>55</ele>
        <time>2022-11-15T11:53:44.567Z</time>
      </trkpt>
      <trkpt lat="48.60018" lon="2.49422">
        <ele>55</ele>
        <time>2022-11-15T11:53:49.565Z</time>
      </trkpt>
      <trkpt lat="48.6002" lon="2.49437">
        <ele>56</ele>
        <time>2022-11-15T11:53:54.575Z</time>
      </trkpt>
      <trkpt lat="48.60023" lon="2.49449">
        <ele>56</ele>
        <time>2022-11-15T11:53:59.580Z</time>
      </trkpt>
      <trkpt lat="48.60024" lon="2.49464">
        <ele>57</ele>
        <time>2022-11-15T11:54:04.566Z</time>
      </trkpt>
      <trkpt lat="48.60026" lon="2.49479">
        <ele>57</ele>
        <time>2022-11-15T11:54:09.561Z</time>
      </trkpt>
      <trkpt lat="48.60027" lon="2.49493">
        <ele>61</ele>
        <time>2022-11-15T11:54:14.564Z</time>
      </trkpt>
      <trkpt lat="48.60028" lon="2.49507">
        <ele>61</ele>
        <time>2022-11-15T11:54:19.586Z</time>
      </trkpt>
      <trkpt lat="48.6003" lon="2.49521">
        <ele>66</ele>
        <time>2022-11-15T11:54:24.566Z</time>
      </trkpt>
      <trkpt lat="48.60032" lon="2.49533">
        <ele>66</ele>
        <time>2022-11-15T11:54:29.567Z</time>
      </trkpt>
      <trkpt lat="48.60032" lon="2.49546">
        <ele>69</ele>
        <time>2022-11-15T11:54:34.571Z</time>
      </trkpt>
      <trkpt lat="48.60033" lon="2.49556">
        <ele>69</ele>
        <time>2022-11-15T11:54:39.581Z</time>
      </trkpt>
      <trkpt lat="48.60035" lon="2.49567">
        <ele>69</ele>
        <time>2022-11-15T11:54:44.561Z</time>
      </trkpt>
      <trkpt lat="48.60034" lon="2.49576">
        <ele>70</ele>
        <time>2022-11-15T11:54:49.568Z</time>
      </trkpt>
      <trkpt lat="48.60035" lon="2.49611">
        <ele>71</ele>
        <time>2022-11-15T11:55:18.559Z</time>
      </trkpt>
      <trkpt lat="48.60035" lon="2.49612">
        <ele>71</ele>
        <time>2022-11-15T11:55:26.573Z</time>
      </trkpt>
      <trkpt lat="48.60035" lon="2.49621">
        <ele>71</ele>
        <time>2022-11-15T11:55:31.580Z</time>
      </trkpt>
      <trkpt lat="48.60035" lon="2.49636">
        <ele>73</ele>
        <time>2022-11-15T11:55:36.563Z</time>
      </trkpt>
      <trkpt lat="48.60034" lon="2.49653">
        <ele>76</ele>
        <time>2022-11-15T11:55:41.571Z</time>
      </trkpt>
      <trkpt lat="48.60034" lon="2.4967">
        <ele>76</ele>
        <time>2022-11-15T11:55:46.569Z</time>
      </trkpt>
      <trkpt lat="48.60033" lon="2.49686">
        <ele>80</ele>
        <time>2022-11-15T11:55:51.568Z</time>
      </trkpt>
      <trkpt lat="48.60035" lon="2.49701">
        <ele>80</ele>
        <time>2022-11-15T11:55:56.563Z</time>
      </trkpt>
      <trkpt lat="48.60035" lon="2.49716">
        <ele>82</ele>
        <time>2022-11-15T11:56:01.577Z</time>
      </trkpt>
      <trkpt lat="48.60035" lon="2.49732">
        <ele>82</ele>
        <time>2022-11-15T11:56:06.573Z</time>
      </trkpt>
      <trkpt lat="48.60036" lon="2.49747">
        <ele>83</ele>
        <time>2022-11-15T11:56:11.579Z</time>
      </trkpt>
      <trkpt lat="48.60039" lon="2.49763">
        <ele>83</ele>
        <time>2022-11-15T11:56:16.565Z</time>
      </trkpt>
      <trkpt lat="48.60041" lon="2.49782">
        <ele>84</ele>
        <time>2022-11-15T11:56:21.568Z</time>
      </trkpt>
      <trkpt lat="48.60044" lon="2.49799">
        <ele>85</ele>
        <time>2022-11-15T11:56:26.574Z</time>
      </trkpt>
      <trkpt lat="48.60045" lon="2.49817">
        <ele>85</ele>
        <time>2022-11-15T11:56:31.571Z</time>
      </trkpt>
      <trkpt lat="48.60046" lon="2.49835">
        <ele>87</ele>
        <time>2022-11-15T11:56:36.565Z</time>
      </trkpt>
      <trkpt lat="48.60047" lon="2.49852">
        <ele>88</ele>
        <time>2022-11-15T11:56:41.569Z</time>
      </trkpt>
      <trkpt lat="48.60048" lon="2.49868">
        <ele>88</ele>
        <time>2022-11-15T11:56:46.593Z</time>
      </trkpt>
      <trkpt lat="48.6005" lon="2.49884">
        <ele>90</ele>
        <time>2022-11-15T11:56:51.565Z</time>
      </trkpt>
      <trkpt lat="48.60051" lon="2.49897">
        <ele>90</ele>
        <time>2022-11-15T11:56:55.589Z</time>
      </trkpt>
      <trkpt lat="48.60053" lon="2.49912">
        <ele>90</ele>
        <time>2022-11-15T11:57:00.589Z</time>
      </trkpt>
      <trkpt lat="48.60061" lon="2.49921">
        <ele>90</ele>
        <time>2022-11-15T11:57:05.592Z</time>
      </trkpt>
      <trkpt lat="48.60072" lon="2.49917">
        <ele>91</ele>
        <time>2022-11-15T11:57:10.583Z</time>
      </trkpt>
      <trkpt lat="48.6008" lon="2.49916">
        <ele>91</ele>
        <time>2022-11-15T11:57:15.591Z</time>
      </trkpt>
      <trkpt lat="48.60087" lon="2.49916">
        <ele>91</ele>
        <time>2022-11-15T11:57:20.581Z</time>
      </trkpt>
      <trkpt lat="48.60091" lon="2.49915">
        <ele>91</ele>
        <time>2022-11-15T11:58:49.564Z</time>
      </trkpt>
      <trkpt lat="48.60094" lon="2.49913">
        <ele>91</ele>
        <time>2022-11-15T11:58:53.590Z</time>
      </trkpt>
      <trkpt lat="48.601" lon="2.49909">
        <ele>94</ele>
        <time>2022-11-15T11:58:58.590Z</time>
      </trkpt>
      <trkpt lat="48.60109" lon="2.49906">
        <ele>94</ele>
        <time>2022-11-15T11:59:03.574Z</time>
      </trkpt>
      <trkpt lat="48.60121" lon="2.49904">
        <ele>94</ele>
        <time>2022-11-15T11:59:08.574Z</time>
      </trkpt>
      <trkpt lat="48.60134" lon="2.49898">
        <ele>94</ele>
        <time>2022-11-15T11:59:13.583Z</time>
      </trkpt>
      <trkpt lat="48.60148" lon="2.49893">
        <ele>94</ele>
        <time>2022-11-15T11:59:18.566Z</time>
      </trkpt>
      <trkpt lat="48.60164" lon="2.49889">
        <ele>93</ele>
        <time>2022-11-15T11:59:23.565Z</time>
      </trkpt>
      <trkpt lat="48.60181" lon="2.4988">
        <ele>92</ele>
        <time>2022-11-15T11:59:28.565Z</time>
      </trkpt>
      <trkpt lat="48.60199" lon="2.49873">
        <ele>91</ele>
        <time>2022-11-15T11:59:33.563Z</time>
      </trkpt>
      <trkpt lat="48.6022" lon="2.49871">
        <ele>90</ele>
        <time>2022-11-15T11:59:38.566Z</time>
      </trkpt>
      <trkpt lat="48.60241" lon="2.49869">
        <ele>88</ele>
        <time>2022-11-15T11:59:43.565Z</time>
      </trkpt>
      <trkpt lat="48.60258" lon="2.49867">
        <ele>88</ele>
        <time>2022-11-15T11:59:47.579Z</time>
      </trkpt>
      <trkpt lat="48.60276" lon="2.49865">
        <ele>88</ele>
        <time>2022-11-15T11:59:52.573Z</time>
      </trkpt>
      <trkpt lat="48.60295" lon="2.49863">
        <ele>88</ele>
        <time>2022-11-15T11:59:57.560Z</time>
      </trkpt>
      <trkpt lat="48.60314" lon="2.49865">
        <ele>88</ele>
        <time>2022-11-15T12:00:02.577Z</time>
      </trkpt>
      <trkpt lat="48.60334" lon="2.49865">
        <ele>88</ele>
        <time>2022-11-15T12:00:07.573Z</time>
      </trkpt>
      <trkpt lat="48.60355" lon="2.49865">
        <ele>89</ele>
        <time>2022-11-15T12:00:12.569Z</time>
      </trkpt>
      <trkpt lat="48.60377" lon="2.49863">
        <ele>90</ele>
        <time>2022-11-15T12:00:17.571Z</time>
      </trkpt>
      <trkpt lat="48.60397" lon="2.49863">
        <ele>90</ele>
        <time>2022-11-15T12:00:22.594Z</time>
      </trkpt>
      <trkpt lat="48.60417" lon="2.49862">
        <ele>90</ele>
        <time>2022-11-15T12:00:27.589Z</time>
      </trkpt>
      <trkpt lat="48.60438" lon="2.49863">
        <ele>89</ele>
        <time>2022-11-15T12:00:32.588Z</time>
      </trkpt>
      <trkpt lat="48.60457" lon="2.49864">
        <ele>89</ele>
        <time>2022-11-15T12:00:37.574Z</time>
      </trkpt>
      <trkpt lat="48.60473" lon="2.49865">
        <ele>89</ele>
        <time>2022-11-15T12:00:41.599Z</time>
      </trkpt>
      <trkpt lat="48.60492" lon="2.49863">
        <ele>90</ele>
        <time>2022-11-15T12:00:46.583Z</time>
      </trkpt>
      <trkpt lat="48.60511" lon="2.49862">
        <ele>90</ele>
        <time>2022-11-15T12:00:51.572Z</time>
      </trkpt>
      <trkpt lat="48.60527" lon="2.49859">
        <ele>89</ele>
        <time>2022-11-15T12:00:56.581Z</time>
      </trkpt>
      <trkpt lat="48.60545" lon="2.49856">
        <ele>88</ele>
        <time>2022-11-15T12:01:01.570Z</time>
      </trkpt>
      <trkpt lat="48.60564" lon="2.49849">
        <ele>88</ele>
        <time>2022-11-15T12:01:06.576Z</time>
      </trkpt>
      <trkpt lat="48.60583" lon="2.49843">
        <ele>87</ele>
        <time>2022-11-15T12:01:11.573Z</time>
      </trkpt>
      <trkpt lat="48.606" lon="2.49836">
        <ele>85</ele>
        <time>2022-11-15T12:01:16.579Z</time>
      </trkpt>
      <trkpt lat="48.60617" lon="2.49828">
        <ele>85</ele>
        <time>2022-11-15T12:01:21.561Z</time>
      </trkpt>
      <trkpt lat="48.60635" lon="2.49818">
        <ele>87</ele>
        <time>2022-11-15T12:01:26.568Z</time>
      </trkpt>
      <trkpt lat="48.60651" lon="2.49806">
        <ele>87</ele>
        <time>2022-11-15T12:01:31.591Z</time>
      </trkpt>
      <trkpt lat="48.60658" lon="2.49781">
        <ele>90</ele>
        <time>2022-11-15T12:01:36.565Z</time>
      </trkpt>
      <trkpt lat="48.60667" lon="2.49757">
        <ele>89</ele>
        <time>2022-11-15T12:01:41.567Z</time>
      </trkpt>
      <trkpt lat="48.60675" lon="2.49732">
        <ele>88</ele>
        <time>2022-11-15T12:01:46.564Z</time>
      </trkpt>
      <trkpt lat="48.60687" lon="2.49715">
        <ele>89</ele>
        <time>2022-11-15T12:01:51.565Z</time>
      </trkpt>
      <trkpt lat="48.60699" lon="2.49709">
        <ele>89</ele>
        <time>2022-11-15T12:01:55.572Z</time>
      </trkpt>
      <trkpt lat="48.60717" lon="2.49699">
        <ele>88</ele>
        <time>2022-11-15T12:02:00.572Z</time>
      </trkpt>
      <trkpt lat="48.60735" lon="2.49688">
        <ele>88</ele>
        <time>2022-11-15T12:02:05.560Z</time>
      </trkpt>
      <trkpt lat="48.60748" lon="2.49681">
        <ele>89</ele>
        <time>2022-11-15T12:02:09.570Z</time>
      </trkpt>
      <trkpt lat="48.60766" lon="2.49672">
        <ele>88</ele>
        <time>2022-11-15T12:02:14.596Z</time>
      </trkpt>
      <trkpt lat="48.60786" lon="2.49659">
        <ele>88</ele>
        <time>2022-11-15T12:02:19.579Z</time>
      </trkpt>
      <trkpt lat="48.60809" lon="2.49648">
        <ele>87</ele>
        <time>2022-11-15T12:02:24.592Z</time>
      </trkpt>
      <trkpt lat="48.6083" lon="2.49631">
        <ele>88</ele>
        <time>2022-11-15T12:02:29.557Z</time>
      </trkpt>
      <trkpt lat="48.60848" lon="2.4961">
        <ele>88</ele>
        <time>2022-11-15T12:02:34.587Z</time>
      </trkpt>
      <trkpt lat="48.60868" lon="2.49588">
        <ele>87</ele>
        <time>2022-11-15T12:02:39.581Z</time>
      </trkpt>
      <trkpt lat="48.60883" lon="2.49567">
        <ele>85</ele>
        <time>2022-11-15T12:02:44.576Z</time>
      </trkpt>
      <trkpt lat="48.60898" lon="2.49545">
        <ele>85</ele>
        <time>2022-11-15T12:02:49.556Z</time>
      </trkpt>
      <trkpt lat="48.60923" lon="2.49526">
        <ele>81</ele>
        <time>2022-11-15T12:02:54.565Z</time>
      </trkpt>
      <trkpt lat="48.6095" lon="2.49514">
        <ele>84</ele>
        <time>2022-11-15T12:02:59.558Z</time>
      </trkpt>
      <trkpt lat="48.6097" lon="2.49502">
        <ele>81</ele>
        <time>2022-11-15T12:03:04.566Z</time>
      </trkpt>
      <trkpt lat="48.60989" lon="2.49515">
        <ele>83</ele>
        <time>2022-11-15T12:03:09.568Z</time>
      </trkpt>
      <trkpt lat="48.60996" lon="2.49546">
        <ele>85</ele>
        <time>2022-11-15T12:03:14.573Z</time>
      </trkpt>
      <trkpt lat="48.61002" lon="2.49574">
        <ele>88</ele>
        <time>2022-11-15T12:03:19.573Z</time>
      </trkpt>
      <trkpt lat="48.61008" lon="2.49592">
        <ele>88</ele>
        <time>2022-11-15T12:03:23.574Z</time>
      </trkpt>
      <trkpt lat="48.61028" lon="2.49621">
        <ele>89</ele>
        <time>2022-11-15T12:03:43.585Z</time>
      </trkpt>
      <trkpt lat="48.61033" lon="2.49618">
        <ele>89</ele>
        <time>2022-11-15T12:03:53.559Z</time>
      </trkpt>
      <trkpt lat="48.61048" lon="2.4961">
        <ele>89</ele>
        <time>2022-11-15T12:03:58.575Z</time>
      </trkpt>
      <trkpt lat="48.61066" lon="2.49599">
        <ele>89</ele>
        <time>2022-11-15T12:04:03.582Z</time>
      </trkpt>
      <trkpt lat="48.61082" lon="2.49588">
        <ele>88</ele>
        <time>2022-11-15T12:04:07.585Z</time>
      </trkpt>
      <trkpt lat="48.61101" lon="2.49577">
        <ele>89</ele>
        <time>2022-11-15T12:04:12.586Z</time>
      </trkpt>
      <trkpt lat="48.6112" lon="2.49563">
        <ele>88</ele>
        <time>2022-11-15T12:04:17.590Z</time>
      </trkpt>
      <trkpt lat="48.6114" lon="2.49548">
        <ele>89</ele>
        <time>2022-11-15T12:04:22.597Z</time>
      </trkpt>
      <trkpt lat="48.61159" lon="2.49532">
        <ele>89</ele>
        <time>2022-11-15T12:04:27.573Z</time>
      </trkpt>
      <trkpt lat="48.61179" lon="2.49516">
        <ele>89</ele>
        <time>2022-11-15T12:04:32.595Z</time>
      </trkpt>
      <trkpt lat="48.61201" lon="2.495">
        <ele>88</ele>
        <time>2022-11-15T12:04:37.567Z</time>
      </trkpt>
      <trkpt lat="48.61223" lon="2.49482">
        <ele>87</ele>
        <time>2022-11-15T12:04:42.569Z</time>
      </trkpt>
      <trkpt lat="48.61244" lon="2.49464">
        <ele>87</ele>
        <time>2022-11-15T12:04:47.565Z</time>
      </trkpt>
      <trkpt lat="48.61267" lon="2.49448">
        <ele>86</ele>
        <time>2022-11-15T12:04:52.569Z</time>
      </trkpt>
      <trkpt lat="48.61294" lon="2.49434">
        <ele>87</ele>
        <time>2022-11-15T12:04:57.568Z</time>
      </trkpt>
      <trkpt lat="48.61315" lon="2.49422">
        <ele>85</ele>
        <time>2022-11-15T12:05:01.579Z</time>
      </trkpt>
      <trkpt lat="48.61337" lon="2.4941">
        <ele>87</ele>
        <time>2022-11-15T12:05:06.590Z</time>
      </trkpt>
      <trkpt lat="48.61361" lon="2.49397">
        <ele>87</ele>
        <time>2022-11-15T12:05:11.560Z</time>
      </trkpt>
      <trkpt lat="48.61383" lon="2.4938">
        <ele>88</ele>
        <time>2022-11-15T12:05:16.566Z</time>
      </trkpt>
      <trkpt lat="48.61404" lon="2.49364">
        <ele>89</ele>
        <time>2022-11-15T12:05:21.564Z</time>
      </trkpt>
      <trkpt lat="48.61422" lon="2.49346">
        <ele>87</ele>
        <time>2022-11-15T12:05:26.566Z</time>
      </trkpt>
      <trkpt lat="48.61437" lon="2.49329">
        <ele>87</ele>
        <time>2022-11-15T12:05:31.572Z</time>
      </trkpt>
      <trkpt lat="48.61448" lon="2.49313">
        <ele>86</ele>
        <time>2022-11-15T12:05:35.572Z</time>
      </trkpt>
      <trkpt lat="48.61465" lon="2.49288">
        <ele>84</ele>
        <time>2022-11-15T12:05:40.566Z</time>
      </trkpt>
      <trkpt lat="48.61481" lon="2.4926">
        <ele>83</ele>
        <time>2022-11-15T12:05:45.573Z</time>
      </trkpt>
      <trkpt lat="48.61498" lon="2.4923">
        <ele>85</ele>
        <time>2022-11-15T12:05:50.568Z</time>
      </trkpt>
      <trkpt lat="48.61517" lon="2.49201">
        <ele>87</ele>
        <time>2022-11-15T12:05:55.589Z</time>
      </trkpt>
      <trkpt lat="48.61536" lon="2.49175">
        <ele>87</ele>
        <time>2022-11-15T12:06:00.581Z</time>
      </trkpt>
      <trkpt lat="48.61555" lon="2.49149">
        <ele>87</ele>
        <time>2022-11-15T12:06:05.584Z</time>
      </trkpt>
      <trkpt lat="48.6157" lon="2.4913">
        <ele>87</ele>
        <time>2022-11-15T12:06:09.587Z</time>
      </trkpt>
      <trkpt lat="48.61587" lon="2.49106">
        <ele>87</ele>
        <time>2022-11-15T12:06:14.592Z</time>
      </trkpt>
      <trkpt lat="48.61604" lon="2.49084">
        <ele>86</ele>
        <time>2022-11-15T12:06:19.582Z</time>
      </trkpt>
      <trkpt lat="48.61622" lon="2.49067">
        <ele>86</ele>
        <time>2022-11-15T12:06:24.586Z</time>
      </trkpt>
      <trkpt lat="48.61643" lon="2.49054">
        <ele>87</ele>
        <time>2022-11-15T12:06:29.592Z</time>
      </trkpt>
      <trkpt lat="48.61664" lon="2.4904">
        <ele>87</ele>
        <time>2022-11-15T12:06:34.568Z</time>
      </trkpt>
      <trkpt lat="48.61686" lon="2.49028">
        <ele>87</ele>
        <time>2022-11-15T12:06:39.575Z</time>
      </trkpt>
      <trkpt lat="48.61703" lon="2.49014">
        <ele>87</ele>
        <time>2022-11-15T12:06:43.571Z</time>
      </trkpt>
      <trkpt lat="48.61725" lon="2.49006">
        <ele>87</ele>
        <time>2022-11-15T12:06:48.570Z</time>
      </trkpt>
      <trkpt lat="48.61748" lon="2.48992">
        <ele>87</ele>
        <time>2022-11-15T12:06:53.580Z</time>
      </trkpt>
      <trkpt lat="48.61771" lon="2.48978">
        <ele>87</ele>
        <time>2022-11-15T12:06:58.570Z</time>
      </trkpt>
      <trkpt lat="48.61793" lon="2.48965">
        <ele>86</ele>
        <time>2022-11-15T12:07:03.566Z</time>
      </trkpt>
      <trkpt lat="48.61812" lon="2.48954">
        <ele>86</ele>
        <time>2022-11-15T12:07:07.582Z</time>
      </trkpt>
      <trkpt lat="48.61836" lon="2.48943">
        <ele>87</ele>
        <time>2022-11-15T12:07:12.561Z</time>
      </trkpt>
      <trkpt lat="48.61861" lon="2.48937">
        <ele>86</ele>
        <time>2022-11-15T12:07:17.571Z</time>
      </trkpt>
      <trkpt lat="48.61885" lon="2.48932">
        <ele>87</ele>
        <time>2022-11-15T12:07:22.563Z</time>
      </trkpt>
      <trkpt lat="48.61906" lon="2.48934">
        <ele>87</ele>
        <time>2022-11-15T12:07:26.585Z</time>
      </trkpt>
      <trkpt lat="48.61931" lon="2.48942">
        <ele>85</ele>
        <time>2022-11-15T12:07:31.560Z</time>
      </trkpt>
      <trkpt lat="48.61951" lon="2.48952">
        <ele>85</ele>
        <time>2022-11-15T12:07:35.566Z</time>
      </trkpt>
      <trkpt lat="48.6197" lon="2.48968">
        <ele>85</ele>
        <time>2022-11-15T12:07:40.572Z</time>
      </trkpt>
      <trkpt lat="48.61987" lon="2.48981">
        <ele>85</ele>
        <time>2022-11-15T12:07:45.572Z</time>
      </trkpt>
      <trkpt lat="48.62004" lon="2.48992">
        <ele>86</ele>
        <time>2022-11-15T12:07:50.578Z</time>
      </trkpt>
      <trkpt lat="48.62017" lon="2.49009">
        <ele>86</ele>
        <time>2022-11-15T12:07:55.575Z</time>
      </trkpt>
      <trkpt lat="48.62032" lon="2.49015">
        <ele>86</ele>
        <time>2022-11-15T12:08:00.590Z</time>
      </trkpt>
      <trkpt lat="48.62054" lon="2.49027">
        <ele>85</ele>
        <time>2022-11-15T12:08:05.592Z</time>
      </trkpt>
      <trkpt lat="48.6208" lon="2.49041">
        <ele>83</ele>
        <time>2022-11-15T12:08:10.585Z</time>
      </trkpt>
      <trkpt lat="48.62107" lon="2.49045">
        <ele>82</ele>
        <time>2022-11-15T12:08:15.588Z</time>
      </trkpt>
      <trkpt lat="48.62126" lon="2.49041">
        <ele>83</ele>
        <time>2022-11-15T12:08:19.592Z</time>
      </trkpt>
      <trkpt lat="48.6215" lon="2.49035">
        <ele>83</ele>
        <time>2022-11-15T12:08:24.567Z</time>
      </trkpt>
      <trkpt lat="48.62176" lon="2.49033">
        <ele>83</ele>
        <time>2022-11-15T12:08:29.573Z</time>
      </trkpt>
      <trkpt lat="48.62203" lon="2.49033">
        <ele>83</ele>
        <time>2022-11-15T12:08:34.568Z</time>
      </trkpt>
      <trkpt lat="48.62226" lon="2.49051">
        <ele>83</ele>
        <time>2022-11-15T12:08:39.560Z</time>
      </trkpt>
      <trkpt lat="48.62239" lon="2.49047">
        <ele>85</ele>
        <time>2022-11-15T12:08:44.578Z</time>
      </trkpt>
      <trkpt lat="48.62248" lon="2.49047">
        <ele>85</ele>
        <time>2022-11-15T12:08:49.565Z</time>
      </trkpt>
      <trkpt lat="48.62259" lon="2.49054">
        <ele>85</ele>
        <time>2022-11-15T12:08:54.566Z</time>
      </trkpt>
      <trkpt lat="48.62271" lon="2.4906">
        <ele>82</ele>
        <time>2022-11-15T12:08:58.584Z</time>
      </trkpt>
      <trkpt lat="48.62284" lon="2.49067">
        <ele>82</ele>
        <time>2022-11-15T12:09:03.564Z</time>
      </trkpt>
      <trkpt lat="48.62298" lon="2.49076">
        <ele>81</ele>
        <time>2022-11-15T12:09:08.561Z</time>
      </trkpt>
      <trkpt lat="48.6231" lon="2.49084">
        <ele>81</ele>
        <time>2022-11-15T12:09:12.576Z</time>
      </trkpt>
      <trkpt lat="48.62322" lon="2.49092">
        <ele>82</ele>
        <time>2022-11-15T12:09:16.556Z</time>
      </trkpt>
      <trkpt lat="48.62339" lon="2.49104">
        <ele>81</ele>
        <time>2022-11-15T12:09:21.587Z</time>
      </trkpt>
      <trkpt lat="48.62354" lon="2.49115">
        <ele>82</ele>
        <time>2022-11-15T12:09:26.580Z</time>
      </trkpt>
      <trkpt lat="48.62369" lon="2.4913">
        <ele>82</ele>
        <time>2022-11-15T12:09:31.566Z</time>
      </trkpt>
      <trkpt lat="48.62378" lon="2.49157">
        <ele>81</ele>
        <time>2022-11-15T12:09:36.563Z</time>
      </trkpt>
      <trkpt lat="48.62387" lon="2.49176">
        <ele>81</ele>
        <time>2022-11-15T12:09:41.569Z</time>
      </trkpt>
      <trkpt lat="48.62404" lon="2.49181">
        <ele>81</ele>
        <time>2022-11-15T12:09:46.559Z</time>
      </trkpt>
      <trkpt lat="48.62414" lon="2.4917">
        <ele>81</ele>
        <time>2022-11-15T12:09:50.573Z</time>
      </trkpt>
      <trkpt lat="48.62433" lon="2.49167">
        <ele>81</ele>
        <time>2022-11-15T12:09:55.600Z</time>
      </trkpt>
      <trkpt lat="48.62448" lon="2.49169">
        <ele>81</ele>
        <time>2022-11-15T12:09:59.569Z</time>
      </trkpt>
      <trkpt lat="48.62467" lon="2.49174">
        <ele>79</ele>
        <time>2022-11-15T12:10:04.570Z</time>
      </trkpt>
      <trkpt lat="48.6249" lon="2.49176">
        <ele>78</ele>
        <time>2022-11-15T12:10:09.566Z</time>
      </trkpt>
      <trkpt lat="48.62516" lon="2.49174">
        <ele>77</ele>
        <time>2022-11-15T12:10:14.574Z</time>
      </trkpt>
      <trkpt lat="48.62541" lon="2.4917">
        <ele>77</ele>
        <time>2022-11-15T12:10:18.569Z</time>
      </trkpt>
      <trkpt lat="48.62574" lon="2.49165">
        <ele>76</ele>
        <time>2022-11-15T12:10:23.558Z</time>
      </trkpt>
      <trkpt lat="48.62603" lon="2.49161">
        <ele>74</ele>
        <time>2022-11-15T12:10:27.571Z</time>
      </trkpt>
      <trkpt lat="48.62635" lon="2.49157">
        <ele>73</ele>
        <time>2022-11-15T12:10:32.562Z</time>
      </trkpt>
      <trkpt lat="48.62659" lon="2.49155">
        <ele>76</ele>
        <time>2022-11-15T12:10:37.572Z</time>
      </trkpt>
      <trkpt lat="48.62673" lon="2.49149">
        <ele>74</ele>
        <time>2022-11-15T12:10:42.578Z</time>
      </trkpt>
      <trkpt lat="48.62684" lon="2.49148">
        <ele>77</ele>
        <time>2022-11-15T12:10:47.578Z</time>
      </trkpt>
      <trkpt lat="48.62695" lon="2.49146">
        <ele>77</ele>
        <time>2022-11-15T12:10:51.589Z</time>
      </trkpt>
      <trkpt lat="48.62712" lon="2.49144">
        <ele>79</ele>
        <time>2022-11-15T12:10:57.554Z</time>
      </trkpt>
      <trkpt lat="48.62728" lon="2.49141">
        <ele>79</ele>
        <time>2022-11-15T12:11:02.559Z</time>
      </trkpt>
      <trkpt lat="48.62742" lon="2.4914">
        <ele>79</ele>
        <time>2022-11-15T12:11:07.576Z</time>
      </trkpt>
      <trkpt lat="48.62752" lon="2.49138">
        <ele>79</ele>
        <time>2022-11-15T12:11:11.580Z</time>
      </trkpt>
      <trkpt lat="48.62766" lon="2.49137">
        <ele>81</ele>
        <time>2022-11-15T12:11:16.561Z</time>
      </trkpt>
      <trkpt lat="48.62772" lon="2.49138">
        <ele>81</ele>
        <time>2022-11-15T12:11:21.560Z</time>
      </trkpt>
      <trkpt lat="48.62774" lon="2.49136">
        <ele>81</ele>
        <time>2022-11-15T12:11:26.561Z</time>
      </trkpt>
      <trkpt lat="48.62777" lon="2.49136">
        <ele>81</ele>
        <time>2022-11-15T12:11:31.574Z</time>
      </trkpt>
      <trkpt lat="48.62776" lon="2.49134">
        <ele>81</ele>
        <time>2022-11-15T12:12:51.582Z</time>
      </trkpt>
      <trkpt lat="48.62785" lon="2.49132">
        <ele>81</ele>
        <time>2022-11-15T12:12:56.563Z</time>
      </trkpt>
      <trkpt lat="48.62807" lon="2.49128">
        <ele>83</ele>
        <time>2022-11-15T12:13:01.559Z</time>
      </trkpt>
      <trkpt lat="48.6283" lon="2.49128">
        <ele>83</ele>
        <time>2022-11-15T12:13:05.572Z</time>
      </trkpt>
      <trkpt lat="48.62855" lon="2.49139">
        <ele>83</ele>
        <time>2022-11-15T12:13:10.554Z</time>
      </trkpt>
      <trkpt lat="48.62871" lon="2.49159">
        <ele>82</ele>
        <time>2022-11-15T12:13:15.569Z</time>
      </trkpt>
      <trkpt lat="48.62874" lon="2.49189">
        <ele>83</ele>
        <time>2022-11-15T12:13:20.574Z</time>
      </trkpt>
      <trkpt lat="48.62884" lon="2.49212">
        <ele>83</ele>
        <time>2022-11-15T12:13:25.560Z</time>
      </trkpt>
      <trkpt lat="48.62897" lon="2.49235">
        <ele>83</ele>
        <time>2022-11-15T12:13:30.564Z</time>
      </trkpt>
      <trkpt lat="48.62908" lon="2.49266">
        <ele>83</ele>
        <time>2022-11-15T12:13:35.582Z</time>
      </trkpt>
      <trkpt lat="48.62916" lon="2.49295">
        <ele>83</ele>
        <time>2022-11-15T12:13:40.576Z</time>
      </trkpt>
      <trkpt lat="48.62926" lon="2.49325">
        <ele>83</ele>
        <time>2022-11-15T12:13:45.579Z</time>
      </trkpt>
      <trkpt lat="48.62935" lon="2.49355">
        <ele>82</ele>
        <time>2022-11-15T12:13:50.589Z</time>
      </trkpt>
      <trkpt lat="48.6294" lon="2.4938">
        <ele>83</ele>
        <time>2022-11-15T12:13:55.581Z</time>
      </trkpt>
      <trkpt lat="48.62943" lon="2.494">
        <ele>83</ele>
        <time>2022-11-15T12:14:00.585Z</time>
      </trkpt>
      <trkpt lat="48.6295" lon="2.49415">
        <ele>84</ele>
        <time>2022-11-15T12:14:05.569Z</time>
      </trkpt>
      <trkpt lat="48.62958" lon="2.49432">
        <ele>85</ele>
        <time>2022-11-15T12:14:10.569Z</time>
      </trkpt>
      <trkpt lat="48.62967" lon="2.49456">
        <ele>85</ele>
        <time>2022-11-15T12:14:15.577Z</time>
      </trkpt>
      <trkpt lat="48.6298" lon="2.49483">
        <ele>86</ele>
        <time>2022-11-15T12:14:20.572Z</time>
      </trkpt>
      <trkpt lat="48.62991" lon="2.49511">
        <ele>85</ele>
        <time>2022-11-15T12:14:25.573Z</time>
      </trkpt>
      <trkpt lat="48.63001" lon="2.49539">
        <ele>85</ele>
        <time>2022-11-15T12:14:30.578Z</time>
      </trkpt>
      <trkpt lat="48.63009" lon="2.49568">
        <ele>85</ele>
        <time>2022-11-15T12:14:35.562Z</time>
      </trkpt>
      <trkpt lat="48.63012" lon="2.49596">
        <ele>84</ele>
        <time>2022-11-15T12:14:40.563Z</time>
      </trkpt>
      <trkpt lat="48.63015" lon="2.49622">
        <ele>86</ele>
        <time>2022-11-15T12:14:45.581Z</time>
      </trkpt>
      <trkpt lat="48.63021" lon="2.49644">
        <ele>85</ele>
        <time>2022-11-15T12:14:50.557Z</time>
      </trkpt>
      <trkpt lat="48.63027" lon="2.49664">
        <ele>84</ele>
        <time>2022-11-15T12:14:55.568Z</time>
      </trkpt>
      <trkpt lat="48.63032" lon="2.49681">
        <ele>85</ele>
        <time>2022-11-15T12:15:00.561Z</time>
      </trkpt>
      <trkpt lat="48.63034" lon="2.49694">
        <ele>85</ele>
        <time>2022-11-15T12:15:05.562Z</time>
      </trkpt>
      <trkpt lat="48.6304" lon="2.49704">
        <ele>85</ele>
        <time>2022-11-15T12:15:09.568Z</time>
      </trkpt>
      <trkpt lat="48.6305" lon="2.49715">
        <ele>86</ele>
        <time>2022-11-15T12:15:14.572Z</time>
      </trkpt>
      <trkpt lat="48.63058" lon="2.49718">
        <ele>86</ele>
        <time>2022-11-15T12:15:19.562Z</time>
      </trkpt>
      <trkpt lat="48.63067" lon="2.49714">
        <ele>86</ele>
        <time>2022-11-15T12:15:24.568Z</time>
      </trkpt>
      <trkpt lat="48.63077" lon="2.49718">
        <ele>86</ele>
        <time>2022-11-15T12:15:29.562Z</time>
      </trkpt>
      <trkpt lat="48.63078" lon="2.49718">
        <ele>86</ele>
        <time>2022-11-15T12:15:34.578Z</time>
      </trkpt>
      <trkpt lat="48.63082" lon="2.49718">
        <ele>86</ele>
        <time>2022-11-15T12:15:39.580Z</time>
      </trkpt>
      <trkpt lat="48.63098" lon="2.49719">
        <ele>87</ele>
        <time>2022-11-15T12:15:44.577Z</time>
      </trkpt>
      <trkpt lat="48.6311" lon="2.49734">
        <ele>87</ele>
        <time>2022-11-15T12:15:49.578Z</time>
      </trkpt>
      <trkpt lat="48.63121" lon="2.49757">
        <ele>86</ele>
        <time>2022-11-15T12:15:54.584Z</time>
      </trkpt>
      <trkpt lat="48.63131" lon="2.4977">
        <ele>86</ele>
        <time>2022-11-15T12:15:59.586Z</time>
      </trkpt>
      <trkpt lat="48.63143" lon="2.49777">
        <ele>86</ele>
        <time>2022-11-15T12:16:04.584Z</time>
      </trkpt>
      <trkpt lat="48.63158" lon="2.49783">
        <ele>87</ele>
        <time>2022-11-15T12:16:09.561Z</time>
      </trkpt>
      <trkpt lat="48.63175" lon="2.49787">
        <ele>87</ele>
        <time>2022-11-15T12:16:14.598Z</time>
      </trkpt>
      <trkpt lat="48.63192" lon="2.49784">
        <ele>88</ele>
        <time>2022-11-15T12:16:19.568Z</time>
      </trkpt>
      <trkpt lat="48.63207" lon="2.49777">
        <ele>88</ele>
        <time>2022-11-15T12:16:24.562Z</time>
      </trkpt>
      <trkpt lat="48.63218" lon="2.49773">
        <ele>88</ele>
        <time>2022-11-15T12:16:29.567Z</time>
      </trkpt>
      <trkpt lat="48.63229" lon="2.49759">
        <ele>88</ele>
        <time>2022-11-15T12:16:34.569Z</time>
      </trkpt>
      <trkpt lat="48.6324" lon="2.49739">
        <ele>87</ele>
        <time>2022-11-15T12:16:39.584Z</time>
      </trkpt>
      <trkpt lat="48.63252" lon="2.49723">
        <ele>88</ele>
        <time>2022-11-15T12:16:44.570Z</time>
      </trkpt>
      <trkpt lat="48.63272" lon="2.49721">
        <ele>86</ele>
        <time>2022-11-15T12:16:49.569Z</time>
      </trkpt>
      <trkpt lat="48.63291" lon="2.49729">
        <ele>86</ele>
        <time>2022-11-15T12:16:54.562Z</time>
      </trkpt>
      <trkpt lat="48.63307" lon="2.49744">
        <ele>84</ele>
        <time>2022-11-15T12:16:59.567Z</time>
      </trkpt>
      <trkpt lat="48.63321" lon="2.49773">
        <ele>85</ele>
        <time>2022-11-15T12:17:04.558Z</time>
      </trkpt>
      <trkpt lat="48.63331" lon="2.49814">
        <ele>84</ele>
        <time>2022-11-15T12:17:09.576Z</time>
      </trkpt>
      <trkpt lat="48.63334" lon="2.49861">
        <ele>83</ele>
        <time>2022-11-15T12:17:14.566Z</time>
      </trkpt>
      <trkpt lat="48.6334" lon="2.49908">
        <ele>83</ele>
        <time>2022-11-15T12:17:19.558Z</time>
      </trkpt>
      <trkpt lat="48.63345" lon="2.49942">
        <ele>83</ele>
        <time>2022-11-15T12:17:24.569Z</time>
      </trkpt>
      <trkpt lat="48.6334" lon="2.49966">
        <ele>83</ele>
        <time>2022-11-15T12:17:29.572Z</time>
      </trkpt>
      <trkpt lat="48.6334" lon="2.49983">
        <ele>83</ele>
        <time>2022-11-15T12:17:34.570Z</time>
      </trkpt>
      <trkpt lat="48.63352" lon="2.49994">
        <ele>84</ele>
        <time>2022-11-15T12:17:38.564Z</time>
      </trkpt>
      <trkpt lat="48.63369" lon="2.50011">
        <ele>84</ele>
        <time>2022-11-15T12:17:43.585Z</time>
      </trkpt>
      <trkpt lat="48.63387" lon="2.50027">
        <ele>85</ele>
        <time>2022-11-15T12:17:48.593Z</time>
      </trkpt>
      <trkpt lat="48.63407" lon="2.50042">
        <ele>84</ele>
        <time>2022-11-15T12:17:53.577Z</time>
      </trkpt>
      <trkpt lat="48.63427" lon="2.50058">
        <ele>84</ele>
        <time>2022-11-15T12:17:58.566Z</time>
      </trkpt>
      <trkpt lat="48.63442" lon="2.50071">
        <ele>83</ele>
        <time>2022-11-15T12:18:02.562Z</time>
      </trkpt>
      <trkpt lat="48.63461" lon="2.50084">
        <ele>84</ele>
        <time>2022-11-15T12:18:07.562Z</time>
      </trkpt>
      <trkpt lat="48.63477" lon="2.50097">
        <ele>84</ele>
        <time>2022-11-15T12:18:11.574Z</time>
      </trkpt>
      <trkpt lat="48.63496" lon="2.50113">
        <ele>84</ele>
        <time>2022-11-15T12:18:16.570Z</time>
      </trkpt>
      <trkpt lat="48.63517" lon="2.50128">
        <ele>84</ele>
        <time>2022-11-15T12:18:21.559Z</time>
      </trkpt>
      <trkpt lat="48.63535" lon="2.50148">
        <ele>84</ele>
        <time>2022-11-15T12:18:26.563Z</time>
      </trkpt>
      <trkpt lat="48.63552" lon="2.5017">
        <ele>83</ele>
        <time>2022-11-15T12:18:31.561Z</time>
      </trkpt>
      <trkpt lat="48.63565" lon="2.50189">
        <ele>84</ele>
        <time>2022-11-15T12:18:35.584Z</time>
      </trkpt>
      <trkpt lat="48.63582" lon="2.50211">
        <ele>87</ele>
        <time>2022-11-15T12:18:40.563Z</time>
      </trkpt>
      <trkpt lat="48.636" lon="2.50234">
        <ele>86</ele>
        <time>2022-11-15T12:18:45.568Z</time>
      </trkpt>
      <trkpt lat="48.63615" lon="2.50258">
        <ele>88</ele>
        <time>2022-11-15T12:18:50.568Z</time>
      </trkpt>
      <trkpt lat="48.63633" lon="2.50281">
        <ele>87</ele>
        <time>2022-11-15T12:18:55.578Z</time>
      </trkpt>
      <trkpt lat="48.63648" lon="2.50303">
        <ele>86</ele>
        <time>2022-11-15T12:19:00.568Z</time>
      </trkpt>
      <trkpt lat="48.6366" lon="2.50322">
        <ele>84</ele>
        <time>2022-11-15T12:19:05.561Z</time>
      </trkpt>
      <trkpt lat="48.63671" lon="2.50337">
        <ele>84</ele>
        <time>2022-11-15T12:19:10.575Z</time>
      </trkpt>
      <trkpt lat="48.63674" lon="2.50352">
        <ele>84</ele>
        <time>2022-11-15T12:19:15.572Z</time>
      </trkpt>
      <trkpt lat="48.63678" lon="2.50366">
        <ele>84</ele>
        <time>2022-11-15T12:19:20.565Z</time>
      </trkpt>
      <trkpt lat="48.63681" lon="2.50372">
        <ele>83</ele>
        <time>2022-11-15T12:19:24.570Z</time>
      </trkpt>
      <trkpt lat="48.63681" lon="2.50372">
        <ele>83</ele>
        <time>2022-11-15T12:19:28.560Z</time>
      </trkpt>
      <trkpt lat="48.63681" lon="2.50372">
        <ele>83</ele>
        <time>2022-11-15T12:19:33.580Z</time>
      </trkpt>
      <trkpt lat="48.63689" lon="2.50378">
        <ele>83</ele>
        <time>2022-11-15T12:19:57.573Z</time>
      </trkpt>
      <trkpt lat="48.63699" lon="2.50378">
        <ele>83</ele>
        <time>2022-11-15T12:20:02.576Z</time>
      </trkpt>
      <trkpt lat="48.63702" lon="2.50376">
        <ele>83</ele>
        <time>2022-11-15T12:20:07.569Z</time>
      </trkpt>
      <trkpt lat="48.63708" lon="2.50387">
        <ele>83</ele>
        <time>2022-11-15T12:20:12.580Z</time>
      </trkpt>
      <trkpt lat="48.63715" lon="2.50406">
        <ele>84</ele>
        <time>2022-11-15T12:20:17.569Z</time>
      </trkpt>
      <trkpt lat="48.63724" lon="2.50432">
        <ele>84</ele>
        <time>2022-11-15T12:20:22.577Z</time>
      </trkpt>
      <trkpt lat="48.63734" lon="2.50454">
        <ele>84</ele>
        <time>2022-11-15T12:20:27.560Z</time>
      </trkpt>
      <trkpt lat="48.63747" lon="2.50477">
        <ele>83</ele>
        <time>2022-11-15T12:20:32.567Z</time>
      </trkpt>
      <trkpt lat="48.63763" lon="2.50498">
        <ele>83</ele>
        <time>2022-11-15T12:20:37.553Z</time>
      </trkpt>
      <trkpt lat="48.63777" lon="2.50509">
        <ele>82</ele>
        <time>2022-11-15T12:20:41.574Z</time>
      </trkpt>
      <trkpt lat="48.63797" lon="2.50517">
        <ele>83</ele>
        <time>2022-11-15T12:20:46.563Z</time>
      </trkpt>
      <trkpt lat="48.63818" lon="2.50521">
        <ele>83</ele>
        <time>2022-11-15T12:20:51.574Z</time>
      </trkpt>
      <trkpt lat="48.63838" lon="2.50527">
        <ele>82</ele>
        <time>2022-11-15T12:20:56.570Z</time>
      </trkpt>
      <trkpt lat="48.63856" lon="2.50539">
        <ele>81</ele>
        <time>2022-11-15T12:21:01.564Z</time>
      </trkpt>
      <trkpt lat="48.63873" lon="2.50553">
        <ele>81</ele>
        <time>2022-11-15T12:21:06.567Z</time>
      </trkpt>
      <trkpt lat="48.63891" lon="2.50577">
        <ele>82</ele>
        <time>2022-11-15T12:21:11.559Z</time>
      </trkpt>
      <trkpt lat="48.63902" lon="2.50596">
        <ele>82</ele>
        <time>2022-11-15T12:21:15.565Z</time>
      </trkpt>
      <trkpt lat="48.63909" lon="2.50611">
        <ele>82</ele>
        <time>2022-11-15T12:21:20.563Z</time>
      </trkpt>
      <trkpt lat="48.63918" lon="2.50609">
        <ele>82</ele>
        <time>2022-11-15T12:21:25.556Z</time>
      </trkpt>
      <trkpt lat="48.63927" lon="2.50595">
        <ele>81</ele>
        <time>2022-11-15T12:21:29.576Z</time>
      </trkpt>
      <trkpt lat="48.63943" lon="2.50577">
        <ele>82</ele>
        <time>2022-11-15T12:21:34.579Z</time>
      </trkpt>
      <trkpt lat="48.63959" lon="2.50562">
        <ele>83</ele>
        <time>2022-11-15T12:21:38.591Z</time>
      </trkpt>
      <trkpt lat="48.63976" lon="2.50539">
        <ele>83</ele>
        <time>2022-11-15T12:21:43.573Z</time>
      </trkpt>
      <trkpt lat="48.6399" lon="2.50524">
        <ele>84</ele>
        <time>2022-11-15T12:21:47.575Z</time>
      </trkpt>
      <trkpt lat="48.64008" lon="2.50501">
        <ele>83</ele>
        <time>2022-11-15T12:21:52.582Z</time>
      </trkpt>
      <trkpt lat="48.64025" lon="2.50478">
        <ele>82</ele>
        <time>2022-11-15T12:21:57.596Z</time>
      </trkpt>
      <trkpt lat="48.64042" lon="2.50458">
        <ele>80</ele>
        <time>2022-11-15T12:22:02.570Z</time>
      </trkpt>
      <trkpt lat="48.6406" lon="2.50436">
        <ele>80</ele>
        <time>2022-11-15T12:22:07.573Z</time>
      </trkpt>
      <trkpt lat="48.64072" lon="2.50419">
        <ele>80</ele>
        <time>2022-11-15T12:22:11.562Z</time>
      </trkpt>
      <trkpt lat="48.64087" lon="2.50396">
        <ele>79</ele>
        <time>2022-11-15T12:22:16.570Z</time>
      </trkpt>
      <trkpt lat="48.64103" lon="2.50372">
        <ele>78</ele>
        <time>2022-11-15T12:22:21.564Z</time>
      </trkpt>
      <trkpt lat="48.64121" lon="2.50337">
        <ele>77</ele>
        <time>2022-11-15T12:22:26.570Z</time>
      </trkpt>
      <trkpt lat="48.6414" lon="2.50287">
        <ele>74</ele>
        <time>2022-11-15T12:22:31.571Z</time>
      </trkpt>
      <trkpt lat="48.64156" lon="2.50222">
        <ele>76</ele>
        <time>2022-11-15T12:22:36.565Z</time>
      </trkpt>
      <trkpt lat="48.6417" lon="2.50164">
        <ele>75</ele>
        <time>2022-11-15T12:22:41.562Z</time>
      </trkpt>
      <trkpt lat="48.64183" lon="2.50128">
        <ele>73</ele>
        <time>2022-11-15T12:22:46.558Z</time>
      </trkpt>
      <trkpt lat="48.64204" lon="2.50096">
        <ele>73</ele>
        <time>2022-11-15T12:22:51.558Z</time>
      </trkpt>
      <trkpt lat="48.64224" lon="2.50077">
        <ele>68</ele>
        <time>2022-11-15T12:22:55.558Z</time>
      </trkpt>
      <trkpt lat="48.64253" lon="2.50066">
        <ele>65</ele>
        <time>2022-11-15T12:23:00.565Z</time>
      </trkpt>
      <trkpt lat="48.64288" lon="2.50065">
        <ele>66</ele>
        <time>2022-11-15T12:23:05.574Z</time>
      </trkpt>
      <trkpt lat="48.64328" lon="2.50054">
        <ele>63</ele>
        <time>2022-11-15T12:23:10.567Z</time>
      </trkpt>
      <trkpt lat="48.64368" lon="2.50027">
        <ele>63</ele>
        <time>2022-11-15T12:23:15.555Z</time>
      </trkpt>
      <trkpt lat="48.64392" lon="2.50002">
        <ele>63</ele>
        <time>2022-11-15T12:23:19.561Z</time>
      </trkpt>
      <trkpt lat="48.64419" lon="2.49975">
        <ele>64</ele>
        <time>2022-11-15T12:23:24.565Z</time>
      </trkpt>
      <trkpt lat="48.64436" lon="2.49958">
        <ele>64</ele>
        <time>2022-11-15T12:23:28.565Z</time>
      </trkpt>
      <trkpt lat="48.64449" lon="2.49943">
        <ele>64</ele>
        <time>2022-11-15T12:23:32.570Z</time>
      </trkpt>
      <trkpt lat="48.64465" lon="2.49926">
        <ele>65</ele>
        <time>2022-11-15T12:23:37.577Z</time>
      </trkpt>
      <trkpt lat="48.64477" lon="2.49909">
        <ele>65</ele>
        <time>2022-11-15T12:23:42.580Z</time>
      </trkpt>
      <trkpt lat="48.64487" lon="2.49893">
        <ele>67</ele>
        <time>2022-11-15T12:23:47.574Z</time>
      </trkpt>
      <trkpt lat="48.64494" lon="2.49878">
        <ele>67</ele>
        <time>2022-11-15T12:23:52.572Z</time>
      </trkpt>
      <trkpt lat="48.645" lon="2.49869">
        <ele>68</ele>
        <time>2022-11-15T12:23:56.602Z</time>
      </trkpt>
      <trkpt lat="48.64505" lon="2.49859">
        <ele>68</ele>
        <time>2022-11-15T12:24:01.576Z</time>
      </trkpt>
      <trkpt lat="48.6451" lon="2.4985">
        <ele>68</ele>
        <time>2022-11-15T12:24:06.582Z</time>
      </trkpt>
      <trkpt lat="48.64515" lon="2.49841">
        <ele>68</ele>
        <time>2022-11-15T12:24:11.564Z</time>
      </trkpt>
      <trkpt lat="48.64519" lon="2.49832">
        <ele>68</ele>
        <time>2022-11-15T12:24:16.557Z</time>
      </trkpt>
      <trkpt lat="48.6452" lon="2.49824">
        <ele>68</ele>
        <time>2022-11-15T12:24:21.554Z</time>
      </trkpt>
      <trkpt lat="48.64525" lon="2.49813">
        <ele>68</ele>
        <time>2022-11-15T12:24:26.578Z</time>
      </trkpt>
      <trkpt lat="48.64531" lon="2.49802">
        <ele>68</ele>
        <time>2022-11-15T12:24:30.553Z</time>
      </trkpt>
      <trkpt lat="48.64539" lon="2.49792">
        <ele>68</ele>
        <time>2022-11-15T12:24:35.557Z</time>
      </trkpt>
      <trkpt lat="48.64544" lon="2.49783">
        <ele>71</ele>
        <time>2022-11-15T12:24:39.564Z</time>
      </trkpt>
      <trkpt lat="48.64552" lon="2.49772">
        <ele>71</ele>
        <time>2022-11-15T12:24:44.566Z</time>
      </trkpt>
      <trkpt lat="48.64561" lon="2.49762">
        <ele>72</ele>
        <time>2022-11-15T12:24:49.573Z</time>
      </trkpt>
      <trkpt lat="48.6457" lon="2.4975">
        <ele>73</ele>
        <time>2022-11-15T12:24:54.566Z</time>
      </trkpt>
      <trkpt lat="48.64579" lon="2.49738">
        <ele>73</ele>
        <time>2022-11-15T12:24:59.568Z</time>
      </trkpt>
      <trkpt lat="48.64587" lon="2.49729">
        <ele>73</ele>
        <time>2022-11-15T12:25:03.563Z</time>
      </trkpt>
      <trkpt lat="48.64598" lon="2.49718">
        <ele>75</ele>
        <time>2022-11-15T12:25:08.575Z</time>
      </trkpt>
      <trkpt lat="48.64608" lon="2.49705">
        <ele>77</ele>
        <time>2022-11-15T12:25:13.576Z</time>
      </trkpt>
      <trkpt lat="48.64618" lon="2.49691">
        <ele>77</ele>
        <time>2022-11-15T12:25:18.580Z</time>
      </trkpt>
      <trkpt lat="48.64628" lon="2.49677">
        <ele>80</ele>
        <time>2022-11-15T12:25:23.555Z</time>
      </trkpt>
      <trkpt lat="48.64639" lon="2.49664">
        <ele>80</ele>
        <time>2022-11-15T12:25:28.560Z</time>
      </trkpt>
      <trkpt lat="48.64649" lon="2.49654">
        <ele>80</ele>
        <time>2022-11-15T12:25:33.568Z</time>
      </trkpt>
      <trkpt lat="48.64656" lon="2.49646">
        <ele>83</ele>
        <time>2022-11-15T12:25:38.558Z</time>
      </trkpt>
      <trkpt lat="48.64661" lon="2.49636">
        <ele>83</ele>
        <time>2022-11-15T12:25:42.579Z</time>
      </trkpt>
      <trkpt lat="48.64668" lon="2.49628">
        <ele>83</ele>
        <time>2022-11-15T12:25:47.573Z</time>
      </trkpt>
      <trkpt lat="48.64673" lon="2.49622">
        <ele>85</ele>
        <time>2022-11-15T12:25:52.581Z</time>
      </trkpt>
      <trkpt lat="48.64677" lon="2.49619">
        <ele>85</ele>
        <time>2022-11-15T12:25:57.580Z</time>
      </trkpt>
      <trkpt lat="48.64683" lon="2.49613">
        <ele>88</ele>
        <time>2022-11-15T12:26:02.571Z</time>
      </trkpt>
      <trkpt lat="48.6469" lon="2.49606">
        <ele>88</ele>
        <time>2022-11-15T12:26:07.574Z</time>
      </trkpt>
      <trkpt lat="48.64699" lon="2.49593">
        <ele>89</ele>
        <time>2022-11-15T12:26:12.583Z</time>
      </trkpt>
      <trkpt lat="48.6471" lon="2.49577">
        <ele>89</ele>
        <time>2022-11-15T12:26:17.568Z</time>
      </trkpt>
      <trkpt lat="48.64721" lon="2.49563">
        <ele>89</ele>
        <time>2022-11-15T12:26:22.564Z</time>
      </trkpt>
      <trkpt lat="48.64731" lon="2.49549">
        <ele>89</ele>
        <time>2022-11-15T12:26:27.554Z</time>
      </trkpt>
      <trkpt lat="48.64738" lon="2.49537">
        <ele>89</ele>
        <time>2022-11-15T12:26:31.559Z</time>
      </trkpt>
      <trkpt lat="48.64757" lon="2.49524">
        <ele>89</ele>
        <time>2022-11-15T12:26:36.561Z</time>
      </trkpt>
      <trkpt lat="48.64772" lon="2.4951">
        <ele>88</ele>
        <time>2022-11-15T12:26:41.571Z</time>
      </trkpt>
      <trkpt lat="48.64784" lon="2.49499">
        <ele>88</ele>
        <time>2022-11-15T12:26:46.571Z</time>
      </trkpt>
      <trkpt lat="48.64797" lon="2.49486">
        <ele>87</ele>
        <time>2022-11-15T12:26:51.555Z</time>
      </trkpt>
      <trkpt lat="48.6481" lon="2.49467">
        <ele>87</ele>
        <time>2022-11-15T12:26:56.570Z</time>
      </trkpt>
      <trkpt lat="48.64821" lon="2.49443">
        <ele>88</ele>
        <time>2022-11-15T12:27:01.569Z</time>
      </trkpt>
      <trkpt lat="48.64832" lon="2.49419">
        <ele>88</ele>
        <time>2022-11-15T12:27:06.560Z</time>
      </trkpt>
      <trkpt lat="48.64845" lon="2.49396">
        <ele>89</ele>
        <time>2022-11-15T12:27:11.572Z</time>
      </trkpt>
      <trkpt lat="48.64857" lon="2.49372">
        <ele>92</ele>
        <time>2022-11-15T12:27:16.573Z</time>
      </trkpt>
      <trkpt lat="48.64867" lon="2.49349">
        <ele>92</ele>
        <time>2022-11-15T12:27:21.565Z</time>
      </trkpt>
      <trkpt lat="48.64877" lon="2.49328">
        <ele>91</ele>
        <time>2022-11-15T12:27:26.564Z</time>
      </trkpt>
      <trkpt lat="48.64887" lon="2.49307">
        <ele>91</ele>
        <time>2022-11-15T12:27:31.557Z</time>
      </trkpt>
      <trkpt lat="48.64899" lon="2.49284">
        <ele>92</ele>
        <time>2022-11-15T12:27:36.563Z</time>
      </trkpt>
      <trkpt lat="48.64912" lon="2.49261">
        <ele>87</ele>
        <time>2022-11-15T12:27:41.572Z</time>
      </trkpt>
      <trkpt lat="48.64926" lon="2.49237">
        <ele>87</ele>
        <time>2022-11-15T12:27:46.555Z</time>
      </trkpt>
      <trkpt lat="48.64938" lon="2.49218">
        <ele>83</ele>
        <time>2022-11-15T12:27:50.583Z</time>
      </trkpt>
      <trkpt lat="48.6495" lon="2.492">
        <ele>84</ele>
        <time>2022-11-15T12:27:54.584Z</time>
      </trkpt>
      <trkpt lat="48.64964" lon="2.49176">
        <ele>82</ele>
        <time>2022-11-15T12:27:59.565Z</time>
      </trkpt>
      <trkpt lat="48.64979" lon="2.4915">
        <ele>87</ele>
        <time>2022-11-15T12:28:04.574Z</time>
      </trkpt>
      <trkpt lat="48.64994" lon="2.49126">
        <ele>83</ele>
        <time>2022-11-15T12:28:09.580Z</time>
      </trkpt>
      <trkpt lat="48.65006" lon="2.49104">
        <ele>84</ele>
        <time>2022-11-15T12:28:14.566Z</time>
      </trkpt>
      <trkpt lat="48.65017" lon="2.49085">
        <ele>83</ele>
        <time>2022-11-15T12:28:19.582Z</time>
      </trkpt>
      <trkpt lat="48.65026" lon="2.49075">
        <ele>83</ele>
        <time>2022-11-15T12:28:24.564Z</time>
      </trkpt>
      <trkpt lat="48.65027" lon="2.49066">
        <ele>85</ele>
        <time>2022-11-15T12:28:28.570Z</time>
      </trkpt>
      <trkpt lat="48.65026" lon="2.49056">
        <ele>85</ele>
        <time>2022-11-15T12:28:33.557Z</time>
      </trkpt>
      <trkpt lat="48.65024" lon="2.49045">
        <ele>85</ele>
        <time>2022-11-15T12:28:37.580Z</time>
      </trkpt>
      <trkpt lat="48.65019" lon="2.4903">
        <ele>87</ele>
        <time>2022-11-15T12:28:42.551Z</time>
      </trkpt>
      <trkpt lat="48.65014" lon="2.49019">
        <ele>87</ele>
        <time>2022-11-15T12:28:46.565Z</time>
      </trkpt>
      <trkpt lat="48.65008" lon="2.49003">
        <ele>89</ele>
        <time>2022-11-15T12:28:51.567Z</time>
      </trkpt>
      <trkpt lat="48.65001" lon="2.48981">
        <ele>89</ele>
        <time>2022-11-15T12:28:56.566Z</time>
      </trkpt>
      <trkpt lat="48.64993" lon="2.48956">
        <ele>90</ele>
        <time>2022-11-15T12:29:01.565Z</time>
      </trkpt>
      <trkpt lat="48.64984" lon="2.4893">
        <ele>90</ele>
        <time>2022-11-15T12:29:06.587Z</time>
      </trkpt>
      <trkpt lat="48.64975" lon="2.48906">
        <ele>90</ele>
        <time>2022-11-15T12:29:11.549Z</time>
      </trkpt>
      <trkpt lat="48.64968" lon="2.48885">
        <ele>90</ele>
        <time>2022-11-15T12:29:15.554Z</time>
      </trkpt>
      <trkpt lat="48.64959" lon="2.48861">
        <ele>90</ele>
        <time>2022-11-15T12:29:20.551Z</time>
      </trkpt>
      <trkpt lat="48.64948" lon="2.48833">
        <ele>88</ele>
        <time>2022-11-15T12:29:25.569Z</time>
      </trkpt>
      <trkpt lat="48.6494" lon="2.48804">
        <ele>87</ele>
        <time>2022-11-15T12:29:30.551Z</time>
      </trkpt>
      <trkpt lat="48.64929" lon="2.48777">
        <ele>88</ele>
        <time>2022-11-15T12:29:35.553Z</time>
      </trkpt>
      <trkpt lat="48.6492" lon="2.48749">
        <ele>88</ele>
        <time>2022-11-15T12:29:40.556Z</time>
      </trkpt>
      <trkpt lat="48.64911" lon="2.4872">
        <ele>89</ele>
        <time>2022-11-15T12:29:45.550Z</time>
      </trkpt>
      <trkpt lat="48.64902" lon="2.48692">
        <ele>88</ele>
        <time>2022-11-15T12:29:50.566Z</time>
      </trkpt>
      <trkpt lat="48.64892" lon="2.48667">
        <ele>87</ele>
        <time>2022-11-15T12:29:55.561Z</time>
      </trkpt>
      <trkpt lat="48.64885" lon="2.48645">
        <ele>87</ele>
        <time>2022-11-15T12:29:59.576Z</time>
      </trkpt>
      <trkpt lat="48.64876" lon="2.48619">
        <ele>87</ele>
        <time>2022-11-15T12:30:04.587Z</time>
      </trkpt>
      <trkpt lat="48.64871" lon="2.48596">
        <ele>86</ele>
        <time>2022-11-15T12:30:09.571Z</time>
      </trkpt>
      <trkpt lat="48.64877" lon="2.48582">
        <ele>87</ele>
        <time>2022-11-15T12:30:13.573Z</time>
      </trkpt>
      <trkpt lat="48.64887" lon="2.48571">
        <ele>87</ele>
        <time>2022-11-15T12:30:18.576Z</time>
      </trkpt>
      <trkpt lat="48.64898" lon="2.48561">
        <ele>87</ele>
        <time>2022-11-15T12:30:23.572Z</time>
      </trkpt>
      <trkpt lat="48.64908" lon="2.48549">
        <ele>89</ele>
        <time>2022-11-15T12:30:28.559Z</time>
      </trkpt>
      <trkpt lat="48.64921" lon="2.48538">
        <ele>89</ele>
        <time>2022-11-15T12:30:33.580Z</time>
      </trkpt>
      <trkpt lat="48.64934" lon="2.48523">
        <ele>90</ele>
        <time>2022-11-15T12:30:38.562Z</time>
      </trkpt>
      <trkpt lat="48.64949" lon="2.48507">
        <ele>90</ele>
        <time>2022-11-15T12:30:43.553Z</time>
      </trkpt>
      <trkpt lat="48.6496" lon="2.48496">
        <ele>90</ele>
        <time>2022-11-15T12:30:47.565Z</time>
      </trkpt>
      <trkpt lat="48.64976" lon="2.48482">
        <ele>90</ele>
        <time>2022-11-15T12:30:52.569Z</time>
      </trkpt>
      <trkpt lat="48.64992" lon="2.48466">
        <ele>90</ele>
        <time>2022-11-15T12:30:57.567Z</time>
      </trkpt>
      <trkpt lat="48.65009" lon="2.48449">
        <ele>89</ele>
        <time>2022-11-15T12:31:02.578Z</time>
      </trkpt>
      <trkpt lat="48.65025" lon="2.48432">
        <ele>89</ele>
        <time>2022-11-15T12:31:07.559Z</time>
      </trkpt>
      <trkpt lat="48.65043" lon="2.48415">
        <ele>88</ele>
        <time>2022-11-15T12:31:12.576Z</time>
      </trkpt>
      <trkpt lat="48.65059" lon="2.48401">
        <ele>88</ele>
        <time>2022-11-15T12:31:16.581Z</time>
      </trkpt>
      <trkpt lat="48.65078" lon="2.48384">
        <ele>87</ele>
        <time>2022-11-15T12:31:21.573Z</time>
      </trkpt>
      <trkpt lat="48.65095" lon="2.48365">
        <ele>88</ele>
        <time>2022-11-15T12:31:26.579Z</time>
      </trkpt>
      <trkpt lat="48.65113" lon="2.48348">
        <ele>87</ele>
        <time>2022-11-15T12:31:31.555Z</time>
      </trkpt>
      <trkpt lat="48.6513" lon="2.48331">
        <ele>87</ele>
        <time>2022-11-15T12:31:36.557Z</time>
      </trkpt>
      <trkpt lat="48.65145" lon="2.48316">
        <ele>88</ele>
        <time>2022-11-15T12:31:40.570Z</time>
      </trkpt>
      <trkpt lat="48.65164" lon="2.48296">
        <ele>87</ele>
        <time>2022-11-15T12:31:45.580Z</time>
      </trkpt>
      <trkpt lat="48.65184" lon="2.48278">
        <ele>88</ele>
        <time>2022-11-15T12:31:50.558Z</time>
      </trkpt>
      <trkpt lat="48.65199" lon="2.48264">
        <ele>88</ele>
        <time>2022-11-15T12:31:54.570Z</time>
      </trkpt>
      <trkpt lat="48.65219" lon="2.48244">
        <ele>88</ele>
        <time>2022-11-15T12:31:59.579Z</time>
      </trkpt>
      <trkpt lat="48.6524" lon="2.48224">
        <ele>88</ele>
        <time>2022-11-15T12:32:04.573Z</time>
      </trkpt>
      <trkpt lat="48.65261" lon="2.48205">
        <ele>88</ele>
        <time>2022-11-15T12:32:09.560Z</time>
      </trkpt>
      <trkpt lat="48.65281" lon="2.48187">
        <ele>88</ele>
        <time>2022-11-15T12:32:14.567Z</time>
      </trkpt>
      <trkpt lat="48.65302" lon="2.48167">
        <ele>89</ele>
        <time>2022-11-15T12:32:19.575Z</time>
      </trkpt>
      <trkpt lat="48.65318" lon="2.48151">
        <ele>90</ele>
        <time>2022-11-15T12:32:23.582Z</time>
      </trkpt>
      <trkpt lat="48.65338" lon="2.48132">
        <ele>89</ele>
        <time>2022-11-15T12:32:28.578Z</time>
      </trkpt>
      <trkpt lat="48.65356" lon="2.48115">
        <ele>90</ele>
        <time>2022-11-15T12:32:33.562Z</time>
      </trkpt>
      <trkpt lat="48.65375" lon="2.48096">
        <ele>91</ele>
        <time>2022-11-15T12:32:38.557Z</time>
      </trkpt>
      <trkpt lat="48.65393" lon="2.48079">
        <ele>91</ele>
        <time>2022-11-15T12:32:43.559Z</time>
      </trkpt>
      <trkpt lat="48.65411" lon="2.48061">
        <ele>94</ele>
        <time>2022-11-15T12:32:48.561Z</time>
      </trkpt>
      <trkpt lat="48.6543" lon="2.48042">
        <ele>94</ele>
        <time>2022-11-15T12:32:53.560Z</time>
      </trkpt>
      <trkpt lat="48.6545" lon="2.48022">
        <ele>94</ele>
        <time>2022-11-15T12:32:58.575Z</time>
      </trkpt>
      <trkpt lat="48.65469" lon="2.48005">
        <ele>94</ele>
        <time>2022-11-15T12:33:03.572Z</time>
      </trkpt>
      <trkpt lat="48.65488" lon="2.47986">
        <ele>94</ele>
        <time>2022-11-15T12:33:08.566Z</time>
      </trkpt>
      <trkpt lat="48.65507" lon="2.47966">
        <ele>94</ele>
        <time>2022-11-15T12:33:13.570Z</time>
      </trkpt>
      <trkpt lat="48.65527" lon="2.47948">
        <ele>93</ele>
        <time>2022-11-15T12:33:18.579Z</time>
      </trkpt>
      <trkpt lat="48.65546" lon="2.47932">
        <ele>93</ele>
        <time>2022-11-15T12:33:23.561Z</time>
      </trkpt>
      <trkpt lat="48.65562" lon="2.47916">
        <ele>93</ele>
        <time>2022-11-15T12:33:28.570Z</time>
      </trkpt>
      <trkpt lat="48.65577" lon="2.47902">
        <ele>93</ele>
        <time>2022-11-15T12:33:33.571Z</time>
      </trkpt>
      <trkpt lat="48.65592" lon="2.47885">
        <ele>93</ele>
        <time>2022-11-15T12:33:38.567Z</time>
      </trkpt>
      <trkpt lat="48.65607" lon="2.47871">
        <ele>90</ele>
        <time>2022-11-15T12:33:43.569Z</time>
      </trkpt>
      <trkpt lat="48.65623" lon="2.47856">
        <ele>90</ele>
        <time>2022-11-15T12:33:48.563Z</time>
      </trkpt>
      <trkpt lat="48.65636" lon="2.47844">
        <ele>88</ele>
        <time>2022-11-15T12:33:52.589Z</time>
      </trkpt>
      <trkpt lat="48.65651" lon="2.47829">
        <ele>88</ele>
        <time>2022-11-15T12:33:57.568Z</time>
      </trkpt>
      <trkpt lat="48.65668" lon="2.47812">
        <ele>88</ele>
        <time>2022-11-15T12:34:02.565Z</time>
      </trkpt>
      <trkpt lat="48.65682" lon="2.47796">
        <ele>88</ele>
        <time>2022-11-15T12:34:07.580Z</time>
      </trkpt>
      <trkpt lat="48.65701" lon="2.47777">
        <ele>87</ele>
        <time>2022-11-15T12:34:12.587Z</time>
      </trkpt>
      <trkpt lat="48.65719" lon="2.47757">
        <ele>89</ele>
        <time>2022-11-15T12:34:17.567Z</time>
      </trkpt>
      <trkpt lat="48.65738" lon="2.4774">
        <ele>91</ele>
        <time>2022-11-15T12:34:22.571Z</time>
      </trkpt>
      <trkpt lat="48.65755" lon="2.47723">
        <ele>91</ele>
        <time>2022-11-15T12:34:27.585Z</time>
      </trkpt>
      <trkpt lat="48.65774" lon="2.47705">
        <ele>91</ele>
        <time>2022-11-15T12:34:32.573Z</time>
      </trkpt>
      <trkpt lat="48.65789" lon="2.47689">
        <ele>91</ele>
        <time>2022-11-15T12:34:36.581Z</time>
      </trkpt>
      <trkpt lat="48.65808" lon="2.4767">
        <ele>90</ele>
        <time>2022-11-15T12:34:41.568Z</time>
      </trkpt>
      <trkpt lat="48.65829" lon="2.47652">
        <ele>88</ele>
        <time>2022-11-15T12:34:46.561Z</time>
      </trkpt>
      <trkpt lat="48.65848" lon="2.47632">
        <ele>88</ele>
        <time>2022-11-15T12:34:51.553Z</time>
      </trkpt>
      <trkpt lat="48.65864" lon="2.47616">
        <ele>87</ele>
        <time>2022-11-15T12:34:55.562Z</time>
      </trkpt>
      <trkpt lat="48.65893" lon="2.47597">
        <ele>87</ele>
        <time>2022-11-15T12:35:00.558Z</time>
      </trkpt>
      <trkpt lat="48.65909" lon="2.47577">
        <ele>86</ele>
        <time>2022-11-15T12:35:05.568Z</time>
      </trkpt>
      <trkpt lat="48.65929" lon="2.4756">
        <ele>85</ele>
        <time>2022-11-15T12:35:10.562Z</time>
      </trkpt>
      <trkpt lat="48.65948" lon="2.47538">
        <ele>85</ele>
        <time>2022-11-15T12:35:15.567Z</time>
      </trkpt>
      <trkpt lat="48.65966" lon="2.47519">
        <ele>88</ele>
        <time>2022-11-15T12:35:20.571Z</time>
      </trkpt>
      <trkpt lat="48.65986" lon="2.47498">
        <ele>92</ele>
        <time>2022-11-15T12:35:25.553Z</time>
      </trkpt>
      <trkpt lat="48.66008" lon="2.47477">
        <ele>92</ele>
        <time>2022-11-15T12:35:30.564Z</time>
      </trkpt>
      <trkpt lat="48.66028" lon="2.47456">
        <ele>92</ele>
        <time>2022-11-15T12:35:35.572Z</time>
      </trkpt>
      <trkpt lat="48.66049" lon="2.47438">
        <ele>92</ele>
        <time>2022-11-15T12:35:40.568Z</time>
      </trkpt>
      <trkpt lat="48.66069" lon="2.47416">
        <ele>92</ele>
        <time>2022-11-15T12:35:45.567Z</time>
      </trkpt>
      <trkpt lat="48.66091" lon="2.47396">
        <ele>90</ele>
        <time>2022-11-15T12:35:50.563Z</time>
      </trkpt>
      <trkpt lat="48.66112" lon="2.47377">
        <ele>90</ele>
        <time>2022-11-15T12:35:55.562Z</time>
      </trkpt>
      <trkpt lat="48.66132" lon="2.47358">
        <ele>91</ele>
        <time>2022-11-15T12:36:00.582Z</time>
      </trkpt>
      <trkpt lat="48.66155" lon="2.4734">
        <ele>91</ele>
        <time>2022-11-15T12:36:05.566Z</time>
      </trkpt>
      <trkpt lat="48.66175" lon="2.47319">
        <ele>91</ele>
        <time>2022-11-15T12:36:10.569Z</time>
      </trkpt>
      <trkpt lat="48.66196" lon="2.47298">
        <ele>90</ele>
        <time>2022-11-15T12:36:15.561Z</time>
      </trkpt>
      <trkpt lat="48.66217" lon="2.47277">
        <ele>90</ele>
        <time>2022-11-15T12:36:20.571Z</time>
      </trkpt>
      <trkpt lat="48.66238" lon="2.47259">
        <ele>92</ele>
        <time>2022-11-15T12:36:25.583Z</time>
      </trkpt>
      <trkpt lat="48.66253" lon="2.47242">
        <ele>92</ele>
        <time>2022-11-15T12:36:29.581Z</time>
      </trkpt>
      <trkpt lat="48.66274" lon="2.47222">
        <ele>91</ele>
        <time>2022-11-15T12:36:34.590Z</time>
      </trkpt>
      <trkpt lat="48.66293" lon="2.47202">
        <ele>91</ele>
        <time>2022-11-15T12:36:39.570Z</time>
      </trkpt>
      <trkpt lat="48.66314" lon="2.47181">
        <ele>91</ele>
        <time>2022-11-15T12:36:44.581Z</time>
      </trkpt>
      <trkpt lat="48.66336" lon="2.4716">
        <ele>90</ele>
        <time>2022-11-15T12:36:49.576Z</time>
      </trkpt>
      <trkpt lat="48.6636" lon="2.47139">
        <ele>89</ele>
        <time>2022-11-15T12:36:54.567Z</time>
      </trkpt>
      <trkpt lat="48.66381" lon="2.47117">
        <ele>88</ele>
        <time>2022-11-15T12:36:59.554Z</time>
      </trkpt>
      <trkpt lat="48.66403" lon="2.47097">
        <ele>89</ele>
        <time>2022-11-15T12:37:04.561Z</time>
      </trkpt>
      <trkpt lat="48.66424" lon="2.47077">
        <ele>89</ele>
        <time>2022-11-15T12:37:09.556Z</time>
      </trkpt>
      <trkpt lat="48.66446" lon="2.47056">
        <ele>91</ele>
        <time>2022-11-15T12:37:14.566Z</time>
      </trkpt>
      <trkpt lat="48.66462" lon="2.4704">
        <ele>91</ele>
        <time>2022-11-15T12:37:18.573Z</time>
      </trkpt>
      <trkpt lat="48.66485" lon="2.47022">
        <ele>91</ele>
        <time>2022-11-15T12:37:23.556Z</time>
      </trkpt>
      <trkpt lat="48.66503" lon="2.47001">
        <ele>89</ele>
        <time>2022-11-15T12:37:28.561Z</time>
      </trkpt>
      <trkpt lat="48.66524" lon="2.46979">
        <ele>89</ele>
        <time>2022-11-15T12:37:33.555Z</time>
      </trkpt>
      <trkpt lat="48.66542" lon="2.46963">
        <ele>90</ele>
        <time>2022-11-15T12:37:37.576Z</time>
      </trkpt>
      <trkpt lat="48.66558" lon="2.46949">
        <ele>91</ele>
        <time>2022-11-15T12:37:41.576Z</time>
      </trkpt>
      <trkpt lat="48.66577" lon="2.46928">
        <ele>94</ele>
        <time>2022-11-15T12:37:46.569Z</time>
      </trkpt>
      <trkpt lat="48.66594" lon="2.46913">
        <ele>94</ele>
        <time>2022-11-15T12:37:50.578Z</time>
      </trkpt>
      <trkpt lat="48.66614" lon="2.46892">
        <ele>94</ele>
        <time>2022-11-15T12:37:55.552Z</time>
      </trkpt>
      <trkpt lat="48.6663" lon="2.46876">
        <ele>92</ele>
        <time>2022-11-15T12:37:59.564Z</time>
      </trkpt>
      <trkpt lat="48.6665" lon="2.46856">
        <ele>92</ele>
        <time>2022-11-15T12:38:04.575Z</time>
      </trkpt>
      <trkpt lat="48.66672" lon="2.46835">
        <ele>88</ele>
        <time>2022-11-15T12:38:09.572Z</time>
      </trkpt>
      <trkpt lat="48.66693" lon="2.46814">
        <ele>88</ele>
        <time>2022-11-15T12:38:14.565Z</time>
      </trkpt>
      <trkpt lat="48.66714" lon="2.46794">
        <ele>89</ele>
        <time>2022-11-15T12:38:19.564Z</time>
      </trkpt>
      <trkpt lat="48.66736" lon="2.46773">
        <ele>89</ele>
        <time>2022-11-15T12:38:24.559Z</time>
      </trkpt>
      <trkpt lat="48.66759" lon="2.46751">
        <ele>88</ele>
        <time>2022-11-15T12:38:29.574Z</time>
      </trkpt>
      <trkpt lat="48.66782" lon="2.46731">
        <ele>90</ele>
        <time>2022-11-15T12:38:34.574Z</time>
      </trkpt>
      <trkpt lat="48.66806" lon="2.46709">
        <ele>89</ele>
        <time>2022-11-15T12:38:39.561Z</time>
      </trkpt>
      <trkpt lat="48.66826" lon="2.46694">
        <ele>88</ele>
        <time>2022-11-15T12:38:43.567Z</time>
      </trkpt>
      <trkpt lat="48.66848" lon="2.46673">
        <ele>88</ele>
        <time>2022-11-15T12:38:48.576Z</time>
      </trkpt>
      <trkpt lat="48.66864" lon="2.46657">
        <ele>88</ele>
        <time>2022-11-15T12:38:52.586Z</time>
      </trkpt>
      <trkpt lat="48.66882" lon="2.46636">
        <ele>88</ele>
        <time>2022-11-15T12:38:57.569Z</time>
      </trkpt>
      <trkpt lat="48.66902" lon="2.46615">
        <ele>89</ele>
        <time>2022-11-15T12:39:02.555Z</time>
      </trkpt>
      <trkpt lat="48.66921" lon="2.46595">
        <ele>91</ele>
        <time>2022-11-15T12:39:07.558Z</time>
      </trkpt>
      <trkpt lat="48.66941" lon="2.46577">
        <ele>90</ele>
        <time>2022-11-15T12:39:12.560Z</time>
      </trkpt>
      <trkpt lat="48.66962" lon="2.46555">
        <ele>91</ele>
        <time>2022-11-15T12:39:17.563Z</time>
      </trkpt>
      <trkpt lat="48.66978" lon="2.46539">
        <ele>91</ele>
        <time>2022-11-15T12:39:21.579Z</time>
      </trkpt>
      <trkpt lat="48.67" lon="2.46518">
        <ele>89</ele>
        <time>2022-11-15T12:39:26.568Z</time>
      </trkpt>
      <trkpt lat="48.67021" lon="2.46499">
        <ele>88</ele>
        <time>2022-11-15T12:39:31.562Z</time>
      </trkpt>
      <trkpt lat="48.67042" lon="2.46481">
        <ele>88</ele>
        <time>2022-11-15T12:39:36.562Z</time>
      </trkpt>
      <trkpt lat="48.67056" lon="2.46465">
        <ele>88</ele>
        <time>2022-11-15T12:39:40.576Z</time>
      </trkpt>
      <trkpt lat="48.67074" lon="2.46446">
        <ele>88</ele>
        <time>2022-11-15T12:39:45.554Z</time>
      </trkpt>
      <trkpt lat="48.67097" lon="2.46427">
        <ele>89</ele>
        <time>2022-11-15T12:39:50.569Z</time>
      </trkpt>
      <trkpt lat="48.67116" lon="2.46411">
        <ele>89</ele>
        <time>2022-11-15T12:39:55.551Z</time>
      </trkpt>
      <trkpt lat="48.67138" lon="2.46391">
        <ele>89</ele>
        <time>2022-11-15T12:40:00.574Z</time>
      </trkpt>
      <trkpt lat="48.67158" lon="2.46372">
        <ele>90</ele>
        <time>2022-11-15T12:40:05.568Z</time>
      </trkpt>
      <trkpt lat="48.67177" lon="2.4635">
        <ele>90</ele>
        <time>2022-11-15T12:40:10.567Z</time>
      </trkpt>
      <trkpt lat="48.67198" lon="2.46328">
        <ele>89</ele>
        <time>2022-11-15T12:40:15.559Z</time>
      </trkpt>
      <trkpt lat="48.67218" lon="2.46309">
        <ele>87</ele>
        <time>2022-11-15T12:40:20.568Z</time>
      </trkpt>
      <trkpt lat="48.67235" lon="2.46288">
        <ele>87</ele>
        <time>2022-11-15T12:40:25.561Z</time>
      </trkpt>
      <trkpt lat="48.67253" lon="2.46269">
        <ele>86</ele>
        <time>2022-11-15T12:40:29.576Z</time>
      </trkpt>
      <trkpt lat="48.67276" lon="2.46258">
        <ele>85</ele>
        <time>2022-11-15T12:40:34.558Z</time>
      </trkpt>
      <trkpt lat="48.67297" lon="2.46267">
        <ele>84</ele>
        <time>2022-11-15T12:40:38.576Z</time>
      </trkpt>
      <trkpt lat="48.67323" lon="2.46276">
        <ele>85</ele>
        <time>2022-11-15T12:40:43.575Z</time>
      </trkpt>
      <trkpt lat="48.67345" lon="2.46282">
        <ele>85</ele>
        <time>2022-11-15T12:40:47.572Z</time>
      </trkpt>
      <trkpt lat="48.67373" lon="2.46289">
        <ele>85</ele>
        <time>2022-11-15T12:40:52.580Z</time>
      </trkpt>
      <trkpt lat="48.67397" lon="2.46296">
        <ele>86</ele>
        <time>2022-11-15T12:40:57.580Z</time>
      </trkpt>
      <trkpt lat="48.67415" lon="2.46302">
        <ele>86</ele>
        <time>2022-11-15T12:41:02.579Z</time>
      </trkpt>
      <trkpt lat="48.67433" lon="2.46308">
        <ele>86</ele>
        <time>2022-11-15T12:41:07.570Z</time>
      </trkpt>
      <trkpt lat="48.67449" lon="2.46316">
        <ele>86</ele>
        <time>2022-11-15T12:41:12.561Z</time>
      </trkpt>
      <trkpt lat="48.67466" lon="2.4632">
        <ele>87</ele>
        <time>2022-11-15T12:41:17.563Z</time>
      </trkpt>
      <trkpt lat="48.67484" lon="2.46323">
        <ele>87</ele>
        <time>2022-11-15T12:41:22.556Z</time>
      </trkpt>
      <trkpt lat="48.67502" lon="2.46328">
        <ele>88</ele>
        <time>2022-11-15T12:41:27.557Z</time>
      </trkpt>
      <trkpt lat="48.67517" lon="2.46334">
        <ele>88</ele>
        <time>2022-11-15T12:41:32.561Z</time>
      </trkpt>
      <trkpt lat="48.67535" lon="2.46339">
        <ele>88</ele>
        <time>2022-11-15T12:41:37.560Z</time>
      </trkpt>
      <trkpt lat="48.67551" lon="2.46344">
        <ele>87</ele>
        <time>2022-11-15T12:41:41.578Z</time>
      </trkpt>
      <trkpt lat="48.67572" lon="2.46349">
        <ele>88</ele>
        <time>2022-11-15T12:41:46.566Z</time>
      </trkpt>
      <trkpt lat="48.67593" lon="2.46355">
        <ele>88</ele>
        <time>2022-11-15T12:41:51.556Z</time>
      </trkpt>
      <trkpt lat="48.67609" lon="2.46357">
        <ele>89</ele>
        <time>2022-11-15T12:41:55.558Z</time>
      </trkpt>
      <trkpt lat="48.67629" lon="2.46362">
        <ele>89</ele>
        <time>2022-11-15T12:42:00.560Z</time>
      </trkpt>
      <trkpt lat="48.67649" lon="2.46366">
        <ele>89</ele>
        <time>2022-11-15T12:42:05.567Z</time>
      </trkpt>
      <trkpt lat="48.67666" lon="2.46374">
        <ele>88</ele>
        <time>2022-11-15T12:42:10.568Z</time>
      </trkpt>
      <trkpt lat="48.67688" lon="2.4638">
        <ele>87</ele>
        <time>2022-11-15T12:42:15.549Z</time>
      </trkpt>
      <trkpt lat="48.67706" lon="2.46387">
        <ele>87</ele>
        <time>2022-11-15T12:42:20.570Z</time>
      </trkpt>
      <trkpt lat="48.67726" lon="2.46391">
        <ele>87</ele>
        <time>2022-11-15T12:42:25.562Z</time>
      </trkpt>
      <trkpt lat="48.67743" lon="2.46397">
        <ele>87</ele>
        <time>2022-11-15T12:42:30.561Z</time>
      </trkpt>
      <trkpt lat="48.67757" lon="2.46399">
        <ele>87</ele>
        <time>2022-11-15T12:42:35.554Z</time>
      </trkpt>
      <trkpt lat="48.67773" lon="2.46403">
        <ele>88</ele>
        <time>2022-11-15T12:42:40.565Z</time>
      </trkpt>
      <trkpt lat="48.67786" lon="2.46408">
        <ele>88</ele>
        <time>2022-11-15T12:42:44.573Z</time>
      </trkpt>
      <trkpt lat="48.67804" lon="2.46414">
        <ele>88</ele>
        <time>2022-11-15T12:42:49.555Z</time>
      </trkpt>
      <trkpt lat="48.6782" lon="2.46419">
        <ele>87</ele>
        <time>2022-11-15T12:42:54.570Z</time>
      </trkpt>
      <trkpt lat="48.67833" lon="2.46422">
        <ele>87</ele>
        <time>2022-11-15T12:42:58.580Z</time>
      </trkpt>
      <trkpt lat="48.67852" lon="2.46432">
        <ele>87</ele>
        <time>2022-11-15T12:43:03.574Z</time>
      </trkpt>
      <trkpt lat="48.67869" lon="2.46434">
        <ele>87</ele>
        <time>2022-11-15T12:43:08.580Z</time>
      </trkpt>
      <trkpt lat="48.67885" lon="2.46437">
        <ele>87</ele>
        <time>2022-11-15T12:43:13.586Z</time>
      </trkpt>
      <trkpt lat="48.67903" lon="2.46441">
        <ele>88</ele>
        <time>2022-11-15T12:43:18.567Z</time>
      </trkpt>
      <trkpt lat="48.67917" lon="2.46446">
        <ele>88</ele>
        <time>2022-11-15T12:43:22.583Z</time>
      </trkpt>
      <trkpt lat="48.67932" lon="2.46456">
        <ele>89</ele>
        <time>2022-11-15T12:43:27.556Z</time>
      </trkpt>
      <trkpt lat="48.6795" lon="2.46458">
        <ele>90</ele>
        <time>2022-11-15T12:43:32.555Z</time>
      </trkpt>
      <trkpt lat="48.67968" lon="2.46464">
        <ele>90</ele>
        <time>2022-11-15T12:43:37.554Z</time>
      </trkpt>
      <trkpt lat="48.67985" lon="2.46469">
        <ele>90</ele>
        <time>2022-11-15T12:43:42.560Z</time>
      </trkpt>
      <trkpt lat="48.68" lon="2.46473">
        <ele>91</ele>
        <time>2022-11-15T12:43:46.559Z</time>
      </trkpt>
      <trkpt lat="48.68018" lon="2.46478">
        <ele>91</ele>
        <time>2022-11-15T12:43:51.554Z</time>
      </trkpt>
      <trkpt lat="48.68038" lon="2.46484">
        <ele>91</ele>
        <time>2022-11-15T12:43:56.552Z</time>
      </trkpt>
      <trkpt lat="48.6806" lon="2.4649">
        <ele>91</ele>
        <time>2022-11-15T12:44:01.568Z</time>
      </trkpt>
      <trkpt lat="48.68077" lon="2.46493">
        <ele>90</ele>
        <time>2022-11-15T12:44:05.585Z</time>
      </trkpt>
      <trkpt lat="48.68101" lon="2.46498">
        <ele>89</ele>
        <time>2022-11-15T12:44:10.548Z</time>
      </trkpt>
      <trkpt lat="48.68123" lon="2.46505">
        <ele>89</ele>
        <time>2022-11-15T12:44:15.563Z</time>
      </trkpt>
      <trkpt lat="48.68145" lon="2.46512">
        <ele>89</ele>
        <time>2022-11-15T12:44:20.561Z</time>
      </trkpt>
      <trkpt lat="48.68166" lon="2.46518">
        <ele>87</ele>
        <time>2022-11-15T12:44:25.580Z</time>
      </trkpt>
      <trkpt lat="48.6819" lon="2.46524">
        <ele>89</ele>
        <time>2022-11-15T12:44:30.573Z</time>
      </trkpt>
      <trkpt lat="48.68213" lon="2.46529">
        <ele>90</ele>
        <time>2022-11-15T12:44:35.558Z</time>
      </trkpt>
      <trkpt lat="48.68237" lon="2.46535">
        <ele>89</ele>
        <time>2022-11-15T12:44:40.560Z</time>
      </trkpt>
      <trkpt lat="48.6826" lon="2.46542">
        <ele>89</ele>
        <time>2022-11-15T12:44:45.569Z</time>
      </trkpt>
      <trkpt lat="48.68283" lon="2.46546">
        <ele>91</ele>
        <time>2022-11-15T12:44:50.560Z</time>
      </trkpt>
      <trkpt lat="48.68307" lon="2.46552">
        <ele>91</ele>
        <time>2022-11-15T12:44:55.568Z</time>
      </trkpt>
      <trkpt lat="48.68331" lon="2.46559">
        <ele>90</ele>
        <time>2022-11-15T12:45:00.571Z</time>
      </trkpt>
      <trkpt lat="48.68353" lon="2.46566">
        <ele>89</ele>
        <time>2022-11-15T12:45:05.559Z</time>
      </trkpt>
      <trkpt lat="48.68375" lon="2.46573">
        <ele>89</ele>
        <time>2022-11-15T12:45:10.569Z</time>
      </trkpt>
      <trkpt lat="48.68398" lon="2.46579">
        <ele>88</ele>
        <time>2022-11-15T12:45:15.580Z</time>
      </trkpt>
      <trkpt lat="48.68419" lon="2.46585">
        <ele>88</ele>
        <time>2022-11-15T12:45:20.567Z</time>
      </trkpt>
      <trkpt lat="48.68443" lon="2.46592">
        <ele>89</ele>
        <time>2022-11-15T12:45:25.576Z</time>
      </trkpt>
      <trkpt lat="48.68468" lon="2.46598">
        <ele>89</ele>
        <time>2022-11-15T12:45:30.572Z</time>
      </trkpt>
      <trkpt lat="48.68492" lon="2.46603">
        <ele>89</ele>
        <time>2022-11-15T12:45:35.571Z</time>
      </trkpt>
      <trkpt lat="48.68513" lon="2.4661">
        <ele>89</ele>
        <time>2022-11-15T12:45:40.558Z</time>
      </trkpt>
      <trkpt lat="48.68528" lon="2.46615">
        <ele>89</ele>
        <time>2022-11-15T12:45:44.568Z</time>
      </trkpt>
      <trkpt lat="48.68548" lon="2.46619">
        <ele>89</ele>
        <time>2022-11-15T12:45:49.558Z</time>
      </trkpt>
      <trkpt lat="48.68564" lon="2.46623">
        <ele>89</ele>
        <time>2022-11-15T12:45:54.565Z</time>
      </trkpt>
      <trkpt lat="48.68576" lon="2.46626">
        <ele>89</ele>
        <time>2022-11-15T12:45:59.554Z</time>
      </trkpt>
      <trkpt lat="48.68586" lon="2.46628">
        <ele>89</ele>
        <time>2022-11-15T12:46:04.561Z</time>
      </trkpt>
      <trkpt lat="48.68599" lon="2.46634">
        <ele>88</ele>
        <time>2022-11-15T12:46:09.559Z</time>
      </trkpt>
      <trkpt lat="48.68614" lon="2.46637">
        <ele>88</ele>
        <time>2022-11-15T12:46:14.554Z</time>
      </trkpt>
      <trkpt lat="48.68627" lon="2.4664">
        <ele>88</ele>
        <time>2022-11-15T12:46:18.559Z</time>
      </trkpt>
      <trkpt lat="48.68642" lon="2.4665">
        <ele>88</ele>
        <time>2022-11-15T12:46:23.559Z</time>
      </trkpt>
      <trkpt lat="48.68656" lon="2.46665">
        <ele>89</ele>
        <time>2022-11-15T12:46:28.563Z</time>
      </trkpt>
      <trkpt lat="48.68678" lon="2.46657">
        <ele>89</ele>
        <time>2022-11-15T12:51:14.566Z</time>
      </trkpt>
      <trkpt lat="48.68679" lon="2.46657">
        <ele>89</ele>
        <time>2022-11-15T12:52:37.565Z</time>
      </trkpt>
      <trkpt lat="48.68686" lon="2.46659">
        <ele>89</ele>
        <time>2022-11-15T12:52:42.574Z</time>
      </trkpt>
      <trkpt lat="48.68698" lon="2.46663">
        <ele>89</ele>
        <time>2022-11-15T12:52:47.577Z</time>
      </trkpt>
      <trkpt lat="48.68711" lon="2.46666">
        <ele>90</ele>
        <time>2022-11-15T12:52:52.560Z</time>
      </trkpt>
      <trkpt lat="48.68721" lon="2.46669">
        <ele>90</ele>
        <time>2022-11-15T12:52:56.581Z</time>
      </trkpt>
      <trkpt lat="48.68735" lon="2.46672">
        <ele>90</ele>
        <time>2022-11-15T12:53:01.580Z</time>
      </trkpt>
      <trkpt lat="48.68742" lon="2.4668">
        <ele>89</ele>
        <time>2022-11-15T12:53:05.588Z</time>
      </trkpt>
      <trkpt lat="48.68754" lon="2.46686">
        <ele>90</ele>
        <time>2022-11-15T12:53:10.563Z</time>
      </trkpt>
      <trkpt lat="48.68768" lon="2.46691">
        <ele>91</ele>
        <time>2022-11-15T12:53:14.563Z</time>
      </trkpt>
      <trkpt lat="48.68784" lon="2.46697">
        <ele>91</ele>
        <time>2022-11-15T12:53:19.564Z</time>
      </trkpt>
      <trkpt lat="48.68806" lon="2.46706">
        <ele>92</ele>
        <time>2022-11-15T12:53:24.559Z</time>
      </trkpt>
      <trkpt lat="48.68824" lon="2.46711">
        <ele>92</ele>
        <time>2022-11-15T12:53:28.569Z</time>
      </trkpt>
      <trkpt lat="48.68846" lon="2.46717">
        <ele>92</ele>
        <time>2022-11-15T12:53:33.565Z</time>
      </trkpt>
      <trkpt lat="48.68867" lon="2.46726">
        <ele>94</ele>
        <time>2022-11-15T12:53:38.566Z</time>
      </trkpt>
      <trkpt lat="48.68886" lon="2.46734">
        <ele>93</ele>
        <time>2022-11-15T12:53:43.554Z</time>
      </trkpt>
      <trkpt lat="48.68905" lon="2.46739">
        <ele>94</ele>
        <time>2022-11-15T12:53:47.579Z</time>
      </trkpt>
      <trkpt lat="48.68927" lon="2.46746">
        <ele>94</ele>
        <time>2022-11-15T12:53:52.556Z</time>
      </trkpt>
      <trkpt lat="48.68946" lon="2.46752">
        <ele>93</ele>
        <time>2022-11-15T12:53:56.562Z</time>
      </trkpt>
      <trkpt lat="48.68969" lon="2.46761">
        <ele>92</ele>
        <time>2022-11-15T12:54:01.557Z</time>
      </trkpt>
      <trkpt lat="48.68986" lon="2.46776">
        <ele>92</ele>
        <time>2022-11-15T12:54:06.564Z</time>
      </trkpt>
      <trkpt lat="48.69011" lon="2.46785">
        <ele>92</ele>
        <time>2022-11-15T12:54:11.551Z</time>
      </trkpt>
      <trkpt lat="48.69028" lon="2.46789">
        <ele>93</ele>
        <time>2022-11-15T12:54:15.569Z</time>
      </trkpt>
      <trkpt lat="48.6905" lon="2.46794">
        <ele>93</ele>
        <time>2022-11-15T12:54:20.576Z</time>
      </trkpt>
      <trkpt lat="48.69075" lon="2.46802">
        <ele>91</ele>
        <time>2022-11-15T12:54:25.567Z</time>
      </trkpt>
      <trkpt lat="48.69097" lon="2.4681">
        <ele>91</ele>
        <time>2022-11-15T12:54:30.560Z</time>
      </trkpt>
      <trkpt lat="48.69118" lon="2.46817">
        <ele>90</ele>
        <time>2022-11-15T12:54:35.570Z</time>
      </trkpt>
      <trkpt lat="48.69142" lon="2.46825">
        <ele>88</ele>
        <time>2022-11-15T12:54:40.564Z</time>
      </trkpt>
      <trkpt lat="48.69167" lon="2.46834">
        <ele>87</ele>
        <time>2022-11-15T12:54:45.565Z</time>
      </trkpt>
      <trkpt lat="48.6919" lon="2.46841">
        <ele>86</ele>
        <time>2022-11-15T12:54:50.572Z</time>
      </trkpt>
      <trkpt lat="48.69214" lon="2.46849">
        <ele>86</ele>
        <time>2022-11-15T12:54:55.572Z</time>
      </trkpt>
      <trkpt lat="48.69234" lon="2.46856">
        <ele>86</ele>
        <time>2022-11-15T12:54:59.582Z</time>
      </trkpt>
      <trkpt lat="48.69259" lon="2.46866">
        <ele>85</ele>
        <time>2022-11-15T12:55:04.579Z</time>
      </trkpt>
      <trkpt lat="48.69283" lon="2.46876">
        <ele>86</ele>
        <time>2022-11-15T12:55:09.596Z</time>
      </trkpt>
      <trkpt lat="48.69304" lon="2.46883">
        <ele>87</ele>
        <time>2022-11-15T12:55:13.564Z</time>
      </trkpt>
      <trkpt lat="48.69329" lon="2.4689">
        <ele>85</ele>
        <time>2022-11-15T12:55:18.554Z</time>
      </trkpt>
      <trkpt lat="48.69351" lon="2.46899">
        <ele>83</ele>
        <time>2022-11-15T12:55:23.558Z</time>
      </trkpt>
      <trkpt lat="48.69372" lon="2.46908">
        <ele>84</ele>
        <time>2022-11-15T12:55:28.551Z</time>
      </trkpt>
      <trkpt lat="48.69389" lon="2.46913">
        <ele>83</ele>
        <time>2022-11-15T12:55:32.570Z</time>
      </trkpt>
      <trkpt lat="48.69413" lon="2.46921">
        <ele>84</ele>
        <time>2022-11-15T12:55:37.558Z</time>
      </trkpt>
      <trkpt lat="48.69437" lon="2.46928">
        <ele>85</ele>
        <time>2022-11-15T12:55:42.561Z</time>
      </trkpt>
      <trkpt lat="48.6946" lon="2.46938">
        <ele>85</ele>
        <time>2022-11-15T12:55:47.554Z</time>
      </trkpt>
      <trkpt lat="48.69484" lon="2.46949">
        <ele>85</ele>
        <time>2022-11-15T12:55:52.561Z</time>
      </trkpt>
      <trkpt lat="48.69506" lon="2.46958">
        <ele>84</ele>
        <time>2022-11-15T12:55:57.552Z</time>
      </trkpt>
      <trkpt lat="48.69527" lon="2.46964">
        <ele>84</ele>
        <time>2022-11-15T12:56:02.570Z</time>
      </trkpt>
      <trkpt lat="48.69548" lon="2.46963">
        <ele>84</ele>
        <time>2022-11-15T12:56:07.569Z</time>
      </trkpt>
      <trkpt lat="48.69569" lon="2.46969">
        <ele>84</ele>
        <time>2022-11-15T12:56:12.555Z</time>
      </trkpt>
      <trkpt lat="48.69586" lon="2.46977">
        <ele>83</ele>
        <time>2022-11-15T12:56:16.561Z</time>
      </trkpt>
      <trkpt lat="48.69606" lon="2.46983">
        <ele>83</ele>
        <time>2022-11-15T12:56:21.551Z</time>
      </trkpt>
      <trkpt lat="48.69628" lon="2.46993">
        <ele>84</ele>
        <time>2022-11-15T12:56:26.565Z</time>
      </trkpt>
      <trkpt lat="48.69647" lon="2.47">
        <ele>84</ele>
        <time>2022-11-15T12:56:31.554Z</time>
      </trkpt>
      <trkpt lat="48.69661" lon="2.47007">
        <ele>83</ele>
        <time>2022-11-15T12:56:35.559Z</time>
      </trkpt>
      <trkpt lat="48.69682" lon="2.47021">
        <ele>84</ele>
        <time>2022-11-15T12:56:40.573Z</time>
      </trkpt>
      <trkpt lat="48.69705" lon="2.4703">
        <ele>84</ele>
        <time>2022-11-15T12:56:45.560Z</time>
      </trkpt>
      <trkpt lat="48.6973" lon="2.4704">
        <ele>82</ele>
        <time>2022-11-15T12:56:50.554Z</time>
      </trkpt>
      <trkpt lat="48.69756" lon="2.4705">
        <ele>79</ele>
        <time>2022-11-15T12:56:55.565Z</time>
      </trkpt>
      <trkpt lat="48.69782" lon="2.4706">
        <ele>79</ele>
        <time>2022-11-15T12:57:00.562Z</time>
      </trkpt>
      <trkpt lat="48.69801" lon="2.47067">
        <ele>80</ele>
        <time>2022-11-15T12:57:04.575Z</time>
      </trkpt>
      <trkpt lat="48.69821" lon="2.47072">
        <ele>79</ele>
        <time>2022-11-15T12:57:09.578Z</time>
      </trkpt>
      <trkpt lat="48.69826" lon="2.47077">
        <ele>79</ele>
        <time>2022-11-15T12:57:14.574Z</time>
      </trkpt>
      <trkpt lat="48.69834" lon="2.47062">
        <ele>79</ele>
        <time>2022-11-15T12:57:18.600Z</time>
      </trkpt>
      <trkpt lat="48.69841" lon="2.47071">
        <ele>79</ele>
      </trkpt>
      <trkpt lat="48.69845" lon="2.47077">
        <ele>79</ele>
      </trkpt>
      <trkpt lat="48.69884" lon="2.47007">
        <ele>78</ele>
      </trkpt>
      <trkpt lat="48.699" lon="2.46977">
        <ele>78</ele>
      </trkpt>
      <trkpt lat="48.69905" lon="2.46989">
        <ele>76</ele>
      </trkpt>
      <trkpt lat="48.69907" lon="2.46997">
        <ele>76</ele>
      </trkpt>
      <trkpt lat="48.69919" lon="2.47081">
        <ele>73</ele>
      </trkpt>
      <trkpt lat="48.69935" lon="2.47205">
        <ele>74</ele>
      </trkpt>
      <trkpt lat="48.6995" lon="2.47319">
        <ele>77</ele>
      </trkpt>
      <trkpt lat="48.69956" lon="2.47361">
        <ele>78</ele>
      </trkpt>
      <trkpt lat="48.69958" lon="2.47379">
        <ele>78</ele>
      </trkpt>
      <trkpt lat="48.69966" lon="2.47444">
        <ele>79</ele>
      </trkpt>
      <trkpt lat="48.69976" lon="2.47517">
        <ele>81</ele>
      </trkpt>
      <trkpt lat="48.69979" lon="2.47542">
        <ele>81</ele>
      </trkpt>
      <trkpt lat="48.69991" lon="2.47632">
        <ele>81</ele>
      </trkpt>
      <trkpt lat="48.69994" lon="2.47656">
        <ele>81</ele>
      </trkpt>
      <trkpt lat="48.69996" lon="2.47685">
        <ele>81</ele>
      </trkpt>
      <trkpt lat="48.70006" lon="2.47759">
        <ele>82</ele>
      </trkpt>
      <trkpt lat="48.70007" lon="2.47768">
        <ele>82</ele>
      </trkpt>
      <trkpt lat="48.70013" lon="2.47809">
        <ele>83</ele>
      </trkpt>
      <trkpt lat="48.70015" lon="2.47821">
        <ele>84</ele>
      </trkpt>
      <trkpt lat="48.70027" lon="2.47907">
        <ele>82</ele>
      </trkpt>
      <trkpt lat="48.70033" lon="2.47968">
        <ele>83</ele>
      </trkpt>
      <trkpt lat="48.70051" lon="2.48105">
        <ele>83</ele>
      </trkpt>
      <trkpt lat="48.70058" lon="2.48151">
        <ele>82</ele>
      </trkpt>
      <trkpt lat="48.70065" lon="2.48206">
        <ele>82</ele>
      </trkpt>
      <trkpt lat="48.70067" lon="2.48215">
        <ele>82</ele>
      </trkpt>
      <trkpt lat="48.70068" lon="2.48234">
        <ele>82</ele>
      </trkpt>
      <trkpt lat="48.70087" lon="2.48377">
        <ele>82</ele>
      </trkpt>
      <trkpt lat="48.70095" lon="2.48438">
        <ele>84</ele>
      </trkpt>
      <trkpt lat="48.70097" lon="2.48449">
        <ele>84</ele>
      </trkpt>
      <trkpt lat="48.70104" lon="2.48503">
        <ele>82</ele>
      </trkpt>
      <trkpt lat="48.70107" lon="2.48515">
        <ele>82</ele>
      </trkpt>
      <trkpt lat="48.70116" lon="2.48583">
        <ele>82</ele>
      </trkpt>
      <trkpt lat="48.70121" lon="2.48619">
        <ele>82</ele>
      </trkpt>
      <trkpt lat="48.70122" lon="2.48628">
        <ele>81</ele>
      </trkpt>
      <trkpt lat="48.70122" lon="2.48628">
        <ele>81</ele>
      </trkpt>
      <trkpt lat="48.70122" lon="2.48633">
        <ele>81</ele>
      </trkpt>
      <trkpt lat="48.70126" lon="2.48632">
        <ele>81</ele>
      </trkpt>
      <trkpt lat="48.70132" lon="2.48633">
        <ele>81</ele>
      </trkpt>
      <trkpt lat="48.70136" lon="2.48634">
        <ele>81</ele>
      </trkpt>
      <trkpt lat="48.7014" lon="2.48638">
        <ele>81</ele>
      </trkpt>
      <trkpt lat="48.70144" lon="2.48643">
        <ele>81</ele>
      </trkpt>
      <trkpt lat="48.70147" lon="2.48649">
        <ele>81</ele>
      </trkpt>
      <trkpt lat="48.70149" lon="2.48655">
        <ele>81</ele>
      </trkpt>
      <trkpt lat="48.7015" lon="2.48663">
        <ele>81</ele>
      </trkpt>
      <trkpt lat="48.70151" lon="2.48669">
        <ele>81</ele>
      </trkpt>
      <trkpt lat="48.70151" lon="2.48675">
        <ele>81</ele>
      </trkpt>
      <trkpt lat="48.7019" lon="2.48682">
        <ele>81</ele>
      </trkpt>
      <trkpt lat="48.70205" lon="2.48685">
        <ele>81</ele>
      </trkpt>
      <trkpt lat="48.70229" lon="2.48689">
        <ele>81</ele>
      </trkpt>
      <trkpt lat="48.70276" lon="2.48697">
        <ele>83</ele>
      </trkpt>
      <trkpt lat="48.70302" lon="2.48703">
        <ele>82</ele>
      </trkpt>
      <trkpt lat="48.70311" lon="2.48705">
        <ele>82</ele>
      </trkpt>
      <trkpt lat="48.70323" lon="2.48712">
        <ele>81</ele>
      </trkpt>
      <trkpt lat="48.70334" lon="2.48721">
        <ele>81</ele>
      </trkpt>
      <trkpt lat="48.70353" lon="2.48737">
        <ele>80</ele>
      </trkpt>
      <trkpt lat="48.70362" lon="2.48752">
        <ele>80</ele>
      </trkpt>
      <trkpt lat="48.70363" lon="2.48751">
        <ele>80</ele>
      </trkpt>
      <trkpt lat="48.70364" lon="2.4875">
        <ele>80</ele>
      </trkpt>
      <trkpt lat="48.70366" lon="2.48749">
        <ele>80</ele>
      </trkpt>
      <trkpt lat="48.70368" lon="2.48749">
        <ele>80</ele>
      </trkpt>
      <trkpt lat="48.70369" lon="2.48749">
        <ele>80</ele>
      </trkpt>
      <trkpt lat="48.70371" lon="2.4875">
        <ele>80</ele>
      </trkpt>
      <trkpt lat="48.70372" lon="2.48751">
        <ele>80</ele>
      </trkpt>
      <trkpt lat="48.70374" lon="2.48752">
        <ele>80</ele>
      </trkpt>
      <trkpt lat="48.70375" lon="2.48755">
        <ele>80</ele>
      </trkpt>
      <trkpt lat="48.70375" lon="2.48757">
        <ele>80</ele>
      </trkpt>
      <trkpt lat="48.70376" lon="2.48759">
        <ele>80</ele>
      </trkpt>
      <trkpt lat="48.70376" lon="2.48762">
        <ele>80</ele>
      </trkpt>
      <trkpt lat="48.70407" lon="2.48768">
        <ele>79</ele>
      </trkpt>
      <trkpt lat="48.70483" lon="2.48784">
        <ele>74</ele>
      </trkpt>
      <trkpt lat="48.70496" lon="2.48787">
        <ele>75</ele>
      </trkpt>
      <trkpt lat="48.70528" lon="2.48795">
        <ele>75</ele>
      </trkpt>
      <trkpt lat="48.7058" lon="2.48808">
        <ele>70</ele>
      </trkpt>
      <trkpt lat="48.70653" lon="2.48809">
        <ele>58</ele>
      </trkpt>
      <trkpt lat="48.70658" lon="2.48808">
        <ele>58</ele>
      </trkpt>
      <trkpt lat="48.70675" lon="2.48808">
        <ele>58</ele>
      </trkpt>
      <trkpt lat="48.70692" lon="2.48808">
        <ele>53</ele>
      </trkpt>
      <trkpt lat="48.70714" lon="2.48807">
        <ele>54</ele>
      </trkpt>
      <trkpt lat="48.7072" lon="2.48808">
        <ele>54</ele>
      </trkpt>
      <trkpt lat="48.7076" lon="2.48809">
        <ele>56</ele>
      </trkpt>
      <trkpt lat="48.70775" lon="2.4881">
        <ele>57</ele>
      </trkpt>
      <trkpt lat="48.70797" lon="2.48814">
        <ele>57</ele>
      </trkpt>
      <trkpt lat="48.7084" lon="2.48826">
        <ele>55</ele>
      </trkpt>
      <trkpt lat="48.70851" lon="2.48829">
        <ele>55</ele>
      </trkpt>
      <trkpt lat="48.70875" lon="2.48841">
        <ele>54</ele>
      </trkpt>
      <trkpt lat="48.70881" lon="2.48844">
        <ele>54</ele>
      </trkpt>
      <trkpt lat="48.70903" lon="2.48854">
        <ele>53</ele>
      </trkpt>
      <trkpt lat="48.70925" lon="2.48865">
        <ele>53</ele>
      </trkpt>
      <trkpt lat="48.70936" lon="2.48869">
        <ele>51</ele>
      </trkpt>
      <trkpt lat="48.70969" lon="2.48871">
        <ele>52</ele>
      </trkpt>
      <trkpt lat="48.70982" lon="2.48872">
        <ele>52</ele>
      </trkpt>
      <trkpt lat="48.70997" lon="2.48871">
        <ele>52</ele>
      </trkpt>
      <trkpt lat="48.71007" lon="2.48869">
        <ele>52</ele>
      </trkpt>
      <trkpt lat="48.71025" lon="2.48866">
        <ele>51</ele>
      </trkpt>
      <trkpt lat="48.71038" lon="2.48864">
        <ele>51</ele>
      </trkpt>
      <trkpt lat="48.71057" lon="2.48859">
        <ele>49</ele>
      </trkpt>
      <trkpt lat="48.71065" lon="2.48854">
        <ele>49</ele>
      </trkpt>
      <trkpt lat="48.71073" lon="2.48848">
        <ele>49</ele>
      </trkpt>
      <trkpt lat="48.71075" lon="2.48847">
        <ele>48</ele>
      </trkpt>
      <trkpt lat="48.7108" lon="2.48844">
        <ele>48</ele>
      </trkpt>
      <trkpt lat="48.71086" lon="2.48845">
        <ele>48</ele>
      </trkpt>
      <trkpt lat="48.71105" lon="2.48844">
        <ele>49</ele>
      </trkpt>
      <trkpt lat="48.71119" lon="2.48842">
        <ele>49</ele>
      </trkpt>
      <trkpt lat="48.71129" lon="2.48841">
        <ele>49</ele>
      </trkpt>
      <trkpt lat="48.71143" lon="2.48834">
        <ele>49</ele>
      </trkpt>
      <trkpt lat="48.71175" lon="2.48818">
        <ele>47</ele>
      </trkpt>
      <trkpt lat="48.712" lon="2.48806">
        <ele>46</ele>
      </trkpt>
      <trkpt lat="48.71219" lon="2.48798">
        <ele>46</ele>
      </trkpt>
      <trkpt lat="48.71219" lon="2.48797">
        <ele>46</ele>
      </trkpt>
    </trkseg>
  </trk>
</gpx>